<?xml version="1.0" encoding="UTF-8" standalone="no" ?>
<gpx xmlns="http://www.topografix.com/GPX/1/1" xmlns:xsi="http://www.w3.org/2001/XMLSchema-instance" xsi:schemaLocation="http://www.topografix.com/GPX/1/1 http://www.topografix.com/GPX/1/1/gpx.xsd" version="1.1" creator="VisuGPX - https://www.visugpx.com">
  <metadata>
    <name>ete 2016 etape25</name>
    <desc><![CDATA[ete 2016 etape25]]></desc>
  </metadata>
  <trk>
    <name><![CDATA[2016-06-25 07:28:24]]></name>
    <trkseg>
      <trkpt lat="49.45222" lon="2.09731">
        <ele>118.38</ele>
        <time>2016-06-24T06:11:38Z</time>
      </trkpt>
      <trkpt lat="49.45218" lon="2.09723">
        <ele>108.77</ele>
        <time>2016-06-24T06:11:48Z</time>
      </trkpt>
      <trkpt lat="49.45212" lon="2.09732">
        <ele>105.88</ele>
        <time>2016-06-24T06:11:54Z</time>
      </trkpt>
      <trkpt lat="49.45187" lon="2.09784">
        <ele>107.32</ele>
        <time>2016-06-24T06:12:10Z</time>
      </trkpt>
      <trkpt lat="49.45169" lon="2.09827">
        <ele>108.29</ele>
        <time>2016-06-24T06:12:39Z</time>
      </trkpt>
      <trkpt lat="49.45138" lon="2.09833">
        <ele>107.32</ele>
        <time>2016-06-24T06:12:50Z</time>
      </trkpt>
      <trkpt lat="49.45089" lon="2.09793">
        <ele>107.32</ele>
        <time>2016-06-24T06:13:04Z</time>
      </trkpt>
      <trkpt lat="49.45022" lon="2.0974">
        <ele>104.44</ele>
        <time>2016-06-24T06:13:22Z</time>
      </trkpt>
      <trkpt lat="49.44975" lon="2.09702">
        <ele>105.88</ele>
        <time>2016-06-24T06:13:34Z</time>
      </trkpt>
      <trkpt lat="49.44901" lon="2.09642">
        <ele>104.44</ele>
        <time>2016-06-24T06:13:51Z</time>
      </trkpt>
      <trkpt lat="49.44832" lon="2.09586">
        <ele>103</ele>
        <time>2016-06-24T06:14:09Z</time>
      </trkpt>
      <trkpt lat="49.44789" lon="2.09552">
        <ele>102.52</ele>
        <time>2016-06-24T06:14:20Z</time>
      </trkpt>
      <trkpt lat="49.44737" lon="2.09514">
        <ele>102.52</ele>
        <time>2016-06-24T06:14:34Z</time>
      </trkpt>
      <trkpt lat="49.44684" lon="2.09472">
        <ele>102.52</ele>
        <time>2016-06-24T06:14:49Z</time>
      </trkpt>
      <trkpt lat="49.44636" lon="2.09433">
        <ele>103</ele>
        <time>2016-06-24T06:15:03Z</time>
      </trkpt>
      <trkpt lat="49.44574" lon="2.09386">
        <ele>102.04</ele>
        <time>2016-06-24T06:15:21Z</time>
      </trkpt>
      <trkpt lat="49.44553" lon="2.09369">
        <ele>102.04</ele>
        <time>2016-06-24T06:15:32Z</time>
      </trkpt>
      <trkpt lat="49.44516" lon="2.09342">
        <ele>101.08</ele>
        <time>2016-06-24T06:15:46Z</time>
      </trkpt>
      <trkpt lat="49.44458" lon="2.09299">
        <ele>102.52</ele>
        <time>2016-06-24T06:16:04Z</time>
      </trkpt>
      <trkpt lat="49.44416" lon="2.09265">
        <ele>103.48</ele>
        <time>2016-06-24T06:16:18Z</time>
      </trkpt>
      <trkpt lat="49.44378" lon="2.09236">
        <ele>103.96</ele>
        <time>2016-06-24T06:16:31Z</time>
      </trkpt>
      <trkpt lat="49.4434" lon="2.09206">
        <ele>103.96</ele>
        <time>2016-06-24T06:16:45Z</time>
      </trkpt>
      <trkpt lat="49.44311" lon="2.09184">
        <ele>103</ele>
        <time>2016-06-24T06:16:59Z</time>
      </trkpt>
      <trkpt lat="49.4431" lon="2.09181">
        <ele>101.56</ele>
        <time>2016-06-24T06:17:22Z</time>
      </trkpt>
      <trkpt lat="49.44296" lon="2.09172">
        <ele>102.52</ele>
        <time>2016-06-24T06:17:41Z</time>
      </trkpt>
      <trkpt lat="49.4426" lon="2.09142">
        <ele>103.96</ele>
        <time>2016-06-24T06:17:56Z</time>
      </trkpt>
      <trkpt lat="49.44223" lon="2.09114">
        <ele>103.96</ele>
        <time>2016-06-24T06:18:09Z</time>
      </trkpt>
      <trkpt lat="49.44172" lon="2.09078">
        <ele>104.92</ele>
        <time>2016-06-24T06:18:24Z</time>
      </trkpt>
      <trkpt lat="49.44115" lon="2.09032">
        <ele>104.92</ele>
        <time>2016-06-24T06:18:42Z</time>
      </trkpt>
      <trkpt lat="49.44054" lon="2.08985">
        <ele>105.4</ele>
        <time>2016-06-24T06:19:00Z</time>
      </trkpt>
      <trkpt lat="49.44006" lon="2.08945">
        <ele>104.92</ele>
        <time>2016-06-24T06:19:14Z</time>
      </trkpt>
      <trkpt lat="49.4397" lon="2.0892">
        <ele>106.84</ele>
        <time>2016-06-24T06:19:25Z</time>
      </trkpt>
      <trkpt lat="49.4389" lon="2.08867">
        <ele>106.84</ele>
        <time>2016-06-24T06:19:43Z</time>
      </trkpt>
      <trkpt lat="49.43836" lon="2.08829">
        <ele>102.04</ele>
        <time>2016-06-24T06:19:58Z</time>
      </trkpt>
      <trkpt lat="49.43786" lon="2.08791">
        <ele>97.23</ele>
        <time>2016-06-24T06:20:12Z</time>
      </trkpt>
      <trkpt lat="49.43742" lon="2.08761">
        <ele>93.39</ele>
        <time>2016-06-24T06:20:24Z</time>
      </trkpt>
      <trkpt lat="49.43704" lon="2.08733">
        <ele>88.58</ele>
        <time>2016-06-24T06:20:38Z</time>
      </trkpt>
      <trkpt lat="49.43665" lon="2.08709">
        <ele>86.18</ele>
        <time>2016-06-24T06:20:52Z</time>
      </trkpt>
      <trkpt lat="49.4366" lon="2.08706">
        <ele>86.18</ele>
        <time>2016-06-24T06:21:06Z</time>
      </trkpt>
      <trkpt lat="49.43639" lon="2.08696">
        <ele>84.73</ele>
        <time>2016-06-24T06:21:17Z</time>
      </trkpt>
      <trkpt lat="49.43591" lon="2.0866">
        <ele>85.21</ele>
        <time>2016-06-24T06:21:29Z</time>
      </trkpt>
      <trkpt lat="49.43566" lon="2.08642">
        <ele>87.14</ele>
        <time>2016-06-24T06:21:40Z</time>
      </trkpt>
      <trkpt lat="49.4356" lon="2.08637">
        <ele>83.77</ele>
        <time>2016-06-24T06:21:53Z</time>
      </trkpt>
      <trkpt lat="49.4356" lon="2.08637">
        <ele>83.77</ele>
        <time>2016-06-24T06:22:14Z</time>
      </trkpt>
      <trkpt lat="49.43559" lon="2.08635">
        <ele>83.77</ele>
        <time>2016-06-24T06:22:20Z</time>
      </trkpt>
      <trkpt lat="49.43559" lon="2.08633">
        <ele>83.77</ele>
        <time>2016-06-24T06:22:21Z</time>
      </trkpt>
      <trkpt lat="49.43557" lon="2.08631">
        <ele>83.77</ele>
        <time>2016-06-24T06:22:23Z</time>
      </trkpt>
      <trkpt lat="49.43533" lon="2.08624">
        <ele>79.45</ele>
        <time>2016-06-24T06:22:33Z</time>
      </trkpt>
      <trkpt lat="49.43502" lon="2.08606">
        <ele>76.08</ele>
        <time>2016-06-24T06:22:45Z</time>
      </trkpt>
      <trkpt lat="49.43478" lon="2.0859">
        <ele>73.68</ele>
        <time>2016-06-24T06:22:56Z</time>
      </trkpt>
      <trkpt lat="49.43447" lon="2.0857">
        <ele>72.72</ele>
        <time>2016-06-24T06:23:07Z</time>
      </trkpt>
      <trkpt lat="49.4341" lon="2.08545">
        <ele>72.24</ele>
        <time>2016-06-24T06:23:19Z</time>
      </trkpt>
      <trkpt lat="49.43369" lon="2.08514">
        <ele>71.27</ele>
        <time>2016-06-24T06:23:33Z</time>
      </trkpt>
      <trkpt lat="49.43361" lon="2.0851">
        <ele>70.79</ele>
        <time>2016-06-24T06:23:46Z</time>
      </trkpt>
      <trkpt lat="49.43353" lon="2.08503">
        <ele>72.72</ele>
        <time>2016-06-24T06:23:59Z</time>
      </trkpt>
      <trkpt lat="49.43317" lon="2.08482">
        <ele>78</ele>
        <time>2016-06-24T06:24:12Z</time>
      </trkpt>
      <trkpt lat="49.43289" lon="2.08462">
        <ele>79.45</ele>
        <time>2016-06-24T06:24:23Z</time>
      </trkpt>
      <trkpt lat="49.43251" lon="2.08439">
        <ele>77.04</ele>
        <time>2016-06-24T06:24:38Z</time>
      </trkpt>
      <trkpt lat="49.43242" lon="2.08435">
        <ele>76.08</ele>
        <time>2016-06-24T06:24:52Z</time>
      </trkpt>
      <trkpt lat="49.43242" lon="2.08433">
        <ele>76.08</ele>
        <time>2016-06-24T06:24:53Z</time>
      </trkpt>
      <trkpt lat="49.43242" lon="2.08431">
        <ele>76.08</ele>
        <time>2016-06-24T06:24:55Z</time>
      </trkpt>
      <trkpt lat="49.43242" lon="2.08429">
        <ele>76.56</ele>
        <time>2016-06-24T06:24:56Z</time>
      </trkpt>
      <trkpt lat="49.43242" lon="2.08426">
        <ele>77.52</ele>
        <time>2016-06-24T06:24:57Z</time>
      </trkpt>
      <trkpt lat="49.43243" lon="2.0842">
        <ele>78.48</ele>
        <time>2016-06-24T06:24:59Z</time>
      </trkpt>
      <trkpt lat="49.43243" lon="2.08416">
        <ele>78.97</ele>
        <time>2016-06-24T06:25:00Z</time>
      </trkpt>
      <trkpt lat="49.43259" lon="2.08379">
        <ele>79.45</ele>
        <time>2016-06-24T06:25:14Z</time>
      </trkpt>
      <trkpt lat="49.4325" lon="2.0836">
        <ele>77.52</ele>
        <time>2016-06-24T06:25:41Z</time>
      </trkpt>
      <trkpt lat="49.43251" lon="2.08353">
        <ele>82.33</ele>
        <time>2016-06-24T06:26:09Z</time>
      </trkpt>
      <trkpt lat="49.43255" lon="2.08352">
        <ele>84.73</ele>
        <time>2016-06-24T06:26:31Z</time>
      </trkpt>
      <trkpt lat="49.43256" lon="2.08347">
        <ele>83.29</ele>
        <time>2016-06-24T06:26:44Z</time>
      </trkpt>
      <trkpt lat="49.43261" lon="2.08335">
        <ele>81.37</ele>
        <time>2016-06-24T06:26:58Z</time>
      </trkpt>
      <trkpt lat="49.43264" lon="2.0834">
        <ele>77.52</ele>
        <time>2016-06-24T06:27:12Z</time>
      </trkpt>
      <trkpt lat="49.43263" lon="2.08338">
        <ele>78.48</ele>
        <time>2016-06-24T06:27:38Z</time>
      </trkpt>
      <trkpt lat="49.43262" lon="2.08337">
        <ele>82.33</ele>
        <time>2016-06-24T06:28:08Z</time>
      </trkpt>
      <trkpt lat="49.43262" lon="2.08337">
        <ele>82.81</ele>
        <time>2016-06-24T06:28:34Z</time>
      </trkpt>
      <trkpt lat="49.4326" lon="2.08339">
        <ele>81.85</ele>
        <time>2016-06-24T06:28:58Z</time>
      </trkpt>
      <trkpt lat="49.43263" lon="2.08339">
        <ele>79.45</ele>
        <time>2016-06-24T06:29:21Z</time>
      </trkpt>
      <trkpt lat="49.43264" lon="2.08338">
        <ele>78.97</ele>
        <time>2016-06-24T06:29:49Z</time>
      </trkpt>
      <trkpt lat="49.43262" lon="2.08343">
        <ele>80.89</ele>
        <time>2016-06-24T06:30:18Z</time>
      </trkpt>
      <trkpt lat="49.43261" lon="2.08343">
        <ele>79.45</ele>
        <time>2016-06-24T06:30:44Z</time>
      </trkpt>
      <trkpt lat="49.4326" lon="2.08341">
        <ele>78.48</ele>
        <time>2016-06-24T06:31:10Z</time>
      </trkpt>
      <trkpt lat="49.43258" lon="2.08343">
        <ele>81.85</ele>
        <time>2016-06-24T06:31:31Z</time>
      </trkpt>
      <trkpt lat="49.43259" lon="2.0834">
        <ele>84.25</ele>
        <time>2016-06-24T06:31:58Z</time>
      </trkpt>
      <trkpt lat="49.4326" lon="2.0834">
        <ele>82.81</ele>
        <time>2016-06-24T06:32:20Z</time>
      </trkpt>
      <trkpt lat="49.43262" lon="2.08339">
        <ele>79.45</ele>
        <time>2016-06-24T06:32:48Z</time>
      </trkpt>
      <trkpt lat="49.43258" lon="2.08336">
        <ele>82.81</ele>
        <time>2016-06-24T06:33:09Z</time>
      </trkpt>
      <trkpt lat="49.43258" lon="2.08337">
        <ele>81.37</ele>
        <time>2016-06-24T06:33:36Z</time>
      </trkpt>
      <trkpt lat="49.4326" lon="2.08335">
        <ele>83.77</ele>
        <time>2016-06-24T06:33:58Z</time>
      </trkpt>
      <trkpt lat="49.43261" lon="2.08335">
        <ele>81.37</ele>
        <time>2016-06-24T06:34:21Z</time>
      </trkpt>
      <trkpt lat="49.43258" lon="2.08337">
        <ele>82.33</ele>
        <time>2016-06-24T06:34:50Z</time>
      </trkpt>
      <trkpt lat="49.43258" lon="2.08339">
        <ele>78</ele>
        <time>2016-06-24T06:35:04Z</time>
      </trkpt>
      <trkpt lat="49.43256" lon="2.08341">
        <ele>78</ele>
        <time>2016-06-24T06:35:08Z</time>
      </trkpt>
      <trkpt lat="49.43255" lon="2.08342">
        <ele>78</ele>
        <time>2016-06-24T06:35:09Z</time>
      </trkpt>
      <trkpt lat="49.43254" lon="2.08343">
        <ele>78</ele>
        <time>2016-06-24T06:35:10Z</time>
      </trkpt>
      <trkpt lat="49.43251" lon="2.08344">
        <ele>77.52</ele>
        <time>2016-06-24T06:35:12Z</time>
      </trkpt>
      <trkpt lat="49.43223" lon="2.08324">
        <ele>77.04</ele>
        <time>2016-06-24T06:35:26Z</time>
      </trkpt>
      <trkpt lat="49.43203" lon="2.08309">
        <ele>77.52</ele>
        <time>2016-06-24T06:35:35Z</time>
      </trkpt>
      <trkpt lat="49.43201" lon="2.0831">
        <ele>77.52</ele>
        <time>2016-06-24T06:35:36Z</time>
      </trkpt>
      <trkpt lat="49.43199" lon="2.08312">
        <ele>77.04</ele>
        <time>2016-06-24T06:35:37Z</time>
      </trkpt>
      <trkpt lat="49.43198" lon="2.08315">
        <ele>77.04</ele>
        <time>2016-06-24T06:35:38Z</time>
      </trkpt>
      <trkpt lat="49.43197" lon="2.08319">
        <ele>77.04</ele>
        <time>2016-06-24T06:35:39Z</time>
      </trkpt>
      <trkpt lat="49.43196" lon="2.08322">
        <ele>77.04</ele>
        <time>2016-06-24T06:35:40Z</time>
      </trkpt>
      <trkpt lat="49.43194" lon="2.08325">
        <ele>77.04</ele>
        <time>2016-06-24T06:35:41Z</time>
      </trkpt>
      <trkpt lat="49.43193" lon="2.08328">
        <ele>77.04</ele>
        <time>2016-06-24T06:35:42Z</time>
      </trkpt>
      <trkpt lat="49.43167" lon="2.08381">
        <ele>76.08</ele>
        <time>2016-06-24T06:35:59Z</time>
      </trkpt>
      <trkpt lat="49.43157" lon="2.08389">
        <ele>74.16</ele>
        <time>2016-06-24T06:36:05Z</time>
      </trkpt>
      <trkpt lat="49.43156" lon="2.08388">
        <ele>74.16</ele>
        <time>2016-06-24T06:36:06Z</time>
      </trkpt>
      <trkpt lat="49.43154" lon="2.08387">
        <ele>74.16</ele>
        <time>2016-06-24T06:36:07Z</time>
      </trkpt>
      <trkpt lat="49.43125" lon="2.08374">
        <ele>75.12</ele>
        <time>2016-06-24T06:36:20Z</time>
      </trkpt>
      <trkpt lat="49.43123" lon="2.08375">
        <ele>75.12</ele>
        <time>2016-06-24T06:36:21Z</time>
      </trkpt>
      <trkpt lat="49.43121" lon="2.08376">
        <ele>75.12</ele>
        <time>2016-06-24T06:36:22Z</time>
      </trkpt>
      <trkpt lat="49.43119" lon="2.08378">
        <ele>75.12</ele>
        <time>2016-06-24T06:36:23Z</time>
      </trkpt>
      <trkpt lat="49.43117" lon="2.0838">
        <ele>75.12</ele>
        <time>2016-06-24T06:36:24Z</time>
      </trkpt>
      <trkpt lat="49.43115" lon="2.08383">
        <ele>75.12</ele>
        <time>2016-06-24T06:36:25Z</time>
      </trkpt>
      <trkpt lat="49.43114" lon="2.08386">
        <ele>74.64</ele>
        <time>2016-06-24T06:36:26Z</time>
      </trkpt>
      <trkpt lat="49.43114" lon="2.0839">
        <ele>74.64</ele>
        <time>2016-06-24T06:36:27Z</time>
      </trkpt>
      <trkpt lat="49.43113" lon="2.08394">
        <ele>74.16</ele>
        <time>2016-06-24T06:36:28Z</time>
      </trkpt>
      <trkpt lat="49.43112" lon="2.08397">
        <ele>73.68</ele>
        <time>2016-06-24T06:36:29Z</time>
      </trkpt>
      <trkpt lat="49.43094" lon="2.08446">
        <ele>70.79</ele>
        <time>2016-06-24T06:36:42Z</time>
      </trkpt>
      <trkpt lat="49.43094" lon="2.08445">
        <ele>72.24</ele>
        <time>2016-06-24T06:37:05Z</time>
      </trkpt>
      <trkpt lat="49.43082" lon="2.08466">
        <ele>73.68</ele>
        <time>2016-06-24T06:37:20Z</time>
      </trkpt>
      <trkpt lat="49.43066" lon="2.0853">
        <ele>72.24</ele>
        <time>2016-06-24T06:37:32Z</time>
      </trkpt>
      <trkpt lat="49.43064" lon="2.08536">
        <ele>72.24</ele>
        <time>2016-06-24T06:37:33Z</time>
      </trkpt>
      <trkpt lat="49.43062" lon="2.08541">
        <ele>71.76</ele>
        <time>2016-06-24T06:37:34Z</time>
      </trkpt>
      <trkpt lat="49.43057" lon="2.08559">
        <ele>71.76</ele>
        <time>2016-06-24T06:37:37Z</time>
      </trkpt>
      <trkpt lat="49.43055" lon="2.08565">
        <ele>71.76</ele>
        <time>2016-06-24T06:37:38Z</time>
      </trkpt>
      <trkpt lat="49.43053" lon="2.0857">
        <ele>71.27</ele>
        <time>2016-06-24T06:37:39Z</time>
      </trkpt>
      <trkpt lat="49.4305" lon="2.08575">
        <ele>71.27</ele>
        <time>2016-06-24T06:37:40Z</time>
      </trkpt>
      <trkpt lat="49.43047" lon="2.0858">
        <ele>70.79</ele>
        <time>2016-06-24T06:37:41Z</time>
      </trkpt>
      <trkpt lat="49.43044" lon="2.08585">
        <ele>70.31</ele>
        <time>2016-06-24T06:37:42Z</time>
      </trkpt>
      <trkpt lat="49.43041" lon="2.0859">
        <ele>69.83</ele>
        <time>2016-06-24T06:37:43Z</time>
      </trkpt>
      <trkpt lat="49.43033" lon="2.08613">
        <ele>69.83</ele>
        <time>2016-06-24T06:37:47Z</time>
      </trkpt>
      <trkpt lat="49.43031" lon="2.08618">
        <ele>69.83</ele>
        <time>2016-06-24T06:37:48Z</time>
      </trkpt>
      <trkpt lat="49.43004" lon="2.08704">
        <ele>66.95</ele>
        <time>2016-06-24T06:38:05Z</time>
      </trkpt>
      <trkpt lat="49.42979" lon="2.08777">
        <ele>65.99</ele>
        <time>2016-06-24T06:38:20Z</time>
      </trkpt>
      <trkpt lat="49.42959" lon="2.08845">
        <ele>66.95</ele>
        <time>2016-06-24T06:38:34Z</time>
      </trkpt>
      <trkpt lat="49.4294" lon="2.08898">
        <ele>67.43</ele>
        <time>2016-06-24T06:38:45Z</time>
      </trkpt>
      <trkpt lat="49.42919" lon="2.0895">
        <ele>67.43</ele>
        <time>2016-06-24T06:38:59Z</time>
      </trkpt>
      <trkpt lat="49.42912" lon="2.08981">
        <ele>67.43</ele>
        <time>2016-06-24T06:39:07Z</time>
      </trkpt>
      <trkpt lat="49.42913" lon="2.08983">
        <ele>67.43</ele>
        <time>2016-06-24T06:39:08Z</time>
      </trkpt>
      <trkpt lat="49.42915" lon="2.08985">
        <ele>67.43</ele>
        <time>2016-06-24T06:39:09Z</time>
      </trkpt>
      <trkpt lat="49.42917" lon="2.08989">
        <ele>66.95</ele>
        <time>2016-06-24T06:39:11Z</time>
      </trkpt>
      <trkpt lat="49.42919" lon="2.09003">
        <ele>66.47</ele>
        <time>2016-06-24T06:39:17Z</time>
      </trkpt>
      <trkpt lat="49.42921" lon="2.09005">
        <ele>66.47</ele>
        <time>2016-06-24T06:39:18Z</time>
      </trkpt>
      <trkpt lat="49.42922" lon="2.09007">
        <ele>66.47</ele>
        <time>2016-06-24T06:39:19Z</time>
      </trkpt>
      <trkpt lat="49.42924" lon="2.09009">
        <ele>66.47</ele>
        <time>2016-06-24T06:39:20Z</time>
      </trkpt>
      <trkpt lat="49.42926" lon="2.09011">
        <ele>66.47</ele>
        <time>2016-06-24T06:39:21Z</time>
      </trkpt>
      <trkpt lat="49.42949" lon="2.09031">
        <ele>65.99</ele>
        <time>2016-06-24T06:39:34Z</time>
      </trkpt>
      <trkpt lat="49.42972" lon="2.09055">
        <ele>64.07</ele>
        <time>2016-06-24T06:39:46Z</time>
      </trkpt>
      <trkpt lat="49.4298" lon="2.09063">
        <ele>65.03</ele>
        <time>2016-06-24T06:39:50Z</time>
      </trkpt>
      <trkpt lat="49.42982" lon="2.09064">
        <ele>65.03</ele>
        <time>2016-06-24T06:39:51Z</time>
      </trkpt>
      <trkpt lat="49.42984" lon="2.09066">
        <ele>65.03</ele>
        <time>2016-06-24T06:39:52Z</time>
      </trkpt>
      <trkpt lat="49.42985" lon="2.09067">
        <ele>64.55</ele>
        <time>2016-06-24T06:39:53Z</time>
      </trkpt>
      <trkpt lat="49.42987" lon="2.09069">
        <ele>65.03</ele>
        <time>2016-06-24T06:39:54Z</time>
      </trkpt>
      <trkpt lat="49.43023" lon="2.09105">
        <ele>63.58</ele>
        <time>2016-06-24T06:40:09Z</time>
      </trkpt>
      <trkpt lat="49.43039" lon="2.09158">
        <ele>64.07</ele>
        <time>2016-06-24T06:40:21Z</time>
      </trkpt>
      <trkpt lat="49.43007" lon="2.09252">
        <ele>64.07</ele>
        <time>2016-06-24T06:40:36Z</time>
      </trkpt>
      <trkpt lat="49.42955" lon="2.09388">
        <ele>62.14</ele>
        <time>2016-06-24T06:40:56Z</time>
      </trkpt>
      <trkpt lat="49.42939" lon="2.09431">
        <ele>62.62</ele>
        <time>2016-06-24T06:41:03Z</time>
      </trkpt>
      <trkpt lat="49.42896" lon="2.09543">
        <ele>65.03</ele>
        <time>2016-06-24T06:41:24Z</time>
      </trkpt>
      <trkpt lat="49.42861" lon="2.09634">
        <ele>67.43</ele>
        <time>2016-06-24T06:41:44Z</time>
      </trkpt>
      <trkpt lat="49.42832" lon="2.09709">
        <ele>69.35</ele>
        <time>2016-06-24T06:42:02Z</time>
      </trkpt>
      <trkpt lat="49.4281" lon="2.09767">
        <ele>70.31</ele>
        <time>2016-06-24T06:42:16Z</time>
      </trkpt>
      <trkpt lat="49.42781" lon="2.09841">
        <ele>72.24</ele>
        <time>2016-06-24T06:42:33Z</time>
      </trkpt>
      <trkpt lat="49.42747" lon="2.09933">
        <ele>72.24</ele>
        <time>2016-06-24T06:42:52Z</time>
      </trkpt>
      <trkpt lat="49.42728" lon="2.09972">
        <ele>72.24</ele>
        <time>2016-06-24T06:43:03Z</time>
      </trkpt>
      <trkpt lat="49.42712" lon="2.09993">
        <ele>73.2</ele>
        <time>2016-06-24T06:43:11Z</time>
      </trkpt>
      <trkpt lat="49.42711" lon="2.09996">
        <ele>73.2</ele>
        <time>2016-06-24T06:43:12Z</time>
      </trkpt>
      <trkpt lat="49.42711" lon="2.10001">
        <ele>73.2</ele>
        <time>2016-06-24T06:43:13Z</time>
      </trkpt>
      <trkpt lat="49.42697" lon="2.10065">
        <ele>69.83</ele>
        <time>2016-06-24T06:43:26Z</time>
      </trkpt>
      <trkpt lat="49.42665" lon="2.1014">
        <ele>68.87</ele>
        <time>2016-06-24T06:43:41Z</time>
      </trkpt>
      <trkpt lat="49.4262" lon="2.10205">
        <ele>69.83</ele>
        <time>2016-06-24T06:43:58Z</time>
      </trkpt>
      <trkpt lat="49.42585" lon="2.10255">
        <ele>69.83</ele>
        <time>2016-06-24T06:44:16Z</time>
      </trkpt>
      <trkpt lat="49.42545" lon="2.10308">
        <ele>71.76</ele>
        <time>2016-06-24T06:44:36Z</time>
      </trkpt>
      <trkpt lat="49.42504" lon="2.10362">
        <ele>71.27</ele>
        <time>2016-06-24T06:44:54Z</time>
      </trkpt>
      <trkpt lat="49.42491" lon="2.10377">
        <ele>70.31</ele>
        <time>2016-06-24T06:45:09Z</time>
      </trkpt>
      <trkpt lat="49.42445" lon="2.10437">
        <ele>70.79</ele>
        <time>2016-06-24T06:45:24Z</time>
      </trkpt>
      <trkpt lat="49.424" lon="2.10494">
        <ele>70.79</ele>
        <time>2016-06-24T06:45:39Z</time>
      </trkpt>
      <trkpt lat="49.42397" lon="2.10496">
        <ele>70.79</ele>
        <time>2016-06-24T06:45:40Z</time>
      </trkpt>
      <trkpt lat="49.42379" lon="2.10519">
        <ele>71.27</ele>
        <time>2016-06-24T06:45:48Z</time>
      </trkpt>
      <trkpt lat="49.42377" lon="2.10519">
        <ele>71.27</ele>
        <time>2016-06-24T06:45:49Z</time>
      </trkpt>
      <trkpt lat="49.42375" lon="2.10518">
        <ele>70.79</ele>
        <time>2016-06-24T06:45:50Z</time>
      </trkpt>
      <trkpt lat="49.42373" lon="2.10518">
        <ele>70.79</ele>
        <time>2016-06-24T06:45:51Z</time>
      </trkpt>
      <trkpt lat="49.42372" lon="2.10519">
        <ele>70.79</ele>
        <time>2016-06-24T06:45:52Z</time>
      </trkpt>
      <trkpt lat="49.42372" lon="2.10522">
        <ele>71.27</ele>
        <time>2016-06-24T06:45:53Z</time>
      </trkpt>
      <trkpt lat="49.42371" lon="2.10524">
        <ele>71.27</ele>
        <time>2016-06-24T06:45:54Z</time>
      </trkpt>
      <trkpt lat="49.4237" lon="2.10526">
        <ele>71.27</ele>
        <time>2016-06-24T06:45:55Z</time>
      </trkpt>
      <trkpt lat="49.42368" lon="2.10529">
        <ele>71.27</ele>
        <time>2016-06-24T06:45:56Z</time>
      </trkpt>
      <trkpt lat="49.42327" lon="2.10571">
        <ele>74.64</ele>
        <time>2016-06-24T06:46:09Z</time>
      </trkpt>
      <trkpt lat="49.42262" lon="2.10619">
        <ele>74.16</ele>
        <time>2016-06-24T06:46:25Z</time>
      </trkpt>
      <trkpt lat="49.42186" lon="2.10655">
        <ele>71.76</ele>
        <time>2016-06-24T06:46:42Z</time>
      </trkpt>
      <trkpt lat="49.42109" lon="2.10673">
        <ele>67.91</ele>
        <time>2016-06-24T06:46:58Z</time>
      </trkpt>
      <trkpt lat="49.42029" lon="2.10671">
        <ele>64.55</ele>
        <time>2016-06-24T06:47:15Z</time>
      </trkpt>
      <trkpt lat="49.41977" lon="2.10662">
        <ele>66.47</ele>
        <time>2016-06-24T06:47:29Z</time>
      </trkpt>
      <trkpt lat="49.41929" lon="2.10654">
        <ele>72.24</ele>
        <time>2016-06-24T06:47:44Z</time>
      </trkpt>
      <trkpt lat="49.41881" lon="2.10631">
        <ele>73.2</ele>
        <time>2016-06-24T06:47:59Z</time>
      </trkpt>
      <trkpt lat="49.41858" lon="2.10612">
        <ele>73.2</ele>
        <time>2016-06-24T06:48:15Z</time>
      </trkpt>
      <trkpt lat="49.41833" lon="2.10592">
        <ele>72.72</ele>
        <time>2016-06-24T06:48:33Z</time>
      </trkpt>
      <trkpt lat="49.4181" lon="2.1057">
        <ele>72.72</ele>
        <time>2016-06-24T06:48:49Z</time>
      </trkpt>
      <trkpt lat="49.41803" lon="2.1057">
        <ele>72.24</ele>
        <time>2016-06-24T06:48:52Z</time>
      </trkpt>
      <trkpt lat="49.41801" lon="2.10572">
        <ele>72.24</ele>
        <time>2016-06-24T06:48:53Z</time>
      </trkpt>
      <trkpt lat="49.41799" lon="2.10574">
        <ele>72.24</ele>
        <time>2016-06-24T06:48:54Z</time>
      </trkpt>
      <trkpt lat="49.41798" lon="2.10577">
        <ele>72.24</ele>
        <time>2016-06-24T06:48:55Z</time>
      </trkpt>
      <trkpt lat="49.41797" lon="2.1058">
        <ele>72.24</ele>
        <time>2016-06-24T06:48:56Z</time>
      </trkpt>
      <trkpt lat="49.41797" lon="2.10584">
        <ele>72.24</ele>
        <time>2016-06-24T06:48:57Z</time>
      </trkpt>
      <trkpt lat="49.41796" lon="2.10588">
        <ele>71.76</ele>
        <time>2016-06-24T06:48:58Z</time>
      </trkpt>
      <trkpt lat="49.41796" lon="2.10592">
        <ele>71.76</ele>
        <time>2016-06-24T06:48:59Z</time>
      </trkpt>
      <trkpt lat="49.41796" lon="2.10596">
        <ele>71.27</ele>
        <time>2016-06-24T06:49:00Z</time>
      </trkpt>
      <trkpt lat="49.41796" lon="2.106">
        <ele>71.27</ele>
        <time>2016-06-24T06:49:01Z</time>
      </trkpt>
      <trkpt lat="49.41796" lon="2.10605">
        <ele>71.27</ele>
        <time>2016-06-24T06:49:02Z</time>
      </trkpt>
      <trkpt lat="49.41795" lon="2.10609">
        <ele>71.27</ele>
        <time>2016-06-24T06:49:03Z</time>
      </trkpt>
      <trkpt lat="49.41772" lon="2.10666">
        <ele>70.79</ele>
        <time>2016-06-24T06:49:18Z</time>
      </trkpt>
      <trkpt lat="49.4174" lon="2.10713">
        <ele>70.79</ele>
        <time>2016-06-24T06:49:33Z</time>
      </trkpt>
      <trkpt lat="49.41693" lon="2.10757">
        <ele>71.76</ele>
        <time>2016-06-24T06:49:50Z</time>
      </trkpt>
      <trkpt lat="49.41656" lon="2.10812">
        <ele>73.2</ele>
        <time>2016-06-24T06:50:07Z</time>
      </trkpt>
      <trkpt lat="49.41632" lon="2.10928">
        <ele>70.31</ele>
        <time>2016-06-24T06:50:25Z</time>
      </trkpt>
      <trkpt lat="49.41605" lon="2.11043">
        <ele>68.39</ele>
        <time>2016-06-24T06:50:44Z</time>
      </trkpt>
      <trkpt lat="49.41588" lon="2.1113">
        <ele>67.43</ele>
        <time>2016-06-24T06:50:59Z</time>
      </trkpt>
      <trkpt lat="49.41587" lon="2.11136">
        <ele>67.43</ele>
        <time>2016-06-24T06:51:11Z</time>
      </trkpt>
      <trkpt lat="49.41578" lon="2.11179">
        <ele>66.95</ele>
        <time>2016-06-24T06:51:23Z</time>
      </trkpt>
      <trkpt lat="49.41578" lon="2.11216">
        <ele>66.95</ele>
        <time>2016-06-24T06:51:34Z</time>
      </trkpt>
      <trkpt lat="49.41565" lon="2.11244">
        <ele>66.95</ele>
        <time>2016-06-24T06:51:44Z</time>
      </trkpt>
      <trkpt lat="49.41554" lon="2.11306">
        <ele>67.91</ele>
        <time>2016-06-24T06:51:57Z</time>
      </trkpt>
      <trkpt lat="49.41565" lon="2.11346">
        <ele>67.91</ele>
        <time>2016-06-24T06:52:05Z</time>
      </trkpt>
      <trkpt lat="49.41564" lon="2.11353">
        <ele>67.91</ele>
        <time>2016-06-24T06:52:06Z</time>
      </trkpt>
      <trkpt lat="49.41557" lon="2.11467">
        <ele>68.87</ele>
        <time>2016-06-24T06:52:23Z</time>
      </trkpt>
      <trkpt lat="49.41558" lon="2.11525">
        <ele>68.39</ele>
        <time>2016-06-24T06:52:31Z</time>
      </trkpt>
      <trkpt lat="49.41557" lon="2.11646">
        <ele>67.43</ele>
        <time>2016-06-24T06:52:49Z</time>
      </trkpt>
      <trkpt lat="49.41559" lon="2.11755">
        <ele>68.87</ele>
        <time>2016-06-24T06:53:07Z</time>
      </trkpt>
      <trkpt lat="49.41559" lon="2.11762">
        <ele>68.87</ele>
        <time>2016-06-24T06:53:19Z</time>
      </trkpt>
      <trkpt lat="49.41559" lon="2.11792">
        <ele>68.39</ele>
        <time>2016-06-24T06:53:38Z</time>
      </trkpt>
      <trkpt lat="49.4156" lon="2.11834">
        <ele>67.91</ele>
        <time>2016-06-24T06:53:45Z</time>
      </trkpt>
      <trkpt lat="49.41559" lon="2.11937">
        <ele>66.47</ele>
        <time>2016-06-24T06:54:00Z</time>
      </trkpt>
      <trkpt lat="49.41559" lon="2.11968">
        <ele>66.47</ele>
        <time>2016-06-24T06:54:04Z</time>
      </trkpt>
      <trkpt lat="49.41559" lon="2.12129">
        <ele>65.99</ele>
        <time>2016-06-24T06:54:26Z</time>
      </trkpt>
      <trkpt lat="49.41558" lon="2.12272">
        <ele>65.51</ele>
        <time>2016-06-24T06:54:45Z</time>
      </trkpt>
      <trkpt lat="49.41559" lon="2.12433">
        <ele>68.39</ele>
        <time>2016-06-24T06:55:07Z</time>
      </trkpt>
      <trkpt lat="49.4156" lon="2.12532">
        <ele>69.35</ele>
        <time>2016-06-24T06:55:28Z</time>
      </trkpt>
      <trkpt lat="49.4156" lon="2.12609">
        <ele>69.83</ele>
        <time>2016-06-24T06:55:45Z</time>
      </trkpt>
      <trkpt lat="49.41558" lon="2.12731">
        <ele>65.99</ele>
        <time>2016-06-24T06:56:01Z</time>
      </trkpt>
      <trkpt lat="49.41533" lon="2.12884">
        <ele>65.03</ele>
        <time>2016-06-24T06:56:16Z</time>
      </trkpt>
      <trkpt lat="49.41526" lon="2.1292">
        <ele>65.99</ele>
        <time>2016-06-24T06:56:21Z</time>
      </trkpt>
      <trkpt lat="49.41524" lon="2.12925">
        <ele>65.51</ele>
        <time>2016-06-24T06:56:22Z</time>
      </trkpt>
      <trkpt lat="49.41522" lon="2.12929">
        <ele>65.51</ele>
        <time>2016-06-24T06:56:23Z</time>
      </trkpt>
      <trkpt lat="49.4152" lon="2.12933">
        <ele>65.51</ele>
        <time>2016-06-24T06:56:24Z</time>
      </trkpt>
      <trkpt lat="49.41517" lon="2.12936">
        <ele>65.99</ele>
        <time>2016-06-24T06:56:25Z</time>
      </trkpt>
      <trkpt lat="49.41508" lon="2.12955">
        <ele>66.47</ele>
        <time>2016-06-24T06:56:35Z</time>
      </trkpt>
      <trkpt lat="49.41507" lon="2.12959">
        <ele>65.51</ele>
        <time>2016-06-24T06:56:46Z</time>
      </trkpt>
      <trkpt lat="49.41523" lon="2.12993">
        <ele>65.99</ele>
        <time>2016-06-24T06:56:57Z</time>
      </trkpt>
      <trkpt lat="49.41549" lon="2.13025">
        <ele>65.99</ele>
        <time>2016-06-24T06:57:08Z</time>
      </trkpt>
      <trkpt lat="49.41535" lon="2.13093">
        <ele>65.99</ele>
        <time>2016-06-24T06:57:20Z</time>
      </trkpt>
      <trkpt lat="49.41516" lon="2.13194">
        <ele>65.51</ele>
        <time>2016-06-24T06:57:37Z</time>
      </trkpt>
      <trkpt lat="49.41499" lon="2.13299">
        <ele>64.07</ele>
        <time>2016-06-24T06:57:52Z</time>
      </trkpt>
      <trkpt lat="49.4148" lon="2.13405">
        <ele>62.62</ele>
        <time>2016-06-24T06:58:08Z</time>
      </trkpt>
      <trkpt lat="49.41458" lon="2.13457">
        <ele>62.62</ele>
        <time>2016-06-24T06:58:21Z</time>
      </trkpt>
      <trkpt lat="49.41443" lon="2.13519">
        <ele>62.14</ele>
        <time>2016-06-24T06:58:38Z</time>
      </trkpt>
      <trkpt lat="49.41437" lon="2.13569">
        <ele>61.18</ele>
        <time>2016-06-24T06:58:52Z</time>
      </trkpt>
      <trkpt lat="49.41397" lon="2.13627">
        <ele>61.18</ele>
        <time>2016-06-24T06:59:07Z</time>
      </trkpt>
      <trkpt lat="49.41358" lon="2.13672">
        <ele>63.1</ele>
        <time>2016-06-24T06:59:23Z</time>
      </trkpt>
      <trkpt lat="49.41324" lon="2.13725">
        <ele>64.55</ele>
        <time>2016-06-24T06:59:41Z</time>
      </trkpt>
      <trkpt lat="49.41309" lon="2.13783">
        <ele>63.58</ele>
        <time>2016-06-24T06:59:55Z</time>
      </trkpt>
      <trkpt lat="49.4129" lon="2.13857">
        <ele>63.1</ele>
        <time>2016-06-24T07:00:11Z</time>
      </trkpt>
      <trkpt lat="49.41269" lon="2.13937">
        <ele>64.07</ele>
        <time>2016-06-24T07:00:29Z</time>
      </trkpt>
      <trkpt lat="49.41245" lon="2.14027">
        <ele>65.03</ele>
        <time>2016-06-24T07:00:47Z</time>
      </trkpt>
      <trkpt lat="49.4123" lon="2.14083">
        <ele>64.55</ele>
        <time>2016-06-24T07:01:01Z</time>
      </trkpt>
      <trkpt lat="49.41242" lon="2.14121">
        <ele>63.58</ele>
        <time>2016-06-24T07:01:11Z</time>
      </trkpt>
      <trkpt lat="49.41288" lon="2.14173">
        <ele>62.14</ele>
        <time>2016-06-24T07:01:25Z</time>
      </trkpt>
      <trkpt lat="49.41313" lon="2.14211">
        <ele>63.1</ele>
        <time>2016-06-24T07:01:32Z</time>
      </trkpt>
      <trkpt lat="49.41315" lon="2.14218">
        <ele>63.1</ele>
        <time>2016-06-24T07:01:33Z</time>
      </trkpt>
      <trkpt lat="49.41336" lon="2.14263">
        <ele>62.14</ele>
        <time>2016-06-24T07:01:41Z</time>
      </trkpt>
      <trkpt lat="49.4138" lon="2.14329">
        <ele>59.74</ele>
        <time>2016-06-24T07:01:57Z</time>
      </trkpt>
      <trkpt lat="49.41422" lon="2.14404">
        <ele>58.3</ele>
        <time>2016-06-24T07:02:14Z</time>
      </trkpt>
      <trkpt lat="49.41469" lon="2.1447">
        <ele>59.26</ele>
        <time>2016-06-24T07:02:29Z</time>
      </trkpt>
      <trkpt lat="49.41524" lon="2.14541">
        <ele>59.74</ele>
        <time>2016-06-24T07:02:46Z</time>
      </trkpt>
      <trkpt lat="49.41546" lon="2.1457">
        <ele>59.74</ele>
        <time>2016-06-24T07:02:59Z</time>
      </trkpt>
      <trkpt lat="49.41586" lon="2.14627">
        <ele>55.41</ele>
        <time>2016-06-24T07:03:13Z</time>
      </trkpt>
      <trkpt lat="49.41628" lon="2.14682">
        <ele>56.86</ele>
        <time>2016-06-24T07:03:24Z</time>
      </trkpt>
      <trkpt lat="49.41688" lon="2.14759">
        <ele>57.82</ele>
        <time>2016-06-24T07:03:43Z</time>
      </trkpt>
      <trkpt lat="49.41697" lon="2.14774">
        <ele>58.78</ele>
        <time>2016-06-24T07:03:46Z</time>
      </trkpt>
      <trkpt lat="49.41702" lon="2.14785">
        <ele>59.26</ele>
        <time>2016-06-24T07:03:48Z</time>
      </trkpt>
      <trkpt lat="49.41704" lon="2.14792">
        <ele>59.74</ele>
        <time>2016-06-24T07:03:49Z</time>
      </trkpt>
      <trkpt lat="49.41704" lon="2.14799">
        <ele>59.74</ele>
        <time>2016-06-24T07:03:50Z</time>
      </trkpt>
      <trkpt lat="49.41704" lon="2.14806">
        <ele>60.22</ele>
        <time>2016-06-24T07:03:51Z</time>
      </trkpt>
      <trkpt lat="49.41703" lon="2.14813">
        <ele>60.7</ele>
        <time>2016-06-24T07:03:52Z</time>
      </trkpt>
      <trkpt lat="49.41701" lon="2.1482">
        <ele>60.7</ele>
        <time>2016-06-24T07:03:53Z</time>
      </trkpt>
      <trkpt lat="49.41699" lon="2.14827">
        <ele>60.22</ele>
        <time>2016-06-24T07:03:54Z</time>
      </trkpt>
      <trkpt lat="49.41654" lon="2.14976">
        <ele>58.78</ele>
        <time>2016-06-24T07:04:17Z</time>
      </trkpt>
      <trkpt lat="49.4163" lon="2.15057">
        <ele>57.82</ele>
        <time>2016-06-24T07:04:30Z</time>
      </trkpt>
      <trkpt lat="49.41629" lon="2.15063">
        <ele>57.82</ele>
        <time>2016-06-24T07:04:31Z</time>
      </trkpt>
      <trkpt lat="49.41629" lon="2.1507">
        <ele>57.82</ele>
        <time>2016-06-24T07:04:32Z</time>
      </trkpt>
      <trkpt lat="49.41629" lon="2.15077">
        <ele>58.3</ele>
        <time>2016-06-24T07:04:33Z</time>
      </trkpt>
      <trkpt lat="49.4163" lon="2.15083">
        <ele>58.3</ele>
        <time>2016-06-24T07:04:34Z</time>
      </trkpt>
      <trkpt lat="49.41631" lon="2.1509">
        <ele>58.3</ele>
        <time>2016-06-24T07:04:35Z</time>
      </trkpt>
      <trkpt lat="49.41633" lon="2.15096">
        <ele>58.3</ele>
        <time>2016-06-24T07:04:36Z</time>
      </trkpt>
      <trkpt lat="49.41635" lon="2.15103">
        <ele>58.3</ele>
        <time>2016-06-24T07:04:37Z</time>
      </trkpt>
      <trkpt lat="49.41673" lon="2.15186">
        <ele>59.26</ele>
        <time>2016-06-24T07:04:53Z</time>
      </trkpt>
      <trkpt lat="49.41723" lon="2.15304">
        <ele>60.22</ele>
        <time>2016-06-24T07:05:13Z</time>
      </trkpt>
      <trkpt lat="49.41725" lon="2.1531">
        <ele>59.74</ele>
        <time>2016-06-24T07:05:14Z</time>
      </trkpt>
      <trkpt lat="49.41726" lon="2.15317">
        <ele>59.26</ele>
        <time>2016-06-24T07:05:15Z</time>
      </trkpt>
      <trkpt lat="49.41726" lon="2.15324">
        <ele>59.26</ele>
        <time>2016-06-24T07:05:16Z</time>
      </trkpt>
      <trkpt lat="49.41725" lon="2.15331">
        <ele>59.26</ele>
        <time>2016-06-24T07:05:17Z</time>
      </trkpt>
      <trkpt lat="49.41724" lon="2.15339">
        <ele>59.26</ele>
        <time>2016-06-24T07:05:18Z</time>
      </trkpt>
      <trkpt lat="49.41723" lon="2.15345">
        <ele>59.26</ele>
        <time>2016-06-24T07:05:19Z</time>
      </trkpt>
      <trkpt lat="49.41721" lon="2.15352">
        <ele>59.26</ele>
        <time>2016-06-24T07:05:20Z</time>
      </trkpt>
      <trkpt lat="49.41713" lon="2.1542">
        <ele>58.78</ele>
        <time>2016-06-24T07:05:33Z</time>
      </trkpt>
      <trkpt lat="49.41728" lon="2.1548">
        <ele>61.66</ele>
        <time>2016-06-24T07:05:46Z</time>
      </trkpt>
      <trkpt lat="49.41728" lon="2.15514">
        <ele>61.18</ele>
        <time>2016-06-24T07:05:52Z</time>
      </trkpt>
      <trkpt lat="49.41732" lon="2.15547">
        <ele>61.18</ele>
        <time>2016-06-24T07:05:57Z</time>
      </trkpt>
      <trkpt lat="49.41734" lon="2.15553">
        <ele>60.7</ele>
        <time>2016-06-24T07:05:58Z</time>
      </trkpt>
      <trkpt lat="49.41744" lon="2.15618">
        <ele>59.26</ele>
        <time>2016-06-24T07:06:11Z</time>
      </trkpt>
      <trkpt lat="49.41713" lon="2.15676">
        <ele>60.7</ele>
        <time>2016-06-24T07:06:25Z</time>
      </trkpt>
      <trkpt lat="49.41711" lon="2.15681">
        <ele>60.7</ele>
        <time>2016-06-24T07:06:26Z</time>
      </trkpt>
      <trkpt lat="49.41709" lon="2.15686">
        <ele>61.66</ele>
        <time>2016-06-24T07:06:27Z</time>
      </trkpt>
      <trkpt lat="49.417" lon="2.15713">
        <ele>63.58</ele>
        <time>2016-06-24T07:06:34Z</time>
      </trkpt>
      <trkpt lat="49.41701" lon="2.15716">
        <ele>63.58</ele>
        <time>2016-06-24T07:06:35Z</time>
      </trkpt>
      <trkpt lat="49.41703" lon="2.15718">
        <ele>63.58</ele>
        <time>2016-06-24T07:06:36Z</time>
      </trkpt>
      <trkpt lat="49.41727" lon="2.15748">
        <ele>63.58</ele>
        <time>2016-06-24T07:06:51Z</time>
      </trkpt>
      <trkpt lat="49.41746" lon="2.1577">
        <ele>62.14</ele>
        <time>2016-06-24T07:07:04Z</time>
      </trkpt>
      <trkpt lat="49.41774" lon="2.15804">
        <ele>65.99</ele>
        <time>2016-06-24T07:07:23Z</time>
      </trkpt>
      <trkpt lat="49.41792" lon="2.15823">
        <ele>67.43</ele>
        <time>2016-06-24T07:07:36Z</time>
      </trkpt>
      <trkpt lat="49.41816" lon="2.15853">
        <ele>70.79</ele>
        <time>2016-06-24T07:07:54Z</time>
      </trkpt>
      <trkpt lat="49.41825" lon="2.15869">
        <ele>71.76</ele>
        <time>2016-06-24T07:08:04Z</time>
      </trkpt>
      <trkpt lat="49.41825" lon="2.15872">
        <ele>72.24</ele>
        <time>2016-06-24T07:08:05Z</time>
      </trkpt>
      <trkpt lat="49.41824" lon="2.15875">
        <ele>72.24</ele>
        <time>2016-06-24T07:08:06Z</time>
      </trkpt>
      <trkpt lat="49.41822" lon="2.15877">
        <ele>72.24</ele>
        <time>2016-06-24T07:08:07Z</time>
      </trkpt>
      <trkpt lat="49.4182" lon="2.15879">
        <ele>72.24</ele>
        <time>2016-06-24T07:08:08Z</time>
      </trkpt>
      <trkpt lat="49.41772" lon="2.15916">
        <ele>71.76</ele>
        <time>2016-06-24T07:08:21Z</time>
      </trkpt>
      <trkpt lat="49.41768" lon="2.15921">
        <ele>71.76</ele>
        <time>2016-06-24T07:08:22Z</time>
      </trkpt>
      <trkpt lat="49.41759" lon="2.15931">
        <ele>71.27</ele>
        <time>2016-06-24T07:08:24Z</time>
      </trkpt>
      <trkpt lat="49.41672" lon="2.16048">
        <ele>67.91</ele>
        <time>2016-06-24T07:08:42Z</time>
      </trkpt>
      <trkpt lat="49.41606" lon="2.16131">
        <ele>65.99</ele>
        <time>2016-06-24T07:08:59Z</time>
      </trkpt>
      <trkpt lat="49.41577" lon="2.16167">
        <ele>69.35</ele>
        <time>2016-06-24T07:09:12Z</time>
      </trkpt>
      <trkpt lat="49.41533" lon="2.16211">
        <ele>70.79</ele>
        <time>2016-06-24T07:09:32Z</time>
      </trkpt>
      <trkpt lat="49.41496" lon="2.16254">
        <ele>69.83</ele>
        <time>2016-06-24T07:09:49Z</time>
      </trkpt>
      <trkpt lat="49.41455" lon="2.16304">
        <ele>70.31</ele>
        <time>2016-06-24T07:10:09Z</time>
      </trkpt>
      <trkpt lat="49.41411" lon="2.16355">
        <ele>71.76</ele>
        <time>2016-06-24T07:10:30Z</time>
      </trkpt>
      <trkpt lat="49.41366" lon="2.16407">
        <ele>72.24</ele>
        <time>2016-06-24T07:10:51Z</time>
      </trkpt>
      <trkpt lat="49.41315" lon="2.16465">
        <ele>74.16</ele>
        <time>2016-06-24T07:11:12Z</time>
      </trkpt>
      <trkpt lat="49.41255" lon="2.16536">
        <ele>72.24</ele>
        <time>2016-06-24T07:11:32Z</time>
      </trkpt>
      <trkpt lat="49.41197" lon="2.16619">
        <ele>72.72</ele>
        <time>2016-06-24T07:11:49Z</time>
      </trkpt>
      <trkpt lat="49.41139" lon="2.16738">
        <ele>73.68</ele>
        <time>2016-06-24T07:12:06Z</time>
      </trkpt>
      <trkpt lat="49.41078" lon="2.16888">
        <ele>70.31</ele>
        <time>2016-06-24T07:12:23Z</time>
      </trkpt>
      <trkpt lat="49.41021" lon="2.17025">
        <ele>65.03</ele>
        <time>2016-06-24T07:12:40Z</time>
      </trkpt>
      <trkpt lat="49.40959" lon="2.17177">
        <ele>63.58</ele>
        <time>2016-06-24T07:13:00Z</time>
      </trkpt>
      <trkpt lat="49.40888" lon="2.17354">
        <ele>61.66</ele>
        <time>2016-06-24T07:13:22Z</time>
      </trkpt>
      <trkpt lat="49.40824" lon="2.17516">
        <ele>60.7</ele>
        <time>2016-06-24T07:13:42Z</time>
      </trkpt>
      <trkpt lat="49.40779" lon="2.17626">
        <ele>59.74</ele>
        <time>2016-06-24T07:14:00Z</time>
      </trkpt>
      <trkpt lat="49.40753" lon="2.17686">
        <ele>59.26</ele>
        <time>2016-06-24T07:14:16Z</time>
      </trkpt>
      <trkpt lat="49.40752" lon="2.17688">
        <ele>57.34</ele>
        <time>2016-06-24T07:14:44Z</time>
      </trkpt>
      <trkpt lat="49.40752" lon="2.17689">
        <ele>57.34</ele>
        <time>2016-06-24T07:15:11Z</time>
      </trkpt>
      <trkpt lat="49.40753" lon="2.17688">
        <ele>58.78</ele>
        <time>2016-06-24T07:15:43Z</time>
      </trkpt>
      <trkpt lat="49.40754" lon="2.17687">
        <ele>60.22</ele>
        <time>2016-06-24T07:16:04Z</time>
      </trkpt>
      <trkpt lat="49.40755" lon="2.17685">
        <ele>59.74</ele>
        <time>2016-06-24T07:16:05Z</time>
      </trkpt>
      <trkpt lat="49.40764" lon="2.17661">
        <ele>59.74</ele>
        <time>2016-06-24T07:16:20Z</time>
      </trkpt>
      <trkpt lat="49.40764" lon="2.17661">
        <ele>57.34</ele>
        <time>2016-06-24T07:17:01Z</time>
      </trkpt>
      <trkpt lat="49.40763" lon="2.17659">
        <ele>59.26</ele>
        <time>2016-06-24T07:17:30Z</time>
      </trkpt>
      <trkpt lat="49.40762" lon="2.17661">
        <ele>59.74</ele>
        <time>2016-06-24T07:17:31Z</time>
      </trkpt>
      <trkpt lat="49.40744" lon="2.17704">
        <ele>61.66</ele>
        <time>2016-06-24T07:17:44Z</time>
      </trkpt>
      <trkpt lat="49.40709" lon="2.17792">
        <ele>60.7</ele>
        <time>2016-06-24T07:18:01Z</time>
      </trkpt>
      <trkpt lat="49.40669" lon="2.17892">
        <ele>61.18</ele>
        <time>2016-06-24T07:18:20Z</time>
      </trkpt>
      <trkpt lat="49.40624" lon="2.17989">
        <ele>61.18</ele>
        <time>2016-06-24T07:18:38Z</time>
      </trkpt>
      <trkpt lat="49.40566" lon="2.18088">
        <ele>59.74</ele>
        <time>2016-06-24T07:18:57Z</time>
      </trkpt>
      <trkpt lat="49.40514" lon="2.18182">
        <ele>60.22</ele>
        <time>2016-06-24T07:19:16Z</time>
      </trkpt>
      <trkpt lat="49.40486" lon="2.18255">
        <ele>60.7</ele>
        <time>2016-06-24T07:19:31Z</time>
      </trkpt>
      <trkpt lat="49.40451" lon="2.18377">
        <ele>60.7</ele>
        <time>2016-06-24T07:19:51Z</time>
      </trkpt>
      <trkpt lat="49.40397" lon="2.1852">
        <ele>60.22</ele>
        <time>2016-06-24T07:20:11Z</time>
      </trkpt>
      <trkpt lat="49.4035" lon="2.18631">
        <ele>60.7</ele>
        <time>2016-06-24T07:20:28Z</time>
      </trkpt>
      <trkpt lat="49.40291" lon="2.18769">
        <ele>62.62</ele>
        <time>2016-06-24T07:20:47Z</time>
      </trkpt>
      <trkpt lat="49.40239" lon="2.18885">
        <ele>62.62</ele>
        <time>2016-06-24T07:21:06Z</time>
      </trkpt>
      <trkpt lat="49.40213" lon="2.18935">
        <ele>65.03</ele>
        <time>2016-06-24T07:21:17Z</time>
      </trkpt>
      <trkpt lat="49.40171" lon="2.19019">
        <ele>61.66</ele>
        <time>2016-06-24T07:21:34Z</time>
      </trkpt>
      <trkpt lat="49.40136" lon="2.19108">
        <ele>61.18</ele>
        <time>2016-06-24T07:21:51Z</time>
      </trkpt>
      <trkpt lat="49.40105" lon="2.19177">
        <ele>59.74</ele>
        <time>2016-06-24T07:22:07Z</time>
      </trkpt>
      <trkpt lat="49.4006" lon="2.19279">
        <ele>61.18</ele>
        <time>2016-06-24T07:22:28Z</time>
      </trkpt>
      <trkpt lat="49.40012" lon="2.19371">
        <ele>61.66</ele>
        <time>2016-06-24T07:22:47Z</time>
      </trkpt>
      <trkpt lat="49.39945" lon="2.19482">
        <ele>60.7</ele>
        <time>2016-06-24T07:23:10Z</time>
      </trkpt>
      <trkpt lat="49.39872" lon="2.19605">
        <ele>60.22</ele>
        <time>2016-06-24T07:23:34Z</time>
      </trkpt>
      <trkpt lat="49.39813" lon="2.19707">
        <ele>60.22</ele>
        <time>2016-06-24T07:23:51Z</time>
      </trkpt>
      <trkpt lat="49.39756" lon="2.19821">
        <ele>59.26</ele>
        <time>2016-06-24T07:24:09Z</time>
      </trkpt>
      <trkpt lat="49.39704" lon="2.19942">
        <ele>59.26</ele>
        <time>2016-06-24T07:24:28Z</time>
      </trkpt>
      <trkpt lat="49.39658" lon="2.20041">
        <ele>61.18</ele>
        <time>2016-06-24T07:24:47Z</time>
      </trkpt>
      <trkpt lat="49.39602" lon="2.20141">
        <ele>62.14</ele>
        <time>2016-06-24T07:25:08Z</time>
      </trkpt>
      <trkpt lat="49.39548" lon="2.20234">
        <ele>62.14</ele>
        <time>2016-06-24T07:25:26Z</time>
      </trkpt>
      <trkpt lat="49.39519" lon="2.20283">
        <ele>61.66</ele>
        <time>2016-06-24T07:25:35Z</time>
      </trkpt>
      <trkpt lat="49.3946" lon="2.2039">
        <ele>61.18</ele>
        <time>2016-06-24T07:25:54Z</time>
      </trkpt>
      <trkpt lat="49.39397" lon="2.20501">
        <ele>61.18</ele>
        <time>2016-06-24T07:26:14Z</time>
      </trkpt>
      <trkpt lat="49.39337" lon="2.20607">
        <ele>61.66</ele>
        <time>2016-06-24T07:26:33Z</time>
      </trkpt>
      <trkpt lat="49.39293" lon="2.20691">
        <ele>61.66</ele>
        <time>2016-06-24T07:26:50Z</time>
      </trkpt>
      <trkpt lat="49.3927" lon="2.20738">
        <ele>61.66</ele>
        <time>2016-06-24T07:27:02Z</time>
      </trkpt>
      <trkpt lat="49.39229" lon="2.20815">
        <ele>62.14</ele>
        <time>2016-06-24T07:27:18Z</time>
      </trkpt>
      <trkpt lat="49.3918" lon="2.20903">
        <ele>63.1</ele>
        <time>2016-06-24T07:27:36Z</time>
      </trkpt>
      <trkpt lat="49.39138" lon="2.20999">
        <ele>64.07</ele>
        <time>2016-06-24T07:27:54Z</time>
      </trkpt>
      <trkpt lat="49.3909" lon="2.21126">
        <ele>62.62</ele>
        <time>2016-06-24T07:28:13Z</time>
      </trkpt>
      <trkpt lat="49.39058" lon="2.21189">
        <ele>59.74</ele>
        <time>2016-06-24T07:28:23Z</time>
      </trkpt>
      <trkpt lat="49.39054" lon="2.21195">
        <ele>59.74</ele>
        <time>2016-06-24T07:28:24Z</time>
      </trkpt>
      <trkpt lat="49.38953" lon="2.21329">
        <ele>59.26</ele>
        <time>2016-06-24T07:28:47Z</time>
      </trkpt>
      <trkpt lat="49.38858" lon="2.21428">
        <ele>58.3</ele>
        <time>2016-06-24T07:29:07Z</time>
      </trkpt>
      <trkpt lat="49.38817" lon="2.21472">
        <ele>57.82</ele>
        <time>2016-06-24T07:29:16Z</time>
      </trkpt>
      <trkpt lat="49.38813" lon="2.21475">
        <ele>57.82</ele>
        <time>2016-06-24T07:29:17Z</time>
      </trkpt>
      <trkpt lat="49.38805" lon="2.21481">
        <ele>58.78</ele>
        <time>2016-06-24T07:29:19Z</time>
      </trkpt>
      <trkpt lat="49.38802" lon="2.21486">
        <ele>58.78</ele>
        <time>2016-06-24T07:29:20Z</time>
      </trkpt>
      <trkpt lat="49.38748" lon="2.2157">
        <ele>57.34</ele>
        <time>2016-06-24T07:29:35Z</time>
      </trkpt>
      <trkpt lat="49.38688" lon="2.21674">
        <ele>56.86</ele>
        <time>2016-06-24T07:29:51Z</time>
      </trkpt>
      <trkpt lat="49.38616" lon="2.21797">
        <ele>56.37</ele>
        <time>2016-06-24T07:30:09Z</time>
      </trkpt>
      <trkpt lat="49.38536" lon="2.21918">
        <ele>56.86</ele>
        <time>2016-06-24T07:30:28Z</time>
      </trkpt>
      <trkpt lat="49.38462" lon="2.22012">
        <ele>54.45</ele>
        <time>2016-06-24T07:30:44Z</time>
      </trkpt>
      <trkpt lat="49.38444" lon="2.22031">
        <ele>53.97</ele>
        <time>2016-06-24T07:30:48Z</time>
      </trkpt>
      <trkpt lat="49.38429" lon="2.22052">
        <ele>53.97</ele>
        <time>2016-06-24T07:30:52Z</time>
      </trkpt>
      <trkpt lat="49.38425" lon="2.22056">
        <ele>53.97</ele>
        <time>2016-06-24T07:30:53Z</time>
      </trkpt>
      <trkpt lat="49.38401" lon="2.22077">
        <ele>53.97</ele>
        <time>2016-06-24T07:31:03Z</time>
      </trkpt>
      <trkpt lat="49.38371" lon="2.22119">
        <ele>54.45</ele>
        <time>2016-06-24T07:31:16Z</time>
      </trkpt>
      <trkpt lat="49.38322" lon="2.22189">
        <ele>53.01</ele>
        <time>2016-06-24T07:31:32Z</time>
      </trkpt>
      <trkpt lat="49.38314" lon="2.22226">
        <ele>53.01</ele>
        <time>2016-06-24T07:31:41Z</time>
      </trkpt>
      <trkpt lat="49.38312" lon="2.2223">
        <ele>53.49</ele>
        <time>2016-06-24T07:31:42Z</time>
      </trkpt>
      <trkpt lat="49.3831" lon="2.22234">
        <ele>53.49</ele>
        <time>2016-06-24T07:31:43Z</time>
      </trkpt>
      <trkpt lat="49.38309" lon="2.22238">
        <ele>53.49</ele>
        <time>2016-06-24T07:31:44Z</time>
      </trkpt>
      <trkpt lat="49.38307" lon="2.22243">
        <ele>53.97</ele>
        <time>2016-06-24T07:31:45Z</time>
      </trkpt>
      <trkpt lat="49.3828" lon="2.22356">
        <ele>54.45</ele>
        <time>2016-06-24T07:32:05Z</time>
      </trkpt>
      <trkpt lat="49.38269" lon="2.22484">
        <ele>54.93</ele>
        <time>2016-06-24T07:32:24Z</time>
      </trkpt>
      <trkpt lat="49.38256" lon="2.226">
        <ele>55.89</ele>
        <time>2016-06-24T07:32:45Z</time>
      </trkpt>
      <trkpt lat="49.38219" lon="2.22714">
        <ele>56.37</ele>
        <time>2016-06-24T07:33:05Z</time>
      </trkpt>
      <trkpt lat="49.38162" lon="2.22836">
        <ele>55.41</ele>
        <time>2016-06-24T07:33:24Z</time>
      </trkpt>
      <trkpt lat="49.38085" lon="2.22965">
        <ele>53.97</ele>
        <time>2016-06-24T07:33:45Z</time>
      </trkpt>
      <trkpt lat="49.38052" lon="2.23009">
        <ele>53.49</ele>
        <time>2016-06-24T07:33:54Z</time>
      </trkpt>
      <trkpt lat="49.38045" lon="2.23018">
        <ele>53.49</ele>
        <time>2016-06-24T07:33:56Z</time>
      </trkpt>
      <trkpt lat="49.38041" lon="2.23021">
        <ele>53.49</ele>
        <time>2016-06-24T07:33:57Z</time>
      </trkpt>
      <trkpt lat="49.38033" lon="2.23025">
        <ele>53.97</ele>
        <time>2016-06-24T07:33:59Z</time>
      </trkpt>
      <trkpt lat="49.3803" lon="2.23028">
        <ele>53.49</ele>
        <time>2016-06-24T07:34:00Z</time>
      </trkpt>
      <trkpt lat="49.38027" lon="2.23032">
        <ele>53.49</ele>
        <time>2016-06-24T07:34:01Z</time>
      </trkpt>
      <trkpt lat="49.38025" lon="2.23036">
        <ele>53.49</ele>
        <time>2016-06-24T07:34:02Z</time>
      </trkpt>
      <trkpt lat="49.38023" lon="2.23042">
        <ele>53.49</ele>
        <time>2016-06-24T07:34:03Z</time>
      </trkpt>
      <trkpt lat="49.38022" lon="2.23047">
        <ele>53.49</ele>
        <time>2016-06-24T07:34:04Z</time>
      </trkpt>
      <trkpt lat="49.38021" lon="2.23053">
        <ele>53.49</ele>
        <time>2016-06-24T07:34:05Z</time>
      </trkpt>
      <trkpt lat="49.38019" lon="2.23058">
        <ele>53.49</ele>
        <time>2016-06-24T07:34:06Z</time>
      </trkpt>
      <trkpt lat="49.38016" lon="2.23063">
        <ele>53.49</ele>
        <time>2016-06-24T07:34:07Z</time>
      </trkpt>
      <trkpt lat="49.38013" lon="2.23068">
        <ele>53.49</ele>
        <time>2016-06-24T07:34:08Z</time>
      </trkpt>
      <trkpt lat="49.38009" lon="2.23072">
        <ele>53.49</ele>
        <time>2016-06-24T07:34:09Z</time>
      </trkpt>
      <trkpt lat="49.37949" lon="2.23147">
        <ele>52.53</ele>
        <time>2016-06-24T07:34:24Z</time>
      </trkpt>
      <trkpt lat="49.37934" lon="2.23167">
        <ele>52.53</ele>
        <time>2016-06-24T07:34:28Z</time>
      </trkpt>
      <trkpt lat="49.37898" lon="2.23214">
        <ele>53.97</ele>
        <time>2016-06-24T07:34:40Z</time>
      </trkpt>
      <trkpt lat="49.37894" lon="2.23217">
        <ele>54.45</ele>
        <time>2016-06-24T07:34:41Z</time>
      </trkpt>
      <trkpt lat="49.37825" lon="2.23308">
        <ele>54.45</ele>
        <time>2016-06-24T07:34:58Z</time>
      </trkpt>
      <trkpt lat="49.37746" lon="2.23414">
        <ele>53.49</ele>
        <time>2016-06-24T07:35:16Z</time>
      </trkpt>
      <trkpt lat="49.37654" lon="2.23537">
        <ele>51.09</ele>
        <time>2016-06-24T07:35:35Z</time>
      </trkpt>
      <trkpt lat="49.3754" lon="2.23689">
        <ele>50.13</ele>
        <time>2016-06-24T07:35:57Z</time>
      </trkpt>
      <trkpt lat="49.37423" lon="2.23846">
        <ele>49.16</ele>
        <time>2016-06-24T07:36:20Z</time>
      </trkpt>
      <trkpt lat="49.37331" lon="2.23968">
        <ele>49.16</ele>
        <time>2016-06-24T07:36:39Z</time>
      </trkpt>
      <trkpt lat="49.37216" lon="2.24123">
        <ele>49.16</ele>
        <time>2016-06-24T07:37:03Z</time>
      </trkpt>
      <trkpt lat="49.37137" lon="2.24231">
        <ele>48.2</ele>
        <time>2016-06-24T07:37:20Z</time>
      </trkpt>
      <trkpt lat="49.37061" lon="2.24333">
        <ele>49.65</ele>
        <time>2016-06-24T07:37:37Z</time>
      </trkpt>
      <trkpt lat="49.3698" lon="2.2444">
        <ele>46.76</ele>
        <time>2016-06-24T07:37:55Z</time>
      </trkpt>
      <trkpt lat="49.36905" lon="2.24532">
        <ele>50.61</ele>
        <time>2016-06-24T07:38:11Z</time>
      </trkpt>
      <trkpt lat="49.36842" lon="2.24581">
        <ele>53.01</ele>
        <time>2016-06-24T07:38:25Z</time>
      </trkpt>
      <trkpt lat="49.36787" lon="2.24609">
        <ele>55.89</ele>
        <time>2016-06-24T07:38:40Z</time>
      </trkpt>
      <trkpt lat="49.36784" lon="2.24607">
        <ele>55.89</ele>
        <time>2016-06-24T07:38:41Z</time>
      </trkpt>
      <trkpt lat="49.36781" lon="2.24604">
        <ele>55.89</ele>
        <time>2016-06-24T07:38:42Z</time>
      </trkpt>
      <trkpt lat="49.36779" lon="2.24602">
        <ele>55.89</ele>
        <time>2016-06-24T07:38:43Z</time>
      </trkpt>
      <trkpt lat="49.36776" lon="2.24601">
        <ele>55.89</ele>
        <time>2016-06-24T07:38:44Z</time>
      </trkpt>
      <trkpt lat="49.36774" lon="2.24601">
        <ele>55.89</ele>
        <time>2016-06-24T07:38:45Z</time>
      </trkpt>
      <trkpt lat="49.36772" lon="2.24604">
        <ele>55.89</ele>
        <time>2016-06-24T07:38:46Z</time>
      </trkpt>
      <trkpt lat="49.36771" lon="2.24607">
        <ele>55.89</ele>
        <time>2016-06-24T07:38:47Z</time>
      </trkpt>
      <trkpt lat="49.36771" lon="2.2461">
        <ele>55.89</ele>
        <time>2016-06-24T07:38:48Z</time>
      </trkpt>
      <trkpt lat="49.36771" lon="2.24613">
        <ele>55.89</ele>
        <time>2016-06-24T07:38:49Z</time>
      </trkpt>
      <trkpt lat="49.3677" lon="2.24621">
        <ele>56.37</ele>
        <time>2016-06-24T07:38:51Z</time>
      </trkpt>
      <trkpt lat="49.36769" lon="2.24624">
        <ele>55.89</ele>
        <time>2016-06-24T07:38:52Z</time>
      </trkpt>
      <trkpt lat="49.36766" lon="2.24626">
        <ele>55.89</ele>
        <time>2016-06-24T07:38:53Z</time>
      </trkpt>
      <trkpt lat="49.36764" lon="2.24628">
        <ele>56.37</ele>
        <time>2016-06-24T07:38:54Z</time>
      </trkpt>
      <trkpt lat="49.36761" lon="2.24629">
        <ele>56.37</ele>
        <time>2016-06-24T07:38:55Z</time>
      </trkpt>
      <trkpt lat="49.36739" lon="2.24642">
        <ele>58.3</ele>
        <time>2016-06-24T07:39:09Z</time>
      </trkpt>
      <trkpt lat="49.36724" lon="2.24653">
        <ele>58.3</ele>
        <time>2016-06-24T07:39:21Z</time>
      </trkpt>
      <trkpt lat="49.36719" lon="2.24652">
        <ele>58.3</ele>
        <time>2016-06-24T07:39:23Z</time>
      </trkpt>
      <trkpt lat="49.36717" lon="2.24649">
        <ele>57.82</ele>
        <time>2016-06-24T07:39:24Z</time>
      </trkpt>
      <trkpt lat="49.36715" lon="2.24645">
        <ele>57.34</ele>
        <time>2016-06-24T07:39:25Z</time>
      </trkpt>
      <trkpt lat="49.36697" lon="2.24565">
        <ele>55.89</ele>
        <time>2016-06-24T07:39:41Z</time>
      </trkpt>
      <trkpt lat="49.36679" lon="2.24514">
        <ele>54.93</ele>
        <time>2016-06-24T07:39:51Z</time>
      </trkpt>
      <trkpt lat="49.36675" lon="2.2451">
        <ele>54.93</ele>
        <time>2016-06-24T07:39:52Z</time>
      </trkpt>
      <trkpt lat="49.36614" lon="2.24477">
        <ele>55.89</ele>
        <time>2016-06-24T07:40:06Z</time>
      </trkpt>
      <trkpt lat="49.36543" lon="2.24446">
        <ele>56.37</ele>
        <time>2016-06-24T07:40:24Z</time>
      </trkpt>
      <trkpt lat="49.36536" lon="2.24441">
        <ele>56.86</ele>
        <time>2016-06-24T07:40:26Z</time>
      </trkpt>
      <trkpt lat="49.36532" lon="2.24438">
        <ele>56.37</ele>
        <time>2016-06-24T07:40:27Z</time>
      </trkpt>
      <trkpt lat="49.36529" lon="2.24434">
        <ele>56.37</ele>
        <time>2016-06-24T07:40:28Z</time>
      </trkpt>
      <trkpt lat="49.36507" lon="2.24408">
        <ele>55.89</ele>
        <time>2016-06-24T07:40:34Z</time>
      </trkpt>
      <trkpt lat="49.36501" lon="2.24406">
        <ele>55.89</ele>
        <time>2016-06-24T07:40:35Z</time>
      </trkpt>
      <trkpt lat="49.36496" lon="2.24406">
        <ele>55.89</ele>
        <time>2016-06-24T07:40:36Z</time>
      </trkpt>
      <trkpt lat="49.36389" lon="2.24381">
        <ele>55.89</ele>
        <time>2016-06-24T07:40:53Z</time>
      </trkpt>
      <trkpt lat="49.36276" lon="2.24366">
        <ele>54.93</ele>
        <time>2016-06-24T07:41:11Z</time>
      </trkpt>
      <trkpt lat="49.36184" lon="2.24368">
        <ele>53.97</ele>
        <time>2016-06-24T07:41:27Z</time>
      </trkpt>
      <trkpt lat="49.36081" lon="2.24368">
        <ele>53.97</ele>
        <time>2016-06-24T07:41:45Z</time>
      </trkpt>
      <trkpt lat="49.35987" lon="2.24366">
        <ele>53.49</ele>
        <time>2016-06-24T07:42:03Z</time>
      </trkpt>
      <trkpt lat="49.35905" lon="2.24375">
        <ele>54.93</ele>
        <time>2016-06-24T07:42:23Z</time>
      </trkpt>
      <trkpt lat="49.35854" lon="2.24408">
        <ele>54.93</ele>
        <time>2016-06-24T07:42:38Z</time>
      </trkpt>
      <trkpt lat="49.35792" lon="2.2445">
        <ele>54.93</ele>
        <time>2016-06-24T07:42:56Z</time>
      </trkpt>
      <trkpt lat="49.35733" lon="2.2449">
        <ele>53.01</ele>
        <time>2016-06-24T07:43:12Z</time>
      </trkpt>
      <trkpt lat="49.35708" lon="2.24506">
        <ele>52.53</ele>
        <time>2016-06-24T07:43:18Z</time>
      </trkpt>
      <trkpt lat="49.35703" lon="2.24508">
        <ele>52.53</ele>
        <time>2016-06-24T07:43:19Z</time>
      </trkpt>
      <trkpt lat="49.35644" lon="2.24541">
        <ele>48.2</ele>
        <time>2016-06-24T07:43:32Z</time>
      </trkpt>
      <trkpt lat="49.35628" lon="2.24555">
        <ele>47.72</ele>
        <time>2016-06-24T07:43:36Z</time>
      </trkpt>
      <trkpt lat="49.35624" lon="2.24556">
        <ele>48.2</ele>
        <time>2016-06-24T07:43:37Z</time>
      </trkpt>
      <trkpt lat="49.35619" lon="2.24557">
        <ele>48.2</ele>
        <time>2016-06-24T07:43:38Z</time>
      </trkpt>
      <trkpt lat="49.35615" lon="2.24555">
        <ele>48.2</ele>
        <time>2016-06-24T07:43:39Z</time>
      </trkpt>
      <trkpt lat="49.3561" lon="2.24551">
        <ele>48.68</ele>
        <time>2016-06-24T07:43:40Z</time>
      </trkpt>
      <trkpt lat="49.35606" lon="2.24547">
        <ele>48.68</ele>
        <time>2016-06-24T07:43:41Z</time>
      </trkpt>
      <trkpt lat="49.35573" lon="2.24517">
        <ele>48.2</ele>
        <time>2016-06-24T07:43:52Z</time>
      </trkpt>
      <trkpt lat="49.35566" lon="2.24517">
        <ele>48.68</ele>
        <time>2016-06-24T07:44:02Z</time>
      </trkpt>
      <trkpt lat="49.35565" lon="2.24518">
        <ele>48.68</ele>
        <time>2016-06-24T07:44:03Z</time>
      </trkpt>
      <trkpt lat="49.35564" lon="2.24521">
        <ele>48.68</ele>
        <time>2016-06-24T07:44:04Z</time>
      </trkpt>
      <trkpt lat="49.35563" lon="2.24523">
        <ele>48.68</ele>
        <time>2016-06-24T07:44:05Z</time>
      </trkpt>
      <trkpt lat="49.35562" lon="2.24526">
        <ele>48.68</ele>
        <time>2016-06-24T07:44:06Z</time>
      </trkpt>
      <trkpt lat="49.35538" lon="2.24552">
        <ele>49.65</ele>
        <time>2016-06-24T07:44:15Z</time>
      </trkpt>
      <trkpt lat="49.35535" lon="2.24557">
        <ele>49.16</ele>
        <time>2016-06-24T07:44:16Z</time>
      </trkpt>
      <trkpt lat="49.35533" lon="2.24562">
        <ele>49.16</ele>
        <time>2016-06-24T07:44:17Z</time>
      </trkpt>
      <trkpt lat="49.35531" lon="2.24568">
        <ele>49.16</ele>
        <time>2016-06-24T07:44:18Z</time>
      </trkpt>
      <trkpt lat="49.3553" lon="2.24575">
        <ele>49.16</ele>
        <time>2016-06-24T07:44:19Z</time>
      </trkpt>
      <trkpt lat="49.35507" lon="2.24678">
        <ele>49.65</ele>
        <time>2016-06-24T07:44:36Z</time>
      </trkpt>
      <trkpt lat="49.35487" lon="2.24763">
        <ele>46.76</ele>
        <time>2016-06-24T07:44:51Z</time>
      </trkpt>
      <trkpt lat="49.35454" lon="2.24846">
        <ele>48.2</ele>
        <time>2016-06-24T07:45:08Z</time>
      </trkpt>
      <trkpt lat="49.35463" lon="2.24892">
        <ele>49.16</ele>
        <time>2016-06-24T07:45:18Z</time>
      </trkpt>
      <trkpt lat="49.35464" lon="2.24901">
        <ele>48.2</ele>
        <time>2016-06-24T07:45:21Z</time>
      </trkpt>
      <trkpt lat="49.35464" lon="2.24903">
        <ele>47.72</ele>
        <time>2016-06-24T07:45:22Z</time>
      </trkpt>
      <trkpt lat="49.35463" lon="2.24905">
        <ele>47.72</ele>
        <time>2016-06-24T07:45:23Z</time>
      </trkpt>
      <trkpt lat="49.35461" lon="2.24907">
        <ele>47.24</ele>
        <time>2016-06-24T07:45:24Z</time>
      </trkpt>
      <trkpt lat="49.35459" lon="2.2491">
        <ele>46.76</ele>
        <time>2016-06-24T07:45:25Z</time>
      </trkpt>
      <trkpt lat="49.35458" lon="2.24912">
        <ele>46.76</ele>
        <time>2016-06-24T07:45:26Z</time>
      </trkpt>
      <trkpt lat="49.35429" lon="2.24977">
        <ele>47.24</ele>
        <time>2016-06-24T07:45:41Z</time>
      </trkpt>
      <trkpt lat="49.35422" lon="2.25039">
        <ele>49.65</ele>
        <time>2016-06-24T07:45:53Z</time>
      </trkpt>
      <trkpt lat="49.35445" lon="2.25085">
        <ele>51.57</ele>
        <time>2016-06-24T07:46:08Z</time>
      </trkpt>
      <trkpt lat="49.3545" lon="2.25124">
        <ele>51.57</ele>
        <time>2016-06-24T07:46:19Z</time>
      </trkpt>
      <trkpt lat="49.35431" lon="2.25184">
        <ele>52.05</ele>
        <time>2016-06-24T07:46:33Z</time>
      </trkpt>
      <trkpt lat="49.35415" lon="2.25233">
        <ele>51.57</ele>
        <time>2016-06-24T07:46:40Z</time>
      </trkpt>
      <trkpt lat="49.35413" lon="2.25241">
        <ele>51.57</ele>
        <time>2016-06-24T07:46:41Z</time>
      </trkpt>
      <trkpt lat="49.35393" lon="2.25408">
        <ele>52.05</ele>
        <time>2016-06-24T07:47:00Z</time>
      </trkpt>
      <trkpt lat="49.3538" lon="2.25564">
        <ele>51.09</ele>
        <time>2016-06-24T07:47:18Z</time>
      </trkpt>
      <trkpt lat="49.35369" lon="2.25691">
        <ele>52.53</ele>
        <time>2016-06-24T07:47:33Z</time>
      </trkpt>
      <trkpt lat="49.35357" lon="2.25841">
        <ele>52.53</ele>
        <time>2016-06-24T07:47:53Z</time>
      </trkpt>
      <trkpt lat="49.35345" lon="2.25987">
        <ele>51.57</ele>
        <time>2016-06-24T07:48:10Z</time>
      </trkpt>
      <trkpt lat="49.35338" lon="2.26142">
        <ele>53.01</ele>
        <time>2016-06-24T07:48:29Z</time>
      </trkpt>
      <trkpt lat="49.3536" lon="2.26264">
        <ele>52.53</ele>
        <time>2016-06-24T07:48:48Z</time>
      </trkpt>
      <trkpt lat="49.35375" lon="2.26359">
        <ele>52.05</ele>
        <time>2016-06-24T07:49:05Z</time>
      </trkpt>
      <trkpt lat="49.35378" lon="2.26367">
        <ele>52.05</ele>
        <time>2016-06-24T07:49:08Z</time>
      </trkpt>
      <trkpt lat="49.35379" lon="2.26367">
        <ele>52.05</ele>
        <time>2016-06-24T07:49:09Z</time>
      </trkpt>
      <trkpt lat="49.35381" lon="2.26366">
        <ele>52.05</ele>
        <time>2016-06-24T07:49:10Z</time>
      </trkpt>
      <trkpt lat="49.35382" lon="2.26363">
        <ele>52.53</ele>
        <time>2016-06-24T07:49:11Z</time>
      </trkpt>
      <trkpt lat="49.35382" lon="2.2636">
        <ele>52.53</ele>
        <time>2016-06-24T07:49:12Z</time>
      </trkpt>
      <trkpt lat="49.35407" lon="2.26305">
        <ele>55.41</ele>
        <time>2016-06-24T07:49:28Z</time>
      </trkpt>
      <trkpt lat="49.35444" lon="2.26222">
        <ele>55.89</ele>
        <time>2016-06-24T07:49:46Z</time>
      </trkpt>
      <trkpt lat="49.35476" lon="2.26134">
        <ele>55.41</ele>
        <time>2016-06-24T07:50:03Z</time>
      </trkpt>
      <trkpt lat="49.35497" lon="2.261">
        <ele>56.37</ele>
        <time>2016-06-24T07:50:14Z</time>
      </trkpt>
      <trkpt lat="49.355" lon="2.26105">
        <ele>56.86</ele>
        <time>2016-06-24T07:50:17Z</time>
      </trkpt>
      <trkpt lat="49.35508" lon="2.26174">
        <ele>57.82</ele>
        <time>2016-06-24T07:50:33Z</time>
      </trkpt>
      <trkpt lat="49.35518" lon="2.26267">
        <ele>59.74</ele>
        <time>2016-06-24T07:50:52Z</time>
      </trkpt>
      <trkpt lat="49.35526" lon="2.26352">
        <ele>61.18</ele>
        <time>2016-06-24T07:51:12Z</time>
      </trkpt>
      <trkpt lat="49.35535" lon="2.26447">
        <ele>63.1</ele>
        <time>2016-06-24T07:51:34Z</time>
      </trkpt>
      <trkpt lat="49.35546" lon="2.26552">
        <ele>63.58</ele>
        <time>2016-06-24T07:51:54Z</time>
      </trkpt>
      <trkpt lat="49.35557" lon="2.26678">
        <ele>63.58</ele>
        <time>2016-06-24T07:52:13Z</time>
      </trkpt>
      <trkpt lat="49.35565" lon="2.26828">
        <ele>62.62</ele>
        <time>2016-06-24T07:52:31Z</time>
      </trkpt>
      <trkpt lat="49.35554" lon="2.26988">
        <ele>60.7</ele>
        <time>2016-06-24T07:52:48Z</time>
      </trkpt>
      <trkpt lat="49.35513" lon="2.27188">
        <ele>58.78</ele>
        <time>2016-06-24T07:53:08Z</time>
      </trkpt>
      <trkpt lat="49.35458" lon="2.27341">
        <ele>56.37</ele>
        <time>2016-06-24T07:53:24Z</time>
      </trkpt>
      <trkpt lat="49.35376" lon="2.2749">
        <ele>53.97</ele>
        <time>2016-06-24T07:53:43Z</time>
      </trkpt>
      <trkpt lat="49.35288" lon="2.27624">
        <ele>52.53</ele>
        <time>2016-06-24T07:54:01Z</time>
      </trkpt>
      <trkpt lat="49.35193" lon="2.27765">
        <ele>51.09</ele>
        <time>2016-06-24T07:54:20Z</time>
      </trkpt>
      <trkpt lat="49.35107" lon="2.27885">
        <ele>51.09</ele>
        <time>2016-06-24T07:54:38Z</time>
      </trkpt>
      <trkpt lat="49.35033" lon="2.28032">
        <ele>51.57</ele>
        <time>2016-06-24T07:55:00Z</time>
      </trkpt>
      <trkpt lat="49.34969" lon="2.28156">
        <ele>50.61</ele>
        <time>2016-06-24T07:55:18Z</time>
      </trkpt>
      <trkpt lat="49.34903" lon="2.28287">
        <ele>49.16</ele>
        <time>2016-06-24T07:55:35Z</time>
      </trkpt>
      <trkpt lat="49.34851" lon="2.28417">
        <ele>49.65</ele>
        <time>2016-06-24T07:55:51Z</time>
      </trkpt>
      <trkpt lat="49.34827" lon="2.28561">
        <ele>48.68</ele>
        <time>2016-06-24T07:56:09Z</time>
      </trkpt>
      <trkpt lat="49.34822" lon="2.28727">
        <ele>47.72</ele>
        <time>2016-06-24T07:56:29Z</time>
      </trkpt>
      <trkpt lat="49.34797" lon="2.28907">
        <ele>47.24</ele>
        <time>2016-06-24T07:56:50Z</time>
      </trkpt>
      <trkpt lat="49.34786" lon="2.29082">
        <ele>47.24</ele>
        <time>2016-06-24T07:57:10Z</time>
      </trkpt>
      <trkpt lat="49.34776" lon="2.29261">
        <ele>49.65</ele>
        <time>2016-06-24T07:57:32Z</time>
      </trkpt>
      <trkpt lat="49.34751" lon="2.2942">
        <ele>51.09</ele>
        <time>2016-06-24T07:57:52Z</time>
      </trkpt>
      <trkpt lat="49.34724" lon="2.29595">
        <ele>50.61</ele>
        <time>2016-06-24T07:58:11Z</time>
      </trkpt>
      <trkpt lat="49.34715" lon="2.29764">
        <ele>48.2</ele>
        <time>2016-06-24T07:58:28Z</time>
      </trkpt>
      <trkpt lat="49.3471" lon="2.2996">
        <ele>47.72</ele>
        <time>2016-06-24T07:58:49Z</time>
      </trkpt>
      <trkpt lat="49.34691" lon="2.30156">
        <ele>48.2</ele>
        <time>2016-06-24T07:59:10Z</time>
      </trkpt>
      <trkpt lat="49.34646" lon="2.30306">
        <ele>48.2</ele>
        <time>2016-06-24T07:59:27Z</time>
      </trkpt>
      <trkpt lat="49.34561" lon="2.30455">
        <ele>49.16</ele>
        <time>2016-06-24T07:59:48Z</time>
      </trkpt>
      <trkpt lat="49.34468" lon="2.30555">
        <ele>50.61</ele>
        <time>2016-06-24T08:00:09Z</time>
      </trkpt>
      <trkpt lat="49.34382" lon="2.30608">
        <ele>52.05</ele>
        <time>2016-06-24T08:00:27Z</time>
      </trkpt>
      <trkpt lat="49.3429" lon="2.30638">
        <ele>53.01</ele>
        <time>2016-06-24T08:00:48Z</time>
      </trkpt>
      <trkpt lat="49.34198" lon="2.30633">
        <ele>53.49</ele>
        <time>2016-06-24T08:01:09Z</time>
      </trkpt>
      <trkpt lat="49.34109" lon="2.30599">
        <ele>53.49</ele>
        <time>2016-06-24T08:01:26Z</time>
      </trkpt>
      <trkpt lat="49.33989" lon="2.30547">
        <ele>53.97</ele>
        <time>2016-06-24T08:01:47Z</time>
      </trkpt>
      <trkpt lat="49.33856" lon="2.30488">
        <ele>53.01</ele>
        <time>2016-06-24T08:02:10Z</time>
      </trkpt>
      <trkpt lat="49.33722" lon="2.30427">
        <ele>51.09</ele>
        <time>2016-06-24T08:02:32Z</time>
      </trkpt>
      <trkpt lat="49.33585" lon="2.30374">
        <ele>48.68</ele>
        <time>2016-06-24T08:02:54Z</time>
      </trkpt>
      <trkpt lat="49.33492" lon="2.3039">
        <ele>47.72</ele>
        <time>2016-06-24T08:03:10Z</time>
      </trkpt>
      <trkpt lat="49.33415" lon="2.30444">
        <ele>49.16</ele>
        <time>2016-06-24T08:03:26Z</time>
      </trkpt>
      <trkpt lat="49.33378" lon="2.3049">
        <ele>50.61</ele>
        <time>2016-06-24T08:03:35Z</time>
      </trkpt>
      <trkpt lat="49.33324" lon="2.30607">
        <ele>49.16</ele>
        <time>2016-06-24T08:03:52Z</time>
      </trkpt>
      <trkpt lat="49.33274" lon="2.30771">
        <ele>46.28</ele>
        <time>2016-06-24T08:04:10Z</time>
      </trkpt>
      <trkpt lat="49.33221" lon="2.30943">
        <ele>42.44</ele>
        <time>2016-06-24T08:04:28Z</time>
      </trkpt>
      <trkpt lat="49.33195" lon="2.31023">
        <ele>40.99</ele>
        <time>2016-06-24T08:04:37Z</time>
      </trkpt>
      <trkpt lat="49.33191" lon="2.31032">
        <ele>40.99</ele>
        <time>2016-06-24T08:04:38Z</time>
      </trkpt>
      <trkpt lat="49.33137" lon="2.31184">
        <ele>38.59</ele>
        <time>2016-06-24T08:04:56Z</time>
      </trkpt>
      <trkpt lat="49.33066" lon="2.3135">
        <ele>37.15</ele>
        <time>2016-06-24T08:05:16Z</time>
      </trkpt>
      <trkpt lat="49.33001" lon="2.31494">
        <ele>39.55</ele>
        <time>2016-06-24T08:05:33Z</time>
      </trkpt>
      <trkpt lat="49.32948" lon="2.31619">
        <ele>33.78</ele>
        <time>2016-06-24T08:05:48Z</time>
      </trkpt>
      <trkpt lat="49.32897" lon="2.3174">
        <ele>31.38</ele>
        <time>2016-06-24T08:06:03Z</time>
      </trkpt>
      <trkpt lat="49.32836" lon="2.31878">
        <ele>28.02</ele>
        <time>2016-06-24T08:06:21Z</time>
      </trkpt>
      <trkpt lat="49.32775" lon="2.32012">
        <ele>28.02</ele>
        <time>2016-06-24T08:06:38Z</time>
      </trkpt>
      <trkpt lat="49.32721" lon="2.32131">
        <ele>28.98</ele>
        <time>2016-06-24T08:06:54Z</time>
      </trkpt>
      <trkpt lat="49.32684" lon="2.32218">
        <ele>26.09</ele>
        <time>2016-06-24T08:07:07Z</time>
      </trkpt>
      <trkpt lat="49.32636" lon="2.32325">
        <ele>25.13</ele>
        <time>2016-06-24T08:07:23Z</time>
      </trkpt>
      <trkpt lat="49.32604" lon="2.32398">
        <ele>22.73</ele>
        <time>2016-06-24T08:07:35Z</time>
      </trkpt>
      <trkpt lat="49.32601" lon="2.32402">
        <ele>22.25</ele>
        <time>2016-06-24T08:07:36Z</time>
      </trkpt>
      <trkpt lat="49.32565" lon="2.32485">
        <ele>26.57</ele>
        <time>2016-06-24T08:07:50Z</time>
      </trkpt>
      <trkpt lat="49.32558" lon="2.32496">
        <ele>29.46</ele>
        <time>2016-06-24T08:07:52Z</time>
      </trkpt>
      <trkpt lat="49.32555" lon="2.32499">
        <ele>29.94</ele>
        <time>2016-06-24T08:07:53Z</time>
      </trkpt>
      <trkpt lat="49.32551" lon="2.32502">
        <ele>30.9</ele>
        <time>2016-06-24T08:07:54Z</time>
      </trkpt>
      <trkpt lat="49.32542" lon="2.32502">
        <ele>31.86</ele>
        <time>2016-06-24T08:07:56Z</time>
      </trkpt>
      <trkpt lat="49.32537" lon="2.32501">
        <ele>33.3</ele>
        <time>2016-06-24T08:07:57Z</time>
      </trkpt>
      <trkpt lat="49.32533" lon="2.325">
        <ele>34.26</ele>
        <time>2016-06-24T08:07:58Z</time>
      </trkpt>
      <trkpt lat="49.32488" lon="2.32463">
        <ele>38.59</ele>
        <time>2016-06-24T08:08:11Z</time>
      </trkpt>
      <trkpt lat="49.32411" lon="2.32421">
        <ele>40.51</ele>
        <time>2016-06-24T08:08:31Z</time>
      </trkpt>
      <trkpt lat="49.32378" lon="2.32403">
        <ele>40.99</ele>
        <time>2016-06-24T08:08:45Z</time>
      </trkpt>
      <trkpt lat="49.32314" lon="2.3237">
        <ele>40.51</ele>
        <time>2016-06-24T08:09:00Z</time>
      </trkpt>
      <trkpt lat="49.32283" lon="2.32355">
        <ele>42.44</ele>
        <time>2016-06-24T08:09:06Z</time>
      </trkpt>
      <trkpt lat="49.32273" lon="2.32353">
        <ele>43.4</ele>
        <time>2016-06-24T08:09:08Z</time>
      </trkpt>
      <trkpt lat="49.32211" lon="2.32331">
        <ele>45.8</ele>
        <time>2016-06-24T08:09:24Z</time>
      </trkpt>
      <trkpt lat="49.3216" lon="2.32311">
        <ele>46.28</ele>
        <time>2016-06-24T08:09:38Z</time>
      </trkpt>
      <trkpt lat="49.32107" lon="2.32287">
        <ele>48.2</ele>
        <time>2016-06-24T08:09:55Z</time>
      </trkpt>
      <trkpt lat="49.32071" lon="2.32254">
        <ele>49.16</ele>
        <time>2016-06-24T08:10:07Z</time>
      </trkpt>
      <trkpt lat="49.3205" lon="2.32191">
        <ele>50.13</ele>
        <time>2016-06-24T08:10:21Z</time>
      </trkpt>
      <trkpt lat="49.32027" lon="2.32142">
        <ele>50.13</ele>
        <time>2016-06-24T08:10:35Z</time>
      </trkpt>
      <trkpt lat="49.32013" lon="2.32137">
        <ele>48.68</ele>
        <time>2016-06-24T08:10:43Z</time>
      </trkpt>
      <trkpt lat="49.32011" lon="2.32138">
        <ele>48.2</ele>
        <time>2016-06-24T08:10:44Z</time>
      </trkpt>
      <trkpt lat="49.3201" lon="2.32141">
        <ele>47.72</ele>
        <time>2016-06-24T08:10:45Z</time>
      </trkpt>
      <trkpt lat="49.32009" lon="2.32144">
        <ele>47.24</ele>
        <time>2016-06-24T08:10:46Z</time>
      </trkpt>
      <trkpt lat="49.32009" lon="2.32148">
        <ele>47.24</ele>
        <time>2016-06-24T08:10:47Z</time>
      </trkpt>
      <trkpt lat="49.32001" lon="2.3221">
        <ele>45.32</ele>
        <time>2016-06-24T08:10:59Z</time>
      </trkpt>
      <trkpt lat="49.31998" lon="2.32215">
        <ele>44.84</ele>
        <time>2016-06-24T08:11:00Z</time>
      </trkpt>
      <trkpt lat="49.31995" lon="2.32219">
        <ele>44.84</ele>
        <time>2016-06-24T08:11:01Z</time>
      </trkpt>
      <trkpt lat="49.31964" lon="2.32261">
        <ele>42.92</ele>
        <time>2016-06-24T08:11:15Z</time>
      </trkpt>
      <trkpt lat="49.31965" lon="2.32261">
        <ele>42.92</ele>
        <time>2016-06-24T08:11:38Z</time>
      </trkpt>
      <trkpt lat="49.31964" lon="2.32266">
        <ele>42.44</ele>
        <time>2016-06-24T08:12:03Z</time>
      </trkpt>
      <trkpt lat="49.31963" lon="2.32262">
        <ele>42.44</ele>
        <time>2016-06-24T08:12:23Z</time>
      </trkpt>
      <trkpt lat="49.31965" lon="2.32263">
        <ele>41.47</ele>
        <time>2016-06-24T08:12:42Z</time>
      </trkpt>
      <trkpt lat="49.31966" lon="2.32261">
        <ele>40.51</ele>
        <time>2016-06-24T08:13:09Z</time>
      </trkpt>
      <trkpt lat="49.31955" lon="2.32281">
        <ele>42.44</ele>
        <time>2016-06-24T08:13:27Z</time>
      </trkpt>
      <trkpt lat="49.31937" lon="2.32305">
        <ele>43.4</ele>
        <time>2016-06-24T08:13:34Z</time>
      </trkpt>
      <trkpt lat="49.31933" lon="2.32307">
        <ele>43.4</ele>
        <time>2016-06-24T08:13:35Z</time>
      </trkpt>
      <trkpt lat="49.31929" lon="2.32309">
        <ele>43.4</ele>
        <time>2016-06-24T08:13:36Z</time>
      </trkpt>
      <trkpt lat="49.31853" lon="2.32334">
        <ele>42.92</ele>
        <time>2016-06-24T08:13:54Z</time>
      </trkpt>
      <trkpt lat="49.31782" lon="2.32357">
        <ele>42.92</ele>
        <time>2016-06-24T08:14:09Z</time>
      </trkpt>
      <trkpt lat="49.31734" lon="2.32372">
        <ele>43.4</ele>
        <time>2016-06-24T08:14:22Z</time>
      </trkpt>
      <trkpt lat="49.31733" lon="2.32369">
        <ele>44.84</ele>
        <time>2016-06-24T08:14:58Z</time>
      </trkpt>
      <trkpt lat="49.31727" lon="2.3237">
        <ele>43.88</ele>
        <time>2016-06-24T08:15:20Z</time>
      </trkpt>
      <trkpt lat="49.3169" lon="2.32385">
        <ele>42.44</ele>
        <time>2016-06-24T08:15:33Z</time>
      </trkpt>
      <trkpt lat="49.31682" lon="2.32387">
        <ele>42.44</ele>
        <time>2016-06-24T08:15:35Z</time>
      </trkpt>
      <trkpt lat="49.31678" lon="2.32389">
        <ele>42.44</ele>
        <time>2016-06-24T08:15:36Z</time>
      </trkpt>
      <trkpt lat="49.31633" lon="2.32402">
        <ele>41.95</ele>
        <time>2016-06-24T08:15:47Z</time>
      </trkpt>
      <trkpt lat="49.31625" lon="2.32405">
        <ele>41.47</ele>
        <time>2016-06-24T08:15:49Z</time>
      </trkpt>
      <trkpt lat="49.31532" lon="2.32433">
        <ele>41.47</ele>
        <time>2016-06-24T08:16:10Z</time>
      </trkpt>
      <trkpt lat="49.31436" lon="2.32464">
        <ele>41.95</ele>
        <time>2016-06-24T08:16:31Z</time>
      </trkpt>
      <trkpt lat="49.31372" lon="2.3249">
        <ele>39.55</ele>
        <time>2016-06-24T08:16:46Z</time>
      </trkpt>
      <trkpt lat="49.31302" lon="2.32522">
        <ele>41.95</ele>
        <time>2016-06-24T08:17:03Z</time>
      </trkpt>
      <trkpt lat="49.31222" lon="2.32564">
        <ele>42.92</ele>
        <time>2016-06-24T08:17:22Z</time>
      </trkpt>
      <trkpt lat="49.31143" lon="2.32605">
        <ele>42.44</ele>
        <time>2016-06-24T08:17:41Z</time>
      </trkpt>
      <trkpt lat="49.31073" lon="2.32643">
        <ele>41.95</ele>
        <time>2016-06-24T08:17:58Z</time>
      </trkpt>
      <trkpt lat="49.30993" lon="2.32659">
        <ele>42.44</ele>
        <time>2016-06-24T08:18:19Z</time>
      </trkpt>
      <trkpt lat="49.30987" lon="2.32667">
        <ele>42.44</ele>
        <time>2016-06-24T08:18:21Z</time>
      </trkpt>
      <trkpt lat="49.30984" lon="2.32672">
        <ele>42.44</ele>
        <time>2016-06-24T08:18:22Z</time>
      </trkpt>
      <trkpt lat="49.30981" lon="2.32676">
        <ele>42.44</ele>
        <time>2016-06-24T08:18:23Z</time>
      </trkpt>
      <trkpt lat="49.30924" lon="2.32721">
        <ele>44.36</ele>
        <time>2016-06-24T08:18:38Z</time>
      </trkpt>
      <trkpt lat="49.30832" lon="2.32771">
        <ele>45.8</ele>
        <time>2016-06-24T08:18:57Z</time>
      </trkpt>
      <trkpt lat="49.30738" lon="2.3282">
        <ele>44.84</ele>
        <time>2016-06-24T08:19:16Z</time>
      </trkpt>
      <trkpt lat="49.30709" lon="2.32835">
        <ele>44.36</ele>
        <time>2016-06-24T08:19:22Z</time>
      </trkpt>
      <trkpt lat="49.30704" lon="2.32837">
        <ele>43.88</ele>
        <time>2016-06-24T08:19:23Z</time>
      </trkpt>
      <trkpt lat="49.30642" lon="2.32872">
        <ele>42.44</ele>
        <time>2016-06-24T08:19:37Z</time>
      </trkpt>
      <trkpt lat="49.30576" lon="2.3291">
        <ele>43.4</ele>
        <time>2016-06-24T08:19:53Z</time>
      </trkpt>
      <trkpt lat="49.3054" lon="2.32934">
        <ele>43.88</ele>
        <time>2016-06-24T08:20:02Z</time>
      </trkpt>
      <trkpt lat="49.3048" lon="2.32974">
        <ele>45.8</ele>
        <time>2016-06-24T08:20:18Z</time>
      </trkpt>
      <trkpt lat="49.30435" lon="2.33009">
        <ele>48.2</ele>
        <time>2016-06-24T08:20:34Z</time>
      </trkpt>
      <trkpt lat="49.30379" lon="2.33059">
        <ele>46.76</ele>
        <time>2016-06-24T08:20:52Z</time>
      </trkpt>
      <trkpt lat="49.3032" lon="2.33106">
        <ele>45.32</ele>
        <time>2016-06-24T08:21:08Z</time>
      </trkpt>
      <trkpt lat="49.30297" lon="2.33123">
        <ele>44.36</ele>
        <time>2016-06-24T08:21:14Z</time>
      </trkpt>
      <trkpt lat="49.30292" lon="2.33125">
        <ele>44.36</ele>
        <time>2016-06-24T08:21:15Z</time>
      </trkpt>
      <trkpt lat="49.3021" lon="2.33176">
        <ele>44.36</ele>
        <time>2016-06-24T08:21:32Z</time>
      </trkpt>
      <trkpt lat="49.30113" lon="2.33219">
        <ele>43.88</ele>
        <time>2016-06-24T08:21:49Z</time>
      </trkpt>
      <trkpt lat="49.3002" lon="2.33263">
        <ele>43.88</ele>
        <time>2016-06-24T08:22:06Z</time>
      </trkpt>
      <trkpt lat="49.2993" lon="2.33319">
        <ele>45.32</ele>
        <time>2016-06-24T08:22:25Z</time>
      </trkpt>
      <trkpt lat="49.29866" lon="2.3335">
        <ele>45.32</ele>
        <time>2016-06-24T08:22:39Z</time>
      </trkpt>
      <trkpt lat="49.29812" lon="2.33384">
        <ele>44.84</ele>
        <time>2016-06-24T08:22:54Z</time>
      </trkpt>
      <trkpt lat="49.29764" lon="2.33411">
        <ele>43.88</ele>
        <time>2016-06-24T08:23:09Z</time>
      </trkpt>
      <trkpt lat="49.29731" lon="2.3344">
        <ele>42.44</ele>
        <time>2016-06-24T08:23:21Z</time>
      </trkpt>
      <trkpt lat="49.29684" lon="2.33486">
        <ele>44.36</ele>
        <time>2016-06-24T08:23:36Z</time>
      </trkpt>
      <trkpt lat="49.29656" lon="2.3352">
        <ele>45.32</ele>
        <time>2016-06-24T08:23:45Z</time>
      </trkpt>
      <trkpt lat="49.29652" lon="2.33523">
        <ele>45.32</ele>
        <time>2016-06-24T08:23:46Z</time>
      </trkpt>
      <trkpt lat="49.29605" lon="2.33572">
        <ele>45.8</ele>
        <time>2016-06-24T08:24:02Z</time>
      </trkpt>
      <trkpt lat="49.2956" lon="2.33618">
        <ele>46.76</ele>
        <time>2016-06-24T08:24:17Z</time>
      </trkpt>
      <trkpt lat="49.29522" lon="2.33635">
        <ele>46.76</ele>
        <time>2016-06-24T08:24:28Z</time>
      </trkpt>
      <trkpt lat="49.29476" lon="2.33649">
        <ele>46.76</ele>
        <time>2016-06-24T08:24:40Z</time>
      </trkpt>
      <trkpt lat="49.29411" lon="2.33665">
        <ele>49.16</ele>
        <time>2016-06-24T08:24:55Z</time>
      </trkpt>
      <trkpt lat="49.29365" lon="2.33686">
        <ele>48.2</ele>
        <time>2016-06-24T08:25:08Z</time>
      </trkpt>
      <trkpt lat="49.29347" lon="2.33712">
        <ele>47.72</ele>
        <time>2016-06-24T08:25:14Z</time>
      </trkpt>
      <trkpt lat="49.29291" lon="2.33793">
        <ele>46.76</ele>
        <time>2016-06-24T08:25:28Z</time>
      </trkpt>
      <trkpt lat="49.29249" lon="2.33856">
        <ele>46.76</ele>
        <time>2016-06-24T08:25:37Z</time>
      </trkpt>
      <trkpt lat="49.29245" lon="2.33864">
        <ele>47.24</ele>
        <time>2016-06-24T08:25:38Z</time>
      </trkpt>
      <trkpt lat="49.29209" lon="2.33923">
        <ele>47.24</ele>
        <time>2016-06-24T08:25:47Z</time>
      </trkpt>
      <trkpt lat="49.29205" lon="2.33929">
        <ele>47.24</ele>
        <time>2016-06-24T08:25:48Z</time>
      </trkpt>
      <trkpt lat="49.29136" lon="2.34016">
        <ele>45.8</ele>
        <time>2016-06-24T08:26:04Z</time>
      </trkpt>
      <trkpt lat="49.29066" lon="2.34086">
        <ele>42.44</ele>
        <time>2016-06-24T08:26:21Z</time>
      </trkpt>
      <trkpt lat="49.28998" lon="2.34152">
        <ele>42.92</ele>
        <time>2016-06-24T08:26:39Z</time>
      </trkpt>
      <trkpt lat="49.2892" lon="2.34226">
        <ele>43.4</ele>
        <time>2016-06-24T08:27:00Z</time>
      </trkpt>
      <trkpt lat="49.28838" lon="2.34303">
        <ele>42.44</ele>
        <time>2016-06-24T08:27:19Z</time>
      </trkpt>
      <trkpt lat="49.28738" lon="2.34403">
        <ele>40.99</ele>
        <time>2016-06-24T08:27:41Z</time>
      </trkpt>
      <trkpt lat="49.28666" lon="2.34487">
        <ele>40.99</ele>
        <time>2016-06-24T08:27:58Z</time>
      </trkpt>
      <trkpt lat="49.28635" lon="2.34569">
        <ele>41.47</ele>
        <time>2016-06-24T08:28:10Z</time>
      </trkpt>
      <trkpt lat="49.2862" lon="2.34635">
        <ele>41.47</ele>
        <time>2016-06-24T08:28:20Z</time>
      </trkpt>
      <trkpt lat="49.28603" lon="2.34741">
        <ele>38.59</ele>
        <time>2016-06-24T08:28:34Z</time>
      </trkpt>
      <trkpt lat="49.28594" lon="2.34791">
        <ele>38.59</ele>
        <time>2016-06-24T08:28:41Z</time>
      </trkpt>
      <trkpt lat="49.28593" lon="2.34797">
        <ele>39.07</ele>
        <time>2016-06-24T08:28:42Z</time>
      </trkpt>
      <trkpt lat="49.28578" lon="2.34887">
        <ele>40.03</ele>
        <time>2016-06-24T08:28:57Z</time>
      </trkpt>
      <trkpt lat="49.28579" lon="2.34894">
        <ele>40.03</ele>
        <time>2016-06-24T08:28:58Z</time>
      </trkpt>
      <trkpt lat="49.28599" lon="2.34997">
        <ele>40.51</ele>
        <time>2016-06-24T08:29:15Z</time>
      </trkpt>
      <trkpt lat="49.28621" lon="2.35069">
        <ele>41.47</ele>
        <time>2016-06-24T08:29:30Z</time>
      </trkpt>
      <trkpt lat="49.28638" lon="2.35139">
        <ele>40.99</ele>
        <time>2016-06-24T08:29:41Z</time>
      </trkpt>
      <trkpt lat="49.28668" lon="2.35269">
        <ele>37.63</ele>
        <time>2016-06-24T08:29:56Z</time>
      </trkpt>
      <trkpt lat="49.28675" lon="2.354">
        <ele>34.74</ele>
        <time>2016-06-24T08:30:08Z</time>
      </trkpt>
      <trkpt lat="49.28675" lon="2.35418">
        <ele>35.23</ele>
        <time>2016-06-24T08:30:10Z</time>
      </trkpt>
      <trkpt lat="49.2867" lon="2.35502">
        <ele>37.63</ele>
        <time>2016-06-24T08:30:24Z</time>
      </trkpt>
      <trkpt lat="49.28658" lon="2.35551">
        <ele>37.63</ele>
        <time>2016-06-24T08:30:34Z</time>
      </trkpt>
      <trkpt lat="49.28646" lon="2.35618">
        <ele>36.19</ele>
        <time>2016-06-24T08:30:48Z</time>
      </trkpt>
      <trkpt lat="49.28639" lon="2.35662">
        <ele>39.07</ele>
        <time>2016-06-24T08:30:58Z</time>
      </trkpt>
      <trkpt lat="49.28625" lon="2.35717">
        <ele>43.4</ele>
        <time>2016-06-24T08:31:10Z</time>
      </trkpt>
      <trkpt lat="49.28611" lon="2.35764">
        <ele>47.72</ele>
        <time>2016-06-24T08:31:22Z</time>
      </trkpt>
      <trkpt lat="49.28595" lon="2.35827">
        <ele>52.05</ele>
        <time>2016-06-24T08:31:37Z</time>
      </trkpt>
      <trkpt lat="49.28582" lon="2.35862">
        <ele>53.01</ele>
        <time>2016-06-24T08:31:49Z</time>
      </trkpt>
      <trkpt lat="49.28561" lon="2.35902">
        <ele>55.41</ele>
        <time>2016-06-24T08:32:04Z</time>
      </trkpt>
      <trkpt lat="49.2854" lon="2.35939">
        <ele>59.26</ele>
        <time>2016-06-24T08:32:17Z</time>
      </trkpt>
      <trkpt lat="49.28519" lon="2.35974">
        <ele>61.18</ele>
        <time>2016-06-24T08:32:28Z</time>
      </trkpt>
      <trkpt lat="49.28485" lon="2.36029">
        <ele>66.47</ele>
        <time>2016-06-24T08:32:40Z</time>
      </trkpt>
      <trkpt lat="49.28452" lon="2.36076">
        <ele>71.27</ele>
        <time>2016-06-24T08:32:52Z</time>
      </trkpt>
      <trkpt lat="49.28417" lon="2.36095">
        <ele>70.79</ele>
        <time>2016-06-24T08:33:02Z</time>
      </trkpt>
      <trkpt lat="49.28413" lon="2.36095">
        <ele>70.79</ele>
        <time>2016-06-24T08:33:03Z</time>
      </trkpt>
      <trkpt lat="49.28353" lon="2.36089">
        <ele>68.87</ele>
        <time>2016-06-24T08:33:12Z</time>
      </trkpt>
      <trkpt lat="49.28249" lon="2.36062">
        <ele>64.07</ele>
        <time>2016-06-24T08:33:24Z</time>
      </trkpt>
      <trkpt lat="49.28165" lon="2.36024">
        <ele>58.3</ele>
        <time>2016-06-24T08:33:38Z</time>
      </trkpt>
      <trkpt lat="49.28106" lon="2.35977">
        <ele>57.82</ele>
        <time>2016-06-24T08:33:55Z</time>
      </trkpt>
      <trkpt lat="49.28026" lon="2.35912">
        <ele>53.49</ele>
        <time>2016-06-24T08:34:11Z</time>
      </trkpt>
      <trkpt lat="49.27945" lon="2.35837">
        <ele>48.2</ele>
        <time>2016-06-24T08:34:26Z</time>
      </trkpt>
      <trkpt lat="49.27924" lon="2.35814">
        <ele>47.72</ele>
        <time>2016-06-24T08:34:30Z</time>
      </trkpt>
      <trkpt lat="49.27918" lon="2.35811">
        <ele>47.24</ele>
        <time>2016-06-24T08:34:31Z</time>
      </trkpt>
      <trkpt lat="49.27911" lon="2.35809">
        <ele>47.24</ele>
        <time>2016-06-24T08:34:32Z</time>
      </trkpt>
      <trkpt lat="49.27905" lon="2.35808">
        <ele>46.76</ele>
        <time>2016-06-24T08:34:33Z</time>
      </trkpt>
      <trkpt lat="49.27899" lon="2.35809">
        <ele>46.76</ele>
        <time>2016-06-24T08:34:34Z</time>
      </trkpt>
      <trkpt lat="49.27893" lon="2.35812">
        <ele>46.28</ele>
        <time>2016-06-24T08:34:35Z</time>
      </trkpt>
      <trkpt lat="49.27887" lon="2.35815">
        <ele>46.28</ele>
        <time>2016-06-24T08:34:36Z</time>
      </trkpt>
      <trkpt lat="49.27881" lon="2.35817">
        <ele>45.8</ele>
        <time>2016-06-24T08:34:37Z</time>
      </trkpt>
      <trkpt lat="49.27875" lon="2.35818">
        <ele>45.32</ele>
        <time>2016-06-24T08:34:38Z</time>
      </trkpt>
      <trkpt lat="49.27869" lon="2.35818">
        <ele>45.32</ele>
        <time>2016-06-24T08:34:39Z</time>
      </trkpt>
      <trkpt lat="49.27862" lon="2.35817">
        <ele>44.84</ele>
        <time>2016-06-24T08:34:40Z</time>
      </trkpt>
      <trkpt lat="49.27856" lon="2.35815">
        <ele>44.84</ele>
        <time>2016-06-24T08:34:41Z</time>
      </trkpt>
      <trkpt lat="49.2785" lon="2.35813">
        <ele>44.36</ele>
        <time>2016-06-24T08:34:42Z</time>
      </trkpt>
      <trkpt lat="49.27767" lon="2.35785">
        <ele>43.88</ele>
        <time>2016-06-24T08:34:56Z</time>
      </trkpt>
      <trkpt lat="49.27757" lon="2.35783">
        <ele>43.88</ele>
        <time>2016-06-24T08:34:58Z</time>
      </trkpt>
      <trkpt lat="49.27752" lon="2.35783">
        <ele>43.88</ele>
        <time>2016-06-24T08:34:59Z</time>
      </trkpt>
      <trkpt lat="49.27684" lon="2.35771">
        <ele>44.36</ele>
        <time>2016-06-24T08:35:14Z</time>
      </trkpt>
      <trkpt lat="49.27603" lon="2.35738">
        <ele>42.44</ele>
        <time>2016-06-24T08:35:33Z</time>
      </trkpt>
      <trkpt lat="49.27559" lon="2.35724">
        <ele>41.95</ele>
        <time>2016-06-24T08:35:43Z</time>
      </trkpt>
      <trkpt lat="49.27555" lon="2.35723">
        <ele>41.47</ele>
        <time>2016-06-24T08:35:44Z</time>
      </trkpt>
      <trkpt lat="49.27483" lon="2.35703">
        <ele>42.92</ele>
        <time>2016-06-24T08:36:02Z</time>
      </trkpt>
      <trkpt lat="49.27445" lon="2.35687">
        <ele>44.84</ele>
        <time>2016-06-24T08:36:17Z</time>
      </trkpt>
      <trkpt lat="49.2741" lon="2.35671">
        <ele>42.92</ele>
        <time>2016-06-24T08:36:31Z</time>
      </trkpt>
      <trkpt lat="49.27354" lon="2.35638">
        <ele>41.47</ele>
        <time>2016-06-24T08:36:47Z</time>
      </trkpt>
      <trkpt lat="49.27305" lon="2.35584">
        <ele>42.92</ele>
        <time>2016-06-24T08:37:03Z</time>
      </trkpt>
      <trkpt lat="49.27242" lon="2.35534">
        <ele>43.88</ele>
        <time>2016-06-24T08:37:20Z</time>
      </trkpt>
      <trkpt lat="49.2723" lon="2.35524">
        <ele>43.88</ele>
        <time>2016-06-24T08:37:23Z</time>
      </trkpt>
      <trkpt lat="49.27226" lon="2.3552">
        <ele>43.88</ele>
        <time>2016-06-24T08:37:24Z</time>
      </trkpt>
      <trkpt lat="49.27195" lon="2.35484">
        <ele>44.36</ele>
        <time>2016-06-24T08:37:33Z</time>
      </trkpt>
      <trkpt lat="49.27152" lon="2.35428">
        <ele>43.88</ele>
        <time>2016-06-24T08:37:49Z</time>
      </trkpt>
      <trkpt lat="49.27123" lon="2.35388">
        <ele>46.28</ele>
        <time>2016-06-24T08:38:04Z</time>
      </trkpt>
      <trkpt lat="49.27107" lon="2.35361">
        <ele>48.2</ele>
        <time>2016-06-24T08:38:15Z</time>
      </trkpt>
      <trkpt lat="49.27105" lon="2.35359">
        <ele>48.68</ele>
        <time>2016-06-24T08:38:16Z</time>
      </trkpt>
      <trkpt lat="49.27103" lon="2.35356">
        <ele>49.16</ele>
        <time>2016-06-24T08:38:17Z</time>
      </trkpt>
      <trkpt lat="49.27102" lon="2.35354">
        <ele>49.65</ele>
        <time>2016-06-24T08:38:18Z</time>
      </trkpt>
      <trkpt lat="49.271" lon="2.35351">
        <ele>50.13</ele>
        <time>2016-06-24T08:38:19Z</time>
      </trkpt>
      <trkpt lat="49.27065" lon="2.35295">
        <ele>53.01</ele>
        <time>2016-06-24T08:38:41Z</time>
      </trkpt>
      <trkpt lat="49.27028" lon="2.35243">
        <ele>51.09</ele>
        <time>2016-06-24T08:39:03Z</time>
      </trkpt>
      <trkpt lat="49.26989" lon="2.35213">
        <ele>53.49</ele>
        <time>2016-06-24T08:39:23Z</time>
      </trkpt>
      <trkpt lat="49.26946" lon="2.3519">
        <ele>55.41</ele>
        <time>2016-06-24T08:39:42Z</time>
      </trkpt>
      <trkpt lat="49.26908" lon="2.35177">
        <ele>56.37</ele>
        <time>2016-06-24T08:39:58Z</time>
      </trkpt>
      <trkpt lat="49.26884" lon="2.3517">
        <ele>57.34</ele>
        <time>2016-06-24T08:40:08Z</time>
      </trkpt>
      <trkpt lat="49.26883" lon="2.35168">
        <ele>57.34</ele>
        <time>2016-06-24T08:40:09Z</time>
      </trkpt>
      <trkpt lat="49.26859" lon="2.35142">
        <ele>57.34</ele>
        <time>2016-06-24T08:40:23Z</time>
      </trkpt>
      <trkpt lat="49.26856" lon="2.35138">
        <ele>57.82</ele>
        <time>2016-06-24T08:40:25Z</time>
      </trkpt>
      <trkpt lat="49.26854" lon="2.35135">
        <ele>58.3</ele>
        <time>2016-06-24T08:40:26Z</time>
      </trkpt>
      <trkpt lat="49.26844" lon="2.35118">
        <ele>59.74</ele>
        <time>2016-06-24T08:40:32Z</time>
      </trkpt>
      <trkpt lat="49.2683" lon="2.35078">
        <ele>58.78</ele>
        <time>2016-06-24T08:40:46Z</time>
      </trkpt>
      <trkpt lat="49.2682" lon="2.3505">
        <ele>55.41</ele>
        <time>2016-06-24T08:40:56Z</time>
      </trkpt>
      <trkpt lat="49.2682" lon="2.35047">
        <ele>54.93</ele>
        <time>2016-06-24T08:40:57Z</time>
      </trkpt>
      <trkpt lat="49.26819" lon="2.35044">
        <ele>54.45</ele>
        <time>2016-06-24T08:40:58Z</time>
      </trkpt>
      <trkpt lat="49.26818" lon="2.35042">
        <ele>54.45</ele>
        <time>2016-06-24T08:40:59Z</time>
      </trkpt>
      <trkpt lat="49.26817" lon="2.35039">
        <ele>53.97</ele>
        <time>2016-06-24T08:41:00Z</time>
      </trkpt>
      <trkpt lat="49.26816" lon="2.35036">
        <ele>53.49</ele>
        <time>2016-06-24T08:41:01Z</time>
      </trkpt>
      <trkpt lat="49.26803" lon="2.34991">
        <ele>47.24</ele>
        <time>2016-06-24T08:41:16Z</time>
      </trkpt>
      <trkpt lat="49.26788" lon="2.34953">
        <ele>41.47</ele>
        <time>2016-06-24T08:41:30Z</time>
      </trkpt>
      <trkpt lat="49.2676" lon="2.34919">
        <ele>44.84</ele>
        <time>2016-06-24T08:41:45Z</time>
      </trkpt>
      <trkpt lat="49.26736" lon="2.3489">
        <ele>53.97</ele>
        <time>2016-06-24T08:41:59Z</time>
      </trkpt>
      <trkpt lat="49.26734" lon="2.34888">
        <ele>54.45</ele>
        <time>2016-06-24T08:42:00Z</time>
      </trkpt>
      <trkpt lat="49.2671" lon="2.34859">
        <ele>58.78</ele>
        <time>2016-06-24T08:42:13Z</time>
      </trkpt>
      <trkpt lat="49.26703" lon="2.34851">
        <ele>60.22</ele>
        <time>2016-06-24T08:42:17Z</time>
      </trkpt>
      <trkpt lat="49.26702" lon="2.34849">
        <ele>60.22</ele>
        <time>2016-06-24T08:42:18Z</time>
      </trkpt>
      <trkpt lat="49.267" lon="2.34846">
        <ele>60.7</ele>
        <time>2016-06-24T08:42:19Z</time>
      </trkpt>
      <trkpt lat="49.26667" lon="2.34798">
        <ele>62.14</ele>
        <time>2016-06-24T08:42:39Z</time>
      </trkpt>
      <trkpt lat="49.26645" lon="2.34738">
        <ele>64.55</ele>
        <time>2016-06-24T08:42:59Z</time>
      </trkpt>
      <trkpt lat="49.26623" lon="2.3469">
        <ele>67.91</ele>
        <time>2016-06-24T08:43:15Z</time>
      </trkpt>
      <trkpt lat="49.26593" lon="2.34656">
        <ele>72.72</ele>
        <time>2016-06-24T08:43:31Z</time>
      </trkpt>
      <trkpt lat="49.26565" lon="2.34632">
        <ele>76.56</ele>
        <time>2016-06-24T08:43:46Z</time>
      </trkpt>
      <trkpt lat="49.26532" lon="2.34608">
        <ele>79.93</ele>
        <time>2016-06-24T08:44:03Z</time>
      </trkpt>
      <trkpt lat="49.26494" lon="2.34587">
        <ele>81.85</ele>
        <time>2016-06-24T08:44:20Z</time>
      </trkpt>
      <trkpt lat="49.26448" lon="2.34562">
        <ele>83.29</ele>
        <time>2016-06-24T08:44:39Z</time>
      </trkpt>
      <trkpt lat="49.26396" lon="2.34522">
        <ele>85.21</ele>
        <time>2016-06-24T08:45:01Z</time>
      </trkpt>
      <trkpt lat="49.26356" lon="2.34476">
        <ele>87.14</ele>
        <time>2016-06-24T08:45:22Z</time>
      </trkpt>
      <trkpt lat="49.26321" lon="2.3442">
        <ele>89.06</ele>
        <time>2016-06-24T08:45:44Z</time>
      </trkpt>
      <trkpt lat="49.26292" lon="2.34352">
        <ele>90.5</ele>
        <time>2016-06-24T08:46:04Z</time>
      </trkpt>
      <trkpt lat="49.26269" lon="2.34288">
        <ele>91.94</ele>
        <time>2016-06-24T08:46:22Z</time>
      </trkpt>
      <trkpt lat="49.26245" lon="2.34217">
        <ele>92.9</ele>
        <time>2016-06-24T08:46:41Z</time>
      </trkpt>
      <trkpt lat="49.26215" lon="2.34135">
        <ele>93.39</ele>
        <time>2016-06-24T08:47:01Z</time>
      </trkpt>
      <trkpt lat="49.26189" lon="2.34065">
        <ele>95.31</ele>
        <time>2016-06-24T08:47:20Z</time>
      </trkpt>
      <trkpt lat="49.2617" lon="2.34057">
        <ele>94.83</ele>
        <time>2016-06-24T08:47:28Z</time>
      </trkpt>
      <trkpt lat="49.26168" lon="2.34055">
        <ele>94.83</ele>
        <time>2016-06-24T08:47:29Z</time>
      </trkpt>
      <trkpt lat="49.26167" lon="2.34051">
        <ele>94.83</ele>
        <time>2016-06-24T08:47:30Z</time>
      </trkpt>
      <trkpt lat="49.26168" lon="2.34048">
        <ele>94.83</ele>
        <time>2016-06-24T08:47:31Z</time>
      </trkpt>
      <trkpt lat="49.26168" lon="2.34045">
        <ele>95.31</ele>
        <time>2016-06-24T08:47:32Z</time>
      </trkpt>
      <trkpt lat="49.26168" lon="2.34042">
        <ele>95.79</ele>
        <time>2016-06-24T08:47:33Z</time>
      </trkpt>
      <trkpt lat="49.26168" lon="2.34038">
        <ele>95.79</ele>
        <time>2016-06-24T08:47:34Z</time>
      </trkpt>
      <trkpt lat="49.26168" lon="2.34034">
        <ele>95.79</ele>
        <time>2016-06-24T08:47:35Z</time>
      </trkpt>
      <trkpt lat="49.26149" lon="2.33975">
        <ele>97.71</ele>
        <time>2016-06-24T08:47:52Z</time>
      </trkpt>
      <trkpt lat="49.26123" lon="2.33902">
        <ele>98.19</ele>
        <time>2016-06-24T08:48:12Z</time>
      </trkpt>
      <trkpt lat="49.26108" lon="2.33857">
        <ele>98.67</ele>
        <time>2016-06-24T08:48:25Z</time>
      </trkpt>
      <trkpt lat="49.26081" lon="2.33783">
        <ele>99.15</ele>
        <time>2016-06-24T08:48:43Z</time>
      </trkpt>
      <trkpt lat="49.26054" lon="2.33706">
        <ele>99.63</ele>
        <time>2016-06-24T08:49:02Z</time>
      </trkpt>
      <trkpt lat="49.26029" lon="2.33638">
        <ele>100.6</ele>
        <time>2016-06-24T08:49:20Z</time>
      </trkpt>
      <trkpt lat="49.26002" lon="2.33563">
        <ele>102.04</ele>
        <time>2016-06-24T08:49:39Z</time>
      </trkpt>
      <trkpt lat="49.25979" lon="2.33498">
        <ele>103.96</ele>
        <time>2016-06-24T08:49:56Z</time>
      </trkpt>
      <trkpt lat="49.25955" lon="2.33431">
        <ele>104.92</ele>
        <time>2016-06-24T08:50:15Z</time>
      </trkpt>
      <trkpt lat="49.25929" lon="2.33358">
        <ele>108.29</ele>
        <time>2016-06-24T08:50:36Z</time>
      </trkpt>
      <trkpt lat="49.25905" lon="2.33298">
        <ele>109.25</ele>
        <time>2016-06-24T08:50:54Z</time>
      </trkpt>
      <trkpt lat="49.25887" lon="2.33246">
        <ele>111.17</ele>
        <time>2016-06-24T08:51:12Z</time>
      </trkpt>
      <trkpt lat="49.25887" lon="2.33243">
        <ele>111.17</ele>
        <time>2016-06-24T08:51:13Z</time>
      </trkpt>
      <trkpt lat="49.25887" lon="2.33241">
        <ele>110.69</ele>
        <time>2016-06-24T08:51:14Z</time>
      </trkpt>
      <trkpt lat="49.25887" lon="2.33238">
        <ele>111.17</ele>
        <time>2016-06-24T08:51:15Z</time>
      </trkpt>
      <trkpt lat="49.25887" lon="2.33234">
        <ele>111.17</ele>
        <time>2016-06-24T08:51:16Z</time>
      </trkpt>
      <trkpt lat="49.25887" lon="2.3323">
        <ele>111.65</ele>
        <time>2016-06-24T08:51:17Z</time>
      </trkpt>
      <trkpt lat="49.25886" lon="2.33226">
        <ele>112.13</ele>
        <time>2016-06-24T08:51:18Z</time>
      </trkpt>
      <trkpt lat="49.25886" lon="2.33222">
        <ele>112.13</ele>
        <time>2016-06-24T08:51:19Z</time>
      </trkpt>
      <trkpt lat="49.25862" lon="2.33151">
        <ele>113.09</ele>
        <time>2016-06-24T08:51:36Z</time>
      </trkpt>
      <trkpt lat="49.25851" lon="2.33087">
        <ele>112.61</ele>
        <time>2016-06-24T08:51:51Z</time>
      </trkpt>
      <trkpt lat="49.25838" lon="2.32999">
        <ele>111.65</ele>
        <time>2016-06-24T08:52:09Z</time>
      </trkpt>
      <trkpt lat="49.25825" lon="2.32918">
        <ele>112.13</ele>
        <time>2016-06-24T08:52:27Z</time>
      </trkpt>
      <trkpt lat="49.25819" lon="2.32881">
        <ele>112.61</ele>
        <time>2016-06-24T08:52:35Z</time>
      </trkpt>
      <trkpt lat="49.2582" lon="2.32875">
        <ele>112.61</ele>
        <time>2016-06-24T08:52:36Z</time>
      </trkpt>
      <trkpt lat="49.25809" lon="2.32811">
        <ele>112.13</ele>
        <time>2016-06-24T08:52:49Z</time>
      </trkpt>
      <trkpt lat="49.25779" lon="2.32746">
        <ele>112.61</ele>
        <time>2016-06-24T08:53:07Z</time>
      </trkpt>
      <trkpt lat="49.25749" lon="2.32713">
        <ele>112.61</ele>
        <time>2016-06-24T08:53:20Z</time>
      </trkpt>
      <trkpt lat="49.25694" lon="2.3266">
        <ele>112.13</ele>
        <time>2016-06-24T08:53:39Z</time>
      </trkpt>
      <trkpt lat="49.2563" lon="2.32609">
        <ele>112.61</ele>
        <time>2016-06-24T08:54:00Z</time>
      </trkpt>
      <trkpt lat="49.25572" lon="2.3256">
        <ele>113.57</ele>
        <time>2016-06-24T08:54:19Z</time>
      </trkpt>
      <trkpt lat="49.2551" lon="2.32511">
        <ele>113.57</ele>
        <time>2016-06-24T08:54:39Z</time>
      </trkpt>
      <trkpt lat="49.25471" lon="2.32481">
        <ele>114.53</ele>
        <time>2016-06-24T08:54:56Z</time>
      </trkpt>
      <trkpt lat="49.25422" lon="2.32443">
        <ele>116.46</ele>
        <time>2016-06-24T08:55:18Z</time>
      </trkpt>
      <trkpt lat="49.25387" lon="2.32416">
        <ele>116.94</ele>
        <time>2016-06-24T08:55:35Z</time>
      </trkpt>
      <trkpt lat="49.25344" lon="2.32384">
        <ele>119.82</ele>
        <time>2016-06-24T08:55:56Z</time>
      </trkpt>
      <trkpt lat="49.25299" lon="2.32349">
        <ele>121.74</ele>
        <time>2016-06-24T08:56:18Z</time>
      </trkpt>
      <trkpt lat="49.25256" lon="2.32314">
        <ele>123.19</ele>
        <time>2016-06-24T08:56:39Z</time>
      </trkpt>
      <trkpt lat="49.25219" lon="2.3228">
        <ele>124.63</ele>
        <time>2016-06-24T08:56:57Z</time>
      </trkpt>
      <trkpt lat="49.25174" lon="2.32232">
        <ele>126.07</ele>
        <time>2016-06-24T08:57:19Z</time>
      </trkpt>
      <trkpt lat="49.25133" lon="2.32179">
        <ele>127.03</ele>
        <time>2016-06-24T08:57:39Z</time>
      </trkpt>
      <trkpt lat="49.25088" lon="2.32112">
        <ele>127.03</ele>
        <time>2016-06-24T08:57:57Z</time>
      </trkpt>
      <trkpt lat="49.25045" lon="2.32039">
        <ele>127.03</ele>
        <time>2016-06-24T08:58:17Z</time>
      </trkpt>
      <trkpt lat="49.24991" lon="2.31944">
        <ele>124.63</ele>
        <time>2016-06-24T08:58:33Z</time>
      </trkpt>
      <trkpt lat="49.2491" lon="2.31798">
        <ele>120.3</ele>
        <time>2016-06-24T08:58:52Z</time>
      </trkpt>
      <trkpt lat="49.24897" lon="2.31768">
        <ele>119.34</ele>
        <time>2016-06-24T08:58:56Z</time>
      </trkpt>
      <trkpt lat="49.24895" lon="2.3176">
        <ele>118.86</ele>
        <time>2016-06-24T08:58:57Z</time>
      </trkpt>
      <trkpt lat="49.24894" lon="2.31751">
        <ele>118.86</ele>
        <time>2016-06-24T08:58:58Z</time>
      </trkpt>
      <trkpt lat="49.24893" lon="2.31743">
        <ele>118.86</ele>
        <time>2016-06-24T08:58:59Z</time>
      </trkpt>
      <trkpt lat="49.24891" lon="2.31735">
        <ele>118.86</ele>
        <time>2016-06-24T08:59:00Z</time>
      </trkpt>
      <trkpt lat="49.24888" lon="2.31728">
        <ele>118.86</ele>
        <time>2016-06-24T08:59:01Z</time>
      </trkpt>
      <trkpt lat="49.24884" lon="2.31722">
        <ele>118.38</ele>
        <time>2016-06-24T08:59:02Z</time>
      </trkpt>
      <trkpt lat="49.24879" lon="2.31718">
        <ele>118.38</ele>
        <time>2016-06-24T08:59:03Z</time>
      </trkpt>
      <trkpt lat="49.24875" lon="2.31715">
        <ele>118.38</ele>
        <time>2016-06-24T08:59:04Z</time>
      </trkpt>
      <trkpt lat="49.2487" lon="2.31712">
        <ele>118.38</ele>
        <time>2016-06-24T08:59:05Z</time>
      </trkpt>
      <trkpt lat="49.24861" lon="2.31706">
        <ele>118.38</ele>
        <time>2016-06-24T08:59:07Z</time>
      </trkpt>
      <trkpt lat="49.24857" lon="2.31701">
        <ele>118.38</ele>
        <time>2016-06-24T08:59:08Z</time>
      </trkpt>
      <trkpt lat="49.24812" lon="2.31626">
        <ele>119.34</ele>
        <time>2016-06-24T08:59:25Z</time>
      </trkpt>
      <trkpt lat="49.24776" lon="2.31565">
        <ele>120.3</ele>
        <time>2016-06-24T08:59:44Z</time>
      </trkpt>
      <trkpt lat="49.24741" lon="2.31504">
        <ele>123.67</ele>
        <time>2016-06-24T09:00:06Z</time>
      </trkpt>
      <trkpt lat="49.24721" lon="2.31468">
        <ele>125.59</ele>
        <time>2016-06-24T09:00:21Z</time>
      </trkpt>
      <trkpt lat="49.24694" lon="2.31422">
        <ele>127.99</ele>
        <time>2016-06-24T09:00:42Z</time>
      </trkpt>
      <trkpt lat="49.24666" lon="2.31374">
        <ele>129.92</ele>
        <time>2016-06-24T09:01:03Z</time>
      </trkpt>
      <trkpt lat="49.24644" lon="2.31333">
        <ele>132.32</ele>
        <time>2016-06-24T09:01:21Z</time>
      </trkpt>
      <trkpt lat="49.24619" lon="2.3129">
        <ele>134.24</ele>
        <time>2016-06-24T09:01:38Z</time>
      </trkpt>
      <trkpt lat="49.24592" lon="2.31243">
        <ele>135.68</ele>
        <time>2016-06-24T09:01:56Z</time>
      </trkpt>
      <trkpt lat="49.24554" lon="2.31176">
        <ele>138.09</ele>
        <time>2016-06-24T09:02:20Z</time>
      </trkpt>
      <trkpt lat="49.24524" lon="2.31125">
        <ele>140.97</ele>
        <time>2016-06-24T09:02:41Z</time>
      </trkpt>
      <trkpt lat="49.24487" lon="2.31061">
        <ele>143.37</ele>
        <time>2016-06-24T09:03:04Z</time>
      </trkpt>
      <trkpt lat="49.24457" lon="2.31008">
        <ele>145.3</ele>
        <time>2016-06-24T09:03:25Z</time>
      </trkpt>
      <trkpt lat="49.24424" lon="2.30951">
        <ele>147.22</ele>
        <time>2016-06-24T09:03:47Z</time>
      </trkpt>
      <trkpt lat="49.24397" lon="2.30904">
        <ele>149.14</ele>
        <time>2016-06-24T09:04:06Z</time>
      </trkpt>
      <trkpt lat="49.24364" lon="2.30846">
        <ele>151.54</ele>
        <time>2016-06-24T09:04:27Z</time>
      </trkpt>
      <trkpt lat="49.24336" lon="2.30797">
        <ele>152.99</ele>
        <time>2016-06-24T09:04:45Z</time>
      </trkpt>
      <trkpt lat="49.24303" lon="2.30738">
        <ele>154.43</ele>
        <time>2016-06-24T09:05:06Z</time>
      </trkpt>
      <trkpt lat="49.24262" lon="2.30669">
        <ele>156.83</ele>
        <time>2016-06-24T09:05:29Z</time>
      </trkpt>
      <trkpt lat="49.24238" lon="2.30626">
        <ele>156.83</ele>
        <time>2016-06-24T09:05:44Z</time>
      </trkpt>
      <trkpt lat="49.242" lon="2.3056">
        <ele>156.35</ele>
        <time>2016-06-24T09:06:01Z</time>
      </trkpt>
      <trkpt lat="49.24156" lon="2.30483">
        <ele>155.39</ele>
        <time>2016-06-24T09:06:19Z</time>
      </trkpt>
      <trkpt lat="49.2412" lon="2.30421">
        <ele>154.43</ele>
        <time>2016-06-24T09:06:31Z</time>
      </trkpt>
      <trkpt lat="49.24075" lon="2.30343">
        <ele>153.95</ele>
        <time>2016-06-24T09:06:48Z</time>
      </trkpt>
      <trkpt lat="49.24023" lon="2.30251">
        <ele>152.51</ele>
        <time>2016-06-24T09:07:07Z</time>
      </trkpt>
      <trkpt lat="49.23962" lon="2.30144">
        <ele>152.03</ele>
        <time>2016-06-24T09:07:27Z</time>
      </trkpt>
      <trkpt lat="49.23909" lon="2.30049">
        <ele>153.95</ele>
        <time>2016-06-24T09:07:49Z</time>
      </trkpt>
      <trkpt lat="49.23893" lon="2.30015">
        <ele>155.39</ele>
        <time>2016-06-24T09:08:00Z</time>
      </trkpt>
      <trkpt lat="49.23894" lon="2.30012">
        <ele>155.39</ele>
        <time>2016-06-24T09:08:01Z</time>
      </trkpt>
      <trkpt lat="49.23895" lon="2.30009">
        <ele>155.39</ele>
        <time>2016-06-24T09:08:02Z</time>
      </trkpt>
      <trkpt lat="49.23897" lon="2.30006">
        <ele>155.39</ele>
        <time>2016-06-24T09:08:03Z</time>
      </trkpt>
      <trkpt lat="49.23898" lon="2.30003">
        <ele>155.87</ele>
        <time>2016-06-24T09:08:04Z</time>
      </trkpt>
      <trkpt lat="49.23902" lon="2.29997">
        <ele>155.87</ele>
        <time>2016-06-24T09:08:07Z</time>
      </trkpt>
      <trkpt lat="49.23905" lon="2.29997">
        <ele>155.39</ele>
        <time>2016-06-24T09:08:20Z</time>
      </trkpt>
      <trkpt lat="49.23906" lon="2.29997">
        <ele>156.35</ele>
        <time>2016-06-24T09:08:42Z</time>
      </trkpt>
      <trkpt lat="49.23905" lon="2.29997">
        <ele>155.87</ele>
        <time>2016-06-24T09:09:28Z</time>
      </trkpt>
      <trkpt lat="49.23904" lon="2.29999">
        <ele>154.91</ele>
        <time>2016-06-24T09:10:19Z</time>
      </trkpt>
      <trkpt lat="49.23905" lon="2.29995">
        <ele>154.91</ele>
        <time>2016-06-24T09:10:36Z</time>
      </trkpt>
      <trkpt lat="49.23905" lon="2.29994">
        <ele>155.39</ele>
        <time>2016-06-24T09:10:37Z</time>
      </trkpt>
      <trkpt lat="49.23903" lon="2.29994">
        <ele>154.43</ele>
        <time>2016-06-24T09:10:51Z</time>
      </trkpt>
      <trkpt lat="49.23903" lon="2.29993">
        <ele>154.43</ele>
        <time>2016-06-24T09:11:19Z</time>
      </trkpt>
      <trkpt lat="49.23902" lon="2.29996">
        <ele>156.35</ele>
        <time>2016-06-24T09:11:53Z</time>
      </trkpt>
      <trkpt lat="49.23901" lon="2.29997">
        <ele>155.87</ele>
        <time>2016-06-24T09:11:54Z</time>
      </trkpt>
      <trkpt lat="49.23892" lon="2.30006">
        <ele>155.39</ele>
        <time>2016-06-24T09:11:59Z</time>
      </trkpt>
      <trkpt lat="49.2389" lon="2.30006">
        <ele>155.39</ele>
        <time>2016-06-24T09:12:00Z</time>
      </trkpt>
      <trkpt lat="49.23887" lon="2.30005">
        <ele>155.39</ele>
        <time>2016-06-24T09:12:01Z</time>
      </trkpt>
      <trkpt lat="49.23885" lon="2.30003">
        <ele>155.87</ele>
        <time>2016-06-24T09:12:02Z</time>
      </trkpt>
      <trkpt lat="49.23883" lon="2.30001">
        <ele>155.87</ele>
        <time>2016-06-24T09:12:03Z</time>
      </trkpt>
      <trkpt lat="49.23881" lon="2.29997">
        <ele>155.87</ele>
        <time>2016-06-24T09:12:04Z</time>
      </trkpt>
      <trkpt lat="49.23879" lon="2.29994">
        <ele>155.87</ele>
        <time>2016-06-24T09:12:05Z</time>
      </trkpt>
      <trkpt lat="49.23834" lon="2.29917">
        <ele>155.39</ele>
        <time>2016-06-24T09:12:23Z</time>
      </trkpt>
      <trkpt lat="49.23766" lon="2.29802">
        <ele>152.51</ele>
        <time>2016-06-24T09:12:45Z</time>
      </trkpt>
      <trkpt lat="49.2371" lon="2.29705">
        <ele>151.06</ele>
        <time>2016-06-24T09:13:05Z</time>
      </trkpt>
      <trkpt lat="49.2365" lon="2.29602">
        <ele>148.18</ele>
        <time>2016-06-24T09:13:23Z</time>
      </trkpt>
      <trkpt lat="49.23567" lon="2.29457">
        <ele>144.82</ele>
        <time>2016-06-24T09:13:45Z</time>
      </trkpt>
      <trkpt lat="49.23511" lon="2.29362">
        <ele>145.3</ele>
        <time>2016-06-24T09:14:04Z</time>
      </trkpt>
      <trkpt lat="49.23462" lon="2.29276">
        <ele>145.3</ele>
        <time>2016-06-24T09:14:26Z</time>
      </trkpt>
      <trkpt lat="49.23413" lon="2.29192">
        <ele>146.26</ele>
        <time>2016-06-24T09:14:50Z</time>
      </trkpt>
      <trkpt lat="49.2337" lon="2.29117">
        <ele>146.74</ele>
        <time>2016-06-24T09:15:11Z</time>
      </trkpt>
      <trkpt lat="49.23329" lon="2.29034">
        <ele>146.74</ele>
        <time>2016-06-24T09:15:32Z</time>
      </trkpt>
      <trkpt lat="49.23326" lon="2.2898">
        <ele>147.22</ele>
        <time>2016-06-24T09:15:43Z</time>
      </trkpt>
      <trkpt lat="49.23305" lon="2.2894">
        <ele>147.7</ele>
        <time>2016-06-24T09:15:54Z</time>
      </trkpt>
      <trkpt lat="49.2326" lon="2.28908">
        <ele>147.22</ele>
        <time>2016-06-24T09:16:08Z</time>
      </trkpt>
      <trkpt lat="49.23189" lon="2.28801">
        <ele>145.78</ele>
        <time>2016-06-24T09:16:31Z</time>
      </trkpt>
      <trkpt lat="49.23132" lon="2.28706">
        <ele>144.34</ele>
        <time>2016-06-24T09:16:49Z</time>
      </trkpt>
      <trkpt lat="49.23048" lon="2.28627">
        <ele>140.49</ele>
        <time>2016-06-24T09:17:07Z</time>
      </trkpt>
      <trkpt lat="49.22953" lon="2.2858">
        <ele>135.2</ele>
        <time>2016-06-24T09:17:25Z</time>
      </trkpt>
      <trkpt lat="49.22942" lon="2.28573">
        <ele>134.72</ele>
        <time>2016-06-24T09:17:28Z</time>
      </trkpt>
      <trkpt lat="49.22885" lon="2.2855">
        <ele>131.84</ele>
        <time>2016-06-24T09:17:39Z</time>
      </trkpt>
      <trkpt lat="49.22879" lon="2.28549">
        <ele>131.84</ele>
        <time>2016-06-24T09:17:40Z</time>
      </trkpt>
      <trkpt lat="49.22856" lon="2.28546">
        <ele>130.4</ele>
        <time>2016-06-24T09:17:44Z</time>
      </trkpt>
      <trkpt lat="49.22849" lon="2.28544">
        <ele>129.92</ele>
        <time>2016-06-24T09:17:45Z</time>
      </trkpt>
      <trkpt lat="49.22843" lon="2.28541">
        <ele>129.92</ele>
        <time>2016-06-24T09:17:46Z</time>
      </trkpt>
      <trkpt lat="49.22838" lon="2.28537">
        <ele>129.43</ele>
        <time>2016-06-24T09:17:47Z</time>
      </trkpt>
      <trkpt lat="49.22832" lon="2.28533">
        <ele>129.43</ele>
        <time>2016-06-24T09:17:48Z</time>
      </trkpt>
      <trkpt lat="49.22826" lon="2.28529">
        <ele>129.43</ele>
        <time>2016-06-24T09:17:49Z</time>
      </trkpt>
      <trkpt lat="49.2282" lon="2.28526">
        <ele>128.95</ele>
        <time>2016-06-24T09:17:50Z</time>
      </trkpt>
      <trkpt lat="49.22814" lon="2.28522">
        <ele>128.95</ele>
        <time>2016-06-24T09:17:51Z</time>
      </trkpt>
      <trkpt lat="49.22802" lon="2.28516">
        <ele>128.95</ele>
        <time>2016-06-24T09:17:53Z</time>
      </trkpt>
      <trkpt lat="49.22797" lon="2.28513">
        <ele>128.95</ele>
        <time>2016-06-24T09:17:54Z</time>
      </trkpt>
      <trkpt lat="49.22776" lon="2.28504">
        <ele>128.47</ele>
        <time>2016-06-24T09:17:58Z</time>
      </trkpt>
      <trkpt lat="49.22749" lon="2.28499">
        <ele>127.51</ele>
        <time>2016-06-24T09:18:03Z</time>
      </trkpt>
      <trkpt lat="49.22744" lon="2.28499">
        <ele>127.51</ele>
        <time>2016-06-24T09:18:04Z</time>
      </trkpt>
      <trkpt lat="49.22668" lon="2.2851">
        <ele>125.59</ele>
        <time>2016-06-24T09:18:19Z</time>
      </trkpt>
      <trkpt lat="49.22626" lon="2.28509">
        <ele>124.63</ele>
        <time>2016-06-24T09:18:28Z</time>
      </trkpt>
      <trkpt lat="49.22551" lon="2.28519">
        <ele>123.67</ele>
        <time>2016-06-24T09:18:45Z</time>
      </trkpt>
      <trkpt lat="49.2253" lon="2.28528">
        <ele>122.71</ele>
        <time>2016-06-24T09:18:50Z</time>
      </trkpt>
      <trkpt lat="49.22487" lon="2.28545">
        <ele>122.71</ele>
        <time>2016-06-24T09:19:02Z</time>
      </trkpt>
      <trkpt lat="49.22454" lon="2.28523">
        <ele>127.99</ele>
        <time>2016-06-24T09:19:14Z</time>
      </trkpt>
      <trkpt lat="49.22417" lon="2.285">
        <ele>131.84</ele>
        <time>2016-06-24T09:19:28Z</time>
      </trkpt>
      <trkpt lat="49.22376" lon="2.28484">
        <ele>131.36</ele>
        <time>2016-06-24T09:19:42Z</time>
      </trkpt>
      <trkpt lat="49.22327" lon="2.28454">
        <ele>139.05</ele>
        <time>2016-06-24T09:19:58Z</time>
      </trkpt>
      <trkpt lat="49.22275" lon="2.28417">
        <ele>143.85</ele>
        <time>2016-06-24T09:20:14Z</time>
      </trkpt>
      <trkpt lat="49.22228" lon="2.28384">
        <ele>144.34</ele>
        <time>2016-06-24T09:20:28Z</time>
      </trkpt>
      <trkpt lat="49.22164" lon="2.28351">
        <ele>141.93</ele>
        <time>2016-06-24T09:20:45Z</time>
      </trkpt>
      <trkpt lat="49.22105" lon="2.28314">
        <ele>136.64</ele>
        <time>2016-06-24T09:21:01Z</time>
      </trkpt>
      <trkpt lat="49.22047" lon="2.28267">
        <ele>132.8</ele>
        <time>2016-06-24T09:21:16Z</time>
      </trkpt>
      <trkpt lat="49.22043" lon="2.28264">
        <ele>132.8</ele>
        <time>2016-06-24T09:21:17Z</time>
      </trkpt>
      <trkpt lat="49.21985" lon="2.28219">
        <ele>127.03</ele>
        <time>2016-06-24T09:21:33Z</time>
      </trkpt>
      <trkpt lat="49.21935" lon="2.28196">
        <ele>123.67</ele>
        <time>2016-06-24T09:21:46Z</time>
      </trkpt>
      <trkpt lat="49.21877" lon="2.28165">
        <ele>121.26</ele>
        <time>2016-06-24T09:22:03Z</time>
      </trkpt>
      <trkpt lat="49.21846" lon="2.28151">
        <ele>120.3</ele>
        <time>2016-06-24T09:22:11Z</time>
      </trkpt>
      <trkpt lat="49.21771" lon="2.28128">
        <ele>116.94</ele>
        <time>2016-06-24T09:22:27Z</time>
      </trkpt>
      <trkpt lat="49.21687" lon="2.2813">
        <ele>114.53</ele>
        <time>2016-06-24T09:22:42Z</time>
      </trkpt>
      <trkpt lat="49.21609" lon="2.28136">
        <ele>114.05</ele>
        <time>2016-06-24T09:22:57Z</time>
      </trkpt>
      <trkpt lat="49.21604" lon="2.28134">
        <ele>114.05</ele>
        <time>2016-06-24T09:22:58Z</time>
      </trkpt>
      <trkpt lat="49.21595" lon="2.2813">
        <ele>114.05</ele>
        <time>2016-06-24T09:23:00Z</time>
      </trkpt>
      <trkpt lat="49.21535" lon="2.28107">
        <ele>113.09</ele>
        <time>2016-06-24T09:23:15Z</time>
      </trkpt>
      <trkpt lat="49.21506" lon="2.28097">
        <ele>113.57</ele>
        <time>2016-06-24T09:23:24Z</time>
      </trkpt>
      <trkpt lat="49.21434" lon="2.28058">
        <ele>112.61</ele>
        <time>2016-06-24T09:23:43Z</time>
      </trkpt>
      <trkpt lat="49.21365" lon="2.28009">
        <ele>111.65</ele>
        <time>2016-06-24T09:23:59Z</time>
      </trkpt>
      <trkpt lat="49.21306" lon="2.27959">
        <ele>110.69</ele>
        <time>2016-06-24T09:24:14Z</time>
      </trkpt>
      <trkpt lat="49.21221" lon="2.27894">
        <ele>109.73</ele>
        <time>2016-06-24T09:24:33Z</time>
      </trkpt>
      <trkpt lat="49.21185" lon="2.27874">
        <ele>109.25</ele>
        <time>2016-06-24T09:24:41Z</time>
      </trkpt>
      <trkpt lat="49.21181" lon="2.27873">
        <ele>109.25</ele>
        <time>2016-06-24T09:24:42Z</time>
      </trkpt>
      <trkpt lat="49.21177" lon="2.27873">
        <ele>109.25</ele>
        <time>2016-06-24T09:24:43Z</time>
      </trkpt>
      <trkpt lat="49.21145" lon="2.2786">
        <ele>109.73</ele>
        <time>2016-06-24T09:24:54Z</time>
      </trkpt>
      <trkpt lat="49.21142" lon="2.27862">
        <ele>109.73</ele>
        <time>2016-06-24T09:24:55Z</time>
      </trkpt>
      <trkpt lat="49.2114" lon="2.27865">
        <ele>110.21</ele>
        <time>2016-06-24T09:24:56Z</time>
      </trkpt>
      <trkpt lat="49.21138" lon="2.27869">
        <ele>110.21</ele>
        <time>2016-06-24T09:24:57Z</time>
      </trkpt>
      <trkpt lat="49.21136" lon="2.27872">
        <ele>110.69</ele>
        <time>2016-06-24T09:24:58Z</time>
      </trkpt>
      <trkpt lat="49.21134" lon="2.27875">
        <ele>110.69</ele>
        <time>2016-06-24T09:24:59Z</time>
      </trkpt>
      <trkpt lat="49.21132" lon="2.27878">
        <ele>110.69</ele>
        <time>2016-06-24T09:25:00Z</time>
      </trkpt>
      <trkpt lat="49.2113" lon="2.2788">
        <ele>110.69</ele>
        <time>2016-06-24T09:25:01Z</time>
      </trkpt>
      <trkpt lat="49.21128" lon="2.27882">
        <ele>110.69</ele>
        <time>2016-06-24T09:25:02Z</time>
      </trkpt>
      <trkpt lat="49.21125" lon="2.27884">
        <ele>111.17</ele>
        <time>2016-06-24T09:25:03Z</time>
      </trkpt>
      <trkpt lat="49.21122" lon="2.27885">
        <ele>111.17</ele>
        <time>2016-06-24T09:25:04Z</time>
      </trkpt>
      <trkpt lat="49.21119" lon="2.27886">
        <ele>111.17</ele>
        <time>2016-06-24T09:25:05Z</time>
      </trkpt>
      <trkpt lat="49.21066" lon="2.27902">
        <ele>111.17</ele>
        <time>2016-06-24T09:25:21Z</time>
      </trkpt>
      <trkpt lat="49.20997" lon="2.27921">
        <ele>111.65</ele>
        <time>2016-06-24T09:25:42Z</time>
      </trkpt>
      <trkpt lat="49.20927" lon="2.27935">
        <ele>111.65</ele>
        <time>2016-06-24T09:26:03Z</time>
      </trkpt>
      <trkpt lat="49.20912" lon="2.27932">
        <ele>111.65</ele>
        <time>2016-06-24T09:26:07Z</time>
      </trkpt>
      <trkpt lat="49.20904" lon="2.27928">
        <ele>111.65</ele>
        <time>2016-06-24T09:26:09Z</time>
      </trkpt>
      <trkpt lat="49.209" lon="2.27927">
        <ele>111.65</ele>
        <time>2016-06-24T09:26:10Z</time>
      </trkpt>
      <trkpt lat="49.20896" lon="2.27928">
        <ele>111.65</ele>
        <time>2016-06-24T09:26:11Z</time>
      </trkpt>
      <trkpt lat="49.20892" lon="2.27931">
        <ele>111.17</ele>
        <time>2016-06-24T09:26:12Z</time>
      </trkpt>
      <trkpt lat="49.20889" lon="2.27934">
        <ele>111.17</ele>
        <time>2016-06-24T09:26:13Z</time>
      </trkpt>
      <trkpt lat="49.20886" lon="2.27938">
        <ele>111.17</ele>
        <time>2016-06-24T09:26:14Z</time>
      </trkpt>
      <trkpt lat="49.20883" lon="2.27943">
        <ele>111.65</ele>
        <time>2016-06-24T09:26:15Z</time>
      </trkpt>
      <trkpt lat="49.20874" lon="2.27954">
        <ele>111.65</ele>
        <time>2016-06-24T09:26:18Z</time>
      </trkpt>
      <trkpt lat="49.20871" lon="2.27956">
        <ele>111.65</ele>
        <time>2016-06-24T09:26:19Z</time>
      </trkpt>
      <trkpt lat="49.20867" lon="2.27958">
        <ele>111.65</ele>
        <time>2016-06-24T09:26:20Z</time>
      </trkpt>
      <trkpt lat="49.20863" lon="2.27959">
        <ele>111.65</ele>
        <time>2016-06-24T09:26:21Z</time>
      </trkpt>
      <trkpt lat="49.20858" lon="2.2796">
        <ele>111.17</ele>
        <time>2016-06-24T09:26:22Z</time>
      </trkpt>
      <trkpt lat="49.20773" lon="2.27979">
        <ele>109.73</ele>
        <time>2016-06-24T09:26:37Z</time>
      </trkpt>
      <trkpt lat="49.20651" lon="2.28008">
        <ele>106.36</ele>
        <time>2016-06-24T09:26:54Z</time>
      </trkpt>
      <trkpt lat="49.20523" lon="2.2804">
        <ele>103</ele>
        <time>2016-06-24T09:27:12Z</time>
      </trkpt>
      <trkpt lat="49.20392" lon="2.28073">
        <ele>100.11</ele>
        <time>2016-06-24T09:27:31Z</time>
      </trkpt>
      <trkpt lat="49.20254" lon="2.28107">
        <ele>97.23</ele>
        <time>2016-06-24T09:27:50Z</time>
      </trkpt>
      <trkpt lat="49.20089" lon="2.28147">
        <ele>92.9</ele>
        <time>2016-06-24T09:28:12Z</time>
      </trkpt>
      <trkpt lat="49.19912" lon="2.28191">
        <ele>86.18</ele>
        <time>2016-06-24T09:28:35Z</time>
      </trkpt>
      <trkpt lat="49.1979" lon="2.28225">
        <ele>86.18</ele>
        <time>2016-06-24T09:28:53Z</time>
      </trkpt>
      <trkpt lat="49.19703" lon="2.28249">
        <ele>86.18</ele>
        <time>2016-06-24T09:29:07Z</time>
      </trkpt>
      <trkpt lat="49.19619" lon="2.28269">
        <ele>84.73</ele>
        <time>2016-06-24T09:29:22Z</time>
      </trkpt>
      <trkpt lat="49.19537" lon="2.28287">
        <ele>86.66</ele>
        <time>2016-06-24T09:29:37Z</time>
      </trkpt>
      <trkpt lat="49.19466" lon="2.28305">
        <ele>85.21</ele>
        <time>2016-06-24T09:29:48Z</time>
      </trkpt>
      <trkpt lat="49.19396" lon="2.28323">
        <ele>81.37</ele>
        <time>2016-06-24T09:29:57Z</time>
      </trkpt>
      <trkpt lat="49.19292" lon="2.2835">
        <ele>75.12</ele>
        <time>2016-06-24T09:30:09Z</time>
      </trkpt>
      <trkpt lat="49.19137" lon="2.28392">
        <ele>69.83</ele>
        <time>2016-06-24T09:30:25Z</time>
      </trkpt>
      <trkpt lat="49.18985" lon="2.28429">
        <ele>64.07</ele>
        <time>2016-06-24T09:30:40Z</time>
      </trkpt>
      <trkpt lat="49.18929" lon="2.28441">
        <ele>65.51</ele>
        <time>2016-06-24T09:30:47Z</time>
      </trkpt>
      <trkpt lat="49.18923" lon="2.28443">
        <ele>65.99</ele>
        <time>2016-06-24T09:30:48Z</time>
      </trkpt>
      <trkpt lat="49.18917" lon="2.28445">
        <ele>66.47</ele>
        <time>2016-06-24T09:30:49Z</time>
      </trkpt>
      <trkpt lat="49.18861" lon="2.28456">
        <ele>68.87</ele>
        <time>2016-06-24T09:31:01Z</time>
      </trkpt>
      <trkpt lat="49.18789" lon="2.28472">
        <ele>71.27</ele>
        <time>2016-06-24T09:31:22Z</time>
      </trkpt>
      <trkpt lat="49.18727" lon="2.2849">
        <ele>71.27</ele>
        <time>2016-06-24T09:31:40Z</time>
      </trkpt>
      <trkpt lat="49.18642" lon="2.28508">
        <ele>68.87</ele>
        <time>2016-06-24T09:31:57Z</time>
      </trkpt>
      <trkpt lat="49.1853" lon="2.28536">
        <ele>65.03</ele>
        <time>2016-06-24T09:32:16Z</time>
      </trkpt>
      <trkpt lat="49.18423" lon="2.28563">
        <ele>60.22</ele>
        <time>2016-06-24T09:32:32Z</time>
      </trkpt>
      <trkpt lat="49.18347" lon="2.28581">
        <ele>56.86</ele>
        <time>2016-06-24T09:32:46Z</time>
      </trkpt>
      <trkpt lat="49.18229" lon="2.28611">
        <ele>53.97</ele>
        <time>2016-06-24T09:33:03Z</time>
      </trkpt>
      <trkpt lat="49.18169" lon="2.2863">
        <ele>54.93</ele>
        <time>2016-06-24T09:33:16Z</time>
      </trkpt>
      <trkpt lat="49.18141" lon="2.28645">
        <ele>54.45</ele>
        <time>2016-06-24T09:33:23Z</time>
      </trkpt>
      <trkpt lat="49.18136" lon="2.28647">
        <ele>54.93</ele>
        <time>2016-06-24T09:33:24Z</time>
      </trkpt>
      <trkpt lat="49.18132" lon="2.28649">
        <ele>54.93</ele>
        <time>2016-06-24T09:33:25Z</time>
      </trkpt>
      <trkpt lat="49.1811" lon="2.28653">
        <ele>54.45</ele>
        <time>2016-06-24T09:33:29Z</time>
      </trkpt>
      <trkpt lat="49.1801" lon="2.28646">
        <ele>52.53</ele>
        <time>2016-06-24T09:33:46Z</time>
      </trkpt>
      <trkpt lat="49.17982" lon="2.28635">
        <ele>51.57</ele>
        <time>2016-06-24T09:33:52Z</time>
      </trkpt>
      <trkpt lat="49.17928" lon="2.28601">
        <ele>51.57</ele>
        <time>2016-06-24T09:34:04Z</time>
      </trkpt>
      <trkpt lat="49.17924" lon="2.28599">
        <ele>51.09</ele>
        <time>2016-06-24T09:34:05Z</time>
      </trkpt>
      <trkpt lat="49.17919" lon="2.28599">
        <ele>51.09</ele>
        <time>2016-06-24T09:34:06Z</time>
      </trkpt>
      <trkpt lat="49.17914" lon="2.28599">
        <ele>50.61</ele>
        <time>2016-06-24T09:34:07Z</time>
      </trkpt>
      <trkpt lat="49.1791" lon="2.28601">
        <ele>50.61</ele>
        <time>2016-06-24T09:34:08Z</time>
      </trkpt>
      <trkpt lat="49.17826" lon="2.28623">
        <ele>48.68</ele>
        <time>2016-06-24T09:34:25Z</time>
      </trkpt>
      <trkpt lat="49.17736" lon="2.28662">
        <ele>49.16</ele>
        <time>2016-06-24T09:34:44Z</time>
      </trkpt>
      <trkpt lat="49.17668" lon="2.28682">
        <ele>47.72</ele>
        <time>2016-06-24T09:34:58Z</time>
      </trkpt>
      <trkpt lat="49.17643" lon="2.28683">
        <ele>47.24</ele>
        <time>2016-06-24T09:35:03Z</time>
      </trkpt>
      <trkpt lat="49.17564" lon="2.28689">
        <ele>46.76</ele>
        <time>2016-06-24T09:35:20Z</time>
      </trkpt>
      <trkpt lat="49.17482" lon="2.28694">
        <ele>45.8</ele>
        <time>2016-06-24T09:35:37Z</time>
      </trkpt>
      <trkpt lat="49.17398" lon="2.28698">
        <ele>44.84</ele>
        <time>2016-06-24T09:35:54Z</time>
      </trkpt>
      <trkpt lat="49.17377" lon="2.28696">
        <ele>46.28</ele>
        <time>2016-06-24T09:35:59Z</time>
      </trkpt>
      <trkpt lat="49.17304" lon="2.28683">
        <ele>48.68</ele>
        <time>2016-06-24T09:36:19Z</time>
      </trkpt>
      <trkpt lat="49.17262" lon="2.28675">
        <ele>48.2</ele>
        <time>2016-06-24T09:36:32Z</time>
      </trkpt>
      <trkpt lat="49.17205" lon="2.28666">
        <ele>45.8</ele>
        <time>2016-06-24T09:36:50Z</time>
      </trkpt>
      <trkpt lat="49.17133" lon="2.28655">
        <ele>43.88</ele>
        <time>2016-06-24T09:37:06Z</time>
      </trkpt>
      <trkpt lat="49.17037" lon="2.28638">
        <ele>42.44</ele>
        <time>2016-06-24T09:37:25Z</time>
      </trkpt>
      <trkpt lat="49.16942" lon="2.28623">
        <ele>41.47</ele>
        <time>2016-06-24T09:37:46Z</time>
      </trkpt>
      <trkpt lat="49.16851" lon="2.28607">
        <ele>40.03</ele>
        <time>2016-06-24T09:38:05Z</time>
      </trkpt>
      <trkpt lat="49.16744" lon="2.28591">
        <ele>37.63</ele>
        <time>2016-06-24T09:38:26Z</time>
      </trkpt>
      <trkpt lat="49.16641" lon="2.28574">
        <ele>35.71</ele>
        <time>2016-06-24T09:38:45Z</time>
      </trkpt>
      <trkpt lat="49.16541" lon="2.28554">
        <ele>34.74</ele>
        <time>2016-06-24T09:39:05Z</time>
      </trkpt>
      <trkpt lat="49.16536" lon="2.28551">
        <ele>34.74</ele>
        <time>2016-06-24T09:39:06Z</time>
      </trkpt>
      <trkpt lat="49.16497" lon="2.2851">
        <ele>34.26</ele>
        <time>2016-06-24T09:39:16Z</time>
      </trkpt>
      <trkpt lat="49.16495" lon="2.28504">
        <ele>34.26</ele>
        <time>2016-06-24T09:39:17Z</time>
      </trkpt>
      <trkpt lat="49.16495" lon="2.28497">
        <ele>34.26</ele>
        <time>2016-06-24T09:39:18Z</time>
      </trkpt>
      <trkpt lat="49.16495" lon="2.28483">
        <ele>34.26</ele>
        <time>2016-06-24T09:39:20Z</time>
      </trkpt>
      <trkpt lat="49.16495" lon="2.28475">
        <ele>34.26</ele>
        <time>2016-06-24T09:39:21Z</time>
      </trkpt>
      <trkpt lat="49.16493" lon="2.28468">
        <ele>34.26</ele>
        <time>2016-06-24T09:39:22Z</time>
      </trkpt>
      <trkpt lat="49.16491" lon="2.28461">
        <ele>34.26</ele>
        <time>2016-06-24T09:39:23Z</time>
      </trkpt>
      <trkpt lat="49.16488" lon="2.28454">
        <ele>34.26</ele>
        <time>2016-06-24T09:39:24Z</time>
      </trkpt>
      <trkpt lat="49.16485" lon="2.28448">
        <ele>34.26</ele>
        <time>2016-06-24T09:39:25Z</time>
      </trkpt>
      <trkpt lat="49.16481" lon="2.28443">
        <ele>34.26</ele>
        <time>2016-06-24T09:39:26Z</time>
      </trkpt>
      <trkpt lat="49.16477" lon="2.2844">
        <ele>34.26</ele>
        <time>2016-06-24T09:39:27Z</time>
      </trkpt>
      <trkpt lat="49.16472" lon="2.28437">
        <ele>34.26</ele>
        <time>2016-06-24T09:39:28Z</time>
      </trkpt>
      <trkpt lat="49.16467" lon="2.28435">
        <ele>34.26</ele>
        <time>2016-06-24T09:39:29Z</time>
      </trkpt>
      <trkpt lat="49.16462" lon="2.28434">
        <ele>33.78</ele>
        <time>2016-06-24T09:39:30Z</time>
      </trkpt>
      <trkpt lat="49.16457" lon="2.28434">
        <ele>33.78</ele>
        <time>2016-06-24T09:39:31Z</time>
      </trkpt>
      <trkpt lat="49.16452" lon="2.28435">
        <ele>33.78</ele>
        <time>2016-06-24T09:39:32Z</time>
      </trkpt>
      <trkpt lat="49.16447" lon="2.28437">
        <ele>33.78</ele>
        <time>2016-06-24T09:39:33Z</time>
      </trkpt>
      <trkpt lat="49.16443" lon="2.28441">
        <ele>33.78</ele>
        <time>2016-06-24T09:39:34Z</time>
      </trkpt>
      <trkpt lat="49.16439" lon="2.28445">
        <ele>33.78</ele>
        <time>2016-06-24T09:39:35Z</time>
      </trkpt>
      <trkpt lat="49.16435" lon="2.2845">
        <ele>33.78</ele>
        <time>2016-06-24T09:39:36Z</time>
      </trkpt>
      <trkpt lat="49.16432" lon="2.28456">
        <ele>34.26</ele>
        <time>2016-06-24T09:39:37Z</time>
      </trkpt>
      <trkpt lat="49.1643" lon="2.28462">
        <ele>33.78</ele>
        <time>2016-06-24T09:39:38Z</time>
      </trkpt>
      <trkpt lat="49.16428" lon="2.28469">
        <ele>33.78</ele>
        <time>2016-06-24T09:39:39Z</time>
      </trkpt>
      <trkpt lat="49.16426" lon="2.28476">
        <ele>33.78</ele>
        <time>2016-06-24T09:39:40Z</time>
      </trkpt>
      <trkpt lat="49.16422" lon="2.28495">
        <ele>34.26</ele>
        <time>2016-06-24T09:39:43Z</time>
      </trkpt>
      <trkpt lat="49.1642" lon="2.285">
        <ele>34.26</ele>
        <time>2016-06-24T09:39:44Z</time>
      </trkpt>
      <trkpt lat="49.16418" lon="2.28505">
        <ele>34.26</ele>
        <time>2016-06-24T09:39:45Z</time>
      </trkpt>
      <trkpt lat="49.16415" lon="2.28509">
        <ele>34.74</ele>
        <time>2016-06-24T09:39:46Z</time>
      </trkpt>
      <trkpt lat="49.16411" lon="2.28512">
        <ele>34.74</ele>
        <time>2016-06-24T09:39:47Z</time>
      </trkpt>
      <trkpt lat="49.16407" lon="2.28515">
        <ele>34.74</ele>
        <time>2016-06-24T09:39:48Z</time>
      </trkpt>
      <trkpt lat="49.16403" lon="2.28517">
        <ele>34.74</ele>
        <time>2016-06-24T09:39:49Z</time>
      </trkpt>
      <trkpt lat="49.16399" lon="2.28518">
        <ele>34.74</ele>
        <time>2016-06-24T09:39:50Z</time>
      </trkpt>
      <trkpt lat="49.16395" lon="2.28519">
        <ele>34.74</ele>
        <time>2016-06-24T09:39:51Z</time>
      </trkpt>
      <trkpt lat="49.16328" lon="2.28523">
        <ele>35.71</ele>
        <time>2016-06-24T09:40:08Z</time>
      </trkpt>
      <trkpt lat="49.16299" lon="2.28522">
        <ele>36.19</ele>
        <time>2016-06-24T09:40:19Z</time>
      </trkpt>
      <trkpt lat="49.16256" lon="2.28525">
        <ele>36.67</ele>
        <time>2016-06-24T09:40:35Z</time>
      </trkpt>
      <trkpt lat="49.16191" lon="2.28536">
        <ele>36.19</ele>
        <time>2016-06-24T09:40:52Z</time>
      </trkpt>
      <trkpt lat="49.16101" lon="2.2857">
        <ele>35.23</ele>
        <time>2016-06-24T09:41:10Z</time>
      </trkpt>
      <trkpt lat="49.16002" lon="2.28631">
        <ele>32.34</ele>
        <time>2016-06-24T09:41:29Z</time>
      </trkpt>
      <trkpt lat="49.15921" lon="2.28694">
        <ele>30.9</ele>
        <time>2016-06-24T09:41:45Z</time>
      </trkpt>
      <trkpt lat="49.15835" lon="2.2877">
        <ele>28.98</ele>
        <time>2016-06-24T09:42:05Z</time>
      </trkpt>
      <trkpt lat="49.15792" lon="2.28807">
        <ele>28.98</ele>
        <time>2016-06-24T09:42:19Z</time>
      </trkpt>
      <trkpt lat="49.15792" lon="2.28808">
        <ele>29.94</ele>
        <time>2016-06-24T09:42:39Z</time>
      </trkpt>
      <trkpt lat="49.1578" lon="2.2882">
        <ele>34.26</ele>
        <time>2016-06-24T09:43:06Z</time>
      </trkpt>
      <trkpt lat="49.1574" lon="2.28862">
        <ele>33.78</ele>
        <time>2016-06-24T09:43:21Z</time>
      </trkpt>
      <trkpt lat="49.15721" lon="2.28883">
        <ele>33.78</ele>
        <time>2016-06-24T09:43:34Z</time>
      </trkpt>
      <trkpt lat="49.15722" lon="2.28885">
        <ele>36.19</ele>
        <time>2016-06-24T09:43:58Z</time>
      </trkpt>
      <trkpt lat="49.15721" lon="2.28887">
        <ele>36.19</ele>
        <time>2016-06-24T09:43:59Z</time>
      </trkpt>
      <trkpt lat="49.1572" lon="2.28889">
        <ele>36.19</ele>
        <time>2016-06-24T09:44:00Z</time>
      </trkpt>
      <trkpt lat="49.15718" lon="2.28892">
        <ele>36.19</ele>
        <time>2016-06-24T09:44:01Z</time>
      </trkpt>
      <trkpt lat="49.15717" lon="2.28894">
        <ele>35.71</ele>
        <time>2016-06-24T09:44:02Z</time>
      </trkpt>
      <trkpt lat="49.15715" lon="2.28898">
        <ele>35.71</ele>
        <time>2016-06-24T09:44:03Z</time>
      </trkpt>
      <trkpt lat="49.15713" lon="2.28901">
        <ele>35.71</ele>
        <time>2016-06-24T09:44:04Z</time>
      </trkpt>
      <trkpt lat="49.15711" lon="2.28905">
        <ele>35.23</ele>
        <time>2016-06-24T09:44:05Z</time>
      </trkpt>
      <trkpt lat="49.15708" lon="2.28908">
        <ele>35.23</ele>
        <time>2016-06-24T09:44:06Z</time>
      </trkpt>
      <trkpt lat="49.1567" lon="2.2898">
        <ele>34.26</ele>
        <time>2016-06-24T09:44:21Z</time>
      </trkpt>
      <trkpt lat="49.1566" lon="2.29003">
        <ele>34.26</ele>
        <time>2016-06-24T09:44:25Z</time>
      </trkpt>
      <trkpt lat="49.15657" lon="2.29008">
        <ele>34.26</ele>
        <time>2016-06-24T09:44:26Z</time>
      </trkpt>
      <trkpt lat="49.15637" lon="2.29059">
        <ele>33.78</ele>
        <time>2016-06-24T09:44:34Z</time>
      </trkpt>
      <trkpt lat="49.15635" lon="2.29065">
        <ele>33.78</ele>
        <time>2016-06-24T09:44:35Z</time>
      </trkpt>
      <trkpt lat="49.15598" lon="2.29161">
        <ele>33.78</ele>
        <time>2016-06-24T09:44:51Z</time>
      </trkpt>
      <trkpt lat="49.15558" lon="2.2925">
        <ele>32.82</ele>
        <time>2016-06-24T09:45:07Z</time>
      </trkpt>
      <trkpt lat="49.15555" lon="2.29255">
        <ele>32.34</ele>
        <time>2016-06-24T09:45:08Z</time>
      </trkpt>
      <trkpt lat="49.15505" lon="2.29327">
        <ele>32.82</ele>
        <time>2016-06-24T09:45:26Z</time>
      </trkpt>
      <trkpt lat="49.1545" lon="2.29382">
        <ele>34.74</ele>
        <time>2016-06-24T09:45:46Z</time>
      </trkpt>
      <trkpt lat="49.15399" lon="2.29415">
        <ele>36.67</ele>
        <time>2016-06-24T09:46:07Z</time>
      </trkpt>
      <trkpt lat="49.1536" lon="2.29438">
        <ele>38.11</ele>
        <time>2016-06-24T09:46:25Z</time>
      </trkpt>
      <trkpt lat="49.15312" lon="2.29464">
        <ele>39.07</ele>
        <time>2016-06-24T09:46:46Z</time>
      </trkpt>
      <trkpt lat="49.15263" lon="2.29491">
        <ele>41.47</ele>
        <time>2016-06-24T09:47:05Z</time>
      </trkpt>
      <trkpt lat="49.15221" lon="2.29514">
        <ele>41.95</ele>
        <time>2016-06-24T09:47:19Z</time>
      </trkpt>
      <trkpt lat="49.15142" lon="2.29558">
        <ele>40.99</ele>
        <time>2016-06-24T09:47:39Z</time>
      </trkpt>
      <trkpt lat="49.15042" lon="2.29614">
        <ele>38.11</ele>
        <time>2016-06-24T09:47:57Z</time>
      </trkpt>
      <trkpt lat="49.1492" lon="2.29685">
        <ele>33.3</ele>
        <time>2016-06-24T09:48:13Z</time>
      </trkpt>
      <trkpt lat="49.14843" lon="2.29738">
        <ele>33.3</ele>
        <time>2016-06-24T09:48:26Z</time>
      </trkpt>
      <trkpt lat="49.1481" lon="2.29741">
        <ele>33.78</ele>
        <time>2016-06-24T09:48:36Z</time>
      </trkpt>
      <trkpt lat="49.14792" lon="2.29674">
        <ele>32.82</ele>
        <time>2016-06-24T09:48:49Z</time>
      </trkpt>
      <trkpt lat="49.1477" lon="2.2957">
        <ele>33.78</ele>
        <time>2016-06-24T09:49:09Z</time>
      </trkpt>
      <trkpt lat="49.14755" lon="2.29498">
        <ele>37.15</ele>
        <time>2016-06-24T09:49:26Z</time>
      </trkpt>
      <trkpt lat="49.14746" lon="2.2944">
        <ele>37.63</ele>
        <time>2016-06-24T09:49:41Z</time>
      </trkpt>
      <trkpt lat="49.14732" lon="2.29367">
        <ele>35.71</ele>
        <time>2016-06-24T09:49:55Z</time>
      </trkpt>
      <trkpt lat="49.14715" lon="2.29249">
        <ele>34.74</ele>
        <time>2016-06-24T09:50:17Z</time>
      </trkpt>
      <trkpt lat="49.1471" lon="2.29154">
        <ele>35.23</ele>
        <time>2016-06-24T09:50:35Z</time>
      </trkpt>
      <trkpt lat="49.14709" lon="2.29082">
        <ele>34.74</ele>
        <time>2016-06-24T09:50:48Z</time>
      </trkpt>
      <trkpt lat="49.14689" lon="2.28984">
        <ele>30.42</ele>
        <time>2016-06-24T09:51:01Z</time>
      </trkpt>
      <trkpt lat="49.14681" lon="2.28968">
        <ele>30.42</ele>
        <time>2016-06-24T09:51:04Z</time>
      </trkpt>
      <trkpt lat="49.14677" lon="2.28963">
        <ele>30.42</ele>
        <time>2016-06-24T09:51:05Z</time>
      </trkpt>
      <trkpt lat="49.14633" lon="2.28893">
        <ele>30.9</ele>
        <time>2016-06-24T09:51:21Z</time>
      </trkpt>
      <trkpt lat="49.14604" lon="2.28823">
        <ele>31.86</ele>
        <time>2016-06-24T09:51:35Z</time>
      </trkpt>
      <trkpt lat="49.14575" lon="2.28751">
        <ele>32.34</ele>
        <time>2016-06-24T09:51:49Z</time>
      </trkpt>
      <trkpt lat="49.14543" lon="2.2868">
        <ele>34.26</ele>
        <time>2016-06-24T09:52:05Z</time>
      </trkpt>
      <trkpt lat="49.14516" lon="2.2863">
        <ele>38.11</ele>
        <time>2016-06-24T09:52:22Z</time>
      </trkpt>
      <trkpt lat="49.14507" lon="2.28609">
        <ele>37.15</ele>
        <time>2016-06-24T09:52:34Z</time>
      </trkpt>
      <trkpt lat="49.14507" lon="2.28608">
        <ele>35.23</ele>
        <time>2016-06-24T09:52:55Z</time>
      </trkpt>
      <trkpt lat="49.1451" lon="2.28606">
        <ele>36.19</ele>
        <time>2016-06-24T09:53:27Z</time>
      </trkpt>
      <trkpt lat="49.14508" lon="2.28605">
        <ele>33.3</ele>
        <time>2016-06-24T09:53:58Z</time>
      </trkpt>
      <trkpt lat="49.14505" lon="2.28605">
        <ele>31.86</ele>
        <time>2016-06-24T09:54:34Z</time>
      </trkpt>
      <trkpt lat="49.14504" lon="2.28606">
        <ele>31.86</ele>
        <time>2016-06-24T09:55:03Z</time>
      </trkpt>
      <trkpt lat="49.14507" lon="2.28602">
        <ele>32.82</ele>
        <time>2016-06-24T09:55:38Z</time>
      </trkpt>
      <trkpt lat="49.14508" lon="2.28605">
        <ele>33.78</ele>
        <time>2016-06-24T09:56:14Z</time>
      </trkpt>
      <trkpt lat="49.14506" lon="2.28606">
        <ele>29.46</ele>
        <time>2016-06-24T09:56:50Z</time>
      </trkpt>
      <trkpt lat="49.14506" lon="2.28603">
        <ele>29.46</ele>
        <time>2016-06-24T09:57:30Z</time>
      </trkpt>
      <trkpt lat="49.14508" lon="2.28605">
        <ele>31.38</ele>
        <time>2016-06-24T09:58:09Z</time>
      </trkpt>
      <trkpt lat="49.14507" lon="2.28605">
        <ele>28.02</ele>
        <time>2016-06-24T09:58:52Z</time>
      </trkpt>
      <trkpt lat="49.14507" lon="2.2861">
        <ele>33.3</ele>
        <time>2016-06-24T09:59:30Z</time>
      </trkpt>
      <trkpt lat="49.14504" lon="2.2861">
        <ele>33.3</ele>
        <time>2016-06-24T10:00:05Z</time>
      </trkpt>
      <trkpt lat="49.14506" lon="2.28605">
        <ele>28.5</ele>
        <time>2016-06-24T10:00:35Z</time>
      </trkpt>
      <trkpt lat="49.14509" lon="2.28608">
        <ele>32.34</ele>
        <time>2016-06-24T10:01:11Z</time>
      </trkpt>
      <trkpt lat="49.14509" lon="2.28606">
        <ele>33.3</ele>
        <time>2016-06-24T10:01:40Z</time>
      </trkpt>
      <trkpt lat="49.14509" lon="2.28605">
        <ele>31.38</ele>
        <time>2016-06-24T10:02:10Z</time>
      </trkpt>
      <trkpt lat="49.14508" lon="2.28606">
        <ele>31.38</ele>
        <time>2016-06-24T10:02:42Z</time>
      </trkpt>
      <trkpt lat="49.14507" lon="2.28604">
        <ele>30.9</ele>
        <time>2016-06-24T10:03:13Z</time>
      </trkpt>
      <trkpt lat="49.14507" lon="2.28605">
        <ele>30.42</ele>
        <time>2016-06-24T10:03:46Z</time>
      </trkpt>
      <trkpt lat="49.14508" lon="2.28602">
        <ele>28.02</ele>
        <time>2016-06-24T10:04:20Z</time>
      </trkpt>
      <trkpt lat="49.14509" lon="2.28603">
        <ele>31.86</ele>
        <time>2016-06-24T10:04:48Z</time>
      </trkpt>
      <trkpt lat="49.14508" lon="2.28605">
        <ele>31.86</ele>
        <time>2016-06-24T10:05:28Z</time>
      </trkpt>
      <trkpt lat="49.14511" lon="2.28605">
        <ele>32.34</ele>
        <time>2016-06-24T10:06:01Z</time>
      </trkpt>
      <trkpt lat="49.14508" lon="2.28608">
        <ele>33.3</ele>
        <time>2016-06-24T10:06:38Z</time>
      </trkpt>
      <trkpt lat="49.14506" lon="2.28606">
        <ele>33.3</ele>
        <time>2016-06-24T10:07:12Z</time>
      </trkpt>
      <trkpt lat="49.14507" lon="2.28604">
        <ele>31.38</ele>
        <time>2016-06-24T10:07:43Z</time>
      </trkpt>
      <trkpt lat="49.14509" lon="2.28604">
        <ele>32.82</ele>
        <time>2016-06-24T10:08:20Z</time>
      </trkpt>
      <trkpt lat="49.1451" lon="2.28604">
        <ele>30.9</ele>
        <time>2016-06-24T10:08:46Z</time>
      </trkpt>
      <trkpt lat="49.14506" lon="2.28604">
        <ele>31.38</ele>
        <time>2016-06-24T10:09:20Z</time>
      </trkpt>
      <trkpt lat="49.14508" lon="2.28611">
        <ele>35.23</ele>
        <time>2016-06-24T10:09:52Z</time>
      </trkpt>
      <trkpt lat="49.14508" lon="2.28607">
        <ele>37.63</ele>
        <time>2016-06-24T10:10:21Z</time>
      </trkpt>
      <trkpt lat="49.14509" lon="2.2861">
        <ele>37.63</ele>
        <time>2016-06-24T10:10:48Z</time>
      </trkpt>
      <trkpt lat="49.14507" lon="2.28608">
        <ele>33.3</ele>
        <time>2016-06-24T10:11:17Z</time>
      </trkpt>
      <trkpt lat="49.14506" lon="2.28604">
        <ele>32.34</ele>
        <time>2016-06-24T10:11:37Z</time>
      </trkpt>
      <trkpt lat="49.14506" lon="2.28603">
        <ele>32.34</ele>
        <time>2016-06-24T10:11:38Z</time>
      </trkpt>
      <trkpt lat="49.14501" lon="2.28577">
        <ele>34.26</ele>
        <time>2016-06-24T10:11:57Z</time>
      </trkpt>
      <trkpt lat="49.14498" lon="2.28576">
        <ele>33.78</ele>
        <time>2016-06-24T10:12:05Z</time>
      </trkpt>
      <trkpt lat="49.14496" lon="2.28577">
        <ele>33.78</ele>
        <time>2016-06-24T10:12:07Z</time>
      </trkpt>
      <trkpt lat="49.14495" lon="2.28576">
        <ele>33.3</ele>
        <time>2016-06-24T10:12:08Z</time>
      </trkpt>
      <trkpt lat="49.14488" lon="2.28567">
        <ele>31.38</ele>
        <time>2016-06-24T10:12:28Z</time>
      </trkpt>
      <trkpt lat="49.14478" lon="2.28564">
        <ele>29.94</ele>
        <time>2016-06-24T10:12:49Z</time>
      </trkpt>
      <trkpt lat="49.14474" lon="2.28565">
        <ele>29.46</ele>
        <time>2016-06-24T10:12:52Z</time>
      </trkpt>
      <trkpt lat="49.14472" lon="2.28564">
        <ele>28.98</ele>
        <time>2016-06-24T10:12:53Z</time>
      </trkpt>
      <trkpt lat="49.14471" lon="2.28562">
        <ele>28.98</ele>
        <time>2016-06-24T10:12:54Z</time>
      </trkpt>
      <trkpt lat="49.14469" lon="2.28559">
        <ele>28.98</ele>
        <time>2016-06-24T10:12:55Z</time>
      </trkpt>
      <trkpt lat="49.14468" lon="2.28555">
        <ele>28.98</ele>
        <time>2016-06-24T10:12:56Z</time>
      </trkpt>
      <trkpt lat="49.14466" lon="2.28551">
        <ele>28.98</ele>
        <time>2016-06-24T10:12:57Z</time>
      </trkpt>
      <trkpt lat="49.14464" lon="2.28546">
        <ele>28.98</ele>
        <time>2016-06-24T10:12:58Z</time>
      </trkpt>
      <trkpt lat="49.14432" lon="2.28466">
        <ele>27.53</ele>
        <time>2016-06-24T10:13:11Z</time>
      </trkpt>
      <trkpt lat="49.14405" lon="2.28407">
        <ele>29.46</ele>
        <time>2016-06-24T10:13:22Z</time>
      </trkpt>
      <trkpt lat="49.14376" lon="2.28338">
        <ele>31.38</ele>
        <time>2016-06-24T10:13:35Z</time>
      </trkpt>
      <trkpt lat="49.14358" lon="2.2829">
        <ele>32.34</ele>
        <time>2016-06-24T10:13:46Z</time>
      </trkpt>
      <trkpt lat="49.14332" lon="2.28218">
        <ele>33.78</ele>
        <time>2016-06-24T10:14:02Z</time>
      </trkpt>
      <trkpt lat="49.14307" lon="2.28134">
        <ele>32.82</ele>
        <time>2016-06-24T10:14:18Z</time>
      </trkpt>
      <trkpt lat="49.14271" lon="2.28035">
        <ele>31.38</ele>
        <time>2016-06-24T10:14:39Z</time>
      </trkpt>
      <trkpt lat="49.14243" lon="2.27978">
        <ele>32.34</ele>
        <time>2016-06-24T10:14:54Z</time>
      </trkpt>
      <trkpt lat="49.14192" lon="2.2789">
        <ele>30.42</ele>
        <time>2016-06-24T10:15:16Z</time>
      </trkpt>
      <trkpt lat="49.14134" lon="2.278">
        <ele>31.86</ele>
        <time>2016-06-24T10:15:39Z</time>
      </trkpt>
      <trkpt lat="49.14093" lon="2.27721">
        <ele>32.34</ele>
        <time>2016-06-24T10:15:56Z</time>
      </trkpt>
      <trkpt lat="49.14063" lon="2.27664">
        <ele>34.26</ele>
        <time>2016-06-24T10:16:11Z</time>
      </trkpt>
      <trkpt lat="49.14049" lon="2.27637">
        <ele>33.78</ele>
        <time>2016-06-24T10:16:23Z</time>
      </trkpt>
      <trkpt lat="49.14008" lon="2.2756">
        <ele>33.3</ele>
        <time>2016-06-24T10:16:40Z</time>
      </trkpt>
      <trkpt lat="49.13951" lon="2.27479">
        <ele>34.26</ele>
        <time>2016-06-24T10:17:00Z</time>
      </trkpt>
      <trkpt lat="49.139" lon="2.27415">
        <ele>34.74</ele>
        <time>2016-06-24T10:17:18Z</time>
      </trkpt>
      <trkpt lat="49.13833" lon="2.27262">
        <ele>31.86</ele>
        <time>2016-06-24T10:17:53Z</time>
      </trkpt>
      <trkpt lat="49.1376" lon="2.27125">
        <ele>30.9</ele>
        <time>2016-06-24T10:18:35Z</time>
      </trkpt>
      <trkpt lat="49.13753" lon="2.27115">
        <ele>30.9</ele>
        <time>2016-06-24T10:18:37Z</time>
      </trkpt>
      <trkpt lat="49.1375" lon="2.2711">
        <ele>30.42</ele>
        <time>2016-06-24T10:18:38Z</time>
      </trkpt>
      <trkpt lat="49.13747" lon="2.27105">
        <ele>30.42</ele>
        <time>2016-06-24T10:18:39Z</time>
      </trkpt>
      <trkpt lat="49.13716" lon="2.27058">
        <ele>29.46</ele>
        <time>2016-06-24T10:18:48Z</time>
      </trkpt>
      <trkpt lat="49.13634" lon="2.26985">
        <ele>28.98</ele>
        <time>2016-06-24T10:19:07Z</time>
      </trkpt>
      <trkpt lat="49.13588" lon="2.26904">
        <ele>29.94</ele>
        <time>2016-06-24T10:19:23Z</time>
      </trkpt>
      <trkpt lat="49.13552" lon="2.26837">
        <ele>28.98</ele>
        <time>2016-06-24T10:19:38Z</time>
      </trkpt>
      <trkpt lat="49.13501" lon="2.26763">
        <ele>29.46</ele>
        <time>2016-06-24T10:19:55Z</time>
      </trkpt>
      <trkpt lat="49.13427" lon="2.26666">
        <ele>29.46</ele>
        <time>2016-06-24T10:20:18Z</time>
      </trkpt>
      <trkpt lat="49.1337" lon="2.26569">
        <ele>29.46</ele>
        <time>2016-06-24T10:20:38Z</time>
      </trkpt>
      <trkpt lat="49.13317" lon="2.26448">
        <ele>30.9</ele>
        <time>2016-06-24T10:21:00Z</time>
      </trkpt>
      <trkpt lat="49.13262" lon="2.26321">
        <ele>31.38</ele>
        <time>2016-06-24T10:21:22Z</time>
      </trkpt>
      <trkpt lat="49.13224" lon="2.26245">
        <ele>33.3</ele>
        <time>2016-06-24T10:21:39Z</time>
      </trkpt>
      <trkpt lat="49.13193" lon="2.26192">
        <ele>34.26</ele>
        <time>2016-06-24T10:21:56Z</time>
      </trkpt>
      <trkpt lat="49.13164" lon="2.26144">
        <ele>35.71</ele>
        <time>2016-06-24T10:22:14Z</time>
      </trkpt>
      <trkpt lat="49.13135" lon="2.26097">
        <ele>38.11</ele>
        <time>2016-06-24T10:22:33Z</time>
      </trkpt>
      <trkpt lat="49.13092" lon="2.2603">
        <ele>40.51</ele>
        <time>2016-06-24T10:22:58Z</time>
      </trkpt>
      <trkpt lat="49.13055" lon="2.2597">
        <ele>41.47</ele>
        <time>2016-06-24T10:23:17Z</time>
      </trkpt>
      <trkpt lat="49.13014" lon="2.25904">
        <ele>42.44</ele>
        <time>2016-06-24T10:23:36Z</time>
      </trkpt>
      <trkpt lat="49.1299" lon="2.25871">
        <ele>42.44</ele>
        <time>2016-06-24T10:23:49Z</time>
      </trkpt>
      <trkpt lat="49.12943" lon="2.25824">
        <ele>41.47</ele>
        <time>2016-06-24T10:24:07Z</time>
      </trkpt>
      <trkpt lat="49.12878" lon="2.25776">
        <ele>41.95</ele>
        <time>2016-06-24T10:24:28Z</time>
      </trkpt>
      <trkpt lat="49.12863" lon="2.2573">
        <ele>43.4</ele>
        <time>2016-06-24T10:24:40Z</time>
      </trkpt>
      <trkpt lat="49.12852" lon="2.25715">
        <ele>43.4</ele>
        <time>2016-06-24T10:24:44Z</time>
      </trkpt>
      <trkpt lat="49.12848" lon="2.25713">
        <ele>43.4</ele>
        <time>2016-06-24T10:24:45Z</time>
      </trkpt>
      <trkpt lat="49.12844" lon="2.25711">
        <ele>42.92</ele>
        <time>2016-06-24T10:24:46Z</time>
      </trkpt>
      <trkpt lat="49.1284" lon="2.2571">
        <ele>42.92</ele>
        <time>2016-06-24T10:24:47Z</time>
      </trkpt>
      <trkpt lat="49.12836" lon="2.25711">
        <ele>42.92</ele>
        <time>2016-06-24T10:24:48Z</time>
      </trkpt>
      <trkpt lat="49.12833" lon="2.25711">
        <ele>42.92</ele>
        <time>2016-06-24T10:24:49Z</time>
      </trkpt>
      <trkpt lat="49.12826" lon="2.25713">
        <ele>42.44</ele>
        <time>2016-06-24T10:24:52Z</time>
      </trkpt>
      <trkpt lat="49.12824" lon="2.25714">
        <ele>42.44</ele>
        <time>2016-06-24T10:24:53Z</time>
      </trkpt>
      <trkpt lat="49.12822" lon="2.25715">
        <ele>42.44</ele>
        <time>2016-06-24T10:24:54Z</time>
      </trkpt>
      <trkpt lat="49.12818" lon="2.25717">
        <ele>41.95</ele>
        <time>2016-06-24T10:25:00Z</time>
      </trkpt>
      <trkpt lat="49.12817" lon="2.25718">
        <ele>41.95</ele>
        <time>2016-06-24T10:25:01Z</time>
      </trkpt>
      <trkpt lat="49.12815" lon="2.25721">
        <ele>41.47</ele>
        <time>2016-06-24T10:25:02Z</time>
      </trkpt>
      <trkpt lat="49.12814" lon="2.25723">
        <ele>41.47</ele>
        <time>2016-06-24T10:25:03Z</time>
      </trkpt>
      <trkpt lat="49.12813" lon="2.25726">
        <ele>41.47</ele>
        <time>2016-06-24T10:25:04Z</time>
      </trkpt>
      <trkpt lat="49.12805" lon="2.25773">
        <ele>41.95</ele>
        <time>2016-06-24T10:25:16Z</time>
      </trkpt>
      <trkpt lat="49.12803" lon="2.25778">
        <ele>41.95</ele>
        <time>2016-06-24T10:25:18Z</time>
      </trkpt>
      <trkpt lat="49.12802" lon="2.2578">
        <ele>41.95</ele>
        <time>2016-06-24T10:25:19Z</time>
      </trkpt>
      <trkpt lat="49.12803" lon="2.2578">
        <ele>41.95</ele>
        <time>2016-06-24T10:25:36Z</time>
      </trkpt>
      <trkpt lat="49.12803" lon="2.25783">
        <ele>41.95</ele>
        <time>2016-06-24T10:25:41Z</time>
      </trkpt>
      <trkpt lat="49.12804" lon="2.25783">
        <ele>41.95</ele>
        <time>2016-06-24T10:25:42Z</time>
      </trkpt>
      <trkpt lat="49.12805" lon="2.25783">
        <ele>41.95</ele>
        <time>2016-06-24T10:25:43Z</time>
      </trkpt>
      <trkpt lat="49.12807" lon="2.25783">
        <ele>41.95</ele>
        <time>2016-06-24T10:25:44Z</time>
      </trkpt>
      <trkpt lat="49.12808" lon="2.25784">
        <ele>41.95</ele>
        <time>2016-06-24T10:25:45Z</time>
      </trkpt>
      <trkpt lat="49.12809" lon="2.25785">
        <ele>41.95</ele>
        <time>2016-06-24T10:25:46Z</time>
      </trkpt>
      <trkpt lat="49.1281" lon="2.25788">
        <ele>41.95</ele>
        <time>2016-06-24T10:25:47Z</time>
      </trkpt>
      <trkpt lat="49.12839" lon="2.25811">
        <ele>42.92</ele>
        <time>2016-06-24T10:25:59Z</time>
      </trkpt>
      <trkpt lat="49.12868" lon="2.25781">
        <ele>43.88</ele>
        <time>2016-06-24T10:26:11Z</time>
      </trkpt>
      <trkpt lat="49.12864" lon="2.25729">
        <ele>44.36</ele>
        <time>2016-06-24T10:26:22Z</time>
      </trkpt>
      <trkpt lat="49.12858" lon="2.25714">
        <ele>44.36</ele>
        <time>2016-06-24T10:26:25Z</time>
      </trkpt>
      <trkpt lat="49.12857" lon="2.25708">
        <ele>44.84</ele>
        <time>2016-06-24T10:26:26Z</time>
      </trkpt>
      <trkpt lat="49.12856" lon="2.25701">
        <ele>44.84</ele>
        <time>2016-06-24T10:26:27Z</time>
      </trkpt>
      <trkpt lat="49.12856" lon="2.25695">
        <ele>44.84</ele>
        <time>2016-06-24T10:26:28Z</time>
      </trkpt>
      <trkpt lat="49.12857" lon="2.25688">
        <ele>44.84</ele>
        <time>2016-06-24T10:26:29Z</time>
      </trkpt>
      <trkpt lat="49.12858" lon="2.25682">
        <ele>44.84</ele>
        <time>2016-06-24T10:26:30Z</time>
      </trkpt>
      <trkpt lat="49.12865" lon="2.25606">
        <ele>45.32</ele>
        <time>2016-06-24T10:26:45Z</time>
      </trkpt>
      <trkpt lat="49.1287" lon="2.25527">
        <ele>45.8</ele>
        <time>2016-06-24T10:27:03Z</time>
      </trkpt>
      <trkpt lat="49.12853" lon="2.25434">
        <ele>43.88</ele>
        <time>2016-06-24T10:27:20Z</time>
      </trkpt>
      <trkpt lat="49.12811" lon="2.25311">
        <ele>42.44</ele>
        <time>2016-06-24T10:27:38Z</time>
      </trkpt>
      <trkpt lat="49.12774" lon="2.25273">
        <ele>41.47</ele>
        <time>2016-06-24T10:27:45Z</time>
      </trkpt>
      <trkpt lat="49.1268" lon="2.25243">
        <ele>36.67</ele>
        <time>2016-06-24T10:27:57Z</time>
      </trkpt>
      <trkpt lat="49.126" lon="2.25181">
        <ele>32.82</ele>
        <time>2016-06-24T10:28:07Z</time>
      </trkpt>
      <trkpt lat="49.12498" lon="2.2508">
        <ele>31.38</ele>
        <time>2016-06-24T10:28:22Z</time>
      </trkpt>
      <trkpt lat="49.1246" lon="2.25033">
        <ele>31.86</ele>
        <time>2016-06-24T10:28:33Z</time>
      </trkpt>
      <trkpt lat="49.12449" lon="2.25004">
        <ele>34.26</ele>
        <time>2016-06-24T10:28:48Z</time>
      </trkpt>
      <trkpt lat="49.12444" lon="2.24983">
        <ele>35.23</ele>
        <time>2016-06-24T10:28:56Z</time>
      </trkpt>
      <trkpt lat="49.12445" lon="2.2498">
        <ele>35.23</ele>
        <time>2016-06-24T10:28:57Z</time>
      </trkpt>
      <trkpt lat="49.12453" lon="2.24926">
        <ele>34.26</ele>
        <time>2016-06-24T10:29:13Z</time>
      </trkpt>
      <trkpt lat="49.12453" lon="2.24921">
        <ele>34.74</ele>
        <time>2016-06-24T10:29:15Z</time>
      </trkpt>
      <trkpt lat="49.12452" lon="2.24918">
        <ele>34.74</ele>
        <time>2016-06-24T10:29:16Z</time>
      </trkpt>
      <trkpt lat="49.12446" lon="2.24904">
        <ele>34.26</ele>
        <time>2016-06-24T10:29:25Z</time>
      </trkpt>
      <trkpt lat="49.1243" lon="2.24883">
        <ele>33.3</ele>
        <time>2016-06-24T10:29:37Z</time>
      </trkpt>
      <trkpt lat="49.12401" lon="2.24886">
        <ele>32.82</ele>
        <time>2016-06-24T10:29:51Z</time>
      </trkpt>
      <trkpt lat="49.12367" lon="2.24883">
        <ele>33.78</ele>
        <time>2016-06-24T10:30:05Z</time>
      </trkpt>
      <trkpt lat="49.12341" lon="2.24843">
        <ele>34.26</ele>
        <time>2016-06-24T10:30:22Z</time>
      </trkpt>
      <trkpt lat="49.12325" lon="2.24782">
        <ele>36.67</ele>
        <time>2016-06-24T10:30:40Z</time>
      </trkpt>
      <trkpt lat="49.12309" lon="2.24732">
        <ele>38.11</ele>
        <time>2016-06-24T10:30:56Z</time>
      </trkpt>
      <trkpt lat="49.12292" lon="2.24665">
        <ele>41.47</ele>
        <time>2016-06-24T10:31:14Z</time>
      </trkpt>
      <trkpt lat="49.12273" lon="2.24591">
        <ele>43.88</ele>
        <time>2016-06-24T10:31:30Z</time>
      </trkpt>
      <trkpt lat="49.12258" lon="2.24535">
        <ele>49.65</ele>
        <time>2016-06-24T10:31:42Z</time>
      </trkpt>
      <trkpt lat="49.12237" lon="2.24473">
        <ele>59.74</ele>
        <time>2016-06-24T10:31:55Z</time>
      </trkpt>
      <trkpt lat="49.12217" lon="2.24393">
        <ele>68.39</ele>
        <time>2016-06-24T10:32:11Z</time>
      </trkpt>
      <trkpt lat="49.12196" lon="2.2432">
        <ele>76.08</ele>
        <time>2016-06-24T10:32:25Z</time>
      </trkpt>
      <trkpt lat="49.12176" lon="2.24239">
        <ele>75.12</ele>
        <time>2016-06-24T10:32:42Z</time>
      </trkpt>
      <trkpt lat="49.12152" lon="2.24135">
        <ele>75.12</ele>
        <time>2016-06-24T10:33:00Z</time>
      </trkpt>
      <trkpt lat="49.1213" lon="2.24047">
        <ele>77.52</ele>
        <time>2016-06-24T10:33:16Z</time>
      </trkpt>
      <trkpt lat="49.12114" lon="2.23979">
        <ele>75.6</ele>
        <time>2016-06-24T10:33:28Z</time>
      </trkpt>
      <trkpt lat="49.12091" lon="2.23884">
        <ele>76.08</ele>
        <time>2016-06-24T10:33:44Z</time>
      </trkpt>
      <trkpt lat="49.1209" lon="2.23878">
        <ele>76.08</ele>
        <time>2016-06-24T10:33:45Z</time>
      </trkpt>
      <trkpt lat="49.12087" lon="2.23866">
        <ele>77.52</ele>
        <time>2016-06-24T10:33:47Z</time>
      </trkpt>
      <trkpt lat="49.12074" lon="2.23819">
        <ele>79.45</ele>
        <time>2016-06-24T10:33:55Z</time>
      </trkpt>
      <trkpt lat="49.12072" lon="2.23813">
        <ele>80.41</ele>
        <time>2016-06-24T10:33:56Z</time>
      </trkpt>
      <trkpt lat="49.1207" lon="2.23807">
        <ele>80.89</ele>
        <time>2016-06-24T10:33:57Z</time>
      </trkpt>
      <trkpt lat="49.12058" lon="2.23765">
        <ele>86.66</ele>
        <time>2016-06-24T10:34:04Z</time>
      </trkpt>
      <trkpt lat="49.12044" lon="2.2372">
        <ele>90.98</ele>
        <time>2016-06-24T10:34:11Z</time>
      </trkpt>
      <trkpt lat="49.12043" lon="2.23714">
        <ele>91.94</ele>
        <time>2016-06-24T10:34:12Z</time>
      </trkpt>
      <trkpt lat="49.12039" lon="2.237">
        <ele>92.42</ele>
        <time>2016-06-24T10:34:14Z</time>
      </trkpt>
      <trkpt lat="49.12037" lon="2.23694">
        <ele>93.39</ele>
        <time>2016-06-24T10:34:15Z</time>
      </trkpt>
      <trkpt lat="49.12023" lon="2.23648">
        <ele>99.63</ele>
        <time>2016-06-24T10:34:22Z</time>
      </trkpt>
      <trkpt lat="49.12021" lon="2.23635">
        <ele>101.56</ele>
        <time>2016-06-24T10:34:24Z</time>
      </trkpt>
      <trkpt lat="49.12013" lon="2.23608">
        <ele>104.92</ele>
        <time>2016-06-24T10:34:28Z</time>
      </trkpt>
      <trkpt lat="49.12011" lon="2.23601">
        <ele>105.88</ele>
        <time>2016-06-24T10:34:29Z</time>
      </trkpt>
      <trkpt lat="49.11987" lon="2.23474">
        <ele>103.48</ele>
        <time>2016-06-24T10:34:43Z</time>
      </trkpt>
      <trkpt lat="49.1196" lon="2.23337">
        <ele>86.66</ele>
        <time>2016-06-24T10:34:58Z</time>
      </trkpt>
      <trkpt lat="49.11954" lon="2.23299">
        <ele>78</ele>
        <time>2016-06-24T10:35:03Z</time>
      </trkpt>
      <trkpt lat="49.11952" lon="2.23286">
        <ele>74.64</ele>
        <time>2016-06-24T10:35:05Z</time>
      </trkpt>
      <trkpt lat="49.11948" lon="2.23266">
        <ele>70.31</ele>
        <time>2016-06-24T10:35:08Z</time>
      </trkpt>
      <trkpt lat="49.11943" lon="2.23199">
        <ele>53.49</ele>
        <time>2016-06-24T10:35:22Z</time>
      </trkpt>
      <trkpt lat="49.11944" lon="2.23197">
        <ele>52.53</ele>
        <time>2016-06-24T10:35:23Z</time>
      </trkpt>
      <trkpt lat="49.11946" lon="2.23194">
        <ele>51.09</ele>
        <time>2016-06-24T10:35:24Z</time>
      </trkpt>
      <trkpt lat="49.11961" lon="2.23152">
        <ele>38.59</ele>
        <time>2016-06-24T10:35:36Z</time>
      </trkpt>
      <trkpt lat="49.11943" lon="2.23105">
        <ele>36.19</ele>
        <time>2016-06-24T10:35:49Z</time>
      </trkpt>
      <trkpt lat="49.11921" lon="2.23097">
        <ele>33.78</ele>
        <time>2016-06-24T10:35:58Z</time>
      </trkpt>
      <trkpt lat="49.11919" lon="2.23094">
        <ele>33.78</ele>
        <time>2016-06-24T10:35:59Z</time>
      </trkpt>
      <trkpt lat="49.11916" lon="2.23091">
        <ele>33.3</ele>
        <time>2016-06-24T10:36:00Z</time>
      </trkpt>
      <trkpt lat="49.11915" lon="2.23087">
        <ele>33.3</ele>
        <time>2016-06-24T10:36:01Z</time>
      </trkpt>
      <trkpt lat="49.11913" lon="2.23082">
        <ele>33.3</ele>
        <time>2016-06-24T10:36:02Z</time>
      </trkpt>
      <trkpt lat="49.11891" lon="2.22997">
        <ele>31.38</ele>
        <time>2016-06-24T10:36:18Z</time>
      </trkpt>
      <trkpt lat="49.1189" lon="2.22979">
        <ele>31.38</ele>
        <time>2016-06-24T10:36:21Z</time>
      </trkpt>
      <trkpt lat="49.11891" lon="2.22967">
        <ele>31.38</ele>
        <time>2016-06-24T10:36:23Z</time>
      </trkpt>
      <trkpt lat="49.11902" lon="2.22845">
        <ele>28.5</ele>
        <time>2016-06-24T10:36:42Z</time>
      </trkpt>
      <trkpt lat="49.11911" lon="2.22734">
        <ele>28.5</ele>
        <time>2016-06-24T10:36:59Z</time>
      </trkpt>
      <trkpt lat="49.11918" lon="2.22658">
        <ele>29.46</ele>
        <time>2016-06-24T10:37:12Z</time>
      </trkpt>
      <trkpt lat="49.11923" lon="2.22595">
        <ele>28.5</ele>
        <time>2016-06-24T10:37:27Z</time>
      </trkpt>
      <trkpt lat="49.11927" lon="2.22541">
        <ele>29.46</ele>
        <time>2016-06-24T10:37:40Z</time>
      </trkpt>
      <trkpt lat="49.11931" lon="2.22481">
        <ele>34.26</ele>
        <time>2016-06-24T10:37:50Z</time>
      </trkpt>
      <trkpt lat="49.1194" lon="2.22395">
        <ele>40.03</ele>
        <time>2016-06-24T10:38:04Z</time>
      </trkpt>
      <trkpt lat="49.11944" lon="2.22337">
        <ele>40.99</ele>
        <time>2016-06-24T10:38:14Z</time>
      </trkpt>
      <trkpt lat="49.11943" lon="2.22332">
        <ele>40.51</ele>
        <time>2016-06-24T10:38:15Z</time>
      </trkpt>
      <trkpt lat="49.11905" lon="2.22241">
        <ele>35.23</ele>
        <time>2016-06-24T10:38:31Z</time>
      </trkpt>
      <trkpt lat="49.11859" lon="2.22132">
        <ele>35.71</ele>
        <time>2016-06-24T10:38:52Z</time>
      </trkpt>
      <trkpt lat="49.11819" lon="2.22037">
        <ele>35.23</ele>
        <time>2016-06-24T10:39:09Z</time>
      </trkpt>
      <trkpt lat="49.11779" lon="2.21942">
        <ele>33.3</ele>
        <time>2016-06-24T10:39:25Z</time>
      </trkpt>
      <trkpt lat="49.11745" lon="2.21865">
        <ele>32.34</ele>
        <time>2016-06-24T10:39:39Z</time>
      </trkpt>
      <trkpt lat="49.11742" lon="2.21859">
        <ele>32.34</ele>
        <time>2016-06-24T10:39:40Z</time>
      </trkpt>
      <trkpt lat="49.11697" lon="2.21756">
        <ele>32.34</ele>
        <time>2016-06-24T10:39:58Z</time>
      </trkpt>
      <trkpt lat="49.11651" lon="2.21654">
        <ele>31.86</ele>
        <time>2016-06-24T10:40:16Z</time>
      </trkpt>
      <trkpt lat="49.11615" lon="2.21572">
        <ele>30.42</ele>
        <time>2016-06-24T10:40:32Z</time>
      </trkpt>
      <trkpt lat="49.1158" lon="2.21493">
        <ele>28.98</ele>
        <time>2016-06-24T10:40:48Z</time>
      </trkpt>
      <trkpt lat="49.11544" lon="2.21455">
        <ele>28.5</ele>
        <time>2016-06-24T10:41:00Z</time>
      </trkpt>
      <trkpt lat="49.11476" lon="2.21436">
        <ele>28.98</ele>
        <time>2016-06-24T10:41:18Z</time>
      </trkpt>
      <trkpt lat="49.11424" lon="2.21412">
        <ele>28.5</ele>
        <time>2016-06-24T10:41:33Z</time>
      </trkpt>
      <trkpt lat="49.11363" lon="2.21362">
        <ele>28.02</ele>
        <time>2016-06-24T10:41:51Z</time>
      </trkpt>
      <trkpt lat="49.11318" lon="2.21343">
        <ele>28.98</ele>
        <time>2016-06-24T10:42:06Z</time>
      </trkpt>
      <trkpt lat="49.11299" lon="2.21335">
        <ele>28.98</ele>
        <time>2016-06-24T10:42:21Z</time>
      </trkpt>
      <trkpt lat="49.11298" lon="2.21335">
        <ele>28.5</ele>
        <time>2016-06-24T10:42:40Z</time>
      </trkpt>
      <trkpt lat="49.11292" lon="2.21336">
        <ele>28.5</ele>
        <time>2016-06-24T10:43:04Z</time>
      </trkpt>
      <trkpt lat="49.11291" lon="2.21336">
        <ele>28.5</ele>
        <time>2016-06-24T10:43:05Z</time>
      </trkpt>
      <trkpt lat="49.1129" lon="2.21337">
        <ele>28.5</ele>
        <time>2016-06-24T10:43:06Z</time>
      </trkpt>
      <trkpt lat="49.11289" lon="2.21339">
        <ele>28.02</ele>
        <time>2016-06-24T10:43:07Z</time>
      </trkpt>
      <trkpt lat="49.11287" lon="2.21341">
        <ele>28.02</ele>
        <time>2016-06-24T10:43:08Z</time>
      </trkpt>
      <trkpt lat="49.11286" lon="2.21344">
        <ele>27.53</ele>
        <time>2016-06-24T10:43:09Z</time>
      </trkpt>
      <trkpt lat="49.11285" lon="2.21347">
        <ele>27.53</ele>
        <time>2016-06-24T10:43:10Z</time>
      </trkpt>
      <trkpt lat="49.11271" lon="2.21411">
        <ele>27.05</ele>
        <time>2016-06-24T10:43:22Z</time>
      </trkpt>
      <trkpt lat="49.11259" lon="2.21481">
        <ele>23.69</ele>
        <time>2016-06-24T10:43:36Z</time>
      </trkpt>
      <trkpt lat="49.1125" lon="2.21546">
        <ele>16.96</ele>
        <time>2016-06-24T10:43:49Z</time>
      </trkpt>
      <trkpt lat="49.11239" lon="2.21622">
        <ele>13.6</ele>
        <time>2016-06-24T10:44:03Z</time>
      </trkpt>
      <trkpt lat="49.11234" lon="2.21634">
        <ele>12.63</ele>
        <time>2016-06-24T10:44:06Z</time>
      </trkpt>
      <trkpt lat="49.11234" lon="2.21639">
        <ele>11.67</ele>
        <time>2016-06-24T10:44:07Z</time>
      </trkpt>
      <trkpt lat="49.11232" lon="2.2172">
        <ele>6.87</ele>
        <time>2016-06-24T10:44:23Z</time>
      </trkpt>
      <trkpt lat="49.11229" lon="2.21782">
        <ele>4.46</ele>
        <time>2016-06-24T10:44:35Z</time>
      </trkpt>
      <trkpt lat="49.11225" lon="2.21848">
        <ele>4.94</ele>
        <time>2016-06-24T10:44:49Z</time>
      </trkpt>
      <trkpt lat="49.11208" lon="2.21943">
        <ele>22.25</ele>
        <time>2016-06-24T10:45:06Z</time>
      </trkpt>
      <trkpt lat="49.11188" lon="2.22026">
        <ele>25.13</ele>
        <time>2016-06-24T10:45:22Z</time>
      </trkpt>
      <trkpt lat="49.11171" lon="2.2208">
        <ele>27.05</ele>
        <time>2016-06-24T10:45:33Z</time>
      </trkpt>
      <trkpt lat="49.11145" lon="2.2218">
        <ele>26.57</ele>
        <time>2016-06-24T10:45:52Z</time>
      </trkpt>
      <trkpt lat="49.11122" lon="2.22259">
        <ele>28.5</ele>
        <time>2016-06-24T10:46:08Z</time>
      </trkpt>
      <trkpt lat="49.11102" lon="2.22337">
        <ele>28.98</ele>
        <time>2016-06-24T10:46:25Z</time>
      </trkpt>
      <trkpt lat="49.11084" lon="2.224">
        <ele>30.9</ele>
        <time>2016-06-24T10:46:41Z</time>
      </trkpt>
      <trkpt lat="49.11072" lon="2.2243">
        <ele>31.86</ele>
        <time>2016-06-24T10:46:51Z</time>
      </trkpt>
      <trkpt lat="49.1107" lon="2.2243">
        <ele>31.86</ele>
        <time>2016-06-24T10:46:52Z</time>
      </trkpt>
      <trkpt lat="49.11068" lon="2.22429">
        <ele>32.34</ele>
        <time>2016-06-24T10:46:53Z</time>
      </trkpt>
      <trkpt lat="49.11065" lon="2.22427">
        <ele>32.34</ele>
        <time>2016-06-24T10:46:54Z</time>
      </trkpt>
      <trkpt lat="49.11063" lon="2.22424">
        <ele>32.34</ele>
        <time>2016-06-24T10:46:55Z</time>
      </trkpt>
      <trkpt lat="49.1101" lon="2.22366">
        <ele>32.34</ele>
        <time>2016-06-24T10:47:13Z</time>
      </trkpt>
      <trkpt lat="49.10956" lon="2.22308">
        <ele>32.82</ele>
        <time>2016-06-24T10:47:29Z</time>
      </trkpt>
      <trkpt lat="49.10953" lon="2.22304">
        <ele>32.82</ele>
        <time>2016-06-24T10:47:30Z</time>
      </trkpt>
      <trkpt lat="49.10896" lon="2.22245">
        <ele>33.3</ele>
        <time>2016-06-24T10:47:49Z</time>
      </trkpt>
      <trkpt lat="49.10887" lon="2.22235">
        <ele>32.82</ele>
        <time>2016-06-24T10:48:02Z</time>
      </trkpt>
      <trkpt lat="49.10843" lon="2.22187">
        <ele>36.67</ele>
        <time>2016-06-24T10:48:18Z</time>
      </trkpt>
      <trkpt lat="49.10795" lon="2.22136">
        <ele>37.63</ele>
        <time>2016-06-24T10:48:35Z</time>
      </trkpt>
      <trkpt lat="49.10749" lon="2.22095">
        <ele>40.03</ele>
        <time>2016-06-24T10:48:50Z</time>
      </trkpt>
      <trkpt lat="49.107" lon="2.2205">
        <ele>39.07</ele>
        <time>2016-06-24T10:49:05Z</time>
      </trkpt>
      <trkpt lat="49.1065" lon="2.22006">
        <ele>37.63</ele>
        <time>2016-06-24T10:49:20Z</time>
      </trkpt>
      <trkpt lat="49.10599" lon="2.21961">
        <ele>36.19</ele>
        <time>2016-06-24T10:49:36Z</time>
      </trkpt>
      <trkpt lat="49.10534" lon="2.21902">
        <ele>34.26</ele>
        <time>2016-06-24T10:49:56Z</time>
      </trkpt>
      <trkpt lat="49.10504" lon="2.21876">
        <ele>33.78</ele>
        <time>2016-06-24T10:50:08Z</time>
      </trkpt>
      <trkpt lat="49.10444" lon="2.21829">
        <ele>32.82</ele>
        <time>2016-06-24T10:50:26Z</time>
      </trkpt>
      <trkpt lat="49.10372" lon="2.21792">
        <ele>30.9</ele>
        <time>2016-06-24T10:50:44Z</time>
      </trkpt>
      <trkpt lat="49.1028" lon="2.21742">
        <ele>28.5</ele>
        <time>2016-06-24T10:51:04Z</time>
      </trkpt>
      <trkpt lat="49.10246" lon="2.21729">
        <ele>28.02</ele>
        <time>2016-06-24T10:51:12Z</time>
      </trkpt>
      <trkpt lat="49.10242" lon="2.21727">
        <ele>28.02</ele>
        <time>2016-06-24T10:51:13Z</time>
      </trkpt>
      <trkpt lat="49.10177" lon="2.21693">
        <ele>31.38</ele>
        <time>2016-06-24T10:51:28Z</time>
      </trkpt>
      <trkpt lat="49.10117" lon="2.21654">
        <ele>30.9</ele>
        <time>2016-06-24T10:51:43Z</time>
      </trkpt>
      <trkpt lat="49.10045" lon="2.21611">
        <ele>31.38</ele>
        <time>2016-06-24T10:52:03Z</time>
      </trkpt>
      <trkpt lat="49.0997" lon="2.21568">
        <ele>31.86</ele>
        <time>2016-06-24T10:52:23Z</time>
      </trkpt>
      <trkpt lat="49.09916" lon="2.21536">
        <ele>30.9</ele>
        <time>2016-06-24T10:52:39Z</time>
      </trkpt>
      <trkpt lat="49.09842" lon="2.21493">
        <ele>30.9</ele>
        <time>2016-06-24T10:52:56Z</time>
      </trkpt>
      <trkpt lat="49.09748" lon="2.21441">
        <ele>32.82</ele>
        <time>2016-06-24T10:53:13Z</time>
      </trkpt>
      <trkpt lat="49.09679" lon="2.21397">
        <ele>33.3</ele>
        <time>2016-06-24T10:53:27Z</time>
      </trkpt>
      <trkpt lat="49.09609" lon="2.21351">
        <ele>30.9</ele>
        <time>2016-06-24T10:53:43Z</time>
      </trkpt>
      <trkpt lat="49.09592" lon="2.21342">
        <ele>30.9</ele>
        <time>2016-06-24T10:53:47Z</time>
      </trkpt>
      <trkpt lat="49.0951" lon="2.21291">
        <ele>28.5</ele>
        <time>2016-06-24T10:54:06Z</time>
      </trkpt>
      <trkpt lat="49.09424" lon="2.21201">
        <ele>24.65</ele>
        <time>2016-06-24T10:54:25Z</time>
      </trkpt>
      <trkpt lat="49.09421" lon="2.21197">
        <ele>24.65</ele>
        <time>2016-06-24T10:54:26Z</time>
      </trkpt>
      <trkpt lat="49.09417" lon="2.21192">
        <ele>24.65</ele>
        <time>2016-06-24T10:54:27Z</time>
      </trkpt>
      <trkpt lat="49.09413" lon="2.21186">
        <ele>24.65</ele>
        <time>2016-06-24T10:54:28Z</time>
      </trkpt>
      <trkpt lat="49.0935" lon="2.21077">
        <ele>24.65</ele>
        <time>2016-06-24T10:54:46Z</time>
      </trkpt>
      <trkpt lat="49.09284" lon="2.20989">
        <ele>25.13</ele>
        <time>2016-06-24T10:55:04Z</time>
      </trkpt>
      <trkpt lat="49.09225" lon="2.20947">
        <ele>25.13</ele>
        <time>2016-06-24T10:55:18Z</time>
      </trkpt>
      <trkpt lat="49.09147" lon="2.20913">
        <ele>28.02</ele>
        <time>2016-06-24T10:55:36Z</time>
      </trkpt>
      <trkpt lat="49.0908" lon="2.20885">
        <ele>30.42</ele>
        <time>2016-06-24T10:55:51Z</time>
      </trkpt>
      <trkpt lat="49.09056" lon="2.20874">
        <ele>31.38</ele>
        <time>2016-06-24T10:55:56Z</time>
      </trkpt>
      <trkpt lat="49.09051" lon="2.20871">
        <ele>31.38</ele>
        <time>2016-06-24T10:55:57Z</time>
      </trkpt>
      <trkpt lat="49.09027" lon="2.2086">
        <ele>31.38</ele>
        <time>2016-06-24T10:56:02Z</time>
      </trkpt>
      <trkpt lat="49.08955" lon="2.20829">
        <ele>30.42</ele>
        <time>2016-06-24T10:56:18Z</time>
      </trkpt>
      <trkpt lat="49.08882" lon="2.20798">
        <ele>29.94</ele>
        <time>2016-06-24T10:56:35Z</time>
      </trkpt>
      <trkpt lat="49.08825" lon="2.2077">
        <ele>28.02</ele>
        <time>2016-06-24T10:56:49Z</time>
      </trkpt>
      <trkpt lat="49.08746" lon="2.20733">
        <ele>25.61</ele>
        <time>2016-06-24T10:57:08Z</time>
      </trkpt>
      <trkpt lat="49.08683" lon="2.207">
        <ele>24.65</ele>
        <time>2016-06-24T10:57:25Z</time>
      </trkpt>
      <trkpt lat="49.08675" lon="2.20695">
        <ele>24.17</ele>
        <time>2016-06-24T10:57:29Z</time>
      </trkpt>
      <trkpt lat="49.08676" lon="2.20693">
        <ele>24.17</ele>
        <time>2016-06-24T10:57:43Z</time>
      </trkpt>
      <trkpt lat="49.08675" lon="2.20692">
        <ele>26.57</ele>
        <time>2016-06-24T10:58:12Z</time>
      </trkpt>
      <trkpt lat="49.08671" lon="2.20689">
        <ele>34.26</ele>
        <time>2016-06-24T10:58:48Z</time>
      </trkpt>
      <trkpt lat="49.0867" lon="2.20678">
        <ele>34.26</ele>
        <time>2016-06-24T10:59:16Z</time>
      </trkpt>
      <trkpt lat="49.08668" lon="2.20679">
        <ele>33.78</ele>
        <time>2016-06-24T10:59:25Z</time>
      </trkpt>
      <trkpt lat="49.08667" lon="2.20681">
        <ele>33.78</ele>
        <time>2016-06-24T10:59:26Z</time>
      </trkpt>
      <trkpt lat="49.08665" lon="2.20681">
        <ele>33.3</ele>
        <time>2016-06-24T10:59:27Z</time>
      </trkpt>
      <trkpt lat="49.0863" lon="2.20679">
        <ele>30.9</ele>
        <time>2016-06-24T10:59:42Z</time>
      </trkpt>
      <trkpt lat="49.08575" lon="2.20679">
        <ele>29.46</ele>
        <time>2016-06-24T10:59:58Z</time>
      </trkpt>
      <trkpt lat="49.08526" lon="2.20688">
        <ele>28.98</ele>
        <time>2016-06-24T11:00:13Z</time>
      </trkpt>
      <trkpt lat="49.08496" lon="2.2069">
        <ele>29.46</ele>
        <time>2016-06-24T11:00:23Z</time>
      </trkpt>
      <trkpt lat="49.08438" lon="2.20669">
        <ele>29.94</ele>
        <time>2016-06-24T11:00:39Z</time>
      </trkpt>
      <trkpt lat="49.08385" lon="2.20639">
        <ele>31.38</ele>
        <time>2016-06-24T11:00:54Z</time>
      </trkpt>
      <trkpt lat="49.08337" lon="2.20617">
        <ele>30.9</ele>
        <time>2016-06-24T11:01:09Z</time>
      </trkpt>
      <trkpt lat="49.08289" lon="2.20608">
        <ele>32.82</ele>
        <time>2016-06-24T11:01:24Z</time>
      </trkpt>
      <trkpt lat="49.08225" lon="2.20615">
        <ele>34.26</ele>
        <time>2016-06-24T11:01:43Z</time>
      </trkpt>
      <trkpt lat="49.08178" lon="2.20612">
        <ele>33.78</ele>
        <time>2016-06-24T11:01:58Z</time>
      </trkpt>
      <trkpt lat="49.08139" lon="2.20619">
        <ele>34.26</ele>
        <time>2016-06-24T11:02:10Z</time>
      </trkpt>
      <trkpt lat="49.08077" lon="2.20601">
        <ele>35.23</ele>
        <time>2016-06-24T11:02:28Z</time>
      </trkpt>
      <trkpt lat="49.08006" lon="2.20571">
        <ele>37.15</ele>
        <time>2016-06-24T11:02:49Z</time>
      </trkpt>
      <trkpt lat="49.07936" lon="2.20536">
        <ele>36.19</ele>
        <time>2016-06-24T11:03:08Z</time>
      </trkpt>
      <trkpt lat="49.07871" lon="2.20507">
        <ele>36.67</ele>
        <time>2016-06-24T11:03:25Z</time>
      </trkpt>
      <trkpt lat="49.07821" lon="2.20473">
        <ele>36.19</ele>
        <time>2016-06-24T11:03:40Z</time>
      </trkpt>
      <trkpt lat="49.07804" lon="2.20459">
        <ele>35.23</ele>
        <time>2016-06-24T11:03:45Z</time>
      </trkpt>
      <trkpt lat="49.078" lon="2.20456">
        <ele>35.23</ele>
        <time>2016-06-24T11:03:46Z</time>
      </trkpt>
      <trkpt lat="49.07796" lon="2.20454">
        <ele>35.23</ele>
        <time>2016-06-24T11:03:47Z</time>
      </trkpt>
      <trkpt lat="49.07784" lon="2.20443">
        <ele>34.26</ele>
        <time>2016-06-24T11:03:50Z</time>
      </trkpt>
      <trkpt lat="49.07722" lon="2.20379">
        <ele>33.78</ele>
        <time>2016-06-24T11:04:03Z</time>
      </trkpt>
      <trkpt lat="49.07658" lon="2.20309">
        <ele>33.78</ele>
        <time>2016-06-24T11:04:19Z</time>
      </trkpt>
      <trkpt lat="49.07641" lon="2.20292">
        <ele>35.23</ele>
        <time>2016-06-24T11:04:31Z</time>
      </trkpt>
      <trkpt lat="49.07642" lon="2.20292">
        <ele>35.71</ele>
        <time>2016-06-24T11:05:04Z</time>
      </trkpt>
      <trkpt lat="49.07625" lon="2.2028">
        <ele>37.15</ele>
        <time>2016-06-24T11:05:15Z</time>
      </trkpt>
      <trkpt lat="49.07581" lon="2.20228">
        <ele>35.23</ele>
        <time>2016-06-24T11:05:33Z</time>
      </trkpt>
      <trkpt lat="49.07579" lon="2.20221">
        <ele>34.74</ele>
        <time>2016-06-24T11:05:36Z</time>
      </trkpt>
      <trkpt lat="49.07579" lon="2.20218">
        <ele>34.74</ele>
        <time>2016-06-24T11:05:37Z</time>
      </trkpt>
      <trkpt lat="49.07578" lon="2.20217">
        <ele>34.74</ele>
        <time>2016-06-24T11:05:38Z</time>
      </trkpt>
      <trkpt lat="49.07577" lon="2.20215">
        <ele>34.74</ele>
        <time>2016-06-24T11:05:39Z</time>
      </trkpt>
      <trkpt lat="49.07574" lon="2.20214">
        <ele>34.74</ele>
        <time>2016-06-24T11:05:47Z</time>
      </trkpt>
      <trkpt lat="49.07572" lon="2.20214">
        <ele>34.74</ele>
        <time>2016-06-24T11:05:48Z</time>
      </trkpt>
      <trkpt lat="49.07571" lon="2.20213">
        <ele>34.74</ele>
        <time>2016-06-24T11:05:49Z</time>
      </trkpt>
      <trkpt lat="49.0754" lon="2.20179">
        <ele>36.67</ele>
        <time>2016-06-24T11:06:02Z</time>
      </trkpt>
      <trkpt lat="49.07501" lon="2.20119">
        <ele>37.15</ele>
        <time>2016-06-24T11:06:16Z</time>
      </trkpt>
      <trkpt lat="49.07455" lon="2.20052">
        <ele>37.63</ele>
        <time>2016-06-24T11:06:32Z</time>
      </trkpt>
      <trkpt lat="49.07389" lon="2.19957">
        <ele>36.67</ele>
        <time>2016-06-24T11:06:54Z</time>
      </trkpt>
      <trkpt lat="49.07326" lon="2.19872">
        <ele>36.67</ele>
        <time>2016-06-24T11:07:12Z</time>
      </trkpt>
      <trkpt lat="49.07261" lon="2.19791">
        <ele>35.23</ele>
        <time>2016-06-24T11:07:30Z</time>
      </trkpt>
      <trkpt lat="49.0722" lon="2.19737">
        <ele>33.78</ele>
        <time>2016-06-24T11:07:45Z</time>
      </trkpt>
      <trkpt lat="49.07211" lon="2.19727">
        <ele>33.3</ele>
        <time>2016-06-24T11:08:03Z</time>
      </trkpt>
      <trkpt lat="49.07163" lon="2.19681">
        <ele>34.26</ele>
        <time>2016-06-24T11:08:17Z</time>
      </trkpt>
      <trkpt lat="49.07072" lon="2.19617">
        <ele>34.74</ele>
        <time>2016-06-24T11:08:35Z</time>
      </trkpt>
      <trkpt lat="49.06951" lon="2.19547">
        <ele>31.86</ele>
        <time>2016-06-24T11:08:57Z</time>
      </trkpt>
      <trkpt lat="49.06864" lon="2.19496">
        <ele>29.46</ele>
        <time>2016-06-24T11:09:13Z</time>
      </trkpt>
      <trkpt lat="49.06798" lon="2.19449">
        <ele>29.94</ele>
        <time>2016-06-24T11:09:29Z</time>
      </trkpt>
      <trkpt lat="49.06759" lon="2.19424">
        <ele>30.42</ele>
        <time>2016-06-24T11:09:39Z</time>
      </trkpt>
      <trkpt lat="49.06708" lon="2.19365">
        <ele>32.82</ele>
        <time>2016-06-24T11:09:56Z</time>
      </trkpt>
      <trkpt lat="49.06679" lon="2.19295">
        <ele>32.82</ele>
        <time>2016-06-24T11:10:14Z</time>
      </trkpt>
      <trkpt lat="49.06653" lon="2.19239">
        <ele>33.3</ele>
        <time>2016-06-24T11:10:28Z</time>
      </trkpt>
      <trkpt lat="49.06623" lon="2.19176">
        <ele>32.34</ele>
        <time>2016-06-24T11:10:45Z</time>
      </trkpt>
      <trkpt lat="49.06596" lon="2.19113">
        <ele>33.3</ele>
        <time>2016-06-24T11:11:03Z</time>
      </trkpt>
      <trkpt lat="49.06572" lon="2.19061">
        <ele>34.74</ele>
        <time>2016-06-24T11:11:19Z</time>
      </trkpt>
      <trkpt lat="49.06543" lon="2.18997">
        <ele>34.26</ele>
        <time>2016-06-24T11:11:34Z</time>
      </trkpt>
      <trkpt lat="49.06506" lon="2.18918">
        <ele>33.3</ele>
        <time>2016-06-24T11:11:47Z</time>
      </trkpt>
      <trkpt lat="49.06497" lon="2.18901">
        <ele>33.78</ele>
        <time>2016-06-24T11:11:50Z</time>
      </trkpt>
      <trkpt lat="49.06494" lon="2.18896">
        <ele>33.78</ele>
        <time>2016-06-24T11:11:51Z</time>
      </trkpt>
      <trkpt lat="49.06458" lon="2.18815">
        <ele>37.63</ele>
        <time>2016-06-24T11:12:06Z</time>
      </trkpt>
      <trkpt lat="49.06439" lon="2.18731">
        <ele>34.74</ele>
        <time>2016-06-24T11:12:20Z</time>
      </trkpt>
      <trkpt lat="49.06435" lon="2.18718">
        <ele>34.74</ele>
        <time>2016-06-24T11:12:22Z</time>
      </trkpt>
      <trkpt lat="49.06426" lon="2.18677">
        <ele>34.26</ele>
        <time>2016-06-24T11:12:28Z</time>
      </trkpt>
      <trkpt lat="49.06404" lon="2.18629">
        <ele>33.3</ele>
        <time>2016-06-24T11:12:40Z</time>
      </trkpt>
      <trkpt lat="49.064" lon="2.18623">
        <ele>38.11</ele>
        <time>2016-06-24T11:12:53Z</time>
      </trkpt>
      <trkpt lat="49.06401" lon="2.18623">
        <ele>41.95</ele>
        <time>2016-06-24T11:13:26Z</time>
      </trkpt>
      <trkpt lat="49.06386" lon="2.18605">
        <ele>39.55</ele>
        <time>2016-06-24T11:13:43Z</time>
      </trkpt>
      <trkpt lat="49.06381" lon="2.18603">
        <ele>39.07</ele>
        <time>2016-06-24T11:13:45Z</time>
      </trkpt>
      <trkpt lat="49.06378" lon="2.18604">
        <ele>38.59</ele>
        <time>2016-06-24T11:13:46Z</time>
      </trkpt>
      <trkpt lat="49.06348" lon="2.18639">
        <ele>36.67</ele>
        <time>2016-06-24T11:13:59Z</time>
      </trkpt>
      <trkpt lat="49.06326" lon="2.18667">
        <ele>37.63</ele>
        <time>2016-06-24T11:14:11Z</time>
      </trkpt>
      <trkpt lat="49.06302" lon="2.18698">
        <ele>38.59</ele>
        <time>2016-06-24T11:14:24Z</time>
      </trkpt>
      <trkpt lat="49.06273" lon="2.18732">
        <ele>39.55</ele>
        <time>2016-06-24T11:14:39Z</time>
      </trkpt>
      <trkpt lat="49.06241" lon="2.18769">
        <ele>38.59</ele>
        <time>2016-06-24T11:14:56Z</time>
      </trkpt>
      <trkpt lat="49.06211" lon="2.18802">
        <ele>37.63</ele>
        <time>2016-06-24T11:15:12Z</time>
      </trkpt>
      <trkpt lat="49.06189" lon="2.18828">
        <ele>38.11</ele>
        <time>2016-06-24T11:15:24Z</time>
      </trkpt>
      <trkpt lat="49.06159" lon="2.18866">
        <ele>40.03</ele>
        <time>2016-06-24T11:15:40Z</time>
      </trkpt>
      <trkpt lat="49.06135" lon="2.18899">
        <ele>41.95</ele>
        <time>2016-06-24T11:15:55Z</time>
      </trkpt>
      <trkpt lat="49.06106" lon="2.18915">
        <ele>44.84</ele>
        <time>2016-06-24T11:16:07Z</time>
      </trkpt>
      <trkpt lat="49.06071" lon="2.18919">
        <ele>49.65</ele>
        <time>2016-06-24T11:16:22Z</time>
      </trkpt>
      <trkpt lat="49.06042" lon="2.18911">
        <ele>53.01</ele>
        <time>2016-06-24T11:16:37Z</time>
      </trkpt>
      <trkpt lat="49.06013" lon="2.18902">
        <ele>55.89</ele>
        <time>2016-06-24T11:16:51Z</time>
      </trkpt>
      <trkpt lat="49.05979" lon="2.18879">
        <ele>59.74</ele>
        <time>2016-06-24T11:17:07Z</time>
      </trkpt>
      <trkpt lat="49.05952" lon="2.18855">
        <ele>62.14</ele>
        <time>2016-06-24T11:17:23Z</time>
      </trkpt>
      <trkpt lat="49.05917" lon="2.18838">
        <ele>61.66</ele>
        <time>2016-06-24T11:17:43Z</time>
      </trkpt>
      <trkpt lat="49.05889" lon="2.18855">
        <ele>63.58</ele>
        <time>2016-06-24T11:17:59Z</time>
      </trkpt>
      <trkpt lat="49.05868" lon="2.18881">
        <ele>65.03</ele>
        <time>2016-06-24T11:18:10Z</time>
      </trkpt>
      <trkpt lat="49.05847" lon="2.18904">
        <ele>65.99</ele>
        <time>2016-06-24T11:18:23Z</time>
      </trkpt>
      <trkpt lat="49.05818" lon="2.18943">
        <ele>66.47</ele>
        <time>2016-06-24T11:18:41Z</time>
      </trkpt>
      <trkpt lat="49.0579" lon="2.18974">
        <ele>66.95</ele>
        <time>2016-06-24T11:18:57Z</time>
      </trkpt>
      <trkpt lat="49.05749" lon="2.19006">
        <ele>68.39</ele>
        <time>2016-06-24T11:19:15Z</time>
      </trkpt>
      <trkpt lat="49.05716" lon="2.19028">
        <ele>70.79</ele>
        <time>2016-06-24T11:19:33Z</time>
      </trkpt>
      <trkpt lat="49.05693" lon="2.19047">
        <ele>73.2</ele>
        <time>2016-06-24T11:19:47Z</time>
      </trkpt>
      <trkpt lat="49.05671" lon="2.19082">
        <ele>75.12</ele>
        <time>2016-06-24T11:20:01Z</time>
      </trkpt>
      <trkpt lat="49.05659" lon="2.19121">
        <ele>78</ele>
        <time>2016-06-24T11:20:16Z</time>
      </trkpt>
      <trkpt lat="49.05647" lon="2.19159">
        <ele>79.93</ele>
        <time>2016-06-24T11:20:31Z</time>
      </trkpt>
      <trkpt lat="49.05636" lon="2.19204">
        <ele>81.37</ele>
        <time>2016-06-24T11:20:47Z</time>
      </trkpt>
      <trkpt lat="49.05627" lon="2.19241">
        <ele>83.29</ele>
        <time>2016-06-24T11:21:00Z</time>
      </trkpt>
      <trkpt lat="49.05612" lon="2.19286">
        <ele>84.73</ele>
        <time>2016-06-24T11:21:16Z</time>
      </trkpt>
      <trkpt lat="49.05594" lon="2.19316">
        <ele>85.69</ele>
        <time>2016-06-24T11:21:29Z</time>
      </trkpt>
      <trkpt lat="49.05565" lon="2.19349">
        <ele>86.66</ele>
        <time>2016-06-24T11:21:44Z</time>
      </trkpt>
      <trkpt lat="49.05529" lon="2.19374">
        <ele>89.54</ele>
        <time>2016-06-24T11:22:00Z</time>
      </trkpt>
      <trkpt lat="49.05492" lon="2.19396">
        <ele>90.5</ele>
        <time>2016-06-24T11:22:15Z</time>
      </trkpt>
      <trkpt lat="49.05456" lon="2.19418">
        <ele>92.9</ele>
        <time>2016-06-24T11:22:29Z</time>
      </trkpt>
      <trkpt lat="49.05409" lon="2.19448">
        <ele>92.9</ele>
        <time>2016-06-24T11:22:49Z</time>
      </trkpt>
      <trkpt lat="49.05372" lon="2.19471">
        <ele>94.83</ele>
        <time>2016-06-24T11:23:03Z</time>
      </trkpt>
      <trkpt lat="49.05329" lon="2.19512">
        <ele>93.39</ele>
        <time>2016-06-24T11:23:20Z</time>
      </trkpt>
      <trkpt lat="49.05294" lon="2.19562">
        <ele>93.39</ele>
        <time>2016-06-24T11:23:36Z</time>
      </trkpt>
      <trkpt lat="49.0525" lon="2.1963">
        <ele>92.42</ele>
        <time>2016-06-24T11:23:56Z</time>
      </trkpt>
      <trkpt lat="49.05225" lon="2.1966">
        <ele>92.42</ele>
        <time>2016-06-24T11:24:08Z</time>
      </trkpt>
      <trkpt lat="49.05228" lon="2.19679">
        <ele>92.42</ele>
        <time>2016-06-24T11:24:09Z</time>
      </trkpt>
      <trkpt lat="49.05198" lon="2.1973">
        <ele>91.46</ele>
        <time>2016-06-24T11:24:26Z</time>
      </trkpt>
      <trkpt lat="49.05165" lon="2.19785">
        <ele>93.87</ele>
        <time>2016-06-24T11:24:41Z</time>
      </trkpt>
      <trkpt lat="49.0513" lon="2.19817">
        <ele>94.83</ele>
        <time>2016-06-24T11:24:54Z</time>
      </trkpt>
      <trkpt lat="49.05116" lon="2.19822">
        <ele>94.83</ele>
        <time>2016-06-24T11:24:58Z</time>
      </trkpt>
      <trkpt lat="49.05114" lon="2.19826">
        <ele>94.83</ele>
        <time>2016-06-24T11:24:59Z</time>
      </trkpt>
      <trkpt lat="49.05113" lon="2.19831">
        <ele>94.35</ele>
        <time>2016-06-24T11:25:00Z</time>
      </trkpt>
      <trkpt lat="49.05112" lon="2.19836">
        <ele>94.35</ele>
        <time>2016-06-24T11:25:01Z</time>
      </trkpt>
      <trkpt lat="49.05113" lon="2.19841">
        <ele>94.35</ele>
        <time>2016-06-24T11:25:02Z</time>
      </trkpt>
      <trkpt lat="49.05114" lon="2.19847">
        <ele>94.35</ele>
        <time>2016-06-24T11:25:03Z</time>
      </trkpt>
      <trkpt lat="49.05098" lon="2.19894">
        <ele>94.35</ele>
        <time>2016-06-24T11:25:14Z</time>
      </trkpt>
      <trkpt lat="49.05046" lon="2.19941">
        <ele>95.31</ele>
        <time>2016-06-24T11:25:30Z</time>
      </trkpt>
      <trkpt lat="49.04992" lon="2.19985">
        <ele>94.83</ele>
        <time>2016-06-24T11:25:47Z</time>
      </trkpt>
      <trkpt lat="49.04953" lon="2.2001">
        <ele>94.35</ele>
        <time>2016-06-24T11:26:00Z</time>
      </trkpt>
      <trkpt lat="49.04921" lon="2.20035">
        <ele>94.83</ele>
        <time>2016-06-24T11:26:12Z</time>
      </trkpt>
      <trkpt lat="49.04898" lon="2.20054">
        <ele>95.31</ele>
        <time>2016-06-24T11:26:24Z</time>
      </trkpt>
      <trkpt lat="49.04865" lon="2.20075">
        <ele>94.83</ele>
        <time>2016-06-24T11:26:38Z</time>
      </trkpt>
      <trkpt lat="49.04822" lon="2.20109">
        <ele>94.83</ele>
        <time>2016-06-24T11:26:54Z</time>
      </trkpt>
      <trkpt lat="49.04785" lon="2.20139">
        <ele>97.23</ele>
        <time>2016-06-24T11:27:08Z</time>
      </trkpt>
      <trkpt lat="49.0475" lon="2.20164">
        <ele>97.71</ele>
        <time>2016-06-24T11:27:21Z</time>
      </trkpt>
      <trkpt lat="49.04709" lon="2.20189">
        <ele>98.67</ele>
        <time>2016-06-24T11:27:36Z</time>
      </trkpt>
      <trkpt lat="49.04706" lon="2.20189">
        <ele>99.15</ele>
        <time>2016-06-24T11:27:37Z</time>
      </trkpt>
      <trkpt lat="49.04687" lon="2.20199">
        <ele>99.15</ele>
        <time>2016-06-24T11:27:44Z</time>
      </trkpt>
      <trkpt lat="49.04658" lon="2.20233">
        <ele>100.11</ele>
        <time>2016-06-24T11:27:58Z</time>
      </trkpt>
      <trkpt lat="49.04622" lon="2.20259">
        <ele>101.56</ele>
        <time>2016-06-24T11:28:12Z</time>
      </trkpt>
      <trkpt lat="49.04571" lon="2.20297">
        <ele>104.44</ele>
        <time>2016-06-24T11:28:27Z</time>
      </trkpt>
      <trkpt lat="49.04527" lon="2.20347">
        <ele>103.96</ele>
        <time>2016-06-24T11:28:42Z</time>
      </trkpt>
      <trkpt lat="49.04478" lon="2.20416">
        <ele>102.04</ele>
        <time>2016-06-24T11:28:55Z</time>
      </trkpt>
      <trkpt lat="49.0445" lon="2.20458">
        <ele>101.08</ele>
        <time>2016-06-24T11:29:02Z</time>
      </trkpt>
      <trkpt lat="49.04446" lon="2.20464">
        <ele>101.08</ele>
        <time>2016-06-24T11:29:03Z</time>
      </trkpt>
      <trkpt lat="49.04383" lon="2.20552">
        <ele>100.6</ele>
        <time>2016-06-24T11:29:18Z</time>
      </trkpt>
      <trkpt lat="49.04351" lon="2.20593">
        <ele>100.11</ele>
        <time>2016-06-24T11:29:29Z</time>
      </trkpt>
      <trkpt lat="49.04343" lon="2.20605">
        <ele>99.63</ele>
        <time>2016-06-24T11:29:39Z</time>
      </trkpt>
      <trkpt lat="49.04316" lon="2.20642">
        <ele>99.15</ele>
        <time>2016-06-24T11:29:50Z</time>
      </trkpt>
      <trkpt lat="49.04265" lon="2.20715">
        <ele>95.79</ele>
        <time>2016-06-24T11:30:05Z</time>
      </trkpt>
      <trkpt lat="49.04192" lon="2.20789">
        <ele>94.35</ele>
        <time>2016-06-24T11:30:19Z</time>
      </trkpt>
      <trkpt lat="49.04095" lon="2.20876">
        <ele>92.9</ele>
        <time>2016-06-24T11:30:35Z</time>
      </trkpt>
      <trkpt lat="49.04001" lon="2.20961">
        <ele>89.06</ele>
        <time>2016-06-24T11:30:51Z</time>
      </trkpt>
      <trkpt lat="49.0392" lon="2.21034">
        <ele>89.54</ele>
        <time>2016-06-24T11:31:05Z</time>
      </trkpt>
      <trkpt lat="49.03839" lon="2.21107">
        <ele>88.1</ele>
        <time>2016-06-24T11:31:21Z</time>
      </trkpt>
      <trkpt lat="49.03784" lon="2.21156">
        <ele>89.54</ele>
        <time>2016-06-24T11:31:32Z</time>
      </trkpt>
      <trkpt lat="49.03722" lon="2.21204">
        <ele>91.46</ele>
        <time>2016-06-24T11:31:45Z</time>
      </trkpt>
      <trkpt lat="49.03683" lon="2.21231">
        <ele>90.5</ele>
        <time>2016-06-24T11:31:56Z</time>
      </trkpt>
      <trkpt lat="49.03671" lon="2.2124">
        <ele>88.58</ele>
        <time>2016-06-24T11:32:06Z</time>
      </trkpt>
      <trkpt lat="49.0363" lon="2.2127">
        <ele>89.54</ele>
        <time>2016-06-24T11:32:21Z</time>
      </trkpt>
      <trkpt lat="49.03583" lon="2.21309">
        <ele>91.94</ele>
        <time>2016-06-24T11:32:36Z</time>
      </trkpt>
      <trkpt lat="49.03542" lon="2.21345">
        <ele>91.94</ele>
        <time>2016-06-24T11:32:51Z</time>
      </trkpt>
      <trkpt lat="49.03515" lon="2.2137">
        <ele>92.42</ele>
        <time>2016-06-24T11:33:01Z</time>
      </trkpt>
      <trkpt lat="49.03482" lon="2.21405">
        <ele>94.83</ele>
        <time>2016-06-24T11:33:13Z</time>
      </trkpt>
      <trkpt lat="49.03458" lon="2.21427">
        <ele>97.71</ele>
        <time>2016-06-24T11:33:23Z</time>
      </trkpt>
      <trkpt lat="49.03424" lon="2.21453">
        <ele>96.75</ele>
        <time>2016-06-24T11:33:35Z</time>
      </trkpt>
      <trkpt lat="49.03376" lon="2.21497">
        <ele>93.87</ele>
        <time>2016-06-24T11:33:52Z</time>
      </trkpt>
      <trkpt lat="49.03334" lon="2.21537">
        <ele>93.39</ele>
        <time>2016-06-24T11:34:07Z</time>
      </trkpt>
      <trkpt lat="49.03301" lon="2.21568">
        <ele>94.83</ele>
        <time>2016-06-24T11:34:20Z</time>
      </trkpt>
      <trkpt lat="49.03264" lon="2.21601">
        <ele>93.87</ele>
        <time>2016-06-24T11:34:34Z</time>
      </trkpt>
      <trkpt lat="49.03224" lon="2.21636">
        <ele>92.9</ele>
        <time>2016-06-24T11:34:49Z</time>
      </trkpt>
      <trkpt lat="49.03219" lon="2.21642">
        <ele>92.42</ele>
        <time>2016-06-24T11:35:00Z</time>
      </trkpt>
      <trkpt lat="49.0322" lon="2.21642">
        <ele>95.31</ele>
        <time>2016-06-24T11:35:22Z</time>
      </trkpt>
      <trkpt lat="49.03202" lon="2.21653">
        <ele>94.35</ele>
        <time>2016-06-24T11:35:37Z</time>
      </trkpt>
      <trkpt lat="49.03179" lon="2.21676">
        <ele>92.42</ele>
        <time>2016-06-24T11:35:48Z</time>
      </trkpt>
      <trkpt lat="49.03143" lon="2.21709">
        <ele>94.35</ele>
        <time>2016-06-24T11:36:02Z</time>
      </trkpt>
      <trkpt lat="49.03098" lon="2.21751">
        <ele>94.35</ele>
        <time>2016-06-24T11:36:18Z</time>
      </trkpt>
      <trkpt lat="49.03063" lon="2.21782">
        <ele>95.79</ele>
        <time>2016-06-24T11:36:29Z</time>
      </trkpt>
      <trkpt lat="49.03022" lon="2.2179">
        <ele>95.31</ele>
        <time>2016-06-24T11:36:42Z</time>
      </trkpt>
      <trkpt lat="49.02973" lon="2.21712">
        <ele>90.98</ele>
        <time>2016-06-24T11:36:57Z</time>
      </trkpt>
      <trkpt lat="49.02959" lon="2.21691">
        <ele>89.54</ele>
        <time>2016-06-24T11:37:01Z</time>
      </trkpt>
      <trkpt lat="49.02955" lon="2.21687">
        <ele>89.06</ele>
        <time>2016-06-24T11:37:02Z</time>
      </trkpt>
      <trkpt lat="49.0295" lon="2.21685">
        <ele>89.06</ele>
        <time>2016-06-24T11:37:03Z</time>
      </trkpt>
      <trkpt lat="49.02945" lon="2.21684">
        <ele>89.06</ele>
        <time>2016-06-24T11:37:04Z</time>
      </trkpt>
      <trkpt lat="49.02941" lon="2.21683">
        <ele>89.06</ele>
        <time>2016-06-24T11:37:05Z</time>
      </trkpt>
      <trkpt lat="49.02894" lon="2.21682">
        <ele>89.54</ele>
        <time>2016-06-24T11:37:14Z</time>
      </trkpt>
      <trkpt lat="49.02889" lon="2.21683">
        <ele>89.54</ele>
        <time>2016-06-24T11:37:15Z</time>
      </trkpt>
      <trkpt lat="49.02815" lon="2.21732">
        <ele>87.62</ele>
        <time>2016-06-24T11:37:29Z</time>
      </trkpt>
      <trkpt lat="49.0276" lon="2.21788">
        <ele>88.1</ele>
        <time>2016-06-24T11:37:40Z</time>
      </trkpt>
      <trkpt lat="49.02752" lon="2.218">
        <ele>87.62</ele>
        <time>2016-06-24T11:37:42Z</time>
      </trkpt>
      <trkpt lat="49.02731" lon="2.21831">
        <ele>87.14</ele>
        <time>2016-06-24T11:37:48Z</time>
      </trkpt>
      <trkpt lat="49.02693" lon="2.21874">
        <ele>87.14</ele>
        <time>2016-06-24T11:38:00Z</time>
      </trkpt>
      <trkpt lat="49.02682" lon="2.21937">
        <ele>86.66</ele>
        <time>2016-06-24T11:38:12Z</time>
      </trkpt>
      <trkpt lat="49.02668" lon="2.22011">
        <ele>86.18</ele>
        <time>2016-06-24T11:38:29Z</time>
      </trkpt>
      <trkpt lat="49.02665" lon="2.22014">
        <ele>86.18</ele>
        <time>2016-06-24T11:38:30Z</time>
      </trkpt>
      <trkpt lat="49.02663" lon="2.22016">
        <ele>86.18</ele>
        <time>2016-06-24T11:38:31Z</time>
      </trkpt>
      <trkpt lat="49.0266" lon="2.22017">
        <ele>86.66</ele>
        <time>2016-06-24T11:38:32Z</time>
      </trkpt>
      <trkpt lat="49.02657" lon="2.2202">
        <ele>86.66</ele>
        <time>2016-06-24T11:38:33Z</time>
      </trkpt>
      <trkpt lat="49.02655" lon="2.22023">
        <ele>87.14</ele>
        <time>2016-06-24T11:38:34Z</time>
      </trkpt>
      <trkpt lat="49.0261" lon="2.22072">
        <ele>94.83</ele>
        <time>2016-06-24T11:38:49Z</time>
      </trkpt>
      <trkpt lat="49.02579" lon="2.2213">
        <ele>95.31</ele>
        <time>2016-06-24T11:39:02Z</time>
      </trkpt>
      <trkpt lat="49.0258" lon="2.22133">
        <ele>95.31</ele>
        <time>2016-06-24T11:39:03Z</time>
      </trkpt>
      <trkpt lat="49.02582" lon="2.22136">
        <ele>95.31</ele>
        <time>2016-06-24T11:39:04Z</time>
      </trkpt>
      <trkpt lat="49.02585" lon="2.22139">
        <ele>95.79</ele>
        <time>2016-06-24T11:39:05Z</time>
      </trkpt>
      <trkpt lat="49.02587" lon="2.22142">
        <ele>95.79</ele>
        <time>2016-06-24T11:39:06Z</time>
      </trkpt>
      <trkpt lat="49.02624" lon="2.22203">
        <ele>95.79</ele>
        <time>2016-06-24T11:39:22Z</time>
      </trkpt>
      <trkpt lat="49.02656" lon="2.22259">
        <ele>94.83</ele>
        <time>2016-06-24T11:39:36Z</time>
      </trkpt>
      <trkpt lat="49.02696" lon="2.22329">
        <ele>93.87</ele>
        <time>2016-06-24T11:39:54Z</time>
      </trkpt>
      <trkpt lat="49.02712" lon="2.2236">
        <ele>92.9</ele>
        <time>2016-06-24T11:40:08Z</time>
      </trkpt>
      <trkpt lat="49.02714" lon="2.22363">
        <ele>91.94</ele>
        <time>2016-06-24T11:40:17Z</time>
      </trkpt>
      <trkpt lat="49.02714" lon="2.22361">
        <ele>91.94</ele>
        <time>2016-06-24T11:40:18Z</time>
      </trkpt>
      <trkpt lat="49.02714" lon="2.22359">
        <ele>91.94</ele>
        <time>2016-06-24T11:40:19Z</time>
      </trkpt>
      <trkpt lat="49.02713" lon="2.22356">
        <ele>91.46</ele>
        <time>2016-06-24T11:40:20Z</time>
      </trkpt>
      <trkpt lat="49.02711" lon="2.22353">
        <ele>91.46</ele>
        <time>2016-06-24T11:40:21Z</time>
      </trkpt>
      <trkpt lat="49.02709" lon="2.22351">
        <ele>90.98</ele>
        <time>2016-06-24T11:40:22Z</time>
      </trkpt>
      <trkpt lat="49.02693" lon="2.22327">
        <ele>89.54</ele>
        <time>2016-06-24T11:40:28Z</time>
      </trkpt>
      <trkpt lat="49.0269" lon="2.22323">
        <ele>89.54</ele>
        <time>2016-06-24T11:40:29Z</time>
      </trkpt>
      <trkpt lat="49.0265" lon="2.22256">
        <ele>89.06</ele>
        <time>2016-06-24T11:40:43Z</time>
      </trkpt>
      <trkpt lat="49.02614" lon="2.22194">
        <ele>87.14</ele>
        <time>2016-06-24T11:40:58Z</time>
      </trkpt>
      <trkpt lat="49.02611" lon="2.2219">
        <ele>87.14</ele>
        <time>2016-06-24T11:41:00Z</time>
      </trkpt>
      <trkpt lat="49.02609" lon="2.2219">
        <ele>87.14</ele>
        <time>2016-06-24T11:41:01Z</time>
      </trkpt>
      <trkpt lat="49.02607" lon="2.22192">
        <ele>87.62</ele>
        <time>2016-06-24T11:41:02Z</time>
      </trkpt>
      <trkpt lat="49.02606" lon="2.22196">
        <ele>87.62</ele>
        <time>2016-06-24T11:41:03Z</time>
      </trkpt>
      <trkpt lat="49.02604" lon="2.22199">
        <ele>88.1</ele>
        <time>2016-06-24T11:41:04Z</time>
      </trkpt>
      <trkpt lat="49.02584" lon="2.22246">
        <ele>89.54</ele>
        <time>2016-06-24T11:41:17Z</time>
      </trkpt>
      <trkpt lat="49.02583" lon="2.22249">
        <ele>90.02</ele>
        <time>2016-06-24T11:41:18Z</time>
      </trkpt>
      <trkpt lat="49.02564" lon="2.22294">
        <ele>90.98</ele>
        <time>2016-06-24T11:41:31Z</time>
      </trkpt>
      <trkpt lat="49.02532" lon="2.22358">
        <ele>92.42</ele>
        <time>2016-06-24T11:41:46Z</time>
      </trkpt>
      <trkpt lat="49.02495" lon="2.22438">
        <ele>92.9</ele>
        <time>2016-06-24T11:41:59Z</time>
      </trkpt>
      <trkpt lat="49.0246" lon="2.22517">
        <ele>90.5</ele>
        <time>2016-06-24T11:42:12Z</time>
      </trkpt>
      <trkpt lat="49.0243" lon="2.2259">
        <ele>88.58</ele>
        <time>2016-06-24T11:42:25Z</time>
      </trkpt>
      <trkpt lat="49.02422" lon="2.22613">
        <ele>88.58</ele>
        <time>2016-06-24T11:42:29Z</time>
      </trkpt>
      <trkpt lat="49.024" lon="2.22673">
        <ele>88.1</ele>
        <time>2016-06-24T11:42:43Z</time>
      </trkpt>
      <trkpt lat="49.02396" lon="2.22681">
        <ele>88.1</ele>
        <time>2016-06-24T11:42:56Z</time>
      </trkpt>
      <trkpt lat="49.02386" lon="2.22705">
        <ele>86.66</ele>
        <time>2016-06-24T11:43:10Z</time>
      </trkpt>
      <trkpt lat="49.02356" lon="2.22777">
        <ele>85.69</ele>
        <time>2016-06-24T11:43:24Z</time>
      </trkpt>
      <trkpt lat="49.02352" lon="2.22788">
        <ele>85.69</ele>
        <time>2016-06-24T11:43:26Z</time>
      </trkpt>
      <trkpt lat="49.02323" lon="2.22866">
        <ele>85.21</ele>
        <time>2016-06-24T11:43:40Z</time>
      </trkpt>
      <trkpt lat="49.0229" lon="2.22952">
        <ele>85.21</ele>
        <time>2016-06-24T11:43:55Z</time>
      </trkpt>
      <trkpt lat="49.02257" lon="2.23042">
        <ele>87.14</ele>
        <time>2016-06-24T11:44:11Z</time>
      </trkpt>
      <trkpt lat="49.02222" lon="2.23137">
        <ele>86.18</ele>
        <time>2016-06-24T11:44:30Z</time>
      </trkpt>
      <trkpt lat="49.02213" lon="2.23159">
        <ele>86.66</ele>
        <time>2016-06-24T11:44:41Z</time>
      </trkpt>
      <trkpt lat="49.02213" lon="2.23161">
        <ele>86.66</ele>
        <time>2016-06-24T11:44:42Z</time>
      </trkpt>
      <trkpt lat="49.02212" lon="2.23162">
        <ele>86.66</ele>
        <time>2016-06-24T11:44:43Z</time>
      </trkpt>
      <trkpt lat="49.02212" lon="2.23164">
        <ele>86.66</ele>
        <time>2016-06-24T11:44:44Z</time>
      </trkpt>
      <trkpt lat="49.02211" lon="2.23166">
        <ele>86.66</ele>
        <time>2016-06-24T11:44:45Z</time>
      </trkpt>
      <trkpt lat="49.0221" lon="2.23169">
        <ele>86.66</ele>
        <time>2016-06-24T11:44:46Z</time>
      </trkpt>
      <trkpt lat="49.02186" lon="2.23232">
        <ele>87.14</ele>
        <time>2016-06-24T11:45:01Z</time>
      </trkpt>
      <trkpt lat="49.02166" lon="2.23294">
        <ele>87.62</ele>
        <time>2016-06-24T11:45:15Z</time>
      </trkpt>
      <trkpt lat="49.02145" lon="2.23351">
        <ele>90.02</ele>
        <time>2016-06-24T11:45:29Z</time>
      </trkpt>
      <trkpt lat="49.02125" lon="2.23412">
        <ele>90.5</ele>
        <time>2016-06-24T11:45:43Z</time>
      </trkpt>
      <trkpt lat="49.02097" lon="2.23494">
        <ele>90.5</ele>
        <time>2016-06-24T11:45:58Z</time>
      </trkpt>
      <trkpt lat="49.02093" lon="2.23506">
        <ele>90.5</ele>
        <time>2016-06-24T11:46:00Z</time>
      </trkpt>
      <trkpt lat="49.02091" lon="2.23513">
        <ele>90.02</ele>
        <time>2016-06-24T11:46:01Z</time>
      </trkpt>
      <trkpt lat="49.02057" lon="2.23606">
        <ele>87.62</ele>
        <time>2016-06-24T11:46:15Z</time>
      </trkpt>
      <trkpt lat="49.02046" lon="2.23643">
        <ele>87.14</ele>
        <time>2016-06-24T11:46:23Z</time>
      </trkpt>
      <trkpt lat="49.02046" lon="2.23646">
        <ele>86.66</ele>
        <time>2016-06-24T11:46:24Z</time>
      </trkpt>
      <trkpt lat="49.02047" lon="2.23649">
        <ele>86.66</ele>
        <time>2016-06-24T11:46:25Z</time>
      </trkpt>
      <trkpt lat="49.02049" lon="2.23651">
        <ele>86.18</ele>
        <time>2016-06-24T11:46:26Z</time>
      </trkpt>
      <trkpt lat="49.02052" lon="2.23653">
        <ele>85.69</ele>
        <time>2016-06-24T11:46:27Z</time>
      </trkpt>
      <trkpt lat="49.02054" lon="2.23655">
        <ele>85.69</ele>
        <time>2016-06-24T11:46:28Z</time>
      </trkpt>
      <trkpt lat="49.021" lon="2.23691">
        <ele>87.14</ele>
        <time>2016-06-24T11:46:44Z</time>
      </trkpt>
      <trkpt lat="49.02117" lon="2.23705">
        <ele>88.1</ele>
        <time>2016-06-24T11:46:50Z</time>
      </trkpt>
      <trkpt lat="49.02141" lon="2.23725">
        <ele>91.46</ele>
        <time>2016-06-24T11:47:00Z</time>
      </trkpt>
      <trkpt lat="49.02149" lon="2.23732">
        <ele>93.39</ele>
        <time>2016-06-24T11:47:13Z</time>
      </trkpt>
      <trkpt lat="49.02148" lon="2.23731">
        <ele>93.87</ele>
        <time>2016-06-24T11:47:14Z</time>
      </trkpt>
      <trkpt lat="49.02147" lon="2.2373">
        <ele>93.87</ele>
        <time>2016-06-24T11:47:15Z</time>
      </trkpt>
      <trkpt lat="49.02146" lon="2.23729">
        <ele>93.87</ele>
        <time>2016-06-24T11:47:16Z</time>
      </trkpt>
      <trkpt lat="49.02144" lon="2.23728">
        <ele>93.87</ele>
        <time>2016-06-24T11:47:17Z</time>
      </trkpt>
      <trkpt lat="49.02141" lon="2.23726">
        <ele>93.87</ele>
        <time>2016-06-24T11:47:18Z</time>
      </trkpt>
      <trkpt lat="49.02116" lon="2.23705">
        <ele>94.35</ele>
        <time>2016-06-24T11:47:26Z</time>
      </trkpt>
      <trkpt lat="49.02112" lon="2.23701">
        <ele>94.35</ele>
        <time>2016-06-24T11:47:27Z</time>
      </trkpt>
      <trkpt lat="49.02084" lon="2.23677">
        <ele>92.9</ele>
        <time>2016-06-24T11:47:35Z</time>
      </trkpt>
      <trkpt lat="49.02023" lon="2.23632">
        <ele>89.06</ele>
        <time>2016-06-24T11:47:51Z</time>
      </trkpt>
      <trkpt lat="49.01966" lon="2.23594">
        <ele>88.58</ele>
        <time>2016-06-24T11:48:06Z</time>
      </trkpt>
      <trkpt lat="49.01927" lon="2.23578">
        <ele>88.1</ele>
        <time>2016-06-24T11:48:17Z</time>
      </trkpt>
      <trkpt lat="49.01924" lon="2.23581">
        <ele>87.62</ele>
        <time>2016-06-24T11:48:18Z</time>
      </trkpt>
      <trkpt lat="49.01922" lon="2.23585">
        <ele>88.1</ele>
        <time>2016-06-24T11:48:19Z</time>
      </trkpt>
      <trkpt lat="49.0192" lon="2.2359">
        <ele>87.62</ele>
        <time>2016-06-24T11:48:20Z</time>
      </trkpt>
      <trkpt lat="49.01918" lon="2.23595">
        <ele>87.62</ele>
        <time>2016-06-24T11:48:21Z</time>
      </trkpt>
      <trkpt lat="49.01901" lon="2.23635">
        <ele>87.14</ele>
        <time>2016-06-24T11:48:28Z</time>
      </trkpt>
      <trkpt lat="49.01874" lon="2.23696">
        <ele>85.69</ele>
        <time>2016-06-24T11:48:41Z</time>
      </trkpt>
      <trkpt lat="49.01867" lon="2.23705">
        <ele>85.69</ele>
        <time>2016-06-24T11:48:45Z</time>
      </trkpt>
      <trkpt lat="49.01864" lon="2.23706">
        <ele>85.69</ele>
        <time>2016-06-24T11:48:46Z</time>
      </trkpt>
      <trkpt lat="49.01862" lon="2.23706">
        <ele>85.69</ele>
        <time>2016-06-24T11:48:47Z</time>
      </trkpt>
      <trkpt lat="49.01859" lon="2.23706">
        <ele>85.69</ele>
        <time>2016-06-24T11:48:48Z</time>
      </trkpt>
      <trkpt lat="49.01857" lon="2.23708">
        <ele>85.69</ele>
        <time>2016-06-24T11:48:49Z</time>
      </trkpt>
      <trkpt lat="49.01854" lon="2.2371">
        <ele>85.69</ele>
        <time>2016-06-24T11:48:50Z</time>
      </trkpt>
      <trkpt lat="49.01852" lon="2.23712">
        <ele>86.18</ele>
        <time>2016-06-24T11:48:51Z</time>
      </trkpt>
      <trkpt lat="49.0185" lon="2.23715">
        <ele>86.18</ele>
        <time>2016-06-24T11:48:52Z</time>
      </trkpt>
      <trkpt lat="49.01828" lon="2.23761">
        <ele>87.14</ele>
        <time>2016-06-24T11:49:03Z</time>
      </trkpt>
      <trkpt lat="49.01812" lon="2.23799">
        <ele>87.62</ele>
        <time>2016-06-24T11:49:10Z</time>
      </trkpt>
      <trkpt lat="49.01811" lon="2.23805">
        <ele>87.62</ele>
        <time>2016-06-24T11:49:11Z</time>
      </trkpt>
      <trkpt lat="49.01809" lon="2.23812">
        <ele>87.62</ele>
        <time>2016-06-24T11:49:12Z</time>
      </trkpt>
      <trkpt lat="49.01808" lon="2.23818">
        <ele>87.62</ele>
        <time>2016-06-24T11:49:13Z</time>
      </trkpt>
      <trkpt lat="49.01808" lon="2.23825">
        <ele>87.14</ele>
        <time>2016-06-24T11:49:14Z</time>
      </trkpt>
      <trkpt lat="49.01805" lon="2.23869">
        <ele>87.62</ele>
        <time>2016-06-24T11:49:20Z</time>
      </trkpt>
      <trkpt lat="49.0178" lon="2.2399">
        <ele>83.77</ele>
        <time>2016-06-24T11:49:34Z</time>
      </trkpt>
      <trkpt lat="49.0174" lon="2.24118">
        <ele>80.41</ele>
        <time>2016-06-24T11:49:47Z</time>
      </trkpt>
      <trkpt lat="49.01732" lon="2.24135">
        <ele>79.93</ele>
        <time>2016-06-24T11:49:49Z</time>
      </trkpt>
      <trkpt lat="49.01681" lon="2.24217">
        <ele>80.41</ele>
        <time>2016-06-24T11:50:00Z</time>
      </trkpt>
      <trkpt lat="49.0164" lon="2.24291">
        <ele>82.33</ele>
        <time>2016-06-24T11:50:11Z</time>
      </trkpt>
      <trkpt lat="49.01621" lon="2.24321">
        <ele>83.29</ele>
        <time>2016-06-24T11:50:16Z</time>
      </trkpt>
      <trkpt lat="49.01613" lon="2.24338">
        <ele>83.77</ele>
        <time>2016-06-24T11:50:19Z</time>
      </trkpt>
      <trkpt lat="49.01568" lon="2.2443">
        <ele>85.21</ele>
        <time>2016-06-24T11:50:33Z</time>
      </trkpt>
      <trkpt lat="49.01537" lon="2.24515">
        <ele>85.21</ele>
        <time>2016-06-24T11:50:47Z</time>
      </trkpt>
      <trkpt lat="49.01515" lon="2.24608">
        <ele>83.29</ele>
        <time>2016-06-24T11:51:03Z</time>
      </trkpt>
      <trkpt lat="49.01505" lon="2.24712">
        <ele>81.37</ele>
        <time>2016-06-24T11:51:18Z</time>
      </trkpt>
      <trkpt lat="49.01507" lon="2.24782">
        <ele>80.41</ele>
        <time>2016-06-24T11:51:28Z</time>
      </trkpt>
      <trkpt lat="49.01508" lon="2.24875">
        <ele>78.48</ele>
        <time>2016-06-24T11:51:44Z</time>
      </trkpt>
      <trkpt lat="49.01506" lon="2.24877">
        <ele>78.48</ele>
        <time>2016-06-24T11:51:45Z</time>
      </trkpt>
      <trkpt lat="49.01504" lon="2.24877">
        <ele>78.48</ele>
        <time>2016-06-24T11:51:46Z</time>
      </trkpt>
      <trkpt lat="49.01502" lon="2.24877">
        <ele>78.97</ele>
        <time>2016-06-24T11:51:47Z</time>
      </trkpt>
      <trkpt lat="49.01499" lon="2.24879">
        <ele>78.97</ele>
        <time>2016-06-24T11:51:48Z</time>
      </trkpt>
      <trkpt lat="49.01467" lon="2.24917">
        <ele>79.45</ele>
        <time>2016-06-24T11:52:01Z</time>
      </trkpt>
      <trkpt lat="49.01444" lon="2.24942">
        <ele>79.45</ele>
        <time>2016-06-24T11:52:08Z</time>
      </trkpt>
      <trkpt lat="49.01396" lon="2.24999">
        <ele>78.97</ele>
        <time>2016-06-24T11:52:22Z</time>
      </trkpt>
      <trkpt lat="49.01375" lon="2.25019">
        <ele>78.48</ele>
        <time>2016-06-24T11:52:32Z</time>
      </trkpt>
      <trkpt lat="49.01374" lon="2.25021">
        <ele>77.04</ele>
        <time>2016-06-24T11:52:38Z</time>
      </trkpt>
      <trkpt lat="49.01374" lon="2.25023">
        <ele>77.04</ele>
        <time>2016-06-24T11:52:39Z</time>
      </trkpt>
      <trkpt lat="49.01374" lon="2.25025">
        <ele>77.52</ele>
        <time>2016-06-24T11:52:40Z</time>
      </trkpt>
      <trkpt lat="49.01374" lon="2.25028">
        <ele>77.52</ele>
        <time>2016-06-24T11:52:41Z</time>
      </trkpt>
      <trkpt lat="49.01374" lon="2.25031">
        <ele>77.52</ele>
        <time>2016-06-24T11:52:42Z</time>
      </trkpt>
      <trkpt lat="49.01374" lon="2.25033">
        <ele>77.52</ele>
        <time>2016-06-24T11:52:43Z</time>
      </trkpt>
      <trkpt lat="49.01375" lon="2.25036">
        <ele>77.52</ele>
        <time>2016-06-24T11:52:45Z</time>
      </trkpt>
      <trkpt lat="49.01376" lon="2.25036">
        <ele>78</ele>
        <time>2016-06-24T11:52:46Z</time>
      </trkpt>
      <trkpt lat="49.01377" lon="2.25036">
        <ele>77.52</ele>
        <time>2016-06-24T11:52:47Z</time>
      </trkpt>
      <trkpt lat="49.01377" lon="2.25034">
        <ele>77.52</ele>
        <time>2016-06-24T11:52:48Z</time>
      </trkpt>
      <trkpt lat="49.01377" lon="2.25032">
        <ele>77.52</ele>
        <time>2016-06-24T11:52:49Z</time>
      </trkpt>
      <trkpt lat="49.01377" lon="2.25031">
        <ele>77.52</ele>
        <time>2016-06-24T11:52:50Z</time>
      </trkpt>
      <trkpt lat="49.01376" lon="2.25029">
        <ele>77.52</ele>
        <time>2016-06-24T11:52:51Z</time>
      </trkpt>
      <trkpt lat="49.01374" lon="2.25027">
        <ele>78</ele>
        <time>2016-06-24T11:52:52Z</time>
      </trkpt>
      <trkpt lat="49.01373" lon="2.25026">
        <ele>78</ele>
        <time>2016-06-24T11:52:53Z</time>
      </trkpt>
      <trkpt lat="49.01371" lon="2.25024">
        <ele>78</ele>
        <time>2016-06-24T11:52:54Z</time>
      </trkpt>
      <trkpt lat="49.01368" lon="2.25023">
        <ele>78.48</ele>
        <time>2016-06-24T11:52:55Z</time>
      </trkpt>
      <trkpt lat="49.01366" lon="2.25022">
        <ele>78.48</ele>
        <time>2016-06-24T11:52:56Z</time>
      </trkpt>
      <trkpt lat="49.01363" lon="2.25022">
        <ele>78.48</ele>
        <time>2016-06-24T11:52:57Z</time>
      </trkpt>
      <trkpt lat="49.01316" lon="2.25014">
        <ele>78.97</ele>
        <time>2016-06-24T11:53:12Z</time>
      </trkpt>
      <trkpt lat="49.01282" lon="2.2501">
        <ele>78.97</ele>
        <time>2016-06-24T11:53:24Z</time>
      </trkpt>
      <trkpt lat="49.01281" lon="2.25012">
        <ele>78.97</ele>
        <time>2016-06-24T11:53:25Z</time>
      </trkpt>
      <trkpt lat="49.01281" lon="2.25015">
        <ele>78.48</ele>
        <time>2016-06-24T11:53:26Z</time>
      </trkpt>
      <trkpt lat="49.0128" lon="2.25017">
        <ele>78.97</ele>
        <time>2016-06-24T11:53:27Z</time>
      </trkpt>
      <trkpt lat="49.0128" lon="2.2502">
        <ele>78.97</ele>
        <time>2016-06-24T11:53:28Z</time>
      </trkpt>
      <trkpt lat="49.0128" lon="2.25022">
        <ele>78.97</ele>
        <time>2016-06-24T11:53:29Z</time>
      </trkpt>
      <trkpt lat="49.0128" lon="2.25024">
        <ele>78.97</ele>
        <time>2016-06-24T11:53:30Z</time>
      </trkpt>
      <trkpt lat="49.0128" lon="2.25027">
        <ele>78.97</ele>
        <time>2016-06-24T11:53:31Z</time>
      </trkpt>
      <trkpt lat="49.0128" lon="2.25029">
        <ele>78.97</ele>
        <time>2016-06-24T11:53:32Z</time>
      </trkpt>
      <trkpt lat="49.01278" lon="2.2503">
        <ele>78.97</ele>
        <time>2016-06-24T11:53:33Z</time>
      </trkpt>
      <trkpt lat="49.01268" lon="2.2504">
        <ele>78.97</ele>
        <time>2016-06-24T11:53:39Z</time>
      </trkpt>
      <trkpt lat="49.01268" lon="2.25045">
        <ele>78.97</ele>
        <time>2016-06-24T11:53:40Z</time>
      </trkpt>
      <trkpt lat="49.01269" lon="2.25049">
        <ele>78.97</ele>
        <time>2016-06-24T11:53:41Z</time>
      </trkpt>
      <trkpt lat="49.01286" lon="2.25137">
        <ele>78.48</ele>
        <time>2016-06-24T11:54:00Z</time>
      </trkpt>
      <trkpt lat="49.0129" lon="2.2519">
        <ele>78</ele>
        <time>2016-06-24T11:54:11Z</time>
      </trkpt>
      <trkpt lat="49.01287" lon="2.25202">
        <ele>78</ele>
        <time>2016-06-24T11:54:13Z</time>
      </trkpt>
      <trkpt lat="49.01283" lon="2.25213">
        <ele>77.52</ele>
        <time>2016-06-24T11:54:15Z</time>
      </trkpt>
      <trkpt lat="49.0128" lon="2.25218">
        <ele>77.04</ele>
        <time>2016-06-24T11:54:16Z</time>
      </trkpt>
      <trkpt lat="49.01277" lon="2.25222">
        <ele>77.04</ele>
        <time>2016-06-24T11:54:17Z</time>
      </trkpt>
      <trkpt lat="49.01222" lon="2.25284">
        <ele>78.97</ele>
        <time>2016-06-24T11:54:30Z</time>
      </trkpt>
      <trkpt lat="49.01146" lon="2.25356">
        <ele>78</ele>
        <time>2016-06-24T11:54:44Z</time>
      </trkpt>
      <trkpt lat="49.01072" lon="2.25427">
        <ele>78</ele>
        <time>2016-06-24T11:54:58Z</time>
      </trkpt>
      <trkpt lat="49.01005" lon="2.25492">
        <ele>78</ele>
        <time>2016-06-24T11:55:12Z</time>
      </trkpt>
      <trkpt lat="49.00944" lon="2.25551">
        <ele>77.52</ele>
        <time>2016-06-24T11:55:24Z</time>
      </trkpt>
      <trkpt lat="49.00915" lon="2.25581">
        <ele>76.56</ele>
        <time>2016-06-24T11:55:30Z</time>
      </trkpt>
      <trkpt lat="49.0084" lon="2.25653">
        <ele>72.72</ele>
        <time>2016-06-24T11:55:46Z</time>
      </trkpt>
      <trkpt lat="49.00792" lon="2.257">
        <ele>72.72</ele>
        <time>2016-06-24T11:55:57Z</time>
      </trkpt>
      <trkpt lat="49.0073" lon="2.25756">
        <ele>69.83</ele>
        <time>2016-06-24T11:56:11Z</time>
      </trkpt>
      <trkpt lat="49.00662" lon="2.2582">
        <ele>66.95</ele>
        <time>2016-06-24T11:56:29Z</time>
      </trkpt>
      <trkpt lat="49.00638" lon="2.25846">
        <ele>67.43</ele>
        <time>2016-06-24T11:56:42Z</time>
      </trkpt>
      <trkpt lat="49.00619" lon="2.25865">
        <ele>67.43</ele>
        <time>2016-06-24T11:56:55Z</time>
      </trkpt>
      <trkpt lat="49.00572" lon="2.25916">
        <ele>66.95</ele>
        <time>2016-06-24T11:57:08Z</time>
      </trkpt>
      <trkpt lat="49.005" lon="2.25991">
        <ele>66.47</ele>
        <time>2016-06-24T11:57:25Z</time>
      </trkpt>
      <trkpt lat="49.00478" lon="2.26009">
        <ele>65.51</ele>
        <time>2016-06-24T11:57:30Z</time>
      </trkpt>
      <trkpt lat="49.00415" lon="2.26073">
        <ele>65.03</ele>
        <time>2016-06-24T11:57:47Z</time>
      </trkpt>
      <trkpt lat="49.00376" lon="2.26114">
        <ele>63.58</ele>
        <time>2016-06-24T11:57:58Z</time>
      </trkpt>
      <trkpt lat="49.00303" lon="2.26192">
        <ele>61.66</ele>
        <time>2016-06-24T11:58:17Z</time>
      </trkpt>
      <trkpt lat="49.00244" lon="2.26255">
        <ele>61.66</ele>
        <time>2016-06-24T11:58:32Z</time>
      </trkpt>
      <trkpt lat="49.00178" lon="2.26324">
        <ele>62.62</ele>
        <time>2016-06-24T11:58:49Z</time>
      </trkpt>
      <trkpt lat="49.00142" lon="2.2636">
        <ele>63.1</ele>
        <time>2016-06-24T11:58:58Z</time>
      </trkpt>
      <trkpt lat="49.00138" lon="2.26363">
        <ele>63.1</ele>
        <time>2016-06-24T11:58:59Z</time>
      </trkpt>
      <trkpt lat="49.0013" lon="2.26369">
        <ele>63.1</ele>
        <time>2016-06-24T11:59:08Z</time>
      </trkpt>
      <trkpt lat="49.00134" lon="2.26367">
        <ele>65.51</ele>
        <time>2016-06-24T11:59:28Z</time>
      </trkpt>
      <trkpt lat="49.00126" lon="2.26375">
        <ele>63.58</ele>
        <time>2016-06-24T11:59:53Z</time>
      </trkpt>
      <trkpt lat="49.00089" lon="2.26413">
        <ele>63.58</ele>
        <time>2016-06-24T12:00:05Z</time>
      </trkpt>
      <trkpt lat="49.00032" lon="2.26469">
        <ele>63.58</ele>
        <time>2016-06-24T12:00:22Z</time>
      </trkpt>
      <trkpt lat="49.00009" lon="2.26495">
        <ele>64.55</ele>
        <time>2016-06-24T12:00:29Z</time>
      </trkpt>
      <trkpt lat="48.99961" lon="2.26551">
        <ele>65.51</ele>
        <time>2016-06-24T12:00:44Z</time>
      </trkpt>
      <trkpt lat="48.99945" lon="2.26573">
        <ele>65.99</ele>
        <time>2016-06-24T12:00:50Z</time>
      </trkpt>
      <trkpt lat="48.99941" lon="2.26577">
        <ele>66.47</ele>
        <time>2016-06-24T12:00:51Z</time>
      </trkpt>
      <trkpt lat="48.99907" lon="2.26628">
        <ele>68.39</ele>
        <time>2016-06-24T12:01:04Z</time>
      </trkpt>
      <trkpt lat="48.99872" lon="2.26677">
        <ele>68.87</ele>
        <time>2016-06-24T12:01:18Z</time>
      </trkpt>
      <trkpt lat="48.99822" lon="2.26752">
        <ele>67.91</ele>
        <time>2016-06-24T12:01:34Z</time>
      </trkpt>
      <trkpt lat="48.99765" lon="2.2686">
        <ele>65.51</ele>
        <time>2016-06-24T12:01:51Z</time>
      </trkpt>
      <trkpt lat="48.99728" lon="2.26949">
        <ele>65.03</ele>
        <time>2016-06-24T12:02:03Z</time>
      </trkpt>
      <trkpt lat="48.99726" lon="2.26956">
        <ele>64.55</ele>
        <time>2016-06-24T12:02:04Z</time>
      </trkpt>
      <trkpt lat="48.99723" lon="2.26963">
        <ele>64.55</ele>
        <time>2016-06-24T12:02:05Z</time>
      </trkpt>
      <trkpt lat="48.9972" lon="2.26968">
        <ele>64.07</ele>
        <time>2016-06-24T12:02:06Z</time>
      </trkpt>
      <trkpt lat="48.99716" lon="2.26974">
        <ele>64.07</ele>
        <time>2016-06-24T12:02:07Z</time>
      </trkpt>
      <trkpt lat="48.99713" lon="2.2698">
        <ele>64.07</ele>
        <time>2016-06-24T12:02:08Z</time>
      </trkpt>
      <trkpt lat="48.9971" lon="2.26986">
        <ele>63.58</ele>
        <time>2016-06-24T12:02:09Z</time>
      </trkpt>
      <trkpt lat="48.99701" lon="2.27005">
        <ele>63.58</ele>
        <time>2016-06-24T12:02:12Z</time>
      </trkpt>
      <trkpt lat="48.99697" lon="2.27009">
        <ele>63.1</ele>
        <time>2016-06-24T12:02:13Z</time>
      </trkpt>
      <trkpt lat="48.99693" lon="2.27014">
        <ele>62.62</ele>
        <time>2016-06-24T12:02:14Z</time>
      </trkpt>
      <trkpt lat="48.99688" lon="2.27018">
        <ele>62.14</ele>
        <time>2016-06-24T12:02:15Z</time>
      </trkpt>
      <trkpt lat="48.99683" lon="2.27021">
        <ele>61.66</ele>
        <time>2016-06-24T12:02:16Z</time>
      </trkpt>
      <trkpt lat="48.99673" lon="2.27029">
        <ele>60.7</ele>
        <time>2016-06-24T12:02:18Z</time>
      </trkpt>
      <trkpt lat="48.99669" lon="2.27035">
        <ele>60.22</ele>
        <time>2016-06-24T12:02:19Z</time>
      </trkpt>
      <trkpt lat="48.99666" lon="2.27043">
        <ele>60.22</ele>
        <time>2016-06-24T12:02:20Z</time>
      </trkpt>
      <trkpt lat="48.99666" lon="2.27051">
        <ele>59.74</ele>
        <time>2016-06-24T12:02:21Z</time>
      </trkpt>
      <trkpt lat="48.99667" lon="2.27058">
        <ele>60.22</ele>
        <time>2016-06-24T12:02:22Z</time>
      </trkpt>
      <trkpt lat="48.99669" lon="2.27063">
        <ele>60.22</ele>
        <time>2016-06-24T12:02:23Z</time>
      </trkpt>
      <trkpt lat="48.9967" lon="2.27068">
        <ele>60.22</ele>
        <time>2016-06-24T12:02:24Z</time>
      </trkpt>
      <trkpt lat="48.99671" lon="2.27072">
        <ele>60.22</ele>
        <time>2016-06-24T12:02:25Z</time>
      </trkpt>
      <trkpt lat="48.99672" lon="2.27077">
        <ele>60.22</ele>
        <time>2016-06-24T12:02:26Z</time>
      </trkpt>
      <trkpt lat="48.99671" lon="2.27082">
        <ele>60.7</ele>
        <time>2016-06-24T12:02:27Z</time>
      </trkpt>
      <trkpt lat="48.9967" lon="2.27087">
        <ele>60.7</ele>
        <time>2016-06-24T12:02:28Z</time>
      </trkpt>
      <trkpt lat="48.99669" lon="2.27092">
        <ele>60.22</ele>
        <time>2016-06-24T12:02:29Z</time>
      </trkpt>
      <trkpt lat="48.99667" lon="2.27097">
        <ele>60.22</ele>
        <time>2016-06-24T12:02:30Z</time>
      </trkpt>
      <trkpt lat="48.99634" lon="2.27182">
        <ele>60.22</ele>
        <time>2016-06-24T12:02:46Z</time>
      </trkpt>
      <trkpt lat="48.99609" lon="2.27259">
        <ele>61.66</ele>
        <time>2016-06-24T12:03:00Z</time>
      </trkpt>
      <trkpt lat="48.99586" lon="2.2734">
        <ele>60.7</ele>
        <time>2016-06-24T12:03:14Z</time>
      </trkpt>
      <trkpt lat="48.99546" lon="2.27444">
        <ele>58.3</ele>
        <time>2016-06-24T12:03:30Z</time>
      </trkpt>
      <trkpt lat="48.99506" lon="2.27527">
        <ele>57.34</ele>
        <time>2016-06-24T12:03:44Z</time>
      </trkpt>
      <trkpt lat="48.99499" lon="2.27533">
        <ele>56.37</ele>
        <time>2016-06-24T12:03:55Z</time>
      </trkpt>
      <trkpt lat="48.99485" lon="2.27575">
        <ele>54.93</ele>
        <time>2016-06-24T12:04:06Z</time>
      </trkpt>
      <trkpt lat="48.99483" lon="2.27592">
        <ele>54.93</ele>
        <time>2016-06-24T12:04:09Z</time>
      </trkpt>
      <trkpt lat="48.99482" lon="2.27598">
        <ele>54.93</ele>
        <time>2016-06-24T12:04:10Z</time>
      </trkpt>
      <trkpt lat="48.99482" lon="2.27604">
        <ele>54.93</ele>
        <time>2016-06-24T12:04:11Z</time>
      </trkpt>
      <trkpt lat="48.99477" lon="2.27702">
        <ele>51.57</ele>
        <time>2016-06-24T12:04:26Z</time>
      </trkpt>
      <trkpt lat="48.99448" lon="2.2784">
        <ele>50.61</ele>
        <time>2016-06-24T12:04:45Z</time>
      </trkpt>
      <trkpt lat="48.99423" lon="2.27923">
        <ele>50.61</ele>
        <time>2016-06-24T12:04:57Z</time>
      </trkpt>
      <trkpt lat="48.99406" lon="2.27967">
        <ele>52.05</ele>
        <time>2016-06-24T12:05:08Z</time>
      </trkpt>
      <trkpt lat="48.99376" lon="2.28056">
        <ele>53.49</ele>
        <time>2016-06-24T12:05:25Z</time>
      </trkpt>
      <trkpt lat="48.99349" lon="2.28134">
        <ele>57.82</ele>
        <time>2016-06-24T12:05:42Z</time>
      </trkpt>
      <trkpt lat="48.9932" lon="2.28212">
        <ele>57.82</ele>
        <time>2016-06-24T12:06:02Z</time>
      </trkpt>
      <trkpt lat="48.993" lon="2.28277">
        <ele>57.82</ele>
        <time>2016-06-24T12:06:17Z</time>
      </trkpt>
      <trkpt lat="48.99284" lon="2.28313">
        <ele>59.26</ele>
        <time>2016-06-24T12:06:30Z</time>
      </trkpt>
      <trkpt lat="48.99275" lon="2.28325">
        <ele>60.22</ele>
        <time>2016-06-24T12:06:48Z</time>
      </trkpt>
      <trkpt lat="48.99274" lon="2.28328">
        <ele>60.22</ele>
        <time>2016-06-24T12:06:49Z</time>
      </trkpt>
      <trkpt lat="48.99261" lon="2.2838">
        <ele>63.58</ele>
        <time>2016-06-24T12:07:02Z</time>
      </trkpt>
      <trkpt lat="48.99251" lon="2.28404">
        <ele>64.07</ele>
        <time>2016-06-24T12:07:07Z</time>
      </trkpt>
      <trkpt lat="48.99245" lon="2.28415">
        <ele>64.07</ele>
        <time>2016-06-24T12:07:09Z</time>
      </trkpt>
      <trkpt lat="48.99243" lon="2.2842">
        <ele>64.07</ele>
        <time>2016-06-24T12:07:10Z</time>
      </trkpt>
      <trkpt lat="48.99227" lon="2.28474">
        <ele>64.55</ele>
        <time>2016-06-24T12:07:21Z</time>
      </trkpt>
      <trkpt lat="48.99224" lon="2.28479">
        <ele>64.55</ele>
        <time>2016-06-24T12:07:22Z</time>
      </trkpt>
      <trkpt lat="48.99222" lon="2.28484">
        <ele>64.55</ele>
        <time>2016-06-24T12:07:23Z</time>
      </trkpt>
      <trkpt lat="48.99198" lon="2.28559">
        <ele>64.07</ele>
        <time>2016-06-24T12:07:38Z</time>
      </trkpt>
      <trkpt lat="48.9918" lon="2.28638">
        <ele>62.14</ele>
        <time>2016-06-24T12:07:52Z</time>
      </trkpt>
      <trkpt lat="48.99161" lon="2.28689">
        <ele>61.66</ele>
        <time>2016-06-24T12:08:03Z</time>
      </trkpt>
      <trkpt lat="48.99145" lon="2.28726">
        <ele>61.66</ele>
        <time>2016-06-24T12:08:13Z</time>
      </trkpt>
      <trkpt lat="48.99141" lon="2.28732">
        <ele>61.66</ele>
        <time>2016-06-24T12:08:14Z</time>
      </trkpt>
      <trkpt lat="48.99139" lon="2.28738">
        <ele>61.66</ele>
        <time>2016-06-24T12:08:15Z</time>
      </trkpt>
      <trkpt lat="48.99104" lon="2.28811">
        <ele>64.55</ele>
        <time>2016-06-24T12:08:27Z</time>
      </trkpt>
      <trkpt lat="48.99093" lon="2.28871">
        <ele>63.58</ele>
        <time>2016-06-24T12:08:41Z</time>
      </trkpt>
      <trkpt lat="48.99084" lon="2.28902">
        <ele>64.07</ele>
        <time>2016-06-24T12:08:53Z</time>
      </trkpt>
      <trkpt lat="48.9906" lon="2.2897">
        <ele>64.07</ele>
        <time>2016-06-24T12:09:08Z</time>
      </trkpt>
      <trkpt lat="48.99033" lon="2.29041">
        <ele>63.58</ele>
        <time>2016-06-24T12:09:24Z</time>
      </trkpt>
      <trkpt lat="48.99027" lon="2.29059">
        <ele>63.58</ele>
        <time>2016-06-24T12:09:35Z</time>
      </trkpt>
      <trkpt lat="48.99025" lon="2.29065">
        <ele>64.55</ele>
        <time>2016-06-24T12:09:55Z</time>
      </trkpt>
      <trkpt lat="48.98999" lon="2.29117">
        <ele>63.1</ele>
        <time>2016-06-24T12:10:07Z</time>
      </trkpt>
      <trkpt lat="48.98937" lon="2.29198">
        <ele>60.7</ele>
        <time>2016-06-24T12:10:23Z</time>
      </trkpt>
      <trkpt lat="48.98913" lon="2.29227">
        <ele>60.7</ele>
        <time>2016-06-24T12:10:33Z</time>
      </trkpt>
      <trkpt lat="48.98909" lon="2.2923">
        <ele>58.78</ele>
        <time>2016-06-24T12:10:49Z</time>
      </trkpt>
      <trkpt lat="48.98901" lon="2.2924">
        <ele>60.7</ele>
        <time>2016-06-24T12:11:06Z</time>
      </trkpt>
      <trkpt lat="48.98867" lon="2.29279">
        <ele>61.66</ele>
        <time>2016-06-24T12:11:18Z</time>
      </trkpt>
      <trkpt lat="48.98843" lon="2.29308">
        <ele>61.66</ele>
        <time>2016-06-24T12:11:25Z</time>
      </trkpt>
      <trkpt lat="48.9884" lon="2.29313">
        <ele>61.66</ele>
        <time>2016-06-24T12:11:26Z</time>
      </trkpt>
      <trkpt lat="48.98837" lon="2.29318">
        <ele>61.66</ele>
        <time>2016-06-24T12:11:27Z</time>
      </trkpt>
      <trkpt lat="48.98834" lon="2.29324">
        <ele>61.66</ele>
        <time>2016-06-24T12:11:28Z</time>
      </trkpt>
      <trkpt lat="48.98831" lon="2.29329">
        <ele>62.14</ele>
        <time>2016-06-24T12:11:29Z</time>
      </trkpt>
      <trkpt lat="48.98828" lon="2.29335">
        <ele>62.14</ele>
        <time>2016-06-24T12:11:30Z</time>
      </trkpt>
      <trkpt lat="48.98825" lon="2.29341">
        <ele>62.14</ele>
        <time>2016-06-24T12:11:31Z</time>
      </trkpt>
      <trkpt lat="48.98813" lon="2.29364">
        <ele>62.14</ele>
        <time>2016-06-24T12:11:35Z</time>
      </trkpt>
      <trkpt lat="48.98811" lon="2.2937">
        <ele>62.14</ele>
        <time>2016-06-24T12:11:36Z</time>
      </trkpt>
      <trkpt lat="48.98768" lon="2.29447">
        <ele>59.26</ele>
        <time>2016-06-24T12:11:49Z</time>
      </trkpt>
      <trkpt lat="48.98709" lon="2.29548">
        <ele>55.89</ele>
        <time>2016-06-24T12:12:05Z</time>
      </trkpt>
      <trkpt lat="48.98638" lon="2.29652">
        <ele>51.57</ele>
        <time>2016-06-24T12:12:22Z</time>
      </trkpt>
      <trkpt lat="48.98634" lon="2.29656">
        <ele>51.09</ele>
        <time>2016-06-24T12:12:23Z</time>
      </trkpt>
      <trkpt lat="48.9863" lon="2.29658">
        <ele>51.57</ele>
        <time>2016-06-24T12:12:24Z</time>
      </trkpt>
      <trkpt lat="48.98626" lon="2.29659">
        <ele>51.57</ele>
        <time>2016-06-24T12:12:25Z</time>
      </trkpt>
      <trkpt lat="48.98622" lon="2.29659">
        <ele>52.05</ele>
        <time>2016-06-24T12:12:26Z</time>
      </trkpt>
      <trkpt lat="48.98614" lon="2.29658">
        <ele>52.05</ele>
        <time>2016-06-24T12:12:28Z</time>
      </trkpt>
      <trkpt lat="48.9861" lon="2.2966">
        <ele>51.57</ele>
        <time>2016-06-24T12:12:29Z</time>
      </trkpt>
      <trkpt lat="48.98606" lon="2.29664">
        <ele>51.09</ele>
        <time>2016-06-24T12:12:30Z</time>
      </trkpt>
      <trkpt lat="48.98604" lon="2.29669">
        <ele>50.61</ele>
        <time>2016-06-24T12:12:31Z</time>
      </trkpt>
      <trkpt lat="48.98602" lon="2.29675">
        <ele>50.13</ele>
        <time>2016-06-24T12:12:32Z</time>
      </trkpt>
      <trkpt lat="48.98602" lon="2.2968">
        <ele>49.65</ele>
        <time>2016-06-24T12:12:33Z</time>
      </trkpt>
      <trkpt lat="48.98601" lon="2.29686">
        <ele>49.16</ele>
        <time>2016-06-24T12:12:34Z</time>
      </trkpt>
      <trkpt lat="48.986" lon="2.29699">
        <ele>48.68</ele>
        <time>2016-06-24T12:12:36Z</time>
      </trkpt>
      <trkpt lat="48.98599" lon="2.29705">
        <ele>48.68</ele>
        <time>2016-06-24T12:12:37Z</time>
      </trkpt>
      <trkpt lat="48.98598" lon="2.29711">
        <ele>48.2</ele>
        <time>2016-06-24T12:12:38Z</time>
      </trkpt>
      <trkpt lat="48.98595" lon="2.29716">
        <ele>48.2</ele>
        <time>2016-06-24T12:12:39Z</time>
      </trkpt>
      <trkpt lat="48.98592" lon="2.29721">
        <ele>48.2</ele>
        <time>2016-06-24T12:12:40Z</time>
      </trkpt>
      <trkpt lat="48.98571" lon="2.29749">
        <ele>48.2</ele>
        <time>2016-06-24T12:12:46Z</time>
      </trkpt>
      <trkpt lat="48.98526" lon="2.29811">
        <ele>49.65</ele>
        <time>2016-06-24T12:12:59Z</time>
      </trkpt>
      <trkpt lat="48.98514" lon="2.29828">
        <ele>50.61</ele>
        <time>2016-06-24T12:13:03Z</time>
      </trkpt>
      <trkpt lat="48.9844" lon="2.29885">
        <ele>48.68</ele>
        <time>2016-06-24T12:13:20Z</time>
      </trkpt>
      <trkpt lat="48.98385" lon="2.2993">
        <ele>46.28</ele>
        <time>2016-06-24T12:13:35Z</time>
      </trkpt>
      <trkpt lat="48.98325" lon="2.29979">
        <ele>46.28</ele>
        <time>2016-06-24T12:13:50Z</time>
      </trkpt>
      <trkpt lat="48.98276" lon="2.3002">
        <ele>47.72</ele>
        <time>2016-06-24T12:14:07Z</time>
      </trkpt>
      <trkpt lat="48.9823" lon="2.30061">
        <ele>49.16</ele>
        <time>2016-06-24T12:14:25Z</time>
      </trkpt>
      <trkpt lat="48.98201" lon="2.30093">
        <ele>51.09</ele>
        <time>2016-06-24T12:14:42Z</time>
      </trkpt>
      <trkpt lat="48.98182" lon="2.30119">
        <ele>52.53</ele>
        <time>2016-06-24T12:14:53Z</time>
      </trkpt>
      <trkpt lat="48.98157" lon="2.30154">
        <ele>53.97</ele>
        <time>2016-06-24T12:15:05Z</time>
      </trkpt>
      <trkpt lat="48.98116" lon="2.30201">
        <ele>55.89</ele>
        <time>2016-06-24T12:15:19Z</time>
      </trkpt>
      <trkpt lat="48.98085" lon="2.30242">
        <ele>57.34</ele>
        <time>2016-06-24T12:15:30Z</time>
      </trkpt>
      <trkpt lat="48.98064" lon="2.3027">
        <ele>56.37</ele>
        <time>2016-06-24T12:15:37Z</time>
      </trkpt>
      <trkpt lat="48.98016" lon="2.3033">
        <ele>56.37</ele>
        <time>2016-06-24T12:15:52Z</time>
      </trkpt>
      <trkpt lat="48.97956" lon="2.30406">
        <ele>56.37</ele>
        <time>2016-06-24T12:16:09Z</time>
      </trkpt>
      <trkpt lat="48.97943" lon="2.30423">
        <ele>57.34</ele>
        <time>2016-06-24T12:16:13Z</time>
      </trkpt>
      <trkpt lat="48.97939" lon="2.30428">
        <ele>57.82</ele>
        <time>2016-06-24T12:16:14Z</time>
      </trkpt>
      <trkpt lat="48.97936" lon="2.30432">
        <ele>57.82</ele>
        <time>2016-06-24T12:16:15Z</time>
      </trkpt>
      <trkpt lat="48.97901" lon="2.30479">
        <ele>60.7</ele>
        <time>2016-06-24T12:16:29Z</time>
      </trkpt>
      <trkpt lat="48.97874" lon="2.30508">
        <ele>62.62</ele>
        <time>2016-06-24T12:16:40Z</time>
      </trkpt>
      <trkpt lat="48.97839" lon="2.30553">
        <ele>60.7</ele>
        <time>2016-06-24T12:16:53Z</time>
      </trkpt>
      <trkpt lat="48.97816" lon="2.3059">
        <ele>60.22</ele>
        <time>2016-06-24T12:17:02Z</time>
      </trkpt>
      <trkpt lat="48.97782" lon="2.30638">
        <ele>59.74</ele>
        <time>2016-06-24T12:17:14Z</time>
      </trkpt>
      <trkpt lat="48.97755" lon="2.30676">
        <ele>59.26</ele>
        <time>2016-06-24T12:17:24Z</time>
      </trkpt>
      <trkpt lat="48.97724" lon="2.30707">
        <ele>60.22</ele>
        <time>2016-06-24T12:17:34Z</time>
      </trkpt>
      <trkpt lat="48.97714" lon="2.30714">
        <ele>61.18</ele>
        <time>2016-06-24T12:17:37Z</time>
      </trkpt>
      <trkpt lat="48.97672" lon="2.30742">
        <ele>61.66</ele>
        <time>2016-06-24T12:17:49Z</time>
      </trkpt>
      <trkpt lat="48.97614" lon="2.30773">
        <ele>63.1</ele>
        <time>2016-06-24T12:18:03Z</time>
      </trkpt>
      <trkpt lat="48.97577" lon="2.30791">
        <ele>64.55</ele>
        <time>2016-06-24T12:18:15Z</time>
      </trkpt>
      <trkpt lat="48.97577" lon="2.30792">
        <ele>66.95</ele>
        <time>2016-06-24T12:18:31Z</time>
      </trkpt>
      <trkpt lat="48.97566" lon="2.30799">
        <ele>70.31</ele>
        <time>2016-06-24T12:18:47Z</time>
      </trkpt>
      <trkpt lat="48.97565" lon="2.30801">
        <ele>70.79</ele>
        <time>2016-06-24T12:18:48Z</time>
      </trkpt>
      <trkpt lat="48.97563" lon="2.30803">
        <ele>71.27</ele>
        <time>2016-06-24T12:18:49Z</time>
      </trkpt>
      <trkpt lat="48.97528" lon="2.3083">
        <ele>73.2</ele>
        <time>2016-06-24T12:19:02Z</time>
      </trkpt>
      <trkpt lat="48.97518" lon="2.30845">
        <ele>73.2</ele>
        <time>2016-06-24T12:19:07Z</time>
      </trkpt>
      <trkpt lat="48.97492" lon="2.30862">
        <ele>74.64</ele>
        <time>2016-06-24T12:19:13Z</time>
      </trkpt>
      <trkpt lat="48.97467" lon="2.30886">
        <ele>73.68</ele>
        <time>2016-06-24T12:19:19Z</time>
      </trkpt>
      <trkpt lat="48.97413" lon="2.30943">
        <ele>74.16</ele>
        <time>2016-06-24T12:19:34Z</time>
      </trkpt>
      <trkpt lat="48.97375" lon="2.30977">
        <ele>73.68</ele>
        <time>2016-06-24T12:19:46Z</time>
      </trkpt>
      <trkpt lat="48.97338" lon="2.30992">
        <ele>78.97</ele>
        <time>2016-06-24T12:19:57Z</time>
      </trkpt>
      <trkpt lat="48.9732" lon="2.30996">
        <ele>71.76</ele>
        <time>2016-06-24T12:20:11Z</time>
      </trkpt>
      <trkpt lat="48.97306" lon="2.31002">
        <ele>64.55</ele>
        <time>2016-06-24T12:20:29Z</time>
      </trkpt>
      <trkpt lat="48.9728" lon="2.31019">
        <ele>66.95</ele>
        <time>2016-06-24T12:20:39Z</time>
      </trkpt>
      <trkpt lat="48.97242" lon="2.31044">
        <ele>68.39</ele>
        <time>2016-06-24T12:20:51Z</time>
      </trkpt>
      <trkpt lat="48.97201" lon="2.31068">
        <ele>65.51</ele>
        <time>2016-06-24T12:21:02Z</time>
      </trkpt>
      <trkpt lat="48.97189" lon="2.31081">
        <ele>65.51</ele>
        <time>2016-06-24T12:21:06Z</time>
      </trkpt>
      <trkpt lat="48.97173" lon="2.31098">
        <ele>65.03</ele>
        <time>2016-06-24T12:21:10Z</time>
      </trkpt>
      <trkpt lat="48.97169" lon="2.31102">
        <ele>65.03</ele>
        <time>2016-06-24T12:21:11Z</time>
      </trkpt>
      <trkpt lat="48.9714" lon="2.31143">
        <ele>65.51</ele>
        <time>2016-06-24T12:21:19Z</time>
      </trkpt>
      <trkpt lat="48.97133" lon="2.31154">
        <ele>65.51</ele>
        <time>2016-06-24T12:21:21Z</time>
      </trkpt>
      <trkpt lat="48.97129" lon="2.31159">
        <ele>65.99</ele>
        <time>2016-06-24T12:21:22Z</time>
      </trkpt>
      <trkpt lat="48.97085" lon="2.31229">
        <ele>68.39</ele>
        <time>2016-06-24T12:21:34Z</time>
      </trkpt>
      <trkpt lat="48.97063" lon="2.31256">
        <ele>70.31</ele>
        <time>2016-06-24T12:21:39Z</time>
      </trkpt>
      <trkpt lat="48.97059" lon="2.31261">
        <ele>70.31</ele>
        <time>2016-06-24T12:21:40Z</time>
      </trkpt>
      <trkpt lat="48.97056" lon="2.31267">
        <ele>70.79</ele>
        <time>2016-06-24T12:21:41Z</time>
      </trkpt>
      <trkpt lat="48.97052" lon="2.31272">
        <ele>71.27</ele>
        <time>2016-06-24T12:21:42Z</time>
      </trkpt>
      <trkpt lat="48.97047" lon="2.31277">
        <ele>71.76</ele>
        <time>2016-06-24T12:21:43Z</time>
      </trkpt>
      <trkpt lat="48.96988" lon="2.31359">
        <ele>75.12</ele>
        <time>2016-06-24T12:21:58Z</time>
      </trkpt>
      <trkpt lat="48.96981" lon="2.31379">
        <ele>77.52</ele>
        <time>2016-06-24T12:22:01Z</time>
      </trkpt>
      <trkpt lat="48.96978" lon="2.31385">
        <ele>78</ele>
        <time>2016-06-24T12:22:02Z</time>
      </trkpt>
      <trkpt lat="48.96974" lon="2.31391">
        <ele>78.48</ele>
        <time>2016-06-24T12:22:03Z</time>
      </trkpt>
      <trkpt lat="48.9697" lon="2.31396">
        <ele>78.48</ele>
        <time>2016-06-24T12:22:04Z</time>
      </trkpt>
      <trkpt lat="48.96966" lon="2.31401">
        <ele>78.97</ele>
        <time>2016-06-24T12:22:05Z</time>
      </trkpt>
      <trkpt lat="48.96962" lon="2.31407">
        <ele>79.45</ele>
        <time>2016-06-24T12:22:06Z</time>
      </trkpt>
      <trkpt lat="48.96923" lon="2.31456">
        <ele>78.97</ele>
        <time>2016-06-24T12:22:16Z</time>
      </trkpt>
      <trkpt lat="48.96906" lon="2.31477">
        <ele>78</ele>
        <time>2016-06-24T12:22:20Z</time>
      </trkpt>
      <trkpt lat="48.969" lon="2.31481">
        <ele>78</ele>
        <time>2016-06-24T12:22:21Z</time>
      </trkpt>
      <trkpt lat="48.96887" lon="2.31497">
        <ele>77.04</ele>
        <time>2016-06-24T12:22:24Z</time>
      </trkpt>
      <trkpt lat="48.96883" lon="2.31503">
        <ele>77.04</ele>
        <time>2016-06-24T12:22:25Z</time>
      </trkpt>
      <trkpt lat="48.96834" lon="2.31577">
        <ele>74.64</ele>
        <time>2016-06-24T12:22:38Z</time>
      </trkpt>
      <trkpt lat="48.96791" lon="2.31632">
        <ele>69.35</ele>
        <time>2016-06-24T12:22:48Z</time>
      </trkpt>
      <trkpt lat="48.96787" lon="2.31637">
        <ele>68.87</ele>
        <time>2016-06-24T12:22:49Z</time>
      </trkpt>
      <trkpt lat="48.96734" lon="2.31698">
        <ele>60.22</ele>
        <time>2016-06-24T12:23:02Z</time>
      </trkpt>
      <trkpt lat="48.96727" lon="2.31717">
        <ele>56.86</ele>
        <time>2016-06-24T12:23:15Z</time>
      </trkpt>
      <trkpt lat="48.96729" lon="2.31718">
        <ele>55.89</ele>
        <time>2016-06-24T12:23:20Z</time>
      </trkpt>
      <trkpt lat="48.96727" lon="2.3172">
        <ele>55.89</ele>
        <time>2016-06-24T12:23:21Z</time>
      </trkpt>
      <trkpt lat="48.96725" lon="2.31722">
        <ele>55.41</ele>
        <time>2016-06-24T12:23:22Z</time>
      </trkpt>
      <trkpt lat="48.9669" lon="2.3177">
        <ele>53.49</ele>
        <time>2016-06-24T12:23:36Z</time>
      </trkpt>
      <trkpt lat="48.96681" lon="2.31782">
        <ele>53.97</ele>
        <time>2016-06-24T12:23:39Z</time>
      </trkpt>
      <trkpt lat="48.96647" lon="2.31822">
        <ele>55.41</ele>
        <time>2016-06-24T12:23:50Z</time>
      </trkpt>
      <trkpt lat="48.96619" lon="2.31871">
        <ele>54.45</ele>
        <time>2016-06-24T12:24:02Z</time>
      </trkpt>
      <trkpt lat="48.96588" lon="2.31912">
        <ele>53.97</ele>
        <time>2016-06-24T12:24:12Z</time>
      </trkpt>
      <trkpt lat="48.96574" lon="2.3193">
        <ele>55.41</ele>
        <time>2016-06-24T12:24:16Z</time>
      </trkpt>
      <trkpt lat="48.96571" lon="2.31934">
        <ele>55.41</ele>
        <time>2016-06-24T12:24:17Z</time>
      </trkpt>
      <trkpt lat="48.96555" lon="2.31954">
        <ele>55.89</ele>
        <time>2016-06-24T12:24:22Z</time>
      </trkpt>
      <trkpt lat="48.96551" lon="2.31956">
        <ele>54.45</ele>
        <time>2016-06-24T12:24:23Z</time>
      </trkpt>
      <trkpt lat="48.96506" lon="2.32017">
        <ele>50.13</ele>
        <time>2016-06-24T12:24:38Z</time>
      </trkpt>
      <trkpt lat="48.96481" lon="2.32052">
        <ele>48.68</ele>
        <time>2016-06-24T12:24:46Z</time>
      </trkpt>
      <trkpt lat="48.96462" lon="2.3208">
        <ele>48.2</ele>
        <time>2016-06-24T12:24:52Z</time>
      </trkpt>
      <trkpt lat="48.96439" lon="2.32114">
        <ele>47.72</ele>
        <time>2016-06-24T12:24:59Z</time>
      </trkpt>
      <trkpt lat="48.96436" lon="2.32119">
        <ele>48.2</ele>
        <time>2016-06-24T12:25:00Z</time>
      </trkpt>
      <trkpt lat="48.9643" lon="2.3213">
        <ele>49.16</ele>
        <time>2016-06-24T12:25:02Z</time>
      </trkpt>
      <trkpt lat="48.96373" lon="2.322">
        <ele>50.13</ele>
        <time>2016-06-24T12:25:19Z</time>
      </trkpt>
      <trkpt lat="48.9634" lon="2.32246">
        <ele>50.61</ele>
        <time>2016-06-24T12:25:36Z</time>
      </trkpt>
      <trkpt lat="48.96308" lon="2.32288">
        <ele>49.16</ele>
        <time>2016-06-24T12:25:53Z</time>
      </trkpt>
      <trkpt lat="48.96268" lon="2.32344">
        <ele>48.68</ele>
        <time>2016-06-24T12:26:12Z</time>
      </trkpt>
      <trkpt lat="48.96211" lon="2.32424">
        <ele>45.8</ele>
        <time>2016-06-24T12:26:31Z</time>
      </trkpt>
      <trkpt lat="48.96148" lon="2.32515">
        <ele>42.92</ele>
        <time>2016-06-24T12:26:46Z</time>
      </trkpt>
      <trkpt lat="48.96141" lon="2.32524">
        <ele>42.44</ele>
        <time>2016-06-24T12:26:48Z</time>
      </trkpt>
      <trkpt lat="48.96137" lon="2.32528">
        <ele>42.44</ele>
        <time>2016-06-24T12:26:49Z</time>
      </trkpt>
      <trkpt lat="48.96132" lon="2.32531">
        <ele>42.44</ele>
        <time>2016-06-24T12:26:50Z</time>
      </trkpt>
      <trkpt lat="48.96128" lon="2.32534">
        <ele>42.44</ele>
        <time>2016-06-24T12:26:51Z</time>
      </trkpt>
      <trkpt lat="48.96124" lon="2.32539">
        <ele>41.95</ele>
        <time>2016-06-24T12:26:52Z</time>
      </trkpt>
      <trkpt lat="48.9612" lon="2.32543">
        <ele>42.44</ele>
        <time>2016-06-24T12:26:53Z</time>
      </trkpt>
      <trkpt lat="48.96102" lon="2.32567">
        <ele>43.4</ele>
        <time>2016-06-24T12:27:03Z</time>
      </trkpt>
      <trkpt lat="48.9609" lon="2.32586">
        <ele>44.36</ele>
        <time>2016-06-24T12:27:15Z</time>
      </trkpt>
      <trkpt lat="48.96061" lon="2.32639">
        <ele>43.88</ele>
        <time>2016-06-24T12:27:28Z</time>
      </trkpt>
      <trkpt lat="48.96026" lon="2.32696">
        <ele>46.76</ele>
        <time>2016-06-24T12:27:42Z</time>
      </trkpt>
      <trkpt lat="48.95998" lon="2.32739">
        <ele>49.16</ele>
        <time>2016-06-24T12:27:55Z</time>
      </trkpt>
      <trkpt lat="48.95988" lon="2.32749">
        <ele>53.01</ele>
        <time>2016-06-24T12:28:06Z</time>
      </trkpt>
      <trkpt lat="48.95978" lon="2.32796">
        <ele>53.01</ele>
        <time>2016-06-24T12:28:19Z</time>
      </trkpt>
      <trkpt lat="48.95955" lon="2.32844">
        <ele>49.16</ele>
        <time>2016-06-24T12:28:32Z</time>
      </trkpt>
      <trkpt lat="48.95942" lon="2.32882">
        <ele>49.16</ele>
        <time>2016-06-24T12:28:44Z</time>
      </trkpt>
      <trkpt lat="48.95917" lon="2.32913">
        <ele>52.53</ele>
        <time>2016-06-24T12:28:57Z</time>
      </trkpt>
      <trkpt lat="48.95871" lon="2.32921">
        <ele>47.72</ele>
        <time>2016-06-24T12:29:12Z</time>
      </trkpt>
      <trkpt lat="48.95864" lon="2.32919">
        <ele>45.32</ele>
        <time>2016-06-24T12:29:22Z</time>
      </trkpt>
      <trkpt lat="48.95861" lon="2.32921">
        <ele>42.92</ele>
        <time>2016-06-24T12:29:49Z</time>
      </trkpt>
      <trkpt lat="48.95853" lon="2.32917">
        <ele>40.51</ele>
        <time>2016-06-24T12:30:14Z</time>
      </trkpt>
      <trkpt lat="48.9583" lon="2.32937">
        <ele>40.03</ele>
        <time>2016-06-24T12:30:23Z</time>
      </trkpt>
      <trkpt lat="48.95788" lon="2.33006">
        <ele>38.11</ele>
        <time>2016-06-24T12:30:38Z</time>
      </trkpt>
      <trkpt lat="48.95742" lon="2.33066">
        <ele>35.71</ele>
        <time>2016-06-24T12:30:52Z</time>
      </trkpt>
      <trkpt lat="48.95687" lon="2.33139">
        <ele>36.67</ele>
        <time>2016-06-24T12:31:07Z</time>
      </trkpt>
      <trkpt lat="48.95668" lon="2.33165">
        <ele>37.15</ele>
        <time>2016-06-24T12:31:12Z</time>
      </trkpt>
      <trkpt lat="48.95664" lon="2.3317">
        <ele>37.63</ele>
        <time>2016-06-24T12:31:13Z</time>
      </trkpt>
      <trkpt lat="48.95644" lon="2.33194">
        <ele>38.59</ele>
        <time>2016-06-24T12:31:18Z</time>
      </trkpt>
      <trkpt lat="48.9564" lon="2.33199">
        <ele>39.07</ele>
        <time>2016-06-24T12:31:19Z</time>
      </trkpt>
      <trkpt lat="48.95637" lon="2.33204">
        <ele>39.07</ele>
        <time>2016-06-24T12:31:20Z</time>
      </trkpt>
      <trkpt lat="48.95601" lon="2.33253">
        <ele>40.99</ele>
        <time>2016-06-24T12:31:30Z</time>
      </trkpt>
      <trkpt lat="48.95556" lon="2.33305">
        <ele>41.95</ele>
        <time>2016-06-24T12:31:43Z</time>
      </trkpt>
      <trkpt lat="48.95548" lon="2.33319">
        <ele>41.47</ele>
        <time>2016-06-24T12:31:56Z</time>
      </trkpt>
      <trkpt lat="48.95524" lon="2.33348">
        <ele>41.95</ele>
        <time>2016-06-24T12:32:07Z</time>
      </trkpt>
      <trkpt lat="48.95499" lon="2.33389">
        <ele>44.84</ele>
        <time>2016-06-24T12:32:18Z</time>
      </trkpt>
      <trkpt lat="48.95464" lon="2.3344">
        <ele>45.32</ele>
        <time>2016-06-24T12:32:33Z</time>
      </trkpt>
      <trkpt lat="48.95435" lon="2.33481">
        <ele>45.32</ele>
        <time>2016-06-24T12:32:46Z</time>
      </trkpt>
      <trkpt lat="48.9542" lon="2.33501">
        <ele>45.8</ele>
        <time>2016-06-24T12:32:57Z</time>
      </trkpt>
      <trkpt lat="48.95407" lon="2.33518">
        <ele>44.36</ele>
        <time>2016-06-24T12:33:18Z</time>
      </trkpt>
      <trkpt lat="48.95377" lon="2.33562">
        <ele>44.36</ele>
        <time>2016-06-24T12:33:32Z</time>
      </trkpt>
      <trkpt lat="48.95351" lon="2.33596">
        <ele>44.84</ele>
        <time>2016-06-24T12:33:43Z</time>
      </trkpt>
      <trkpt lat="48.95328" lon="2.33638">
        <ele>46.28</ele>
        <time>2016-06-24T12:33:56Z</time>
      </trkpt>
      <trkpt lat="48.95307" lon="2.33676">
        <ele>43.88</ele>
        <time>2016-06-24T12:34:09Z</time>
      </trkpt>
      <trkpt lat="48.95281" lon="2.33707">
        <ele>43.4</ele>
        <time>2016-06-24T12:34:19Z</time>
      </trkpt>
      <trkpt lat="48.95242" lon="2.33764">
        <ele>44.36</ele>
        <time>2016-06-24T12:34:34Z</time>
      </trkpt>
      <trkpt lat="48.95198" lon="2.33828">
        <ele>43.4</ele>
        <time>2016-06-24T12:34:48Z</time>
      </trkpt>
      <trkpt lat="48.95191" lon="2.33836">
        <ele>42.92</ele>
        <time>2016-06-24T12:34:50Z</time>
      </trkpt>
      <trkpt lat="48.95155" lon="2.33891">
        <ele>40.99</ele>
        <time>2016-06-24T12:35:03Z</time>
      </trkpt>
      <trkpt lat="48.95117" lon="2.33942">
        <ele>39.55</ele>
        <time>2016-06-24T12:35:16Z</time>
      </trkpt>
      <trkpt lat="48.95075" lon="2.33997">
        <ele>39.55</ele>
        <time>2016-06-24T12:35:29Z</time>
      </trkpt>
      <trkpt lat="48.9505" lon="2.34037">
        <ele>40.51</ele>
        <time>2016-06-24T12:35:38Z</time>
      </trkpt>
      <trkpt lat="48.9502" lon="2.34077">
        <ele>41.47</ele>
        <time>2016-06-24T12:35:48Z</time>
      </trkpt>
      <trkpt lat="48.94986" lon="2.34126">
        <ele>41.95</ele>
        <time>2016-06-24T12:36:02Z</time>
      </trkpt>
      <trkpt lat="48.94958" lon="2.34165">
        <ele>42.44</ele>
        <time>2016-06-24T12:36:17Z</time>
      </trkpt>
      <trkpt lat="48.9493" lon="2.34199">
        <ele>41.95</ele>
        <time>2016-06-24T12:36:34Z</time>
      </trkpt>
      <trkpt lat="48.94914" lon="2.34212">
        <ele>43.4</ele>
        <time>2016-06-24T12:36:46Z</time>
      </trkpt>
      <trkpt lat="48.94872" lon="2.34208">
        <ele>42.44</ele>
        <time>2016-06-24T12:37:00Z</time>
      </trkpt>
      <trkpt lat="48.94813" lon="2.34228">
        <ele>40.51</ele>
        <time>2016-06-24T12:37:19Z</time>
      </trkpt>
      <trkpt lat="48.94778" lon="2.34238">
        <ele>40.03</ele>
        <time>2016-06-24T12:37:34Z</time>
      </trkpt>
      <trkpt lat="48.94777" lon="2.34241">
        <ele>42.44</ele>
        <time>2016-06-24T12:38:01Z</time>
      </trkpt>
      <trkpt lat="48.94777" lon="2.34237">
        <ele>45.32</ele>
        <time>2016-06-24T12:38:25Z</time>
      </trkpt>
      <trkpt lat="48.94769" lon="2.34239">
        <ele>43.88</ele>
        <time>2016-06-24T12:38:49Z</time>
      </trkpt>
      <trkpt lat="48.94733" lon="2.34251">
        <ele>42.92</ele>
        <time>2016-06-24T12:39:04Z</time>
      </trkpt>
      <trkpt lat="48.94698" lon="2.34266">
        <ele>41.95</ele>
        <time>2016-06-24T12:39:17Z</time>
      </trkpt>
      <trkpt lat="48.94656" lon="2.34281">
        <ele>40.99</ele>
        <time>2016-06-24T12:39:28Z</time>
      </trkpt>
      <trkpt lat="48.94621" lon="2.3429">
        <ele>40.03</ele>
        <time>2016-06-24T12:39:35Z</time>
      </trkpt>
      <trkpt lat="48.94616" lon="2.3429">
        <ele>39.55</ele>
        <time>2016-06-24T12:39:36Z</time>
      </trkpt>
      <trkpt lat="48.94535" lon="2.34263">
        <ele>34.74</ele>
        <time>2016-06-24T12:39:51Z</time>
      </trkpt>
      <trkpt lat="48.94505" lon="2.34249">
        <ele>32.82</ele>
        <time>2016-06-24T12:40:04Z</time>
      </trkpt>
      <trkpt lat="48.94458" lon="2.34226">
        <ele>32.82</ele>
        <time>2016-06-24T12:40:17Z</time>
      </trkpt>
      <trkpt lat="48.94357" lon="2.34191">
        <ele>30.42</ele>
        <time>2016-06-24T12:40:36Z</time>
      </trkpt>
      <trkpt lat="48.94298" lon="2.34177">
        <ele>28.5</ele>
        <time>2016-06-24T12:40:49Z</time>
      </trkpt>
      <trkpt lat="48.94269" lon="2.34169">
        <ele>31.86</ele>
        <time>2016-06-24T12:41:00Z</time>
      </trkpt>
      <trkpt lat="48.94241" lon="2.34163">
        <ele>34.26</ele>
        <time>2016-06-24T12:41:08Z</time>
      </trkpt>
      <trkpt lat="48.94198" lon="2.34158">
        <ele>33.3</ele>
        <time>2016-06-24T12:41:17Z</time>
      </trkpt>
      <trkpt lat="48.94194" lon="2.34159">
        <ele>33.3</ele>
        <time>2016-06-24T12:41:18Z</time>
      </trkpt>
      <trkpt lat="48.94163" lon="2.34202">
        <ele>31.86</ele>
        <time>2016-06-24T12:41:30Z</time>
      </trkpt>
      <trkpt lat="48.94148" lon="2.34241">
        <ele>29.94</ele>
        <time>2016-06-24T12:41:43Z</time>
      </trkpt>
      <trkpt lat="48.9412" lon="2.34292">
        <ele>28.98</ele>
        <time>2016-06-24T12:41:56Z</time>
      </trkpt>
      <trkpt lat="48.94097" lon="2.3433">
        <ele>26.57</ele>
        <time>2016-06-24T12:42:09Z</time>
      </trkpt>
      <trkpt lat="48.94079" lon="2.34357">
        <ele>27.53</ele>
        <time>2016-06-24T12:42:20Z</time>
      </trkpt>
      <trkpt lat="48.94048" lon="2.344">
        <ele>27.53</ele>
        <time>2016-06-24T12:42:32Z</time>
      </trkpt>
      <trkpt lat="48.94017" lon="2.34437">
        <ele>26.57</ele>
        <time>2016-06-24T12:42:47Z</time>
      </trkpt>
      <trkpt lat="48.94018" lon="2.34475">
        <ele>29.94</ele>
        <time>2016-06-24T12:43:15Z</time>
      </trkpt>
      <trkpt lat="48.94019" lon="2.34486">
        <ele>31.86</ele>
        <time>2016-06-24T12:43:28Z</time>
      </trkpt>
      <trkpt lat="48.94018" lon="2.34487">
        <ele>31.86</ele>
        <time>2016-06-24T12:43:29Z</time>
      </trkpt>
      <trkpt lat="48.94017" lon="2.34486">
        <ele>32.34</ele>
        <time>2016-06-24T12:43:30Z</time>
      </trkpt>
      <trkpt lat="48.94016" lon="2.34487">
        <ele>32.82</ele>
        <time>2016-06-24T12:43:31Z</time>
      </trkpt>
      <trkpt lat="48.94015" lon="2.34486">
        <ele>33.78</ele>
        <time>2016-06-24T12:43:32Z</time>
      </trkpt>
      <trkpt lat="48.94013" lon="2.34487">
        <ele>33.78</ele>
        <time>2016-06-24T12:43:33Z</time>
      </trkpt>
      <trkpt lat="48.93981" lon="2.34494">
        <ele>33.3</ele>
        <time>2016-06-24T12:43:46Z</time>
      </trkpt>
      <trkpt lat="48.93952" lon="2.34493">
        <ele>34.26</ele>
        <time>2016-06-24T12:44:00Z</time>
      </trkpt>
      <trkpt lat="48.93941" lon="2.34509">
        <ele>33.78</ele>
        <time>2016-06-24T12:44:13Z</time>
      </trkpt>
      <trkpt lat="48.93933" lon="2.3458">
        <ele>34.26</ele>
        <time>2016-06-24T12:44:30Z</time>
      </trkpt>
      <trkpt lat="48.93925" lon="2.34657">
        <ele>33.3</ele>
        <time>2016-06-24T12:44:45Z</time>
      </trkpt>
      <trkpt lat="48.93915" lon="2.34711">
        <ele>33.78</ele>
        <time>2016-06-24T12:44:58Z</time>
      </trkpt>
      <trkpt lat="48.93912" lon="2.34736">
        <ele>35.23</ele>
        <time>2016-06-24T12:45:05Z</time>
      </trkpt>
      <trkpt lat="48.9391" lon="2.34739">
        <ele>35.71</ele>
        <time>2016-06-24T12:45:06Z</time>
      </trkpt>
      <trkpt lat="48.93908" lon="2.34741">
        <ele>35.71</ele>
        <time>2016-06-24T12:45:07Z</time>
      </trkpt>
      <trkpt lat="48.93872" lon="2.34771">
        <ele>36.67</ele>
        <time>2016-06-24T12:45:19Z</time>
      </trkpt>
      <trkpt lat="48.93843" lon="2.34801">
        <ele>39.55</ele>
        <time>2016-06-24T12:45:30Z</time>
      </trkpt>
      <trkpt lat="48.93818" lon="2.34829">
        <ele>38.59</ele>
        <time>2016-06-24T12:45:41Z</time>
      </trkpt>
      <trkpt lat="48.93793" lon="2.34855">
        <ele>39.07</ele>
        <time>2016-06-24T12:45:52Z</time>
      </trkpt>
      <trkpt lat="48.93789" lon="2.34861">
        <ele>39.55</ele>
        <time>2016-06-24T12:45:56Z</time>
      </trkpt>
      <trkpt lat="48.93785" lon="2.34863">
        <ele>39.07</ele>
        <time>2016-06-24T12:45:57Z</time>
      </trkpt>
      <trkpt lat="48.93781" lon="2.34866">
        <ele>39.07</ele>
        <time>2016-06-24T12:45:58Z</time>
      </trkpt>
      <trkpt lat="48.93778" lon="2.34869">
        <ele>39.07</ele>
        <time>2016-06-24T12:45:59Z</time>
      </trkpt>
      <trkpt lat="48.93776" lon="2.34872">
        <ele>39.07</ele>
        <time>2016-06-24T12:46:00Z</time>
      </trkpt>
      <trkpt lat="48.93774" lon="2.34875">
        <ele>38.59</ele>
        <time>2016-06-24T12:46:01Z</time>
      </trkpt>
      <trkpt lat="48.93773" lon="2.34879">
        <ele>39.07</ele>
        <time>2016-06-24T12:46:02Z</time>
      </trkpt>
      <trkpt lat="48.9377" lon="2.34882">
        <ele>38.59</ele>
        <time>2016-06-24T12:46:03Z</time>
      </trkpt>
      <trkpt lat="48.93768" lon="2.34885">
        <ele>38.11</ele>
        <time>2016-06-24T12:46:04Z</time>
      </trkpt>
      <trkpt lat="48.93766" lon="2.34887">
        <ele>38.11</ele>
        <time>2016-06-24T12:46:05Z</time>
      </trkpt>
      <trkpt lat="48.93764" lon="2.3489">
        <ele>38.11</ele>
        <time>2016-06-24T12:46:06Z</time>
      </trkpt>
      <trkpt lat="48.93762" lon="2.34892">
        <ele>38.11</ele>
        <time>2016-06-24T12:46:07Z</time>
      </trkpt>
      <trkpt lat="48.9376" lon="2.34894">
        <ele>38.11</ele>
        <time>2016-06-24T12:46:08Z</time>
      </trkpt>
      <trkpt lat="48.93758" lon="2.34896">
        <ele>38.11</ele>
        <time>2016-06-24T12:46:09Z</time>
      </trkpt>
      <trkpt lat="48.93756" lon="2.34899">
        <ele>37.63</ele>
        <time>2016-06-24T12:46:10Z</time>
      </trkpt>
      <trkpt lat="48.93756" lon="2.34903">
        <ele>38.11</ele>
        <time>2016-06-24T12:46:11Z</time>
      </trkpt>
      <trkpt lat="48.93755" lon="2.34906">
        <ele>38.11</ele>
        <time>2016-06-24T12:46:12Z</time>
      </trkpt>
      <trkpt lat="48.93743" lon="2.34976">
        <ele>35.71</ele>
        <time>2016-06-24T12:46:27Z</time>
      </trkpt>
      <trkpt lat="48.93727" lon="2.35014">
        <ele>35.71</ele>
        <time>2016-06-24T12:46:39Z</time>
      </trkpt>
      <trkpt lat="48.93726" lon="2.35015">
        <ele>35.23</ele>
        <time>2016-06-24T12:46:40Z</time>
      </trkpt>
      <trkpt lat="48.93722" lon="2.3502">
        <ele>35.23</ele>
        <time>2016-06-24T12:46:55Z</time>
      </trkpt>
      <trkpt lat="48.93713" lon="2.35022">
        <ele>45.32</ele>
        <time>2016-06-24T12:47:22Z</time>
      </trkpt>
      <trkpt lat="48.93712" lon="2.35021">
        <ele>45.32</ele>
        <time>2016-06-24T12:47:23Z</time>
      </trkpt>
      <trkpt lat="48.9371" lon="2.35021">
        <ele>45.32</ele>
        <time>2016-06-24T12:47:24Z</time>
      </trkpt>
      <trkpt lat="48.93708" lon="2.35019">
        <ele>45.32</ele>
        <time>2016-06-24T12:47:25Z</time>
      </trkpt>
      <trkpt lat="48.93705" lon="2.35019">
        <ele>44.84</ele>
        <time>2016-06-24T12:47:26Z</time>
      </trkpt>
      <trkpt lat="48.93702" lon="2.35018">
        <ele>44.84</ele>
        <time>2016-06-24T12:47:27Z</time>
      </trkpt>
      <trkpt lat="48.93653" lon="2.35">
        <ele>42.44</ele>
        <time>2016-06-24T12:47:41Z</time>
      </trkpt>
      <trkpt lat="48.93638" lon="2.34995">
        <ele>41.95</ele>
        <time>2016-06-24T12:47:52Z</time>
      </trkpt>
      <trkpt lat="48.93622" lon="2.3499">
        <ele>39.07</ele>
        <time>2016-06-24T12:48:03Z</time>
      </trkpt>
      <trkpt lat="48.93571" lon="2.35001">
        <ele>43.88</ele>
        <time>2016-06-24T12:48:16Z</time>
      </trkpt>
      <trkpt lat="48.9351" lon="2.35005">
        <ele>43.4</ele>
        <time>2016-06-24T12:48:32Z</time>
      </trkpt>
      <trkpt lat="48.93453" lon="2.35006">
        <ele>43.4</ele>
        <time>2016-06-24T12:48:48Z</time>
      </trkpt>
      <trkpt lat="48.93419" lon="2.35006">
        <ele>41.95</ele>
        <time>2016-06-24T12:49:01Z</time>
      </trkpt>
      <trkpt lat="48.93414" lon="2.35005">
        <ele>39.55</ele>
        <time>2016-06-24T12:49:13Z</time>
      </trkpt>
      <trkpt lat="48.93403" lon="2.35005">
        <ele>37.63</ele>
        <time>2016-06-24T12:49:31Z</time>
      </trkpt>
      <trkpt lat="48.93367" lon="2.35024">
        <ele>37.15</ele>
        <time>2016-06-24T12:49:45Z</time>
      </trkpt>
      <trkpt lat="48.93338" lon="2.35064">
        <ele>37.63</ele>
        <time>2016-06-24T12:49:55Z</time>
      </trkpt>
      <trkpt lat="48.93333" lon="2.3507">
        <ele>38.11</ele>
        <time>2016-06-24T12:49:56Z</time>
      </trkpt>
      <trkpt lat="48.93329" lon="2.35076">
        <ele>38.11</ele>
        <time>2016-06-24T12:49:57Z</time>
      </trkpt>
      <trkpt lat="48.93267" lon="2.35166">
        <ele>39.55</ele>
        <time>2016-06-24T12:50:12Z</time>
      </trkpt>
      <trkpt lat="48.9322" lon="2.35237">
        <ele>41.47</ele>
        <time>2016-06-24T12:50:27Z</time>
      </trkpt>
      <trkpt lat="48.93195" lon="2.35274">
        <ele>39.55</ele>
        <time>2016-06-24T12:50:39Z</time>
      </trkpt>
      <trkpt lat="48.9317" lon="2.35318">
        <ele>37.15</ele>
        <time>2016-06-24T12:50:51Z</time>
      </trkpt>
      <trkpt lat="48.93162" lon="2.35331">
        <ele>36.67</ele>
        <time>2016-06-24T12:50:54Z</time>
      </trkpt>
      <trkpt lat="48.93155" lon="2.3534">
        <ele>36.19</ele>
        <time>2016-06-24T12:50:56Z</time>
      </trkpt>
      <trkpt lat="48.93152" lon="2.35344">
        <ele>35.71</ele>
        <time>2016-06-24T12:50:57Z</time>
      </trkpt>
      <trkpt lat="48.93148" lon="2.35348">
        <ele>35.23</ele>
        <time>2016-06-24T12:50:58Z</time>
      </trkpt>
      <trkpt lat="48.93143" lon="2.35351">
        <ele>35.23</ele>
        <time>2016-06-24T12:50:59Z</time>
      </trkpt>
      <trkpt lat="48.93138" lon="2.35355">
        <ele>34.74</ele>
        <time>2016-06-24T12:51:00Z</time>
      </trkpt>
      <trkpt lat="48.93134" lon="2.35359">
        <ele>34.26</ele>
        <time>2016-06-24T12:51:01Z</time>
      </trkpt>
      <trkpt lat="48.9313" lon="2.35363">
        <ele>33.78</ele>
        <time>2016-06-24T12:51:02Z</time>
      </trkpt>
      <trkpt lat="48.93125" lon="2.35368">
        <ele>33.78</ele>
        <time>2016-06-24T12:51:03Z</time>
      </trkpt>
      <trkpt lat="48.93083" lon="2.35411">
        <ele>30.9</ele>
        <time>2016-06-24T12:51:12Z</time>
      </trkpt>
      <trkpt lat="48.93041" lon="2.35498">
        <ele>31.38</ele>
        <time>2016-06-24T12:51:26Z</time>
      </trkpt>
      <trkpt lat="48.93" lon="2.35561">
        <ele>31.38</ele>
        <time>2016-06-24T12:51:39Z</time>
      </trkpt>
      <trkpt lat="48.93006" lon="2.35571">
        <ele>34.74</ele>
        <time>2016-06-24T12:51:50Z</time>
      </trkpt>
      <trkpt lat="48.93002" lon="2.35573">
        <ele>37.63</ele>
        <time>2016-06-24T12:52:12Z</time>
      </trkpt>
      <trkpt lat="48.92999" lon="2.35572">
        <ele>35.23</ele>
        <time>2016-06-24T12:52:37Z</time>
      </trkpt>
      <trkpt lat="48.92986" lon="2.35585">
        <ele>38.11</ele>
        <time>2016-06-24T12:53:00Z</time>
      </trkpt>
      <trkpt lat="48.92963" lon="2.35638">
        <ele>41.95</ele>
        <time>2016-06-24T12:53:14Z</time>
      </trkpt>
      <trkpt lat="48.92957" lon="2.35652">
        <ele>41.47</ele>
        <time>2016-06-24T12:53:18Z</time>
      </trkpt>
      <trkpt lat="48.92956" lon="2.35657">
        <ele>41.47</ele>
        <time>2016-06-24T12:53:19Z</time>
      </trkpt>
      <trkpt lat="48.92956" lon="2.35746">
        <ele>40.99</ele>
        <time>2016-06-24T12:53:36Z</time>
      </trkpt>
      <trkpt lat="48.92957" lon="2.35848">
        <ele>38.59</ele>
        <time>2016-06-24T12:53:52Z</time>
      </trkpt>
      <trkpt lat="48.92957" lon="2.3594">
        <ele>36.19</ele>
        <time>2016-06-24T12:54:07Z</time>
      </trkpt>
      <trkpt lat="48.92957" lon="2.35947">
        <ele>36.19</ele>
        <time>2016-06-24T12:54:08Z</time>
      </trkpt>
      <trkpt lat="48.92957" lon="2.35954">
        <ele>35.71</ele>
        <time>2016-06-24T12:54:09Z</time>
      </trkpt>
      <trkpt lat="48.92957" lon="2.35962">
        <ele>35.71</ele>
        <time>2016-06-24T12:54:10Z</time>
      </trkpt>
      <trkpt lat="48.92957" lon="2.35969">
        <ele>35.71</ele>
        <time>2016-06-24T12:54:11Z</time>
      </trkpt>
      <trkpt lat="48.92962" lon="2.36095">
        <ele>33.3</ele>
        <time>2016-06-24T12:54:30Z</time>
      </trkpt>
      <trkpt lat="48.92965" lon="2.36154">
        <ele>32.34</ele>
        <time>2016-06-24T12:54:43Z</time>
      </trkpt>
      <trkpt lat="48.92963" lon="2.36156">
        <ele>31.86</ele>
        <time>2016-06-24T12:54:44Z</time>
      </trkpt>
      <trkpt lat="48.92929" lon="2.36181">
        <ele>31.86</ele>
        <time>2016-06-24T12:54:57Z</time>
      </trkpt>
      <trkpt lat="48.92899" lon="2.36219">
        <ele>32.82</ele>
        <time>2016-06-24T12:55:08Z</time>
      </trkpt>
      <trkpt lat="48.92869" lon="2.36243">
        <ele>33.78</ele>
        <time>2016-06-24T12:55:19Z</time>
      </trkpt>
      <trkpt lat="48.92831" lon="2.3628">
        <ele>33.78</ele>
        <time>2016-06-24T12:55:33Z</time>
      </trkpt>
      <trkpt lat="48.92814" lon="2.363">
        <ele>34.26</ele>
        <time>2016-06-24T12:55:43Z</time>
      </trkpt>
      <trkpt lat="48.92816" lon="2.36303">
        <ele>36.67</ele>
        <time>2016-06-24T12:56:14Z</time>
      </trkpt>
      <trkpt lat="48.92813" lon="2.36303">
        <ele>33.78</ele>
        <time>2016-06-24T12:56:37Z</time>
      </trkpt>
      <trkpt lat="48.92812" lon="2.36305">
        <ele>34.26</ele>
        <time>2016-06-24T12:56:44Z</time>
      </trkpt>
      <trkpt lat="48.92809" lon="2.36312">
        <ele>34.74</ele>
        <time>2016-06-24T12:56:48Z</time>
      </trkpt>
      <trkpt lat="48.92808" lon="2.36315">
        <ele>35.23</ele>
        <time>2016-06-24T12:56:50Z</time>
      </trkpt>
      <trkpt lat="48.92807" lon="2.36317">
        <ele>35.23</ele>
        <time>2016-06-24T12:56:51Z</time>
      </trkpt>
      <trkpt lat="48.9278" lon="2.3636">
        <ele>38.11</ele>
        <time>2016-06-24T12:57:03Z</time>
      </trkpt>
      <trkpt lat="48.92738" lon="2.36429">
        <ele>40.51</ele>
        <time>2016-06-24T12:57:19Z</time>
      </trkpt>
      <trkpt lat="48.92702" lon="2.36512">
        <ele>39.07</ele>
        <time>2016-06-24T12:57:36Z</time>
      </trkpt>
      <trkpt lat="48.92673" lon="2.36564">
        <ele>39.07</ele>
        <time>2016-06-24T12:57:49Z</time>
      </trkpt>
      <trkpt lat="48.92665" lon="2.36577">
        <ele>39.07</ele>
        <time>2016-06-24T12:57:59Z</time>
      </trkpt>
      <trkpt lat="48.92655" lon="2.36601">
        <ele>41.47</ele>
        <time>2016-06-24T12:58:12Z</time>
      </trkpt>
      <trkpt lat="48.92626" lon="2.36646">
        <ele>43.4</ele>
        <time>2016-06-24T12:58:25Z</time>
      </trkpt>
      <trkpt lat="48.92587" lon="2.36683">
        <ele>43.4</ele>
        <time>2016-06-24T12:58:39Z</time>
      </trkpt>
      <trkpt lat="48.92548" lon="2.36721">
        <ele>45.32</ele>
        <time>2016-06-24T12:58:52Z</time>
      </trkpt>
      <trkpt lat="48.92507" lon="2.36763">
        <ele>44.84</ele>
        <time>2016-06-24T12:59:05Z</time>
      </trkpt>
      <trkpt lat="48.92463" lon="2.36806">
        <ele>42.92</ele>
        <time>2016-06-24T12:59:20Z</time>
      </trkpt>
      <trkpt lat="48.92432" lon="2.36844">
        <ele>41.95</ele>
        <time>2016-06-24T12:59:32Z</time>
      </trkpt>
      <trkpt lat="48.92393" lon="2.36898">
        <ele>40.51</ele>
        <time>2016-06-24T12:59:47Z</time>
      </trkpt>
      <trkpt lat="48.92359" lon="2.36944">
        <ele>40.99</ele>
        <time>2016-06-24T13:00:00Z</time>
      </trkpt>
      <trkpt lat="48.92322" lon="2.37004">
        <ele>42.44</ele>
        <time>2016-06-24T13:00:12Z</time>
      </trkpt>
      <trkpt lat="48.92295" lon="2.37064">
        <ele>42.44</ele>
        <time>2016-06-24T13:00:24Z</time>
      </trkpt>
      <trkpt lat="48.9226" lon="2.37153">
        <ele>40.51</ele>
        <time>2016-06-24T13:00:39Z</time>
      </trkpt>
      <trkpt lat="48.92252" lon="2.37177">
        <ele>39.07</ele>
        <time>2016-06-24T13:00:43Z</time>
      </trkpt>
      <trkpt lat="48.9225" lon="2.37183">
        <ele>38.59</ele>
        <time>2016-06-24T13:00:44Z</time>
      </trkpt>
      <trkpt lat="48.92209" lon="2.37288">
        <ele>38.11</ele>
        <time>2016-06-24T13:01:01Z</time>
      </trkpt>
      <trkpt lat="48.92205" lon="2.37314">
        <ele>39.07</ele>
        <time>2016-06-24T13:01:05Z</time>
      </trkpt>
      <trkpt lat="48.92204" lon="2.3732">
        <ele>39.07</ele>
        <time>2016-06-24T13:01:06Z</time>
      </trkpt>
      <trkpt lat="48.92203" lon="2.37326">
        <ele>39.55</ele>
        <time>2016-06-24T13:01:07Z</time>
      </trkpt>
      <trkpt lat="48.92202" lon="2.37331">
        <ele>40.03</ele>
        <time>2016-06-24T13:01:08Z</time>
      </trkpt>
      <trkpt lat="48.92201" lon="2.37336">
        <ele>40.51</ele>
        <time>2016-06-24T13:01:09Z</time>
      </trkpt>
      <trkpt lat="48.922" lon="2.37342">
        <ele>40.99</ele>
        <time>2016-06-24T13:01:10Z</time>
      </trkpt>
      <trkpt lat="48.92199" lon="2.37347">
        <ele>41.47</ele>
        <time>2016-06-24T13:01:11Z</time>
      </trkpt>
      <trkpt lat="48.92199" lon="2.37353">
        <ele>41.47</ele>
        <time>2016-06-24T13:01:12Z</time>
      </trkpt>
      <trkpt lat="48.92194" lon="2.37427">
        <ele>41.47</ele>
        <time>2016-06-24T13:01:25Z</time>
      </trkpt>
      <trkpt lat="48.92166" lon="2.37478">
        <ele>32.82</ele>
        <time>2016-06-24T13:01:37Z</time>
      </trkpt>
      <trkpt lat="48.92155" lon="2.37501">
        <ele>29.46</ele>
        <time>2016-06-24T13:01:43Z</time>
      </trkpt>
      <trkpt lat="48.92152" lon="2.37513">
        <ele>26.57</ele>
        <time>2016-06-24T13:01:48Z</time>
      </trkpt>
      <trkpt lat="48.9212" lon="2.37542">
        <ele>21.29</ele>
        <time>2016-06-24T13:01:58Z</time>
      </trkpt>
      <trkpt lat="48.92125" lon="2.37618">
        <ele>28.02</ele>
        <time>2016-06-24T13:02:10Z</time>
      </trkpt>
      <trkpt lat="48.92125" lon="2.37633">
        <ele>28.98</ele>
        <time>2016-06-24T13:02:12Z</time>
      </trkpt>
      <trkpt lat="48.92125" lon="2.37641">
        <ele>29.46</ele>
        <time>2016-06-24T13:02:13Z</time>
      </trkpt>
      <trkpt lat="48.92097" lon="2.377">
        <ele>35.23</ele>
        <time>2016-06-24T13:02:25Z</time>
      </trkpt>
      <trkpt lat="48.92052" lon="2.37735">
        <ele>34.26</ele>
        <time>2016-06-24T13:02:38Z</time>
      </trkpt>
      <trkpt lat="48.91994" lon="2.3777">
        <ele>35.71</ele>
        <time>2016-06-24T13:02:53Z</time>
      </trkpt>
      <trkpt lat="48.91929" lon="2.37811">
        <ele>32.82</ele>
        <time>2016-06-24T13:03:10Z</time>
      </trkpt>
      <trkpt lat="48.91891" lon="2.37842">
        <ele>32.34</ele>
        <time>2016-06-24T13:03:22Z</time>
      </trkpt>
      <trkpt lat="48.91836" lon="2.37875">
        <ele>31.38</ele>
        <time>2016-06-24T13:03:37Z</time>
      </trkpt>
      <trkpt lat="48.91788" lon="2.37907">
        <ele>29.46</ele>
        <time>2016-06-24T13:03:49Z</time>
      </trkpt>
      <trkpt lat="48.91784" lon="2.3791">
        <ele>29.46</ele>
        <time>2016-06-24T13:03:50Z</time>
      </trkpt>
      <trkpt lat="48.91719" lon="2.37954">
        <ele>28.02</ele>
        <time>2016-06-24T13:04:07Z</time>
      </trkpt>
      <trkpt lat="48.91672" lon="2.37982">
        <ele>28.98</ele>
        <time>2016-06-24T13:04:20Z</time>
      </trkpt>
      <trkpt lat="48.91665" lon="2.37985">
        <ele>29.46</ele>
        <time>2016-06-24T13:04:23Z</time>
      </trkpt>
      <trkpt lat="48.91664" lon="2.37987">
        <ele>29.46</ele>
        <time>2016-06-24T13:04:24Z</time>
      </trkpt>
      <trkpt lat="48.91662" lon="2.3799">
        <ele>29.46</ele>
        <time>2016-06-24T13:04:25Z</time>
      </trkpt>
      <trkpt lat="48.91661" lon="2.37992">
        <ele>29.46</ele>
        <time>2016-06-24T13:04:26Z</time>
      </trkpt>
      <trkpt lat="48.91659" lon="2.37993">
        <ele>29.46</ele>
        <time>2016-06-24T13:04:27Z</time>
      </trkpt>
      <trkpt lat="48.91656" lon="2.37995">
        <ele>29.46</ele>
        <time>2016-06-24T13:04:28Z</time>
      </trkpt>
      <trkpt lat="48.91654" lon="2.37996">
        <ele>29.94</ele>
        <time>2016-06-24T13:04:29Z</time>
      </trkpt>
      <trkpt lat="48.91651" lon="2.37998">
        <ele>29.94</ele>
        <time>2016-06-24T13:04:30Z</time>
      </trkpt>
      <trkpt lat="48.91649" lon="2.38">
        <ele>29.94</ele>
        <time>2016-06-24T13:04:31Z</time>
      </trkpt>
      <trkpt lat="48.91646" lon="2.38002">
        <ele>29.94</ele>
        <time>2016-06-24T13:04:32Z</time>
      </trkpt>
      <trkpt lat="48.91604" lon="2.38028">
        <ele>33.78</ele>
        <time>2016-06-24T13:04:46Z</time>
      </trkpt>
      <trkpt lat="48.91575" lon="2.38053">
        <ele>33.78</ele>
        <time>2016-06-24T13:04:57Z</time>
      </trkpt>
      <trkpt lat="48.91543" lon="2.38077">
        <ele>31.86</ele>
        <time>2016-06-24T13:05:10Z</time>
      </trkpt>
      <trkpt lat="48.91516" lon="2.38097">
        <ele>30.9</ele>
        <time>2016-06-24T13:05:23Z</time>
      </trkpt>
      <trkpt lat="48.91515" lon="2.38099">
        <ele>30.9</ele>
        <time>2016-06-24T13:05:24Z</time>
      </trkpt>
      <trkpt lat="48.91514" lon="2.38102">
        <ele>31.38</ele>
        <time>2016-06-24T13:05:25Z</time>
      </trkpt>
      <trkpt lat="48.91513" lon="2.38103">
        <ele>31.38</ele>
        <time>2016-06-24T13:05:26Z</time>
      </trkpt>
      <trkpt lat="48.9151" lon="2.38107">
        <ele>31.86</ele>
        <time>2016-06-24T13:05:29Z</time>
      </trkpt>
      <trkpt lat="48.91506" lon="2.38106">
        <ele>32.82</ele>
        <time>2016-06-24T13:05:44Z</time>
      </trkpt>
      <trkpt lat="48.91505" lon="2.38106">
        <ele>32.34</ele>
        <time>2016-06-24T13:05:45Z</time>
      </trkpt>
      <trkpt lat="48.91504" lon="2.38106">
        <ele>32.82</ele>
        <time>2016-06-24T13:05:46Z</time>
      </trkpt>
      <trkpt lat="48.91503" lon="2.38106">
        <ele>32.82</ele>
        <time>2016-06-24T13:05:47Z</time>
      </trkpt>
      <trkpt lat="48.91501" lon="2.38106">
        <ele>32.82</ele>
        <time>2016-06-24T13:05:48Z</time>
      </trkpt>
      <trkpt lat="48.91483" lon="2.38117">
        <ele>33.78</ele>
        <time>2016-06-24T13:05:57Z</time>
      </trkpt>
      <trkpt lat="48.91468" lon="2.38131">
        <ele>37.15</ele>
        <time>2016-06-24T13:06:11Z</time>
      </trkpt>
      <trkpt lat="48.91466" lon="2.38133">
        <ele>39.07</ele>
        <time>2016-06-24T13:06:32Z</time>
      </trkpt>
      <trkpt lat="48.91465" lon="2.38135">
        <ele>38.59</ele>
        <time>2016-06-24T13:06:33Z</time>
      </trkpt>
      <trkpt lat="48.91463" lon="2.38137">
        <ele>38.59</ele>
        <time>2016-06-24T13:06:34Z</time>
      </trkpt>
      <trkpt lat="48.9143" lon="2.38171">
        <ele>33.78</ele>
        <time>2016-06-24T13:06:47Z</time>
      </trkpt>
      <trkpt lat="48.91389" lon="2.38213">
        <ele>28.02</ele>
        <time>2016-06-24T13:07:01Z</time>
      </trkpt>
      <trkpt lat="48.91356" lon="2.3825">
        <ele>28.5</ele>
        <time>2016-06-24T13:07:15Z</time>
      </trkpt>
      <trkpt lat="48.91331" lon="2.38277">
        <ele>27.05</ele>
        <time>2016-06-24T13:07:29Z</time>
      </trkpt>
      <trkpt lat="48.91322" lon="2.38283">
        <ele>28.98</ele>
        <time>2016-06-24T13:07:41Z</time>
      </trkpt>
      <trkpt lat="48.91318" lon="2.38286">
        <ele>31.38</ele>
        <time>2016-06-24T13:07:57Z</time>
      </trkpt>
      <trkpt lat="48.91317" lon="2.38288">
        <ele>31.38</ele>
        <time>2016-06-24T13:07:58Z</time>
      </trkpt>
      <trkpt lat="48.91315" lon="2.38289">
        <ele>31.38</ele>
        <time>2016-06-24T13:07:59Z</time>
      </trkpt>
      <trkpt lat="48.91313" lon="2.38291">
        <ele>30.9</ele>
        <time>2016-06-24T13:08:00Z</time>
      </trkpt>
      <trkpt lat="48.91312" lon="2.38292">
        <ele>30.9</ele>
        <time>2016-06-24T13:08:01Z</time>
      </trkpt>
      <trkpt lat="48.9131" lon="2.38294">
        <ele>30.9</ele>
        <time>2016-06-24T13:08:02Z</time>
      </trkpt>
      <trkpt lat="48.91307" lon="2.38295">
        <ele>30.9</ele>
        <time>2016-06-24T13:08:03Z</time>
      </trkpt>
      <trkpt lat="48.91273" lon="2.38324">
        <ele>29.94</ele>
        <time>2016-06-24T13:08:15Z</time>
      </trkpt>
      <trkpt lat="48.9123" lon="2.38364">
        <ele>25.61</ele>
        <time>2016-06-24T13:08:28Z</time>
      </trkpt>
      <trkpt lat="48.91181" lon="2.38409">
        <ele>25.13</ele>
        <time>2016-06-24T13:08:42Z</time>
      </trkpt>
      <trkpt lat="48.91133" lon="2.38456">
        <ele>22.25</ele>
        <time>2016-06-24T13:08:57Z</time>
      </trkpt>
      <trkpt lat="48.91101" lon="2.38488">
        <ele>21.77</ele>
        <time>2016-06-24T13:09:10Z</time>
      </trkpt>
      <trkpt lat="48.91058" lon="2.38522">
        <ele>21.77</ele>
        <time>2016-06-24T13:09:23Z</time>
      </trkpt>
      <trkpt lat="48.91044" lon="2.38541">
        <ele>20.81</ele>
        <time>2016-06-24T13:09:28Z</time>
      </trkpt>
      <trkpt lat="48.91" lon="2.38584">
        <ele>22.25</ele>
        <time>2016-06-24T13:09:41Z</time>
      </trkpt>
      <trkpt lat="48.90945" lon="2.38637">
        <ele>24.17</ele>
        <time>2016-06-24T13:09:57Z</time>
      </trkpt>
      <trkpt lat="48.9091" lon="2.38674">
        <ele>22.73</ele>
        <time>2016-06-24T13:10:08Z</time>
      </trkpt>
      <trkpt lat="48.90906" lon="2.38678">
        <ele>22.73</ele>
        <time>2016-06-24T13:10:09Z</time>
      </trkpt>
      <trkpt lat="48.90867" lon="2.38711">
        <ele>26.09</ele>
        <time>2016-06-24T13:10:21Z</time>
      </trkpt>
      <trkpt lat="48.90846" lon="2.38737">
        <ele>29.46</ele>
        <time>2016-06-24T13:10:31Z</time>
      </trkpt>
      <trkpt lat="48.90804" lon="2.38774">
        <ele>30.9</ele>
        <time>2016-06-24T13:10:42Z</time>
      </trkpt>
      <trkpt lat="48.90764" lon="2.38813">
        <ele>33.78</ele>
        <time>2016-06-24T13:10:54Z</time>
      </trkpt>
      <trkpt lat="48.9072" lon="2.38858">
        <ele>34.26</ele>
        <time>2016-06-24T13:11:08Z</time>
      </trkpt>
      <trkpt lat="48.90672" lon="2.38906">
        <ele>34.74</ele>
        <time>2016-06-24T13:11:22Z</time>
      </trkpt>
      <trkpt lat="48.90633" lon="2.38937">
        <ele>40.03</ele>
        <time>2016-06-24T13:11:37Z</time>
      </trkpt>
      <trkpt lat="48.90623" lon="2.38944">
        <ele>43.4</ele>
        <time>2016-06-24T13:12:01Z</time>
      </trkpt>
      <trkpt lat="48.90593" lon="2.38975">
        <ele>39.55</ele>
        <time>2016-06-24T13:12:14Z</time>
      </trkpt>
      <trkpt lat="48.90562" lon="2.39014">
        <ele>28.98</ele>
        <time>2016-06-24T13:12:27Z</time>
      </trkpt>
      <trkpt lat="48.90516" lon="2.39058">
        <ele>30.9</ele>
        <time>2016-06-24T13:12:42Z</time>
      </trkpt>
      <trkpt lat="48.90482" lon="2.39088">
        <ele>34.26</ele>
        <time>2016-06-24T13:12:58Z</time>
      </trkpt>
      <trkpt lat="48.90468" lon="2.391">
        <ele>36.67</ele>
        <time>2016-06-24T13:13:12Z</time>
      </trkpt>
      <trkpt lat="48.90443" lon="2.39126">
        <ele>35.23</ele>
        <time>2016-06-24T13:13:27Z</time>
      </trkpt>
      <trkpt lat="48.90428" lon="2.39141">
        <ele>36.19</ele>
        <time>2016-06-24T13:13:38Z</time>
      </trkpt>
      <trkpt lat="48.90425" lon="2.39143">
        <ele>39.55</ele>
        <time>2016-06-24T13:13:55Z</time>
      </trkpt>
      <trkpt lat="48.90416" lon="2.39151">
        <ele>40.99</ele>
        <time>2016-06-24T13:14:22Z</time>
      </trkpt>
      <trkpt lat="48.90368" lon="2.39192">
        <ele>40.51</ele>
        <time>2016-06-24T13:14:37Z</time>
      </trkpt>
      <trkpt lat="48.90336" lon="2.39226">
        <ele>39.07</ele>
        <time>2016-06-24T13:14:51Z</time>
      </trkpt>
      <trkpt lat="48.90309" lon="2.39253">
        <ele>36.67</ele>
        <time>2016-06-24T13:15:03Z</time>
      </trkpt>
      <trkpt lat="48.90301" lon="2.39261">
        <ele>40.51</ele>
        <time>2016-06-24T13:15:15Z</time>
      </trkpt>
      <trkpt lat="48.903" lon="2.39264">
        <ele>43.88</ele>
        <time>2016-06-24T13:15:32Z</time>
      </trkpt>
      <trkpt lat="48.90285" lon="2.39278">
        <ele>44.84</ele>
        <time>2016-06-24T13:15:45Z</time>
      </trkpt>
      <trkpt lat="48.90249" lon="2.39315">
        <ele>43.4</ele>
        <time>2016-06-24T13:15:57Z</time>
      </trkpt>
      <trkpt lat="48.902" lon="2.39367">
        <ele>40.99</ele>
        <time>2016-06-24T13:16:13Z</time>
      </trkpt>
      <trkpt lat="48.90153" lon="2.39411">
        <ele>40.51</ele>
        <time>2016-06-24T13:16:26Z</time>
      </trkpt>
      <trkpt lat="48.9014" lon="2.39423">
        <ele>40.03</ele>
        <time>2016-06-24T13:16:29Z</time>
      </trkpt>
      <trkpt lat="48.90136" lon="2.39428">
        <ele>40.03</ele>
        <time>2016-06-24T13:16:30Z</time>
      </trkpt>
      <trkpt lat="48.90106" lon="2.39455">
        <ele>42.44</ele>
        <time>2016-06-24T13:16:37Z</time>
      </trkpt>
      <trkpt lat="48.90059" lon="2.39505">
        <ele>43.88</ele>
        <time>2016-06-24T13:16:50Z</time>
      </trkpt>
      <trkpt lat="48.90019" lon="2.39552">
        <ele>43.88</ele>
        <time>2016-06-24T13:17:02Z</time>
      </trkpt>
      <trkpt lat="48.89976" lon="2.39607">
        <ele>40.03</ele>
        <time>2016-06-24T13:17:18Z</time>
      </trkpt>
      <trkpt lat="48.8995" lon="2.39643">
        <ele>39.55</ele>
        <time>2016-06-24T13:17:35Z</time>
      </trkpt>
      <trkpt lat="48.89931" lon="2.39671">
        <ele>42.92</ele>
        <time>2016-06-24T13:17:48Z</time>
      </trkpt>
      <trkpt lat="48.89904" lon="2.39701">
        <ele>48.68</ele>
        <time>2016-06-24T13:18:00Z</time>
      </trkpt>
      <trkpt lat="48.89876" lon="2.39749">
        <ele>50.13</ele>
        <time>2016-06-24T13:18:16Z</time>
      </trkpt>
      <trkpt lat="48.89839" lon="2.39798">
        <ele>53.01</ele>
        <time>2016-06-24T13:18:34Z</time>
      </trkpt>
      <trkpt lat="48.89813" lon="2.39837">
        <ele>54.93</ele>
        <time>2016-06-24T13:18:50Z</time>
      </trkpt>
      <trkpt lat="48.89792" lon="2.39868">
        <ele>55.41</ele>
        <time>2016-06-24T13:19:06Z</time>
      </trkpt>
      <trkpt lat="48.89782" lon="2.39881">
        <ele>53.49</ele>
        <time>2016-06-24T13:19:18Z</time>
      </trkpt>
      <trkpt lat="48.8976" lon="2.39911">
        <ele>50.13</ele>
        <time>2016-06-24T13:19:27Z</time>
      </trkpt>
      <trkpt lat="48.89708" lon="2.39987">
        <ele>46.76</ele>
        <time>2016-06-24T13:19:43Z</time>
      </trkpt>
      <trkpt lat="48.89674" lon="2.40029">
        <ele>47.72</ele>
        <time>2016-06-24T13:19:55Z</time>
      </trkpt>
      <trkpt lat="48.89636" lon="2.40081">
        <ele>49.65</ele>
        <time>2016-06-24T13:20:13Z</time>
      </trkpt>
      <trkpt lat="48.89612" lon="2.40093">
        <ele>54.93</ele>
        <time>2016-06-24T13:20:24Z</time>
      </trkpt>
      <trkpt lat="48.89578" lon="2.40096">
        <ele>57.34</ele>
        <time>2016-06-24T13:20:39Z</time>
      </trkpt>
      <trkpt lat="48.89567" lon="2.401">
        <ele>55.89</ele>
        <time>2016-06-24T13:20:49Z</time>
      </trkpt>
      <trkpt lat="48.89557" lon="2.40109">
        <ele>54.45</ele>
        <time>2016-06-24T13:20:54Z</time>
      </trkpt>
      <trkpt lat="48.89557" lon="2.40112">
        <ele>53.97</ele>
        <time>2016-06-24T13:20:55Z</time>
      </trkpt>
      <trkpt lat="48.89556" lon="2.40115">
        <ele>53.49</ele>
        <time>2016-06-24T13:20:56Z</time>
      </trkpt>
      <trkpt lat="48.89556" lon="2.40118">
        <ele>53.01</ele>
        <time>2016-06-24T13:20:57Z</time>
      </trkpt>
      <trkpt lat="48.89555" lon="2.40121">
        <ele>52.53</ele>
        <time>2016-06-24T13:20:58Z</time>
      </trkpt>
      <trkpt lat="48.89548" lon="2.40173">
        <ele>49.65</ele>
        <time>2016-06-24T13:21:09Z</time>
      </trkpt>
      <trkpt lat="48.89543" lon="2.40183">
        <ele>49.65</ele>
        <time>2016-06-24T13:21:11Z</time>
      </trkpt>
      <trkpt lat="48.8954" lon="2.40202">
        <ele>48.68</ele>
        <time>2016-06-24T13:21:14Z</time>
      </trkpt>
      <trkpt lat="48.89541" lon="2.4022">
        <ele>46.28</ele>
        <time>2016-06-24T13:21:18Z</time>
      </trkpt>
      <trkpt lat="48.89505" lon="2.40305">
        <ele>40.99</ele>
        <time>2016-06-24T13:21:33Z</time>
      </trkpt>
      <trkpt lat="48.89493" lon="2.40336">
        <ele>40.99</ele>
        <time>2016-06-24T13:21:40Z</time>
      </trkpt>
      <trkpt lat="48.89491" lon="2.40341">
        <ele>40.99</ele>
        <time>2016-06-24T13:21:41Z</time>
      </trkpt>
      <trkpt lat="48.8949" lon="2.40346">
        <ele>40.99</ele>
        <time>2016-06-24T13:21:42Z</time>
      </trkpt>
      <trkpt lat="48.89472" lon="2.40396">
        <ele>40.51</ele>
        <time>2016-06-24T13:21:55Z</time>
      </trkpt>
      <trkpt lat="48.8946" lon="2.40447">
        <ele>41.95</ele>
        <time>2016-06-24T13:22:05Z</time>
      </trkpt>
      <trkpt lat="48.89442" lon="2.40499">
        <ele>40.51</ele>
        <time>2016-06-24T13:22:16Z</time>
      </trkpt>
      <trkpt lat="48.89436" lon="2.40532">
        <ele>43.88</ele>
        <time>2016-06-24T13:22:27Z</time>
      </trkpt>
      <trkpt lat="48.89426" lon="2.40601">
        <ele>45.32</ele>
        <time>2016-06-24T13:22:39Z</time>
      </trkpt>
      <trkpt lat="48.89418" lon="2.40681">
        <ele>45.32</ele>
        <time>2016-06-24T13:22:53Z</time>
      </trkpt>
      <trkpt lat="48.89403" lon="2.40772">
        <ele>45.8</ele>
        <time>2016-06-24T13:23:09Z</time>
      </trkpt>
      <trkpt lat="48.8939" lon="2.40863">
        <ele>44.84</ele>
        <time>2016-06-24T13:23:25Z</time>
      </trkpt>
      <trkpt lat="48.89379" lon="2.40936">
        <ele>41.47</ele>
        <time>2016-06-24T13:23:40Z</time>
      </trkpt>
      <trkpt lat="48.89376" lon="2.40942">
        <ele>43.4</ele>
        <time>2016-06-24T13:23:53Z</time>
      </trkpt>
      <trkpt lat="48.89367" lon="2.40958">
        <ele>44.84</ele>
        <time>2016-06-24T13:24:18Z</time>
      </trkpt>
      <trkpt lat="48.89364" lon="2.40959">
        <ele>45.32</ele>
        <time>2016-06-24T13:24:19Z</time>
      </trkpt>
      <trkpt lat="48.893" lon="2.40956">
        <ele>52.53</ele>
        <time>2016-06-24T13:24:37Z</time>
      </trkpt>
      <trkpt lat="48.89263" lon="2.4096">
        <ele>59.74</ele>
        <time>2016-06-24T13:24:55Z</time>
      </trkpt>
      <trkpt lat="48.89261" lon="2.40965">
        <ele>66.95</ele>
        <time>2016-06-24T13:25:18Z</time>
      </trkpt>
      <trkpt lat="48.89259" lon="2.40965">
        <ele>66.95</ele>
        <time>2016-06-24T13:25:19Z</time>
      </trkpt>
      <trkpt lat="48.89258" lon="2.40965">
        <ele>67.43</ele>
        <time>2016-06-24T13:25:20Z</time>
      </trkpt>
      <trkpt lat="48.89256" lon="2.40964">
        <ele>67.43</ele>
        <time>2016-06-24T13:25:21Z</time>
      </trkpt>
      <trkpt lat="48.89254" lon="2.40963">
        <ele>67.43</ele>
        <time>2016-06-24T13:25:22Z</time>
      </trkpt>
      <trkpt lat="48.89252" lon="2.40963">
        <ele>67.43</ele>
        <time>2016-06-24T13:25:23Z</time>
      </trkpt>
      <trkpt lat="48.8925" lon="2.40963">
        <ele>67.43</ele>
        <time>2016-06-24T13:25:24Z</time>
      </trkpt>
      <trkpt lat="48.89248" lon="2.40964">
        <ele>67.43</ele>
        <time>2016-06-24T13:25:25Z</time>
      </trkpt>
      <trkpt lat="48.89246" lon="2.40965">
        <ele>66.95</ele>
        <time>2016-06-24T13:25:26Z</time>
      </trkpt>
      <trkpt lat="48.89216" lon="2.40984">
        <ele>66.95</ele>
        <time>2016-06-24T13:25:39Z</time>
      </trkpt>
      <trkpt lat="48.89169" lon="2.4099">
        <ele>65.99</ele>
        <time>2016-06-24T13:25:53Z</time>
      </trkpt>
      <trkpt lat="48.89125" lon="2.40988">
        <ele>66.47</ele>
        <time>2016-06-24T13:26:10Z</time>
      </trkpt>
      <trkpt lat="48.89115" lon="2.40987">
        <ele>68.39</ele>
        <time>2016-06-24T13:26:23Z</time>
      </trkpt>
      <trkpt lat="48.89083" lon="2.40989">
        <ele>70.79</ele>
        <time>2016-06-24T13:26:37Z</time>
      </trkpt>
      <trkpt lat="48.89052" lon="2.40992">
        <ele>70.79</ele>
        <time>2016-06-24T13:26:47Z</time>
      </trkpt>
      <trkpt lat="48.89038" lon="2.40977">
        <ele>70.79</ele>
        <time>2016-06-24T13:26:53Z</time>
      </trkpt>
      <trkpt lat="48.88993" lon="2.41001">
        <ele>71.27</ele>
        <time>2016-06-24T13:27:06Z</time>
      </trkpt>
      <trkpt lat="48.88959" lon="2.41007">
        <ele>70.31</ele>
        <time>2016-06-24T13:27:19Z</time>
      </trkpt>
      <trkpt lat="48.88958" lon="2.41006">
        <ele>69.83</ele>
        <time>2016-06-24T13:27:33Z</time>
      </trkpt>
      <trkpt lat="48.88943" lon="2.41007">
        <ele>67.91</ele>
        <time>2016-06-24T13:27:53Z</time>
      </trkpt>
      <trkpt lat="48.88901" lon="2.4101">
        <ele>67.91</ele>
        <time>2016-06-24T13:28:07Z</time>
      </trkpt>
      <trkpt lat="48.88844" lon="2.41015">
        <ele>69.35</ele>
        <time>2016-06-24T13:28:25Z</time>
      </trkpt>
      <trkpt lat="48.88794" lon="2.41022">
        <ele>70.31</ele>
        <time>2016-06-24T13:28:40Z</time>
      </trkpt>
      <trkpt lat="48.88743" lon="2.41026">
        <ele>71.27</ele>
        <time>2016-06-24T13:28:57Z</time>
      </trkpt>
      <trkpt lat="48.88703" lon="2.41032">
        <ele>70.31</ele>
        <time>2016-06-24T13:29:15Z</time>
      </trkpt>
      <trkpt lat="48.88665" lon="2.41038">
        <ele>71.76</ele>
        <time>2016-06-24T13:29:31Z</time>
      </trkpt>
      <trkpt lat="48.88625" lon="2.41053">
        <ele>78</ele>
        <time>2016-06-24T13:29:48Z</time>
      </trkpt>
      <trkpt lat="48.88599" lon="2.41066">
        <ele>77.52</ele>
        <time>2016-06-24T13:30:01Z</time>
      </trkpt>
      <trkpt lat="48.88574" lon="2.41079">
        <ele>77.04</ele>
        <time>2016-06-24T13:30:13Z</time>
      </trkpt>
      <trkpt lat="48.88532" lon="2.41098">
        <ele>82.33</ele>
        <time>2016-06-24T13:30:32Z</time>
      </trkpt>
      <trkpt lat="48.88501" lon="2.41108">
        <ele>84.73</ele>
        <time>2016-06-24T13:30:48Z</time>
      </trkpt>
      <trkpt lat="48.88462" lon="2.41123">
        <ele>86.66</ele>
        <time>2016-06-24T13:31:05Z</time>
      </trkpt>
      <trkpt lat="48.88422" lon="2.41138">
        <ele>89.06</ele>
        <time>2016-06-24T13:31:24Z</time>
      </trkpt>
      <trkpt lat="48.88395" lon="2.41147">
        <ele>89.54</ele>
        <time>2016-06-24T13:31:38Z</time>
      </trkpt>
      <trkpt lat="48.88364" lon="2.41152">
        <ele>91.46</ele>
        <time>2016-06-24T13:31:51Z</time>
      </trkpt>
      <trkpt lat="48.88333" lon="2.41149">
        <ele>91.94</ele>
        <time>2016-06-24T13:32:05Z</time>
      </trkpt>
      <trkpt lat="48.88297" lon="2.41136">
        <ele>96.27</ele>
        <time>2016-06-24T13:32:22Z</time>
      </trkpt>
      <trkpt lat="48.88269" lon="2.41125">
        <ele>98.67</ele>
        <time>2016-06-24T13:32:36Z</time>
      </trkpt>
      <trkpt lat="48.88238" lon="2.41118">
        <ele>100.6</ele>
        <time>2016-06-24T13:32:51Z</time>
      </trkpt>
      <trkpt lat="48.88205" lon="2.41113">
        <ele>100.11</ele>
        <time>2016-06-24T13:33:07Z</time>
      </trkpt>
      <trkpt lat="48.88169" lon="2.41112">
        <ele>102.52</ele>
        <time>2016-06-24T13:33:22Z</time>
      </trkpt>
      <trkpt lat="48.88128" lon="2.41127">
        <ele>105.4</ele>
        <time>2016-06-24T13:33:39Z</time>
      </trkpt>
      <trkpt lat="48.88103" lon="2.41143">
        <ele>105.88</ele>
        <time>2016-06-24T13:33:52Z</time>
      </trkpt>
      <trkpt lat="48.88088" lon="2.41157">
        <ele>105.88</ele>
        <time>2016-06-24T13:34:01Z</time>
      </trkpt>
      <trkpt lat="48.88086" lon="2.41158">
        <ele>105.4</ele>
        <time>2016-06-24T13:34:02Z</time>
      </trkpt>
      <trkpt lat="48.88084" lon="2.41159">
        <ele>105.88</ele>
        <time>2016-06-24T13:34:03Z</time>
      </trkpt>
      <trkpt lat="48.88082" lon="2.41159">
        <ele>105.88</ele>
        <time>2016-06-24T13:34:04Z</time>
      </trkpt>
      <trkpt lat="48.88081" lon="2.4116">
        <ele>105.88</ele>
        <time>2016-06-24T13:34:05Z</time>
      </trkpt>
      <trkpt lat="48.88079" lon="2.4116">
        <ele>106.36</ele>
        <time>2016-06-24T13:34:06Z</time>
      </trkpt>
      <trkpt lat="48.88053" lon="2.41172">
        <ele>110.21</ele>
        <time>2016-06-24T13:34:22Z</time>
      </trkpt>
      <trkpt lat="48.88042" lon="2.41178">
        <ele>116.94</ele>
        <time>2016-06-24T13:34:40Z</time>
      </trkpt>
      <trkpt lat="48.88041" lon="2.41178">
        <ele>116.94</ele>
        <time>2016-06-24T13:34:41Z</time>
      </trkpt>
      <trkpt lat="48.88039" lon="2.41179">
        <ele>116.94</ele>
        <time>2016-06-24T13:34:42Z</time>
      </trkpt>
      <trkpt lat="48.88037" lon="2.4118">
        <ele>117.42</ele>
        <time>2016-06-24T13:34:43Z</time>
      </trkpt>
      <trkpt lat="48.88035" lon="2.41181">
        <ele>117.42</ele>
        <time>2016-06-24T13:34:44Z</time>
      </trkpt>
      <trkpt lat="48.88012" lon="2.41187">
        <ele>118.38</ele>
        <time>2016-06-24T13:34:56Z</time>
      </trkpt>
      <trkpt lat="48.87976" lon="2.41188">
        <ele>118.86</ele>
        <time>2016-06-24T13:35:14Z</time>
      </trkpt>
      <trkpt lat="48.87957" lon="2.412">
        <ele>120.3</ele>
        <time>2016-06-24T13:35:28Z</time>
      </trkpt>
      <trkpt lat="48.8795" lon="2.41221">
        <ele>119.82</ele>
        <time>2016-06-24T13:35:40Z</time>
      </trkpt>
      <trkpt lat="48.87949" lon="2.4122">
        <ele>121.74</ele>
        <time>2016-06-24T13:36:01Z</time>
      </trkpt>
      <trkpt lat="48.87949" lon="2.41218">
        <ele>121.74</ele>
        <time>2016-06-24T13:36:02Z</time>
      </trkpt>
      <trkpt lat="48.87949" lon="2.41215">
        <ele>122.22</ele>
        <time>2016-06-24T13:36:03Z</time>
      </trkpt>
      <trkpt lat="48.8795" lon="2.41213">
        <ele>122.22</ele>
        <time>2016-06-24T13:36:04Z</time>
      </trkpt>
      <trkpt lat="48.8795" lon="2.41207">
        <ele>122.22</ele>
        <time>2016-06-24T13:36:12Z</time>
      </trkpt>
      <trkpt lat="48.87949" lon="2.41205">
        <ele>122.71</ele>
        <time>2016-06-24T13:36:13Z</time>
      </trkpt>
      <trkpt lat="48.87948" lon="2.41203">
        <ele>122.71</ele>
        <time>2016-06-24T13:36:14Z</time>
      </trkpt>
      <trkpt lat="48.87947" lon="2.41201">
        <ele>123.19</ele>
        <time>2016-06-24T13:36:15Z</time>
      </trkpt>
      <trkpt lat="48.87945" lon="2.41199">
        <ele>123.67</ele>
        <time>2016-06-24T13:36:16Z</time>
      </trkpt>
      <trkpt lat="48.87942" lon="2.41197">
        <ele>123.67</ele>
        <time>2016-06-24T13:36:17Z</time>
      </trkpt>
      <trkpt lat="48.87913" lon="2.4119">
        <ele>124.15</ele>
        <time>2016-06-24T13:36:28Z</time>
      </trkpt>
      <trkpt lat="48.87905" lon="2.41193">
        <ele>124.15</ele>
        <time>2016-06-24T13:36:42Z</time>
      </trkpt>
      <trkpt lat="48.87902" lon="2.41202">
        <ele>124.15</ele>
        <time>2016-06-24T13:37:10Z</time>
      </trkpt>
      <trkpt lat="48.87898" lon="2.41201">
        <ele>128.95</ele>
        <time>2016-06-24T13:37:35Z</time>
      </trkpt>
      <trkpt lat="48.87884" lon="2.41197">
        <ele>131.84</ele>
        <time>2016-06-24T13:37:40Z</time>
      </trkpt>
      <trkpt lat="48.87882" lon="2.41195">
        <ele>132.8</ele>
        <time>2016-06-24T13:37:41Z</time>
      </trkpt>
      <trkpt lat="48.8788" lon="2.41193">
        <ele>133.28</ele>
        <time>2016-06-24T13:37:42Z</time>
      </trkpt>
      <trkpt lat="48.87878" lon="2.4119">
        <ele>134.24</ele>
        <time>2016-06-24T13:37:43Z</time>
      </trkpt>
      <trkpt lat="48.87876" lon="2.41186">
        <ele>134.72</ele>
        <time>2016-06-24T13:37:44Z</time>
      </trkpt>
      <trkpt lat="48.87874" lon="2.41182">
        <ele>134.72</ele>
        <time>2016-06-24T13:37:45Z</time>
      </trkpt>
      <trkpt lat="48.87857" lon="2.41127">
        <ele>134.72</ele>
        <time>2016-06-24T13:37:58Z</time>
      </trkpt>
      <trkpt lat="48.87845" lon="2.41084">
        <ele>140.01</ele>
        <time>2016-06-24T13:38:11Z</time>
      </trkpt>
      <trkpt lat="48.87834" lon="2.41039">
        <ele>138.09</ele>
        <time>2016-06-24T13:38:22Z</time>
      </trkpt>
      <trkpt lat="48.8783" lon="2.41053">
        <ele>136.64</ele>
        <time>2016-06-24T13:38:33Z</time>
      </trkpt>
      <trkpt lat="48.8783" lon="2.41059">
        <ele>137.13</ele>
        <time>2016-06-24T13:38:35Z</time>
      </trkpt>
      <trkpt lat="48.87829" lon="2.41062">
        <ele>137.13</ele>
        <time>2016-06-24T13:38:36Z</time>
      </trkpt>
      <trkpt lat="48.8783" lon="2.41065">
        <ele>137.13</ele>
        <time>2016-06-24T13:38:37Z</time>
      </trkpt>
      <trkpt lat="48.8783" lon="2.41069">
        <ele>136.64</ele>
        <time>2016-06-24T13:38:38Z</time>
      </trkpt>
      <trkpt lat="48.8783" lon="2.41073">
        <ele>136.16</ele>
        <time>2016-06-24T13:38:39Z</time>
      </trkpt>
      <trkpt lat="48.8783" lon="2.41075">
        <ele>135.68</ele>
        <time>2016-06-24T13:38:40Z</time>
      </trkpt>
      <trkpt lat="48.87809" lon="2.41085">
        <ele>133.28</ele>
        <time>2016-06-24T13:38:50Z</time>
      </trkpt>
      <trkpt lat="48.87773" lon="2.41115">
        <ele>132.8</ele>
        <time>2016-06-24T13:39:03Z</time>
      </trkpt>
      <trkpt lat="48.87736" lon="2.41145">
        <ele>133.28</ele>
        <time>2016-06-24T13:39:18Z</time>
      </trkpt>
      <trkpt lat="48.87708" lon="2.41164">
        <ele>137.13</ele>
        <time>2016-06-24T13:39:32Z</time>
      </trkpt>
      <trkpt lat="48.87671" lon="2.41201">
        <ele>130.88</ele>
        <time>2016-06-24T13:39:46Z</time>
      </trkpt>
      <trkpt lat="48.87637" lon="2.41216">
        <ele>129.43</ele>
        <time>2016-06-24T13:39:59Z</time>
      </trkpt>
      <trkpt lat="48.87601" lon="2.41232">
        <ele>132.8</ele>
        <time>2016-06-24T13:40:10Z</time>
      </trkpt>
      <trkpt lat="48.8754" lon="2.41259">
        <ele>126.55</ele>
        <time>2016-06-24T13:40:27Z</time>
      </trkpt>
      <trkpt lat="48.87507" lon="2.4127">
        <ele>124.15</ele>
        <time>2016-06-24T13:40:41Z</time>
      </trkpt>
      <trkpt lat="48.87468" lon="2.41282">
        <ele>124.15</ele>
        <time>2016-06-24T13:40:53Z</time>
      </trkpt>
      <trkpt lat="48.87406" lon="2.41302">
        <ele>124.63</ele>
        <time>2016-06-24T13:41:09Z</time>
      </trkpt>
      <trkpt lat="48.87375" lon="2.41318">
        <ele>124.15</ele>
        <time>2016-06-24T13:41:18Z</time>
      </trkpt>
      <trkpt lat="48.87315" lon="2.41335">
        <ele>123.19</ele>
        <time>2016-06-24T13:41:32Z</time>
      </trkpt>
      <trkpt lat="48.87311" lon="2.41336">
        <ele>123.67</ele>
        <time>2016-06-24T13:41:33Z</time>
      </trkpt>
      <trkpt lat="48.87308" lon="2.41338">
        <ele>123.67</ele>
        <time>2016-06-24T13:41:34Z</time>
      </trkpt>
      <trkpt lat="48.87304" lon="2.41339">
        <ele>123.67</ele>
        <time>2016-06-24T13:41:35Z</time>
      </trkpt>
      <trkpt lat="48.87301" lon="2.41339">
        <ele>123.67</ele>
        <time>2016-06-24T13:41:36Z</time>
      </trkpt>
      <trkpt lat="48.87298" lon="2.4134">
        <ele>123.67</ele>
        <time>2016-06-24T13:41:37Z</time>
      </trkpt>
      <trkpt lat="48.87295" lon="2.41341">
        <ele>123.67</ele>
        <time>2016-06-24T13:41:38Z</time>
      </trkpt>
      <trkpt lat="48.87291" lon="2.41342">
        <ele>123.19</ele>
        <time>2016-06-24T13:41:39Z</time>
      </trkpt>
      <trkpt lat="48.87288" lon="2.41343">
        <ele>123.19</ele>
        <time>2016-06-24T13:41:40Z</time>
      </trkpt>
      <trkpt lat="48.87225" lon="2.41358">
        <ele>120.3</ele>
        <time>2016-06-24T13:41:56Z</time>
      </trkpt>
      <trkpt lat="48.87135" lon="2.41366">
        <ele>116.46</ele>
        <time>2016-06-24T13:42:12Z</time>
      </trkpt>
      <trkpt lat="48.87101" lon="2.41371">
        <ele>112.61</ele>
        <time>2016-06-24T13:42:19Z</time>
      </trkpt>
      <trkpt lat="48.87092" lon="2.41375">
        <ele>111.65</ele>
        <time>2016-06-24T13:42:21Z</time>
      </trkpt>
      <trkpt lat="48.87076" lon="2.41382">
        <ele>109.25</ele>
        <time>2016-06-24T13:42:25Z</time>
      </trkpt>
      <trkpt lat="48.87009" lon="2.4139">
        <ele>105.4</ele>
        <time>2016-06-24T13:42:37Z</time>
      </trkpt>
      <trkpt lat="48.8691" lon="2.41399">
        <ele>100.6</ele>
        <time>2016-06-24T13:42:52Z</time>
      </trkpt>
      <trkpt lat="48.86866" lon="2.41401">
        <ele>99.63</ele>
        <time>2016-06-24T13:42:58Z</time>
      </trkpt>
      <trkpt lat="48.86853" lon="2.41403">
        <ele>98.67</ele>
        <time>2016-06-24T13:43:00Z</time>
      </trkpt>
      <trkpt lat="48.86826" lon="2.41398">
        <ele>96.75</ele>
        <time>2016-06-24T13:43:08Z</time>
      </trkpt>
      <trkpt lat="48.86825" lon="2.41398">
        <ele>96.27</ele>
        <time>2016-06-24T13:43:21Z</time>
      </trkpt>
      <trkpt lat="48.86823" lon="2.41398">
        <ele>95.79</ele>
        <time>2016-06-24T13:43:25Z</time>
      </trkpt>
      <trkpt lat="48.86793" lon="2.41403">
        <ele>95.79</ele>
        <time>2016-06-24T13:43:36Z</time>
      </trkpt>
      <trkpt lat="48.86781" lon="2.41405">
        <ele>96.27</ele>
        <time>2016-06-24T13:43:40Z</time>
      </trkpt>
      <trkpt lat="48.86779" lon="2.41405">
        <ele>96.75</ele>
        <time>2016-06-24T13:43:41Z</time>
      </trkpt>
      <trkpt lat="48.86778" lon="2.41406">
        <ele>96.75</ele>
        <time>2016-06-24T13:43:42Z</time>
      </trkpt>
      <trkpt lat="48.86773" lon="2.41411">
        <ele>93.87</ele>
        <time>2016-06-24T13:43:54Z</time>
      </trkpt>
      <trkpt lat="48.86774" lon="2.41412">
        <ele>93.87</ele>
        <time>2016-06-24T13:43:55Z</time>
      </trkpt>
      <trkpt lat="48.86776" lon="2.41414">
        <ele>93.87</ele>
        <time>2016-06-24T13:43:56Z</time>
      </trkpt>
      <trkpt lat="48.86778" lon="2.41415">
        <ele>93.87</ele>
        <time>2016-06-24T13:43:57Z</time>
      </trkpt>
      <trkpt lat="48.8678" lon="2.41416">
        <ele>93.87</ele>
        <time>2016-06-24T13:43:58Z</time>
      </trkpt>
      <trkpt lat="48.86782" lon="2.41416">
        <ele>93.39</ele>
        <time>2016-06-24T13:43:59Z</time>
      </trkpt>
      <trkpt lat="48.86784" lon="2.41417">
        <ele>91.94</ele>
        <time>2016-06-24T13:44:00Z</time>
      </trkpt>
      <trkpt lat="48.86785" lon="2.41418">
        <ele>90.02</ele>
        <time>2016-06-24T13:44:01Z</time>
      </trkpt>
      <trkpt lat="48.86789" lon="2.41419">
        <ele>84.73</ele>
        <time>2016-06-24T13:44:04Z</time>
      </trkpt>
      <trkpt lat="48.8679" lon="2.4142">
        <ele>83.29</ele>
        <time>2016-06-24T13:44:05Z</time>
      </trkpt>
      <trkpt lat="48.86792" lon="2.41421">
        <ele>79.45</ele>
        <time>2016-06-24T13:44:07Z</time>
      </trkpt>
      <trkpt lat="48.86816" lon="2.41452">
        <ele>76.08</ele>
        <time>2016-06-24T13:44:19Z</time>
      </trkpt>
      <trkpt lat="48.86833" lon="2.41474">
        <ele>75.6</ele>
        <time>2016-06-24T13:44:28Z</time>
      </trkpt>
      <trkpt lat="48.86833" lon="2.41477">
        <ele>76.08</ele>
        <time>2016-06-24T13:44:29Z</time>
      </trkpt>
      <trkpt lat="48.86832" lon="2.4148">
        <ele>76.08</ele>
        <time>2016-06-24T13:44:30Z</time>
      </trkpt>
      <trkpt lat="48.86831" lon="2.41483">
        <ele>76.56</ele>
        <time>2016-06-24T13:44:31Z</time>
      </trkpt>
      <trkpt lat="48.8683" lon="2.41486">
        <ele>77.04</ele>
        <time>2016-06-24T13:44:32Z</time>
      </trkpt>
      <trkpt lat="48.86829" lon="2.4149">
        <ele>77.04</ele>
        <time>2016-06-24T13:44:33Z</time>
      </trkpt>
      <trkpt lat="48.86827" lon="2.41495">
        <ele>77.52</ele>
        <time>2016-06-24T13:44:34Z</time>
      </trkpt>
      <trkpt lat="48.86813" lon="2.41541">
        <ele>77.04</ele>
        <time>2016-06-24T13:44:43Z</time>
      </trkpt>
      <trkpt lat="48.86798" lon="2.41573">
        <ele>77.52</ele>
        <time>2016-06-24T13:44:55Z</time>
      </trkpt>
      <trkpt lat="48.86785" lon="2.41595">
        <ele>75.12</ele>
        <time>2016-06-24T13:45:02Z</time>
      </trkpt>
      <trkpt lat="48.86784" lon="2.41598">
        <ele>75.12</ele>
        <time>2016-06-24T13:45:03Z</time>
      </trkpt>
      <trkpt lat="48.86782" lon="2.41599">
        <ele>74.64</ele>
        <time>2016-06-24T13:45:04Z</time>
      </trkpt>
      <trkpt lat="48.86781" lon="2.41599">
        <ele>75.12</ele>
        <time>2016-06-24T13:45:05Z</time>
      </trkpt>
      <trkpt lat="48.86768" lon="2.41597">
        <ele>78.97</ele>
        <time>2016-06-24T13:45:17Z</time>
      </trkpt>
      <trkpt lat="48.86732" lon="2.41598">
        <ele>81.37</ele>
        <time>2016-06-24T13:45:30Z</time>
      </trkpt>
      <trkpt lat="48.86703" lon="2.41597">
        <ele>75.12</ele>
        <time>2016-06-24T13:45:36Z</time>
      </trkpt>
      <trkpt lat="48.86683" lon="2.4161">
        <ele>77.52</ele>
        <time>2016-06-24T13:45:42Z</time>
      </trkpt>
      <trkpt lat="48.86678" lon="2.41614">
        <ele>77.52</ele>
        <time>2016-06-24T13:45:43Z</time>
      </trkpt>
      <trkpt lat="48.86673" lon="2.41617">
        <ele>78</ele>
        <time>2016-06-24T13:45:44Z</time>
      </trkpt>
      <trkpt lat="48.8667" lon="2.41618">
        <ele>78.48</ele>
        <time>2016-06-24T13:45:45Z</time>
      </trkpt>
      <trkpt lat="48.86668" lon="2.41618">
        <ele>78.97</ele>
        <time>2016-06-24T13:45:46Z</time>
      </trkpt>
      <trkpt lat="48.86667" lon="2.41618">
        <ele>79.45</ele>
        <time>2016-06-24T13:45:47Z</time>
      </trkpt>
      <trkpt lat="48.86665" lon="2.41618">
        <ele>79.45</ele>
        <time>2016-06-24T13:45:48Z</time>
      </trkpt>
      <trkpt lat="48.86663" lon="2.41618">
        <ele>79.93</ele>
        <time>2016-06-24T13:45:49Z</time>
      </trkpt>
      <trkpt lat="48.86662" lon="2.41617">
        <ele>79.93</ele>
        <time>2016-06-24T13:45:50Z</time>
      </trkpt>
      <trkpt lat="48.86661" lon="2.41621">
        <ele>80.89</ele>
        <time>2016-06-24T13:46:00Z</time>
      </trkpt>
      <trkpt lat="48.8666" lon="2.41613">
        <ele>86.66</ele>
        <time>2016-06-24T13:46:12Z</time>
      </trkpt>
      <trkpt lat="48.86663" lon="2.41606">
        <ele>90.98</ele>
        <time>2016-06-24T13:46:25Z</time>
      </trkpt>
      <trkpt lat="48.86666" lon="2.41616">
        <ele>90.02</ele>
        <time>2016-06-24T13:46:45Z</time>
      </trkpt>
      <trkpt lat="48.86679" lon="2.41518">
        <ele>85.21</ele>
        <time>2016-06-24T13:59:00Z</time>
      </trkpt>
      <trkpt lat="48.86682" lon="2.41552">
        <ele>117.42</ele>
        <time>2016-06-24T13:59:21Z</time>
      </trkpt>
      <trkpt lat="48.86671" lon="2.41568">
        <ele>121.74</ele>
        <time>2016-06-24T13:59:49Z</time>
      </trkpt>
      <trkpt lat="48.86674" lon="2.41605">
        <ele>121.74</ele>
        <time>2016-06-24T14:00:19Z</time>
      </trkpt>
      <trkpt lat="48.86674" lon="2.4161">
        <ele>121.74</ele>
        <time>2016-06-24T14:00:22Z</time>
      </trkpt>
      <trkpt lat="48.86674" lon="2.41622">
        <ele>130.4</ele>
        <time>2016-06-24T14:00:45Z</time>
      </trkpt>
      <trkpt lat="48.86671" lon="2.41637">
        <ele>130.4</ele>
        <time>2016-06-24T14:01:08Z</time>
      </trkpt>
      <trkpt lat="48.86667" lon="2.41639">
        <ele>130.4</ele>
        <time>2016-06-24T14:01:21Z</time>
      </trkpt>
    </trkseg>
  </trk>
</gpx>